<?xml version='1.0' encoding='UTF-8'?><gpx version="1.1" creator="JPX - https://github.com/jenetics/jpx" xmlns="http://www.topografix.com/GPX/1/1"><trk><trkseg><trkpt lat="45.68846958003335" lon="8.22736022296312"><ele>420.0</ele><time>2026-05-03T09:41:01Z</time></trkpt><trkpt lat="45.6884205932719" lon="8.227572220825794"><ele>420.0</ele><time>2026-05-03T09:41:03Z</time></trkpt><trkpt lat="45.688405553828595" lon="8.227709408495874"><ele>420.0</ele><time>2026-05-03T09:41:04Z</time></trkpt><trkpt lat="45.68838733079374" lon="8.227856657344049"><ele>420.0</ele><time>2026-05-03T09:41:05Z</time></trkpt><trkpt lat="45.688360032172824" lon="8.227996708605556"><ele>420.75</ele><time>2026-05-03T09:41:06Z</time></trkpt><trkpt lat="45.688311387850916" lon="8.228143343186199"><ele>421.5</ele><time>2026-05-03T09:41:07Z</time></trkpt><trkpt lat="45.68824672599235" lon="8.228291417814686"><ele>422.25</ele><time>2026-05-03T09:41:08Z</time></trkpt><trkpt lat="45.68818495624271" lon="8.22843576967467"><ele>423.0</ele><time>2026-05-03T09:41:09Z</time></trkpt><trkpt lat="45.68812688365071" lon="8.228575987176207"><ele>423.0</ele><time>2026-05-03T09:41:10Z</time></trkpt><trkpt lat="45.688071485919714" lon="8.228710905886963"><ele>423.0</ele><time>2026-05-03T09:41:11Z</time></trkpt><trkpt lat="45.68803030552454" lon="8.228857743406037"><ele>423.0</ele><time>2026-05-03T09:41:12Z</time></trkpt><trkpt lat="45.68797239969083" lon="8.228981280439609"><ele>423.0</ele><time>2026-05-03T09:41:13Z</time></trkpt><trkpt lat="45.68793180583665" lon="8.22908598625125"><ele>423.0</ele><time>2026-05-03T09:41:14Z</time></trkpt><trkpt lat="45.68789967512531" lon="8.22920512322683"><ele>425.0</ele><time>2026-05-03T09:41:15Z</time></trkpt><trkpt lat="45.68789020590622" lon="8.229331503261488"><ele>427.0</ele><time>2026-05-03T09:41:16Z</time></trkpt><trkpt lat="45.68790638244644" lon="8.229478756480097"><ele>428.99999999999994</ele><time>2026-05-03T09:41:17Z</time></trkpt><trkpt lat="45.68792791774233" lon="8.229641338909424"><ele>431.0</ele><time>2026-05-03T09:41:18Z</time></trkpt><trkpt lat="45.68795123658668" lon="8.229791799906817"><ele>433.0</ele><time>2026-05-03T09:41:19Z</time></trkpt><trkpt lat="45.687968501101025" lon="8.229935123775771"><ele>433.0</ele><time>2026-05-03T09:41:20Z</time></trkpt><trkpt lat="45.687986086698146" lon="8.230091747903508"><ele>433.0</ele><time>2026-05-03T09:41:21Z</time></trkpt><trkpt lat="45.688003796523574" lon="8.230252500371796"><ele>433.0</ele><time>2026-05-03T09:41:22Z</time></trkpt><trkpt lat="45.68802947110036" lon="8.230424251474023"><ele>433.0</ele><time>2026-05-03T09:41:23Z</time></trkpt><trkpt lat="45.68804135872328" lon="8.2306324272225"><ele>431.5</ele><time>2026-05-03T09:41:24Z</time></trkpt><trkpt lat="45.6880554644246" lon="8.230844064950476"><ele>430.0</ele><time>2026-05-03T09:41:25Z</time></trkpt><trkpt lat="45.68805636282336" lon="8.231030155979797"><ele>428.5</ele><time>2026-05-03T09:41:26Z</time></trkpt><trkpt lat="45.68803620523933" lon="8.231208301756691"><ele>427.0</ele><time>2026-05-03T09:41:27Z</time></trkpt><trkpt lat="45.68796895186597" lon="8.23138369787696"><ele>428.0</ele><time>2026-05-03T09:41:28Z</time></trkpt><trkpt lat="45.687888649556" lon="8.23155633202783"><ele>429.0</ele><time>2026-05-03T09:41:29Z</time></trkpt><trkpt lat="45.687812115120096" lon="8.231736510419417"><ele>430.0</ele><time>2026-05-03T09:41:30Z</time></trkpt><trkpt lat="45.68774056460098" lon="8.231891594747577"><ele>431.0</ele><time>2026-05-03T09:41:31Z</time></trkpt><trkpt lat="45.68767550410531" lon="8.23202870935304"><ele>431.0</ele><time>2026-05-03T09:41:32Z</time></trkpt><trkpt lat="45.68760942926148" lon="8.232162970030508"><ele>431.0</ele><time>2026-05-03T09:41:33Z</time></trkpt><trkpt lat="45.68754829074691" lon="8.232281534899178"><ele>431.0</ele><time>2026-05-03T09:41:34Z</time></trkpt><trkpt lat="45.68748020229686" lon="8.232387099324717"><ele>431.0</ele><time>2026-05-03T09:41:35Z</time></trkpt><trkpt lat="45.68741359418137" lon="8.232488828964513"><ele>431.0</ele><time>2026-05-03T09:41:36Z</time></trkpt><trkpt lat="45.68732312816043" lon="8.232572749843586"><ele>428.4</ele><time>2026-05-03T09:41:37Z</time></trkpt><trkpt lat="45.68723569858539" lon="8.232659849586177"><ele>425.8</ele><time>2026-05-03T09:41:38Z</time></trkpt><trkpt lat="45.68715061121619" lon="8.232749647100418"><ele>423.2</ele><time>2026-05-03T09:41:39Z</time></trkpt><trkpt lat="45.687056734630566" lon="8.2328135542336"><ele>420.59999999999997</ele><time>2026-05-03T09:41:40Z</time></trkpt><trkpt lat="45.68696923219583" lon="8.232871806983967"><ele>418.0</ele><time>2026-05-03T09:41:41Z</time></trkpt><trkpt lat="45.68689121762007" lon="8.232924899730461"><ele>417.83333333333337</ele><time>2026-05-03T09:41:42Z</time></trkpt><trkpt lat="45.68681764166821" lon="8.232975337835612"><ele>417.6666666666667</ele><time>2026-05-03T09:41:43Z</time></trkpt><trkpt lat="45.68674702898974" lon="8.233019716610437"><ele>417.5</ele><time>2026-05-03T09:41:44Z</time></trkpt><trkpt lat="45.686666115472775" lon="8.233057438172134"><ele>417.33333333333337</ele><time>2026-05-03T09:41:45Z</time></trkpt><trkpt lat="45.68657104665073" lon="8.233079551130176"><ele>417.1666666666667</ele><time>2026-05-03T09:41:46Z</time></trkpt><trkpt lat="45.68646752930124" lon="8.233089358548208"><ele>417.0</ele><time>2026-05-03T09:41:47Z</time></trkpt><trkpt lat="45.68637121806495" lon="8.233120617557155"><ele>414.40000000000003</ele><time>2026-05-03T09:41:48Z</time></trkpt><trkpt lat="45.68629170527228" lon="8.23317535773888"><ele>411.8</ele><time>2026-05-03T09:41:49Z</time></trkpt><trkpt lat="45.68622314805817" lon="8.233251709703973"><ele>409.2</ele><time>2026-05-03T09:41:50Z</time></trkpt><trkpt lat="45.686171392426324" lon="8.233335833169958"><ele>406.6</ele><time>2026-05-03T09:41:51Z</time></trkpt><trkpt lat="45.6861072815116" lon="8.233457873212794"><ele>404.0</ele><time>2026-05-03T09:41:52Z</time></trkpt><trkpt lat="45.68603812751069" lon="8.233595486485624"><ele>403.75</ele><time>2026-05-03T09:41:53Z</time></trkpt><trkpt lat="45.685958355759944" lon="8.233738564626035"><ele>403.5</ele><time>2026-05-03T09:41:54Z</time></trkpt><trkpt lat="45.68586705945726" lon="8.233880838451803"><ele>403.25</ele><time>2026-05-03T09:41:55Z</time></trkpt><trkpt lat="45.68577652572232" lon="8.234017931063999"><ele>403.0</ele><time>2026-05-03T09:41:56Z</time></trkpt><trkpt lat="45.68569815672168" lon="8.234158279103324"><ele>402.25</ele><time>2026-05-03T09:41:57Z</time></trkpt><trkpt lat="45.68561780832693" lon="8.234291732070957"><ele>401.5</ele><time>2026-05-03T09:41:58Z</time></trkpt><trkpt lat="45.685538050401" lon="8.23442909378618"><ele>400.75</ele><time>2026-05-03T09:41:59Z</time></trkpt><trkpt lat="45.68544688765688" lon="8.234549350916959"><ele>400.0</ele><time>2026-05-03T09:42:00Z</time></trkpt><trkpt lat="45.685369108719534" lon="8.234674343836762"><ele>400.0</ele><time>2026-05-03T09:42:01Z</time></trkpt><trkpt lat="45.68529639066704" lon="8.234790474658691"><ele>400.0</ele><time>2026-05-03T09:42:02Z</time></trkpt><trkpt lat="45.68522948106117" lon="8.234907517860881"><ele>400.0</ele><time>2026-05-03T09:42:03Z</time></trkpt><trkpt lat="45.68516379227452" lon="8.235018551551551"><ele>400.0</ele><time>2026-05-03T09:42:04Z</time></trkpt><trkpt lat="45.68508817245617" lon="8.235133885396746"><ele>400.0</ele><time>2026-05-03T09:42:05Z</time></trkpt><trkpt lat="45.68501283431327" lon="8.235248906422294"><ele>399.75</ele><time>2026-05-03T09:42:06Z</time></trkpt><trkpt lat="45.68493057739364" lon="8.235386979725662"><ele>399.5</ele><time>2026-05-03T09:42:07Z</time></trkpt><trkpt lat="45.68483955394438" lon="8.235542650025803"><ele>399.25</ele><time>2026-05-03T09:42:08Z</time></trkpt><trkpt lat="45.6847609169786" lon="8.235696302843381"><ele>399.0</ele><time>2026-05-03T09:42:09Z</time></trkpt><trkpt lat="45.6846627688071" lon="8.235840297412514"><ele>399.75</ele><time>2026-05-03T09:42:10Z</time></trkpt><trkpt lat="45.68458387586313" lon="8.236006529034963"><ele>400.5</ele><time>2026-05-03T09:42:11Z</time></trkpt><trkpt lat="45.68452263141684" lon="8.236173636884354"><ele>401.25</ele><time>2026-05-03T09:42:12Z</time></trkpt><trkpt lat="45.68444758072277" lon="8.236305337495722"><ele>402.0</ele><time>2026-05-03T09:42:13Z</time></trkpt><trkpt lat="45.68438877395942" lon="8.236434735784004"><ele>400.20000000000005</ele><time>2026-05-03T09:42:14Z</time></trkpt><trkpt lat="45.68433280714897" lon="8.236557157356183"><ele>398.4</ele><time>2026-05-03T09:42:15Z</time></trkpt><trkpt lat="45.68427917485518" lon="8.236674472411163"><ele>396.6</ele><time>2026-05-03T09:42:16Z</time></trkpt><trkpt lat="45.68423833410105" lon="8.236796386935172"><ele>394.79999999999995</ele><time>2026-05-03T09:42:17Z</time></trkpt><trkpt lat="45.68418233832017" lon="8.236910936241129"><ele>393.0</ele><time>2026-05-03T09:42:18Z</time></trkpt><trkpt lat="45.684131407034286" lon="8.237037896801978"><ele>393.0</ele><time>2026-05-03T09:42:19Z</time></trkpt><trkpt lat="45.68407629587723" lon="8.237152926061276"><ele>393.0</ele><time>2026-05-03T09:42:20Z</time></trkpt><trkpt lat="45.684016462198734" lon="8.237261365090188"><ele>393.0</ele><time>2026-05-03T09:42:21Z</time></trkpt><trkpt lat="45.68396499237256" lon="8.237376224280025"><ele>393.0</ele><time>2026-05-03T09:42:22Z</time></trkpt><trkpt lat="45.68391633253108" lon="8.237484812863967"><ele>393.0</ele><time>2026-05-03T09:42:23Z</time></trkpt><trkpt lat="45.6838681298939" lon="8.23762635141291"><ele>392.75</ele><time>2026-05-03T09:42:24Z</time></trkpt><trkpt lat="45.68379697045321" lon="8.237771783764645"><ele>392.5</ele><time>2026-05-03T09:42:25Z</time></trkpt><trkpt lat="45.68372919871701" lon="8.23793050442386"><ele>392.25</ele><time>2026-05-03T09:42:26Z</time></trkpt><trkpt lat="45.68363799319306" lon="8.238089233034932"><ele>392.0</ele><time>2026-05-03T09:42:27Z</time></trkpt><trkpt lat="45.68355452664041" lon="8.238271351450996"><ele>391.66666666666663</ele><time>2026-05-03T09:42:28Z</time></trkpt><trkpt lat="45.68346718017847" lon="8.238463378302084"><ele>391.33333333333337</ele><time>2026-05-03T09:42:29Z</time></trkpt><trkpt lat="45.68337809061579" lon="8.238664454145692"><ele>391.0</ele><time>2026-05-03T09:42:30Z</time></trkpt><trkpt lat="45.68330404434348" lon="8.238837097118621"><ele>390.8</ele><time>2026-05-03T09:42:31Z</time></trkpt><trkpt lat="45.68324946024217" lon="8.239008603993012"><ele>390.6</ele><time>2026-05-03T09:42:32Z</time></trkpt><trkpt lat="45.683175173359224" lon="8.239153685716575"><ele>390.4</ele><time>2026-05-03T09:42:33Z</time></trkpt><trkpt lat="45.683115056460565" lon="8.239278439148967"><ele>390.2</ele><time>2026-05-03T09:42:34Z</time></trkpt><trkpt lat="45.683077019728906" lon="8.239372788524527"><ele>390.0</ele><time>2026-05-03T09:42:35Z</time></trkpt><trkpt lat="45.68304290821989" lon="8.239482309068363"><ele>390.0</ele><time>2026-05-03T09:42:37Z</time></trkpt><trkpt lat="45.683085862843605" lon="8.2396715316503"><ele>390.0</ele><time>2026-05-03T09:42:40Z</time></trkpt><trkpt lat="45.68315392819621" lon="8.239783961128005"><ele>390.0</ele><time>2026-05-03T09:42:41Z</time></trkpt><trkpt lat="45.683217093995054" lon="8.23988330237222"><ele>390.0</ele><time>2026-05-03T09:42:42Z</time></trkpt><trkpt lat="45.683283085539514" lon="8.240012970809364"><ele>390.0</ele><time>2026-05-03T09:42:43Z</time></trkpt><trkpt lat="45.68335112002676" lon="8.240154726676261"><ele>390.0</ele><time>2026-05-03T09:42:44Z</time></trkpt><trkpt lat="45.68342131465499" lon="8.240289720877715"><ele>390.0</ele><time>2026-05-03T09:42:45Z</time></trkpt><trkpt lat="45.683497034848365" lon="8.240424726600532"><ele>390.0</ele><time>2026-05-03T09:42:46Z</time></trkpt><trkpt lat="45.68357464472743" lon="8.240563999327234"><ele>390.0</ele><time>2026-05-03T09:42:47Z</time></trkpt><trkpt lat="45.68365120921922" lon="8.240706669609654"><ele>390.0</ele><time>2026-05-03T09:42:48Z</time></trkpt><trkpt lat="45.68371876349305" lon="8.24083334677797"><ele>390.0</ele><time>2026-05-03T09:42:49Z</time></trkpt><trkpt lat="45.683785317363544" lon="8.240968462711525"><ele>390.0</ele><time>2026-05-03T09:42:50Z</time></trkpt><trkpt lat="45.68386423062412" lon="8.24110516182361"><ele>390.0</ele><time>2026-05-03T09:42:51Z</time></trkpt><trkpt lat="45.68393059103466" lon="8.241246712364102"><ele>390.0</ele><time>2026-05-03T09:42:52Z</time></trkpt><trkpt lat="45.68399786471376" lon="8.241383599218635"><ele>390.0</ele><time>2026-05-03T09:42:53Z</time></trkpt><trkpt lat="45.684072019439775" lon="8.241522418249174"><ele>390.0</ele><time>2026-05-03T09:42:54Z</time></trkpt><trkpt lat="45.68415011251146" lon="8.241668729708511"><ele>390.0</ele><time>2026-05-03T09:42:55Z</time></trkpt><trkpt lat="45.684235797554024" lon="8.241823306625422"><ele>390.25</ele><time>2026-05-03T09:42:56Z</time></trkpt><trkpt lat="45.68431477213625" lon="8.241972123139622"><ele>390.5</ele><time>2026-05-03T09:42:57Z</time></trkpt><trkpt lat="45.6843822208628" lon="8.242107904128076"><ele>390.75</ele><time>2026-05-03T09:42:58Z</time></trkpt><trkpt lat="45.684433237930065" lon="8.242248140769945"><ele>391.0</ele><time>2026-05-03T09:42:59Z</time></trkpt><trkpt lat="45.68447616185351" lon="8.242399000583365"><ele>390.5</ele><time>2026-05-03T09:43:00Z</time></trkpt><trkpt lat="45.68451494076294" lon="8.242576311062006"><ele>390.0</ele><time>2026-05-03T09:43:01Z</time></trkpt><trkpt lat="45.68456297654867" lon="8.242755802034942"><ele>389.5</ele><time>2026-05-03T09:43:02Z</time></trkpt><trkpt lat="45.684604243863404" lon="8.242944716718068"><ele>389.0</ele><time>2026-05-03T09:43:03Z</time></trkpt><trkpt lat="45.684648280269315" lon="8.243138221598105"><ele>389.0</ele><time>2026-05-03T09:43:04Z</time></trkpt><trkpt lat="45.68469645019434" lon="8.243323629715958"><ele>389.0</ele><time>2026-05-03T09:43:05Z</time></trkpt><trkpt lat="45.68474399005793" lon="8.24351486742782"><ele>389.0</ele><time>2026-05-03T09:43:06Z</time></trkpt><trkpt lat="45.68479098694695" lon="8.243694893977253"><ele>389.0</ele><time>2026-05-03T09:43:07Z</time></trkpt><trkpt lat="45.68483821083485" lon="8.243867738711376"><ele>388.5</ele><time>2026-05-03T09:43:08Z</time></trkpt><trkpt lat="45.68487796316928" lon="8.244041963391833"><ele>388.0</ele><time>2026-05-03T09:43:09Z</time></trkpt><trkpt lat="45.6849203607839" lon="8.244217180561796"><ele>387.5</ele><time>2026-05-03T09:43:10Z</time></trkpt><trkpt lat="45.684975520423535" lon="8.244415567653418"><ele>387.0</ele><time>2026-05-03T09:43:11Z</time></trkpt><trkpt lat="45.6850337955324" lon="8.244634239699947"><ele>386.66666666666663</ele><time>2026-05-03T09:43:12Z</time></trkpt><trkpt lat="45.68508397237552" lon="8.244847079369285"><ele>386.3333333333333</ele><time>2026-05-03T09:43:13Z</time></trkpt><trkpt lat="45.68513283022185" lon="8.24504400008508"><ele>386.0</ele><time>2026-05-03T09:43:14Z</time></trkpt><trkpt lat="45.68518218420523" lon="8.245254597480569"><ele>386.0</ele><time>2026-05-03T09:43:15Z</time></trkpt><trkpt lat="45.68522994356978" lon="8.245448646657488"><ele>386.0</ele><time>2026-05-03T09:43:16Z</time></trkpt><trkpt lat="45.685280636882055" lon="8.2456293163138"><ele>386.0</ele><time>2026-05-03T09:43:17Z</time></trkpt><trkpt lat="45.68532932699595" lon="8.245798425212225"><ele>386.0</ele><time>2026-05-03T09:43:18Z</time></trkpt><trkpt lat="45.68536632512343" lon="8.245968077736876"><ele>386.0</ele><time>2026-05-03T09:43:19Z</time></trkpt><trkpt lat="45.685404024274504" lon="8.246125937314034"><ele>386.0</ele><time>2026-05-03T09:43:20Z</time></trkpt><trkpt lat="45.68544546138209" lon="8.246272176866537"><ele>386.0</ele><time>2026-05-03T09:43:21Z</time></trkpt><trkpt lat="45.6854852044457" lon="8.246409154513307"><ele>386.0</ele><time>2026-05-03T09:43:22Z</time></trkpt><trkpt lat="45.685505782187306" lon="8.246527006720974"><ele>386.0</ele><time>2026-05-03T09:43:23Z</time></trkpt><trkpt lat="45.685517322110115" lon="8.246619882302268"><ele>385.8</ele><time>2026-05-03T09:43:24Z</time></trkpt><trkpt lat="45.68552016912696" lon="8.246785222164945"><ele>385.6</ele><time>2026-05-03T09:43:26Z</time></trkpt><trkpt lat="45.68541856161949" lon="8.246837502700686"><ele>385.4</ele><time>2026-05-03T09:43:27Z</time></trkpt><trkpt lat="45.68532899179416" lon="8.246929416463034"><ele>385.2</ele><time>2026-05-03T09:43:28Z</time></trkpt><trkpt lat="45.68522986879952" lon="8.247010544038838"><ele>385.0</ele><time>2026-05-03T09:43:29Z</time></trkpt><trkpt lat="45.68513189122321" lon="8.247109615016178"><ele>384.6</ele><time>2026-05-03T09:43:30Z</time></trkpt><trkpt lat="45.68502461181524" lon="8.247217464759773"><ele>384.2</ele><time>2026-05-03T09:43:31Z</time></trkpt><trkpt lat="45.6849227900741" lon="8.24731284312459"><ele>383.79999999999995</ele><time>2026-05-03T09:43:32Z</time></trkpt><trkpt lat="45.68483804228926" lon="8.247399183540603"><ele>383.4</ele><time>2026-05-03T09:43:33Z</time></trkpt><trkpt lat="45.68476910073495" lon="8.247479464590555"><ele>383.0</ele><time>2026-05-03T09:43:34Z</time></trkpt><trkpt lat="45.6847111474409" lon="8.24753230819544"><ele>382.79999999999995</ele><time>2026-05-03T09:43:35Z</time></trkpt><trkpt lat="45.68464890387047" lon="8.247579279721808"><ele>382.6</ele><time>2026-05-03T09:43:36Z</time></trkpt><trkpt lat="45.68452909634769" lon="8.247590348905003"><ele>382.4</ele><time>2026-05-03T09:43:38Z</time></trkpt><trkpt lat="45.68445208419249" lon="8.24755055928942"><ele>382.20000000000005</ele><time>2026-05-03T09:43:39Z</time></trkpt><trkpt lat="45.68434467042676" lon="8.247508138269728"><ele>382.0</ele><time>2026-05-03T09:43:40Z</time></trkpt><trkpt lat="45.68421456611308" lon="8.247488888675926"><ele>382.66666666666663</ele><time>2026-05-03T09:43:41Z</time></trkpt><trkpt lat="45.68408443071455" lon="8.247414849390779"><ele>383.3333333333333</ele><time>2026-05-03T09:43:42Z</time></trkpt><trkpt lat="45.68394121104061" lon="8.24736910425931"><ele>384.0</ele><time>2026-05-03T09:43:43Z</time></trkpt><trkpt lat="45.683778495459876" lon="8.24730389100081"><ele>386.0</ele><time>2026-05-03T09:43:44Z</time></trkpt><trkpt lat="45.68359468997626" lon="8.247233510494329"><ele>388.0</ele><time>2026-05-03T09:43:45Z</time></trkpt><trkpt lat="45.68343608008853" lon="8.247160150327268"><ele>390.0</ele><time>2026-05-03T09:43:46Z</time></trkpt><trkpt lat="45.683316072366566" lon="8.247080665698965"><ele>390.0</ele><time>2026-05-03T09:43:47Z</time></trkpt><trkpt lat="45.6832174669099" lon="8.246968564884906"><ele>390.0</ele><time>2026-05-03T09:43:48Z</time></trkpt><trkpt lat="45.68313492895767" lon="8.246848958862302"><ele>390.0</ele><time>2026-05-03T09:43:49Z</time></trkpt><trkpt lat="45.68305965694583" lon="8.246786656135368"><ele>390.0</ele><time>2026-05-03T09:43:50Z</time></trkpt><trkpt lat="45.68296708808102" lon="8.246787028789399"><ele>390.0</ele><time>2026-05-03T09:43:51Z</time></trkpt><trkpt lat="45.682869878207725" lon="8.246858941737699"><ele>390.0</ele><time>2026-05-03T09:43:52Z</time></trkpt><trkpt lat="45.68276743058354" lon="8.246954710586156"><ele>390.0</ele><time>2026-05-03T09:43:53Z</time></trkpt><trkpt lat="45.68265408811378" lon="8.247074463973368"><ele>390.0</ele><time>2026-05-03T09:43:54Z</time></trkpt><trkpt lat="45.682528299959756" lon="8.247185471420241"><ele>390.0</ele><time>2026-05-03T09:43:55Z</time></trkpt><trkpt lat="45.68240550561947" lon="8.247285342364545"><ele>385.75</ele><time>2026-05-03T09:43:56Z</time></trkpt><trkpt lat="45.6822868306143" lon="8.247381264009363"><ele>381.5</ele><time>2026-05-03T09:43:57Z</time></trkpt><trkpt lat="45.682167174580194" lon="8.247481780027726"><ele>377.25</ele><time>2026-05-03T09:43:58Z</time></trkpt><trkpt lat="45.682050995881475" lon="8.247582954156545"><ele>373.0</ele><time>2026-05-03T09:43:59Z</time></trkpt><trkpt lat="45.6819343787053" lon="8.247683137025021"><ele>373.59999999999997</ele><time>2026-05-03T09:44:00Z</time></trkpt><trkpt lat="45.681830480562226" lon="8.247771625804686"><ele>374.2</ele><time>2026-05-03T09:44:01Z</time></trkpt><trkpt lat="45.681736970976665" lon="8.247850685778412"><ele>374.8</ele><time>2026-05-03T09:44:02Z</time></trkpt><trkpt lat="45.681644740737866" lon="8.247925013754982"><ele>375.4</ele><time>2026-05-03T09:44:03Z</time></trkpt><trkpt lat="45.681560850964054" lon="8.248002599146757"><ele>376.0</ele><time>2026-05-03T09:44:04Z</time></trkpt><trkpt lat="45.68148657829534" lon="8.248058936148421"><ele>376.0</ele><time>2026-05-03T09:44:05Z</time></trkpt><trkpt lat="45.68140824362413" lon="8.24811424802147"><ele>376.0</ele><time>2026-05-03T09:44:07Z</time></trkpt><trkpt lat="45.68133282553703" lon="8.248143963112543"><ele>376.0</ele><time>2026-05-03T09:44:10Z</time></trkpt><trkpt lat="45.681263515613445" lon="8.24815907282896"><ele>376.0</ele><time>2026-05-03T09:44:11Z</time></trkpt><trkpt lat="45.68120047034484" lon="8.24814626493633"><ele>376.0</ele><time>2026-05-03T09:44:12Z</time></trkpt><trkpt lat="45.6811382206789" lon="8.248203572303927"><ele>376.0</ele><time>2026-05-03T09:44:13Z</time></trkpt><trkpt lat="45.68109803233487" lon="8.24827734790373"><ele>376.0</ele><time>2026-05-03T09:44:14Z</time></trkpt><trkpt lat="45.681174513848916" lon="8.248429163305333"><ele>376.16666666666663</ele><time>2026-05-03T09:44:15Z</time></trkpt><trkpt lat="45.681205259761796" lon="8.248538263778011"><ele>376.3333333333333</ele><time>2026-05-03T09:44:16Z</time></trkpt><trkpt lat="45.68121030005235" lon="8.248638231718688"><ele>376.5</ele><time>2026-05-03T09:44:17Z</time></trkpt><trkpt lat="45.68117851565657" lon="8.24880678864684"><ele>376.6666666666667</ele><time>2026-05-03T09:44:19Z</time></trkpt><trkpt lat="45.681155984003986" lon="8.248913985292837"><ele>376.83333333333337</ele><time>2026-05-03T09:44:20Z</time></trkpt><trkpt lat="45.68113833406206" lon="8.249044564549825"><ele>377.0</ele><time>2026-05-03T09:44:21Z</time></trkpt><trkpt lat="45.68111682148957" lon="8.2491795797895"><ele>377.40000000000003</ele><time>2026-05-03T09:44:22Z</time></trkpt><trkpt lat="45.68108498546212" lon="8.249308125481127"><ele>377.8</ele><time>2026-05-03T09:44:23Z</time></trkpt><trkpt lat="45.68104812144867" lon="8.24944687383829"><ele>378.2</ele><time>2026-05-03T09:44:24Z</time></trkpt><trkpt lat="45.68101105582553" lon="8.249588959743669"><ele>378.6</ele><time>2026-05-03T09:44:25Z</time></trkpt><trkpt lat="45.68097912008695" lon="8.249734618496394"><ele>379.0</ele><time>2026-05-03T09:44:26Z</time></trkpt><trkpt lat="45.68094447887435" lon="8.249877246952979"><ele>379.25</ele><time>2026-05-03T09:44:27Z</time></trkpt><trkpt lat="45.680892489417374" lon="8.250011449785443"><ele>379.5</ele><time>2026-05-03T09:44:28Z</time></trkpt><trkpt lat="45.680862355246" lon="8.250164056620715"><ele>379.75</ele><time>2026-05-03T09:44:29Z</time></trkpt><trkpt lat="45.68081454368763" lon="8.25030969858379"><ele>380.0</ele><time>2026-05-03T09:44:30Z</time></trkpt><trkpt lat="45.68073316216846" lon="8.25045405828052"><ele>380.5</ele><time>2026-05-03T09:44:31Z</time></trkpt><trkpt lat="45.68066410840277" lon="8.25063402410177"><ele>381.0</ele><time>2026-05-03T09:44:32Z</time></trkpt><trkpt lat="45.68056234783561" lon="8.250795366154918"><ele>381.5</ele><time>2026-05-03T09:44:33Z</time></trkpt><trkpt lat="45.680455679218184" lon="8.250926964971997"><ele>382.0</ele><time>2026-05-03T09:44:34Z</time></trkpt><trkpt lat="45.68034539702631" lon="8.251059758782853"><ele>384.25</ele><time>2026-05-03T09:44:35Z</time></trkpt><trkpt lat="45.68022751191836" lon="8.251179878930927"><ele>386.5</ele><time>2026-05-03T09:44:36Z</time></trkpt><trkpt lat="45.68010518380242" lon="8.251282683971619"><ele>388.75</ele><time>2026-05-03T09:44:37Z</time></trkpt><trkpt lat="45.67997466218453" lon="8.251369425905581"><ele>391.0</ele><time>2026-05-03T09:44:38Z</time></trkpt><trkpt lat="45.679830543402936" lon="8.251441553882119"><ele>389.33333333333337</ele><time>2026-05-03T09:44:39Z</time></trkpt><trkpt lat="45.67968478406205" lon="8.251492123630294"><ele>387.66666666666663</ele><time>2026-05-03T09:44:40Z</time></trkpt><trkpt lat="45.67954016177194" lon="8.251550999927744"><ele>386.0</ele><time>2026-05-03T09:44:41Z</time></trkpt><trkpt lat="45.67938298817504" lon="8.25163679658445"><ele>386.0</ele><time>2026-05-03T09:44:42Z</time></trkpt><trkpt lat="45.679221435259294" lon="8.251719138466628"><ele>386.0</ele><time>2026-05-03T09:44:43Z</time></trkpt><trkpt lat="45.679043451156595" lon="8.251805083566342"><ele>386.0</ele><time>2026-05-03T09:44:44Z</time></trkpt><trkpt lat="45.67885736044499" lon="8.25190103878549"><ele>386.0</ele><time>2026-05-03T09:44:45Z</time></trkpt><trkpt lat="45.67868204727687" lon="8.251961249787742"><ele>386.0</ele><time>2026-05-03T09:44:46Z</time></trkpt><trkpt lat="45.67851915031898" lon="8.252061180123503"><ele>386.0</ele><time>2026-05-03T09:44:47Z</time></trkpt><trkpt lat="45.67835062425514" lon="8.252140194155334"><ele>388.3333333333333</ele><time>2026-05-03T09:44:48Z</time></trkpt><trkpt lat="45.678181969524196" lon="8.252221302366857"><ele>390.66666666666663</ele><time>2026-05-03T09:44:49Z</time></trkpt><trkpt lat="45.678015142861774" lon="8.25229853162386"><ele>393.0</ele><time>2026-05-03T09:44:50Z</time></trkpt><trkpt lat="45.677854666255605" lon="8.252383615855287"><ele>393.33333333333337</ele><time>2026-05-03T09:44:51Z</time></trkpt><trkpt lat="45.67769236825086" lon="8.252473236910497"><ele>393.6666666666667</ele><time>2026-05-03T09:44:52Z</time></trkpt><trkpt lat="45.677531921180005" lon="8.252561307214021"><ele>394.0</ele><time>2026-05-03T09:44:53Z</time></trkpt><trkpt lat="45.67737236385651" lon="8.252649112392085"><ele>394.0</ele><time>2026-05-03T09:44:54Z</time></trkpt><trkpt lat="45.67720578960925" lon="8.252739427584743"><ele>394.0</ele><time>2026-05-03T09:44:55Z</time></trkpt><trkpt lat="45.67702860187586" lon="8.252839625522537"><ele>394.0</ele><time>2026-05-03T09:44:56Z</time></trkpt><trkpt lat="45.67684119096227" lon="8.252943660098238"><ele>395.0</ele><time>2026-05-03T09:44:57Z</time></trkpt><trkpt lat="45.676638277283764" lon="8.253051623465197"><ele>396.0</ele><time>2026-05-03T09:44:58Z</time></trkpt><trkpt lat="45.67643777423037" lon="8.25315900789361"><ele>397.0</ele><time>2026-05-03T09:44:59Z</time></trkpt><trkpt lat="45.6762534666673" lon="8.253262254219775"><ele>398.0</ele><time>2026-05-03T09:45:00Z</time></trkpt><trkpt lat="45.676073986271234" lon="8.253359420837038"><ele>399.0</ele><time>2026-05-03T09:45:01Z</time></trkpt><trkpt lat="45.67589519500787" lon="8.253454390384464"><ele>400.0</ele><time>2026-05-03T09:45:02Z</time></trkpt><trkpt lat="45.67571534139038" lon="8.253550137551231"><ele>400.0</ele><time>2026-05-03T09:45:03Z</time></trkpt><trkpt lat="45.67553189654088" lon="8.253643896995595"><ele>400.0</ele><time>2026-05-03T09:45:04Z</time></trkpt><trkpt lat="45.67534747595163" lon="8.253736696171543"><ele>400.0</ele><time>2026-05-03T09:45:05Z</time></trkpt><trkpt lat="45.67516383781601" lon="8.253835016853053"><ele>402.0</ele><time>2026-05-03T09:45:06Z</time></trkpt><trkpt lat="45.67498335786098" lon="8.253932893197764"><ele>404.0</ele><time>2026-05-03T09:45:07Z</time></trkpt><trkpt lat="45.67480409910876" lon="8.254031899649224"><ele>406.0</ele><time>2026-05-03T09:45:08Z</time></trkpt><trkpt lat="45.67462745026183" lon="8.254129510655188"><ele>405.33333333333337</ele><time>2026-05-03T09:45:09Z</time></trkpt><trkpt lat="45.67445435124569" lon="8.254227084261467"><ele>404.66666666666663</ele><time>2026-05-03T09:45:10Z</time></trkpt><trkpt lat="45.67428376281359" lon="8.254321940086687"><ele>404.0</ele><time>2026-05-03T09:45:11Z</time></trkpt><trkpt lat="45.67411332206953" lon="8.254421502683499"><ele>404.0</ele><time>2026-05-03T09:45:12Z</time></trkpt><trkpt lat="45.67394660307448" lon="8.25452228181801"><ele>404.0</ele><time>2026-05-03T09:45:13Z</time></trkpt><trkpt lat="45.67377907123741" lon="8.254629084508815"><ele>404.0</ele><time>2026-05-03T09:45:14Z</time></trkpt><trkpt lat="45.673611186026626" lon="8.254736545008004"><ele>406.0</ele><time>2026-05-03T09:45:15Z</time></trkpt><trkpt lat="45.673433507991746" lon="8.254847798658803"><ele>408.0</ele><time>2026-05-03T09:45:16Z</time></trkpt><trkpt lat="45.673253607103625" lon="8.254965474857682"><ele>410.0</ele><time>2026-05-03T09:45:17Z</time></trkpt><trkpt lat="45.67306525299286" lon="8.255076986811872"><ele>410.0</ele><time>2026-05-03T09:45:18Z</time></trkpt><trkpt lat="45.672869946032556" lon="8.255220173693127"><ele>410.0</ele><time>2026-05-03T09:45:19Z</time></trkpt><trkpt lat="45.672694208934075" lon="8.255378265450686"><ele>410.0</ele><time>2026-05-03T09:45:20Z</time></trkpt><trkpt lat="45.672533746324966" lon="8.255548257242038"><ele>413.3333333333333</ele><time>2026-05-03T09:45:21Z</time></trkpt><trkpt lat="45.67237707528965" lon="8.255717726155334"><ele>416.66666666666663</ele><time>2026-05-03T09:45:22Z</time></trkpt><trkpt lat="45.672223612179806" lon="8.255881155526376"><ele>420.0</ele><time>2026-05-03T09:45:23Z</time></trkpt><trkpt lat="45.67206617697984" lon="8.256044677626187"><ele>419.0</ele><time>2026-05-03T09:45:24Z</time></trkpt><trkpt lat="45.67190687941861" lon="8.256205273564872"><ele>418.0</ele><time>2026-05-03T09:45:25Z</time></trkpt><trkpt lat="45.67175274904811" lon="8.256356809314099"><ele>417.0</ele><time>2026-05-03T09:45:26Z</time></trkpt><trkpt lat="45.67160373665829" lon="8.25650332865199"><ele>417.0</ele><time>2026-05-03T09:45:27Z</time></trkpt><trkpt lat="45.671458231156755" lon="8.256646531637406"><ele>417.0</ele><time>2026-05-03T09:45:28Z</time></trkpt><trkpt lat="45.67130918479655" lon="8.256793220094911"><ele>417.0</ele><time>2026-05-03T09:45:29Z</time></trkpt><trkpt lat="45.671162533795155" lon="8.256937550266032"><ele>417.66666666666663</ele><time>2026-05-03T09:45:30Z</time></trkpt><trkpt lat="45.67101737943579" lon="8.257080408289134"><ele>418.3333333333333</ele><time>2026-05-03T09:45:31Z</time></trkpt><trkpt lat="45.67087407997453" lon="8.257221439961533"><ele>419.0</ele><time>2026-05-03T09:45:32Z</time></trkpt><trkpt lat="45.670724877155514" lon="8.257368281878616"><ele>422.3333333333333</ele><time>2026-05-03T09:45:33Z</time></trkpt><trkpt lat="45.67057694318222" lon="8.257513875387662"><ele>425.66666666666663</ele><time>2026-05-03T09:45:34Z</time></trkpt><trkpt lat="45.670432647133644" lon="8.257657186508519"><ele>429.0</ele><time>2026-05-03T09:45:35Z</time></trkpt><trkpt lat="45.6703085033736" lon="8.257777147657979"><ele>427.75</ele><time>2026-05-03T09:45:36Z</time></trkpt><trkpt lat="45.670194268624456" lon="8.257873420983161"><ele>426.5</ele><time>2026-05-03T09:45:37Z</time></trkpt><trkpt lat="45.67007972878725" lon="8.257952570532991"><ele>425.25</ele><time>2026-05-03T09:45:38Z</time></trkpt><trkpt lat="45.669953759468804" lon="8.258006494395314"><ele>424.0</ele><time>2026-05-03T09:45:39Z</time></trkpt><trkpt lat="45.66981377922393" lon="8.258056526210696"><ele>424.0</ele><time>2026-05-03T09:45:40Z</time></trkpt><trkpt lat="45.66966476353271" lon="8.258103939251152"><ele>424.0</ele><time>2026-05-03T09:45:41Z</time></trkpt><trkpt lat="45.669521524609834" lon="8.25816803317694"><ele>424.0</ele><time>2026-05-03T09:45:42Z</time></trkpt><trkpt lat="45.66938219134792" lon="8.258210434887669"><ele>424.0</ele><time>2026-05-03T09:45:43Z</time></trkpt><trkpt lat="45.669261181866716" lon="8.258251994005752"><ele>426.0</ele><time>2026-05-03T09:45:44Z</time></trkpt><trkpt lat="45.66914292547911" lon="8.258325443979937"><ele>428.0</ele><time>2026-05-03T09:45:45Z</time></trkpt><trkpt lat="45.66903510978361" lon="8.258440533210543"><ele>430.0</ele><time>2026-05-03T09:45:46Z</time></trkpt><trkpt lat="45.66893728116467" lon="8.25858138092404"><ele>432.0</ele><time>2026-05-03T09:45:47Z</time></trkpt><trkpt lat="45.66886072841986" lon="8.258742823624063"><ele>432.0</ele><time>2026-05-03T09:45:48Z</time></trkpt><trkpt lat="45.668810644249525" lon="8.25891245620047"><ele>432.0</ele><time>2026-05-03T09:45:49Z</time></trkpt><trkpt lat="45.66878500084489" lon="8.259109279416515"><ele>432.0</ele><time>2026-05-03T09:45:50Z</time></trkpt><trkpt lat="45.66878125460171" lon="8.259304318068645"><ele>432.0</ele><time>2026-05-03T09:45:51Z</time></trkpt><trkpt lat="45.66879071375333" lon="8.259501783562984"><ele>435.75</ele><time>2026-05-03T09:45:52Z</time></trkpt><trkpt lat="45.66877331041401" lon="8.259698838877089"><ele>439.5</ele><time>2026-05-03T09:45:53Z</time></trkpt><trkpt lat="45.668756626893334" lon="8.259884607451937"><ele>443.25</ele><time>2026-05-03T09:45:54Z</time></trkpt><trkpt lat="45.66872141102466" lon="8.260046789828346"><ele>447.0</ele><time>2026-05-03T09:45:55Z</time></trkpt><trkpt lat="45.66864785387389" lon="8.260144244968181"><ele>446.75</ele><time>2026-05-03T09:45:56Z</time></trkpt><trkpt lat="45.66854854919903" lon="8.26022452174076"><ele>446.5</ele><time>2026-05-03T09:45:57Z</time></trkpt><trkpt lat="45.66842955354829" lon="8.260333814051176"><ele>446.25</ele><time>2026-05-03T09:45:58Z</time></trkpt><trkpt lat="45.66830947433452" lon="8.260444101618761"><ele>446.0</ele><time>2026-05-03T09:45:59Z</time></trkpt><trkpt lat="45.668181414324444" lon="8.260561153756957"><ele>450.66666666666663</ele><time>2026-05-03T09:46:00Z</time></trkpt><trkpt lat="45.66805605438385" lon="8.260690868225803"><ele>455.33333333333337</ele><time>2026-05-03T09:46:01Z</time></trkpt><trkpt lat="45.66791775222174" lon="8.260803881596996"><ele>460.0</ele><time>2026-05-03T09:46:02Z</time></trkpt><trkpt lat="45.66778122450277" lon="8.260929063770632"><ele>460.6666666666667</ele><time>2026-05-03T09:46:03Z</time></trkpt><trkpt lat="45.66766172624847" lon="8.261050339047118"><ele>461.33333333333337</ele><time>2026-05-03T09:46:04Z</time></trkpt><trkpt lat="45.66751928808765" lon="8.261109957896496"><ele>462.0</ele><time>2026-05-03T09:46:05Z</time></trkpt><trkpt lat="45.6673695572024" lon="8.261186632050435"><ele>462.0</ele><time>2026-05-03T09:46:06Z</time></trkpt><trkpt lat="45.66723080041489" lon="8.26127355402774"><ele>462.0</ele><time>2026-05-03T09:46:07Z</time></trkpt><trkpt lat="45.667090127566766" lon="8.261339209409515"><ele>462.0</ele><time>2026-05-03T09:46:08Z</time></trkpt><trkpt lat="45.66694096700626" lon="8.261424836154347"><ele>465.0</ele><time>2026-05-03T09:46:09Z</time></trkpt><trkpt lat="45.66679833165022" lon="8.261508422862512"><ele>468.0</ele><time>2026-05-03T09:46:10Z</time></trkpt><trkpt lat="45.66665382654819" lon="8.261612643437033"><ele>471.0</ele><time>2026-05-03T09:46:11Z</time></trkpt><trkpt lat="45.66649909230231" lon="8.261731314869165"><ele>471.0</ele><time>2026-05-03T09:46:12Z</time></trkpt><trkpt lat="45.66634021124125" lon="8.261822866092302"><ele>471.0</ele><time>2026-05-03T09:46:13Z</time></trkpt><trkpt lat="45.666196473503334" lon="8.261933240919088"><ele>471.0</ele><time>2026-05-03T09:46:14Z</time></trkpt><trkpt lat="45.66605912548998" lon="8.262038709173348"><ele>470.0</ele><time>2026-05-03T09:46:15Z</time></trkpt><trkpt lat="45.66593172577907" lon="8.262135833760231"><ele>469.0</ele><time>2026-05-03T09:46:16Z</time></trkpt><trkpt lat="45.665799083429334" lon="8.262237347633313"><ele>468.0</ele><time>2026-05-03T09:46:17Z</time></trkpt><trkpt lat="45.66566971941968" lon="8.262370935236888"><ele>468.0</ele><time>2026-05-03T09:46:18Z</time></trkpt><trkpt lat="45.66554901231363" lon="8.262527184073075"><ele>468.0</ele><time>2026-05-03T09:46:19Z</time></trkpt><trkpt lat="45.6654695940268" lon="8.262711878437184"><ele>468.0</ele><time>2026-05-03T09:46:20Z</time></trkpt><trkpt lat="45.66537635162544" lon="8.26286834964284"><ele>466.66666666666663</ele><time>2026-05-03T09:46:21Z</time></trkpt><trkpt lat="45.66527019742638" lon="8.263001419905267"><ele>465.3333333333333</ele><time>2026-05-03T09:46:22Z</time></trkpt><trkpt lat="45.66513265231741" lon="8.263120070576297"><ele>464.0</ele><time>2026-05-03T09:46:23Z</time></trkpt><trkpt lat="45.6649872781037" lon="8.26323424214877"><ele>464.0</ele><time>2026-05-03T09:46:24Z</time></trkpt><trkpt lat="45.664847695131016" lon="8.263304091539494"><ele>464.0</ele><time>2026-05-03T09:46:25Z</time></trkpt><trkpt lat="45.66472362746089" lon="8.263400775814885"><ele>464.0</ele><time>2026-05-03T09:46:26Z</time></trkpt><trkpt lat="45.66460760982902" lon="8.263507997056594"><ele>464.0</ele><time>2026-05-03T09:46:27Z</time></trkpt><trkpt lat="45.664519250006855" lon="8.263651369782941"><ele>464.0</ele><time>2026-05-03T09:46:28Z</time></trkpt><trkpt lat="45.66444936256081" lon="8.263824746133697"><ele>464.0</ele><time>2026-05-03T09:46:29Z</time></trkpt><trkpt lat="45.66438646970273" lon="8.263981685637978"><ele>464.0</ele><time>2026-05-03T09:46:30Z</time></trkpt><trkpt lat="45.66430787253038" lon="8.264104951981777"><ele>464.0</ele><time>2026-05-03T09:46:31Z</time></trkpt><trkpt lat="45.664191807606564" lon="8.264181461978737"><ele>459.0</ele><time>2026-05-03T09:46:32Z</time></trkpt><trkpt lat="45.66405622884431" lon="8.264210914475635"><ele>454.0</ele><time>2026-05-03T09:46:33Z</time></trkpt><trkpt lat="45.66390250966628" lon="8.264251140480482"><ele>449.0</ele><time>2026-05-03T09:46:34Z</time></trkpt><trkpt lat="45.66373437354362" lon="8.264296697684282"><ele>443.66666666666663</ele><time>2026-05-03T09:46:35Z</time></trkpt><trkpt lat="45.66356546077238" lon="8.264363714736522"><ele>438.33333333333337</ele><time>2026-05-03T09:46:36Z</time></trkpt><trkpt lat="45.66339814296975" lon="8.264475944557224"><ele>433.0</ele><time>2026-05-03T09:46:37Z</time></trkpt><trkpt lat="45.66323629453945" lon="8.264607837984729"><ele>433.0</ele><time>2026-05-03T09:46:38Z</time></trkpt><trkpt lat="45.66308099683634" lon="8.264738847717423"><ele>433.0</ele><time>2026-05-03T09:46:39Z</time></trkpt><trkpt lat="45.66292047142537" lon="8.264867378816046"><ele>433.0</ele><time>2026-05-03T09:46:40Z</time></trkpt><trkpt lat="45.66278040543726" lon="8.26497608519466"><ele>433.33333333333337</ele><time>2026-05-03T09:46:41Z</time></trkpt><trkpt lat="45.662618202093455" lon="8.26510648591132"><ele>433.66666666666663</ele><time>2026-05-03T09:46:42Z</time></trkpt><trkpt lat="45.66246063358994" lon="8.265238626006179"><ele>434.0</ele><time>2026-05-03T09:46:43Z</time></trkpt><trkpt lat="45.66229720057884" lon="8.26536673607806"><ele>434.0</ele><time>2026-05-03T09:46:44Z</time></trkpt><trkpt lat="45.6621574707986" lon="8.26546248218327"><ele>434.0</ele><time>2026-05-03T09:46:45Z</time></trkpt><trkpt lat="45.661996020554454" lon="8.265566898524348"><ele>434.0</ele><time>2026-05-03T09:46:46Z</time></trkpt><trkpt lat="45.66182743893163" lon="8.265664249672305"><ele>433.66666666666663</ele><time>2026-05-03T09:46:47Z</time></trkpt><trkpt lat="45.66165986904393" lon="8.265762184101822"><ele>433.33333333333337</ele><time>2026-05-03T09:46:48Z</time></trkpt><trkpt lat="45.66150100996813" lon="8.265856770079367"><ele>433.0</ele><time>2026-05-03T09:46:49Z</time></trkpt><trkpt lat="45.66134846311664" lon="8.265951679921805"><ele>433.0</ele><time>2026-05-03T09:46:50Z</time></trkpt><trkpt lat="45.66120818307389" lon="8.266045662486489"><ele>433.0</ele><time>2026-05-03T09:46:51Z</time></trkpt><trkpt lat="45.66104904213673" lon="8.266153266746757"><ele>433.0</ele><time>2026-05-03T09:46:52Z</time></trkpt><trkpt lat="45.660882457697696" lon="8.266266087165848"><ele>434.0</ele><time>2026-05-03T09:46:53Z</time></trkpt><trkpt lat="45.66071192795143" lon="8.266381579355105"><ele>435.0</ele><time>2026-05-03T09:46:54Z</time></trkpt><trkpt lat="45.660543176764754" lon="8.26649486347232"><ele>436.0</ele><time>2026-05-03T09:46:55Z</time></trkpt><trkpt lat="45.66036536016203" lon="8.266614482620191"><ele>427.0</ele><time>2026-05-03T09:46:56Z</time></trkpt><trkpt lat="45.660171757222145" lon="8.266748927015078"><ele>418.0</ele><time>2026-05-03T09:46:57Z</time></trkpt><trkpt lat="45.659960227883474" lon="8.266893887951156"><ele>418.0</ele><time>2026-05-03T09:46:58Z</time></trkpt><trkpt lat="45.65973145698111" lon="8.26704998873559"><ele>418.0</ele><time>2026-05-03T09:46:59Z</time></trkpt><trkpt lat="45.65950728231524" lon="8.267202953277165"><ele>418.0</ele><time>2026-05-03T09:47:00Z</time></trkpt><trkpt lat="45.659325604180516" lon="8.267326920493295"><ele>418.0</ele><time>2026-05-03T09:47:01Z</time></trkpt><trkpt lat="45.659160025728546" lon="8.267439902222822"><ele>418.0</ele><time>2026-05-03T09:47:02Z</time></trkpt><trkpt lat="45.659005767448136" lon="8.267544956382988"><ele>418.0</ele><time>2026-05-03T09:47:03Z</time></trkpt><trkpt lat="45.65885222600149" lon="8.267648123842031"><ele>418.0</ele><time>2026-05-03T09:47:04Z</time></trkpt><trkpt lat="45.65870369474416" lon="8.267744670106762"><ele>418.0</ele><time>2026-05-03T09:47:05Z</time></trkpt><trkpt lat="45.65856383216339" lon="8.26782516684392"><ele>414.75</ele><time>2026-05-03T09:47:06Z</time></trkpt><trkpt lat="45.65843197966272" lon="8.267891303050071"><ele>411.5</ele><time>2026-05-03T09:47:07Z</time></trkpt><trkpt lat="45.65830841013577" lon="8.267950614889822"><ele>408.25</ele><time>2026-05-03T09:47:08Z</time></trkpt><trkpt lat="45.65818403698826" lon="8.268009534491954"><ele>405.0</ele><time>2026-05-03T09:47:09Z</time></trkpt><trkpt lat="45.65806784664476" lon="8.268064577634588"><ele>405.6</ele><time>2026-05-03T09:47:10Z</time></trkpt><trkpt lat="45.6579604277133" lon="8.268115465469903"><ele>406.2</ele><time>2026-05-03T09:47:11Z</time></trkpt><trkpt lat="45.65785692387241" lon="8.268161833123749"><ele>406.79999999999995</ele><time>2026-05-03T09:47:12Z</time></trkpt><trkpt lat="45.65775729707352" lon="8.268206532713306"><ele>407.4</ele><time>2026-05-03T09:47:13Z</time></trkpt><trkpt lat="45.65765850337954" lon="8.268250858497673"><ele>408.0</ele><time>2026-05-03T09:47:14Z</time></trkpt><trkpt lat="45.65756286093443" lon="8.268293770311697"><ele>408.0</ele><time>2026-05-03T09:47:15Z</time></trkpt><trkpt lat="45.65746154636436" lon="8.268329563919451"><ele>408.0</ele><time>2026-05-03T09:47:16Z</time></trkpt><trkpt lat="45.65734322049407" lon="8.268361808059412"><ele>408.0</ele><time>2026-05-03T09:47:17Z</time></trkpt><trkpt lat="45.65721233162287" lon="8.268367864080345"><ele>408.0</ele><time>2026-05-03T09:47:18Z</time></trkpt><trkpt lat="45.65707436824167" lon="8.268350519245208"><ele>408.0</ele><time>2026-05-03T09:47:19Z</time></trkpt><trkpt lat="45.65692295983187" lon="8.268313517715923"><ele>408.0</ele><time>2026-05-03T09:47:20Z</time></trkpt><trkpt lat="45.65675351754417" lon="8.268243218973705"><ele>408.0</ele><time>2026-05-03T09:47:21Z</time></trkpt><trkpt lat="45.65658673174515" lon="8.268142638169097"><ele>404.0</ele><time>2026-05-03T09:47:22Z</time></trkpt><trkpt lat="45.656419216368384" lon="8.268053422895042"><ele>400.0</ele><time>2026-05-03T09:47:23Z</time></trkpt><trkpt lat="45.656271282555835" lon="8.267926838798905"><ele>396.0</ele><time>2026-05-03T09:47:24Z</time></trkpt><trkpt lat="45.65612053763437" lon="8.267857605920513"><ele>397.0</ele><time>2026-05-03T09:47:25Z</time></trkpt><trkpt lat="45.655985767125536" lon="8.26776843047509"><ele>398.0</ele><time>2026-05-03T09:47:26Z</time></trkpt><trkpt lat="45.65586500602389" lon="8.267680670100361"><ele>399.0</ele><time>2026-05-03T09:47:27Z</time></trkpt><trkpt lat="45.6557455027631" lon="8.267587192649671"><ele>400.0</ele><time>2026-05-03T09:47:28Z</time></trkpt><trkpt lat="45.65561169014623" lon="8.267495499004674"><ele>400.0</ele><time>2026-05-03T09:47:29Z</time></trkpt><trkpt lat="45.655473336049276" lon="8.267411129414848"><ele>400.0</ele><time>2026-05-03T09:47:30Z</time></trkpt><trkpt lat="45.65533496129031" lon="8.26728949181164"><ele>400.0</ele><time>2026-05-03T09:47:31Z</time></trkpt><trkpt lat="45.65517888325628" lon="8.267180734841403"><ele>397.33333333333337</ele><time>2026-05-03T09:47:32Z</time></trkpt><trkpt lat="45.6550116132011" lon="8.267079503082927"><ele>394.66666666666663</ele><time>2026-05-03T09:47:33Z</time></trkpt><trkpt lat="45.65483603842992" lon="8.266963141761597"><ele>392.0</ele><time>2026-05-03T09:47:34Z</time></trkpt><trkpt lat="45.65466057456561" lon="8.266845482056066"><ele>392.0</ele><time>2026-05-03T09:47:35Z</time></trkpt><trkpt lat="45.65448442722844" lon="8.266722395700874"><ele>392.0</ele><time>2026-05-03T09:47:36Z</time></trkpt><trkpt lat="45.65431636289787" lon="8.26661155209137"><ele>392.0</ele><time>2026-05-03T09:47:37Z</time></trkpt><trkpt lat="45.654151364831286" lon="8.266513777982226"><ele>390.66666666666663</ele><time>2026-05-03T09:47:38Z</time></trkpt><trkpt lat="45.654003137915595" lon="8.266430688404258"><ele>389.33333333333337</ele><time>2026-05-03T09:47:39Z</time></trkpt><trkpt lat="45.653859242031615" lon="8.266364946097903"><ele>388.0</ele><time>2026-05-03T09:47:40Z</time></trkpt><trkpt lat="45.653697130147975" lon="8.266307402680306"><ele>389.33333333333337</ele><time>2026-05-03T09:47:41Z</time></trkpt><trkpt lat="45.65352393935428" lon="8.266253864915203"><ele>390.66666666666663</ele><time>2026-05-03T09:47:42Z</time></trkpt><trkpt lat="45.653342323885695" lon="8.266217992198351"><ele>392.0</ele><time>2026-05-03T09:47:43Z</time></trkpt><trkpt lat="45.653159733950154" lon="8.266179876343013"><ele>392.0</ele><time>2026-05-03T09:47:44Z</time></trkpt><trkpt lat="45.65298283963557" lon="8.266129743189625"><ele>392.0</ele><time>2026-05-03T09:47:45Z</time></trkpt><trkpt lat="45.65280978882841" lon="8.266096300927911"><ele>392.0</ele><time>2026-05-03T09:47:46Z</time></trkpt><trkpt lat="45.6526511012189" lon="8.266063517127607"><ele>393.66666666666663</ele><time>2026-05-03T09:47:47Z</time></trkpt><trkpt lat="45.65249904720131" lon="8.266043227475599"><ele>395.33333333333337</ele><time>2026-05-03T09:47:48Z</time></trkpt><trkpt lat="45.65233998941843" lon="8.266051034243786"><ele>397.0</ele><time>2026-05-03T09:47:49Z</time></trkpt><trkpt lat="45.65218330167183" lon="8.266033860087177"><ele>397.0</ele><time>2026-05-03T09:47:50Z</time></trkpt><trkpt lat="45.652030026713724" lon="8.266025249126947"><ele>397.0</ele><time>2026-05-03T09:47:51Z</time></trkpt><trkpt lat="45.65187876313057" lon="8.266219455693735"><ele>397.0</ele><time>2026-05-03T09:47:52Z</time></trkpt><trkpt lat="45.65173381339687" lon="8.26634025942502"><ele>399.0</ele><time>2026-05-03T09:47:53Z</time></trkpt><trkpt lat="45.65159565854815" lon="8.266495073529283"><ele>401.0</ele><time>2026-05-03T09:47:54Z</time></trkpt><trkpt lat="45.65147870937609" lon="8.266644687308693"><ele>403.0</ele><time>2026-05-03T09:47:55Z</time></trkpt><trkpt lat="45.65137810850798" lon="8.266824054251128"><ele>403.0</ele><time>2026-05-03T09:47:56Z</time></trkpt><trkpt lat="45.65130530558579" lon="8.267006776905449"><ele>403.0</ele><time>2026-05-03T09:47:57Z</time></trkpt><trkpt lat="45.65123063748272" lon="8.2672045536753"><ele>403.0</ele><time>2026-05-03T09:47:58Z</time></trkpt><trkpt lat="45.65115174125562" lon="8.267437182532454"><ele>399.6666666666667</ele><time>2026-05-03T09:47:59Z</time></trkpt><trkpt lat="45.6510784022236" lon="8.267700794683236"><ele>396.33333333333337</ele><time>2026-05-03T09:48:00Z</time></trkpt><trkpt lat="45.65100831137134" lon="8.267974654509468"><ele>393.0</ele><time>2026-05-03T09:48:01Z</time></trkpt><trkpt lat="45.65093786989634" lon="8.268236892344614"><ele>393.0</ele><time>2026-05-03T09:48:02Z</time></trkpt><trkpt lat="45.65086964398457" lon="8.268496089414475"><ele>393.0</ele><time>2026-05-03T09:48:03Z</time></trkpt><trkpt lat="45.6508037146125" lon="8.268741509786564"><ele>393.0</ele><time>2026-05-03T09:48:04Z</time></trkpt><trkpt lat="45.65073898580682" lon="8.268974417913672"><ele>393.0</ele><time>2026-05-03T09:48:05Z</time></trkpt><trkpt lat="45.650677337288094" lon="8.269196287384345"><ele>393.0</ele><time>2026-05-03T09:48:06Z</time></trkpt><trkpt lat="45.65061397428988" lon="8.269422574219938"><ele>393.0</ele><time>2026-05-03T09:48:07Z</time></trkpt><trkpt lat="45.650546899792914" lon="8.269668572785282"><ele>394.33333333333337</ele><time>2026-05-03T09:48:08Z</time></trkpt><trkpt lat="45.650472780177125" lon="8.26991574464696"><ele>395.6666666666667</ele><time>2026-05-03T09:48:09Z</time></trkpt><trkpt lat="45.65040630405259" lon="8.27015847275192"><ele>397.0</ele><time>2026-05-03T09:48:10Z</time></trkpt><trkpt lat="45.65034123203044" lon="8.270396754016888"><ele>394.6666666666667</ele><time>2026-05-03T09:48:11Z</time></trkpt><trkpt lat="45.6502854141428" lon="8.27060877782674"><ele>392.33333333333337</ele><time>2026-05-03T09:48:12Z</time></trkpt><trkpt lat="45.65022151014424" lon="8.27083507972942"><ele>390.0</ele><time>2026-05-03T09:48:13Z</time></trkpt><trkpt lat="45.65015677038667" lon="8.271061221015053"><ele>390.0</ele><time>2026-05-03T09:48:14Z</time></trkpt><trkpt lat="45.65008895674082" lon="8.271301201566704"><ele>390.0</ele><time>2026-05-03T09:48:15Z</time></trkpt><trkpt lat="45.65002249876043" lon="8.27153920145103"><ele>390.0</ele><time>2026-05-03T09:48:16Z</time></trkpt><trkpt lat="45.649957930515455" lon="8.271786655203002"><ele>389.33333333333337</ele><time>2026-05-03T09:48:17Z</time></trkpt><trkpt lat="45.64988844746991" lon="8.272026498070646"><ele>388.6666666666667</ele><time>2026-05-03T09:48:18Z</time></trkpt><trkpt lat="45.64982180137356" lon="8.272259673984193"><ele>388.0</ele><time>2026-05-03T09:48:19Z</time></trkpt><trkpt lat="45.64975300383599" lon="8.272500454961198"><ele>387.6666666666667</ele><time>2026-05-03T09:48:20Z</time></trkpt><trkpt lat="45.649687510740044" lon="8.27274066523532"><ele>387.33333333333337</ele><time>2026-05-03T09:48:21Z</time></trkpt><trkpt lat="45.649618976639566" lon="8.272980075778202"><ele>387.0</ele><time>2026-05-03T09:48:22Z</time></trkpt><trkpt lat="45.649551088264865" lon="8.273202026087187"><ele>387.66666666666663</ele><time>2026-05-03T09:48:23Z</time></trkpt><trkpt lat="45.64949383877618" lon="8.273416415289082"><ele>388.3333333333333</ele><time>2026-05-03T09:48:24Z</time></trkpt><trkpt lat="45.64944412965863" lon="8.273620884434163"><ele>389.0</ele><time>2026-05-03T09:48:25Z</time></trkpt><trkpt lat="45.64938778657552" lon="8.273819309825756"><ele>385.0</ele><time>2026-05-03T09:48:26Z</time></trkpt><trkpt lat="45.649326064636945" lon="8.27403502246871"><ele>381.0</ele><time>2026-05-03T09:48:27Z</time></trkpt><trkpt lat="45.6492686598224" lon="8.274256801247875"><ele>377.0</ele><time>2026-05-03T09:48:28Z</time></trkpt><trkpt lat="45.6492070184149" lon="8.274482055895817"><ele>377.0</ele><time>2026-05-03T09:48:29Z</time></trkpt><trkpt lat="45.64914590077582" lon="8.274689759396466"><ele>377.0</ele><time>2026-05-03T09:48:30Z</time></trkpt><trkpt lat="45.64906717572209" lon="8.274876644536281"><ele>377.0</ele><time>2026-05-03T09:48:31Z</time></trkpt><trkpt lat="45.64895906098881" lon="8.27503574355957"><ele>376.0</ele><time>2026-05-03T09:48:32Z</time></trkpt><trkpt lat="45.648827492084685" lon="8.275171879176577"><ele>375.0</ele><time>2026-05-03T09:48:33Z</time></trkpt><trkpt lat="45.648677346833246" lon="8.275255434174507"><ele>374.0</ele><time>2026-05-03T09:48:34Z</time></trkpt><trkpt lat="45.64851516889518" lon="8.275294125478702"><ele>373.0</ele><time>2026-05-03T09:48:35Z</time></trkpt><trkpt lat="45.648351377810265" lon="8.275321489205933"><ele>372.0</ele><time>2026-05-03T09:48:36Z</time></trkpt><trkpt lat="45.648179719819986" lon="8.275290424312045"><ele>371.0</ele><time>2026-05-03T09:48:37Z</time></trkpt><trkpt lat="45.64800512990472" lon="8.27522770896671"><ele>371.0</ele><time>2026-05-03T09:48:38Z</time></trkpt><trkpt lat="45.647821243630965" lon="8.275122989928034"><ele>371.0</ele><time>2026-05-03T09:48:39Z</time></trkpt><trkpt lat="45.64766037399229" lon="8.274972838697055"><ele>371.0</ele><time>2026-05-03T09:48:40Z</time></trkpt><trkpt lat="45.64752927412992" lon="8.274813856057438"><ele>372.0</ele><time>2026-05-03T09:48:41Z</time></trkpt><trkpt lat="45.64739675995024" lon="8.274676737664"><ele>373.0</ele><time>2026-05-03T09:48:42Z</time></trkpt><trkpt lat="45.647277306130334" lon="8.274531586714295"><ele>374.0</ele><time>2026-05-03T09:48:43Z</time></trkpt><trkpt lat="45.64715754088249" lon="8.274415468183568"><ele>374.0</ele><time>2026-05-03T09:48:44Z</time></trkpt><trkpt lat="45.64703287333107" lon="8.274297476996434"><ele>374.0</ele><time>2026-05-03T09:48:45Z</time></trkpt><trkpt lat="45.64690914922666" lon="8.27417523485443"><ele>374.0</ele><time>2026-05-03T09:48:46Z</time></trkpt><trkpt lat="45.64678857141624" lon="8.274077388401388"><ele>374.0</ele><time>2026-05-03T09:48:47Z</time></trkpt><trkpt lat="45.64666229273132" lon="8.274033404024381"><ele>374.0</ele><time>2026-05-03T09:48:48Z</time></trkpt><trkpt lat="45.64651633342407" lon="8.274031391607444"><ele>374.0</ele><time>2026-05-03T09:48:49Z</time></trkpt><trkpt lat="45.64636482271348" lon="8.274096960889922"><ele>374.0</ele><time>2026-05-03T09:48:50Z</time></trkpt><trkpt lat="45.64622624671978" lon="8.274193618454222"><ele>372.5</ele><time>2026-05-03T09:48:51Z</time></trkpt><trkpt lat="45.64609827465695" lon="8.274303731182302"><ele>371.0</ele><time>2026-05-03T09:48:52Z</time></trkpt><trkpt lat="45.645988896460224" lon="8.274392764529066"><ele>369.5</ele><time>2026-05-03T09:48:53Z</time></trkpt><trkpt lat="45.64587653241992" lon="8.274453945347648"><ele>368.0</ele><time>2026-05-03T09:48:54Z</time></trkpt><trkpt lat="45.64575400894847" lon="8.274477320780257"><ele>368.0</ele><time>2026-05-03T09:48:55Z</time></trkpt><trkpt lat="45.64563894406662" lon="8.274489745181198"><ele>368.0</ele><time>2026-05-03T09:48:56Z</time></trkpt><trkpt lat="45.64556289533526" lon="8.274502745287082"><ele>368.0</ele><time>2026-05-03T09:48:57Z</time></trkpt><trkpt lat="45.645488188327" lon="8.27450503528564"><ele>368.0</ele><time>2026-05-03T09:48:58Z</time></trkpt><trkpt lat="45.64540770112212" lon="8.27454170922547"><ele>368.0</ele><time>2026-05-03T09:48:59Z</time></trkpt><trkpt lat="45.64531820512404" lon="8.274564704316271"><ele>368.0</ele><time>2026-05-03T09:49:00Z</time></trkpt><trkpt lat="45.645210943263855" lon="8.274645332183606"><ele>368.6666666666667</ele><time>2026-05-03T09:49:01Z</time></trkpt><trkpt lat="45.64506331005663" lon="8.274728919763529"><ele>369.3333333333333</ele><time>2026-05-03T09:49:02Z</time></trkpt><trkpt lat="45.6448996676614" lon="8.274828656597442"><ele>370.0</ele><time>2026-05-03T09:49:03Z</time></trkpt><trkpt lat="45.64472491266743" lon="8.275003264796764"><ele>367.5</ele><time>2026-05-03T09:49:04Z</time></trkpt><trkpt lat="45.64457279451074" lon="8.275142925926971"><ele>365.0</ele><time>2026-05-03T09:49:05Z</time></trkpt><trkpt lat="45.64389446360803" lon="8.273527365550324"><ele>365.0</ele><time>2026-05-03T09:49:06Z</time></trkpt><trkpt lat="45.64372961199514" lon="8.27350584333292"><ele>365.0</ele><time>2026-05-03T09:49:07Z</time></trkpt><trkpt lat="45.64357809586761" lon="8.273433258847803"><ele>365.0</ele><time>2026-05-03T09:49:08Z</time></trkpt><trkpt lat="45.64341344060018" lon="8.273343873433955"><ele>363.6666666666667</ele><time>2026-05-03T09:49:09Z</time></trkpt><trkpt lat="45.64324849809275" lon="8.273268725042284"><ele>362.3333333333333</ele><time>2026-05-03T09:49:10Z</time></trkpt><trkpt lat="45.64308986327995" lon="8.273201780437237"><ele>361.0</ele><time>2026-05-03T09:49:11Z</time></trkpt><trkpt lat="45.642944604896876" lon="8.273142491686988"><ele>361.0</ele><time>2026-05-03T09:49:12Z</time></trkpt><trkpt lat="45.64280718052434" lon="8.273107848268634"><ele>361.0</ele><time>2026-05-03T09:49:13Z</time></trkpt><trkpt lat="45.64265521236681" lon="8.273120255116797"><ele>361.0</ele><time>2026-05-03T09:49:14Z</time></trkpt><trkpt lat="45.642489940077525" lon="8.273154401843554"><ele>360.3333333333333</ele><time>2026-05-03T09:49:15Z</time></trkpt><trkpt lat="45.642321246820586" lon="8.273210886305696"><ele>359.6666666666667</ele><time>2026-05-03T09:49:16Z</time></trkpt><trkpt lat="45.64216130477682" lon="8.27325692318571"><ele>359.0</ele><time>2026-05-03T09:49:17Z</time></trkpt><trkpt lat="45.64200806381509" lon="8.273315138590043"><ele>358.5</ele><time>2026-05-03T09:49:18Z</time></trkpt><trkpt lat="45.64186588724247" lon="8.273366660971492"><ele>358.0</ele><time>2026-05-03T09:49:19Z</time></trkpt><trkpt lat="45.64173156902602" lon="8.27340493513199"><ele>357.5</ele><time>2026-05-03T09:49:20Z</time></trkpt><trkpt lat="45.64160097260501" lon="8.273447015994142"><ele>357.0</ele><time>2026-05-03T09:49:21Z</time></trkpt><trkpt lat="45.64147889842355" lon="8.273490465757149"><ele>357.0</ele><time>2026-05-03T09:49:22Z</time></trkpt><trkpt lat="45.64136373437072" lon="8.27352109589736"><ele>357.0</ele><time>2026-05-03T09:49:23Z</time></trkpt><trkpt lat="45.641256720991876" lon="8.27349395196127"><ele>357.0</ele><time>2026-05-03T09:49:24Z</time></trkpt><trkpt lat="45.64115447801545" lon="8.273398550918719"><ele>357.0</ele><time>2026-05-03T09:49:25Z</time></trkpt><trkpt lat="45.64106097788189" lon="8.273246056438467"><ele>355.3333333333333</ele><time>2026-05-03T09:49:26Z</time></trkpt><trkpt lat="45.64097446037499" lon="8.273031647131498"><ele>353.66666666666663</ele><time>2026-05-03T09:49:27Z</time></trkpt><trkpt lat="45.64089034096988" lon="8.272836597893628"><ele>352.0</ele><time>2026-05-03T09:49:28Z</time></trkpt><trkpt lat="45.640784625808955" lon="8.272677766606147"><ele>352.0</ele><time>2026-05-03T09:49:29Z</time></trkpt><trkpt lat="45.640644806024405" lon="8.27263440571137"><ele>352.0</ele><time>2026-05-03T09:49:30Z</time></trkpt><trkpt lat="45.64050060941741" lon="8.272655709016995"><ele>352.0</ele><time>2026-05-03T09:49:31Z</time></trkpt><trkpt lat="45.64035774815487" lon="8.272743267049034"><ele>352.0</ele><time>2026-05-03T09:49:32Z</time></trkpt><trkpt lat="45.64021152280904" lon="8.272871812823942"><ele>351.0</ele><time>2026-05-03T09:49:33Z</time></trkpt><trkpt lat="45.64009714240527" lon="8.272985509818684"><ele>350.0</ele><time>2026-05-03T09:49:34Z</time></trkpt><trkpt lat="45.63997338510279" lon="8.273033154240542"><ele>349.0</ele><time>2026-05-03T09:49:35Z</time></trkpt><trkpt lat="45.639839757548344" lon="8.272978780437676"><ele>348.0</ele><time>2026-05-03T09:49:36Z</time></trkpt><trkpt lat="45.6397007064989" lon="8.272903854042635"><ele>348.0</ele><time>2026-05-03T09:49:37Z</time></trkpt><trkpt lat="45.63956476117234" lon="8.272767475052625"><ele>348.0</ele><time>2026-05-03T09:49:38Z</time></trkpt><trkpt lat="45.63942457277471" lon="8.27258619853589"><ele>348.0</ele><time>2026-05-03T09:49:39Z</time></trkpt><trkpt lat="45.639275834559726" lon="8.272413254142217"><ele>346.0</ele><time>2026-05-03T09:49:40Z</time></trkpt><trkpt lat="45.639124565985064" lon="8.272243944785554"><ele>344.0</ele><time>2026-05-03T09:49:41Z</time></trkpt><trkpt lat="45.638983105845114" lon="8.272089919238303"><ele>342.0</ele><time>2026-05-03T09:49:42Z</time></trkpt><trkpt lat="45.6388510904073" lon="8.271953693836144"><ele>342.0</ele><time>2026-05-03T09:49:43Z</time></trkpt><trkpt lat="45.63871827350835" lon="8.27185766320545"><ele>342.0</ele><time>2026-05-03T09:49:44Z</time></trkpt><trkpt lat="45.638564186207944" lon="8.271809895574501"><ele>342.0</ele><time>2026-05-03T09:49:45Z</time></trkpt><trkpt lat="45.638389104384366" lon="8.271802604919147"><ele>340.6666666666667</ele><time>2026-05-03T09:49:46Z</time></trkpt><trkpt lat="45.63820387552551" lon="8.271799500317055"><ele>339.33333333333337</ele><time>2026-05-03T09:49:47Z</time></trkpt><trkpt lat="45.638014633123504" lon="8.27178376124954"><ele>338.0</ele><time>2026-05-03T09:49:48Z</time></trkpt><trkpt lat="45.63783027118699" lon="8.271769991755436"><ele>337.6666666666667</ele><time>2026-05-03T09:49:49Z</time></trkpt><trkpt lat="45.637658047386054" lon="8.27176046006912"><ele>337.3333333333333</ele><time>2026-05-03T09:49:50Z</time></trkpt><trkpt lat="45.637500525059664" lon="8.271765671410861"><ele>337.0</ele><time>2026-05-03T09:49:51Z</time></trkpt><trkpt lat="45.63733377299509" lon="8.27181162641526"><ele>337.0</ele><time>2026-05-03T09:49:52Z</time></trkpt><trkpt lat="45.637173622847676" lon="8.27190104552471"><ele>337.0</ele><time>2026-05-03T09:49:53Z</time></trkpt><trkpt lat="45.637018459863036" lon="8.272011442914442"><ele>337.0</ele><time>2026-05-03T09:49:54Z</time></trkpt><trkpt lat="45.636886910760126" lon="8.272118116760497"><ele>337.25</ele><time>2026-05-03T09:49:55Z</time></trkpt><trkpt lat="45.636749958510116" lon="8.272219792201732"><ele>337.5</ele><time>2026-05-03T09:49:56Z</time></trkpt><trkpt lat="45.63662481791642" lon="8.272305604817895"><ele>337.75</ele><time>2026-05-03T09:49:57Z</time></trkpt><trkpt lat="45.63650491030557" lon="8.272384279722816"><ele>338.0</ele><time>2026-05-03T09:49:58Z</time></trkpt><trkpt lat="45.63638969462396" lon="8.272473819722935"><ele>338.75</ele><time>2026-05-03T09:49:59Z</time></trkpt><trkpt lat="45.63628993203178" lon="8.272555117892042"><ele>339.5</ele><time>2026-05-03T09:50:00Z</time></trkpt><trkpt lat="45.636196911935684" lon="8.272653024037194"><ele>340.25</ele><time>2026-05-03T09:50:01Z</time></trkpt><trkpt lat="45.63610799844565" lon="8.27279824707454"><ele>341.0</ele><time>2026-05-03T09:50:02Z</time></trkpt><trkpt lat="45.63602334427156" lon="8.272976183297157"><ele>338.0</ele><time>2026-05-03T09:50:03Z</time></trkpt><trkpt lat="45.635958523053844" lon="8.273150222188299"><ele>335.0</ele><time>2026-05-03T09:50:04Z</time></trkpt><trkpt lat="45.63590675084778" lon="8.273306565550854"><ele>332.0</ele><time>2026-05-03T09:50:05Z</time></trkpt><trkpt lat="45.63584743757134" lon="8.273448983832244"><ele>329.0</ele><time>2026-05-03T09:50:06Z</time></trkpt><trkpt lat="45.63579380830429" lon="8.273585851246152"><ele>329.0</ele><time>2026-05-03T09:50:07Z</time></trkpt><trkpt lat="45.6357304943301" lon="8.27374366020245"><ele>329.0</ele><time>2026-05-03T09:50:08Z</time></trkpt><trkpt lat="45.635651899131666" lon="8.273889484961908"><ele>329.0</ele><time>2026-05-03T09:50:09Z</time></trkpt><trkpt lat="45.635555789628306" lon="8.27398430686967"><ele>329.0</ele><time>2026-05-03T09:50:10Z</time></trkpt><trkpt lat="45.635438006498134" lon="8.274023292894084"><ele>328.0</ele><time>2026-05-03T09:50:11Z</time></trkpt><trkpt lat="45.635294541426994" lon="8.274023667027354"><ele>327.0</ele><time>2026-05-03T09:50:12Z</time></trkpt><trkpt lat="45.63512137447905" lon="8.273989646014522"><ele>326.0</ele><time>2026-05-03T09:50:13Z</time></trkpt><trkpt lat="45.63492673577839" lon="8.273927482837117"><ele>326.0</ele><time>2026-05-03T09:50:14Z</time></trkpt><trkpt lat="45.63474500581774" lon="8.273866387040579"><ele>326.0</ele><time>2026-05-03T09:50:15Z</time></trkpt><trkpt lat="45.63458904532668" lon="8.27379970446856"><ele>326.0</ele><time>2026-05-03T09:50:16Z</time></trkpt><trkpt lat="45.63444462763427" lon="8.273718041195242"><ele>326.0</ele><time>2026-05-03T09:50:17Z</time></trkpt><trkpt lat="45.63431834385302" lon="8.273626557617789"><ele>326.0</ele><time>2026-05-03T09:50:18Z</time></trkpt><trkpt lat="45.634195162378" lon="8.27353345769056"><ele>326.0</ele><time>2026-05-03T09:50:19Z</time></trkpt><trkpt lat="45.63408069440771" lon="8.273443321257002"><ele>326.0</ele><time>2026-05-03T09:50:20Z</time></trkpt><trkpt lat="45.63397158850675" lon="8.27336588724666"><ele>326.0</ele><time>2026-05-03T09:50:21Z</time></trkpt><trkpt lat="45.63386643341475" lon="8.273297427012416"><ele>326.0</ele><time>2026-05-03T09:50:22Z</time></trkpt><trkpt lat="45.63374459036674" lon="8.273247008526466"><ele>326.0</ele><time>2026-05-03T09:50:23Z</time></trkpt><trkpt lat="45.633595829986895" lon="8.273214209342544"><ele>326.0</ele><time>2026-05-03T09:50:24Z</time></trkpt><trkpt lat="45.63343752213518" lon="8.273185133346907"><ele>325.6666666666667</ele><time>2026-05-03T09:50:25Z</time></trkpt><trkpt lat="45.633282482626335" lon="8.273175269335386"><ele>325.3333333333333</ele><time>2026-05-03T09:50:26Z</time></trkpt><trkpt lat="45.63311433160925" lon="8.273214502457137"><ele>325.0</ele><time>2026-05-03T09:50:27Z</time></trkpt><trkpt lat="45.63293988090516" lon="8.273280979166637"><ele>326.0</ele><time>2026-05-03T09:50:28Z</time></trkpt><trkpt lat="45.63276508430501" lon="8.273382746448847"><ele>327.0</ele><time>2026-05-03T09:50:29Z</time></trkpt><trkpt lat="45.63257816547664" lon="8.273522394743708"><ele>328.0</ele><time>2026-05-03T09:50:30Z</time></trkpt><trkpt lat="45.632392521157996" lon="8.27368831005566"><ele>328.0</ele><time>2026-05-03T09:50:31Z</time></trkpt><trkpt lat="45.632202583874104" lon="8.273833602450338"><ele>328.0</ele><time>2026-05-03T09:50:32Z</time></trkpt><trkpt lat="45.632028432744534" lon="8.27396290070516"><ele>328.0</ele><time>2026-05-03T09:50:33Z</time></trkpt><trkpt lat="45.631867497334085" lon="8.274089423620056"><ele>323.66666666666663</ele><time>2026-05-03T09:50:34Z</time></trkpt><trkpt lat="45.6317149938766" lon="8.27421190947722"><ele>319.3333333333333</ele><time>2026-05-03T09:50:35Z</time></trkpt><trkpt lat="45.63157735778983" lon="8.274354509094152"><ele>315.0</ele><time>2026-05-03T09:50:36Z</time></trkpt><trkpt lat="45.63148706089823" lon="8.274550571181038"><ele>314.0</ele><time>2026-05-03T09:50:37Z</time></trkpt><trkpt lat="45.63140511445701" lon="8.274802329953241"><ele>313.0</ele><time>2026-05-03T09:50:38Z</time></trkpt><trkpt lat="45.63134846888031" lon="8.275101849816224"><ele>312.0</ele><time>2026-05-03T09:50:39Z</time></trkpt><trkpt lat="45.63130780734279" lon="8.27543777179234"><ele>311.3333333333333</ele><time>2026-05-03T09:50:40Z</time></trkpt><trkpt lat="45.631275950204476" lon="8.275760141157393"><ele>310.66666666666663</ele><time>2026-05-03T09:50:41Z</time></trkpt><trkpt lat="45.631241437289404" lon="8.276045634590298"><ele>310.0</ele><time>2026-05-03T09:50:42Z</time></trkpt><trkpt lat="45.6312104464834" lon="8.276307697373463"><ele>309.66666666666663</ele><time>2026-05-03T09:50:43Z</time></trkpt><trkpt lat="45.63117372212447" lon="8.276556961005843"><ele>309.3333333333333</ele><time>2026-05-03T09:50:44Z</time></trkpt><trkpt lat="45.63113778937281" lon="8.276791932679195"><ele>309.0</ele><time>2026-05-03T09:50:45Z</time></trkpt><trkpt lat="45.631110184288296" lon="8.277014107306787"><ele>309.0</ele><time>2026-05-03T09:50:46Z</time></trkpt><trkpt lat="45.63108412570978" lon="8.27722206524721"><ele>309.0</ele><time>2026-05-03T09:50:47Z</time></trkpt><trkpt lat="45.631056073457366" lon="8.27745039525402"><ele>309.0</ele><time>2026-05-03T09:50:48Z</time></trkpt><trkpt lat="45.631010685231516" lon="8.277676249917246"><ele>309.6666666666667</ele><time>2026-05-03T09:50:49Z</time></trkpt><trkpt lat="45.630937804212" lon="8.277876912470576"><ele>310.33333333333337</ele><time>2026-05-03T09:50:50Z</time></trkpt><trkpt lat="45.63082371937007" lon="8.278044421356006"><ele>311.0</ele><time>2026-05-03T09:50:51Z</time></trkpt><trkpt lat="45.630667838902646" lon="8.27819178553907"><ele>310.0</ele><time>2026-05-03T09:50:52Z</time></trkpt><trkpt lat="45.63050844706644" lon="8.278347884819409"><ele>309.0</ele><time>2026-05-03T09:50:53Z</time></trkpt><trkpt lat="45.630359489812484" lon="8.278505531672925"><ele>308.0</ele><time>2026-05-03T09:50:54Z</time></trkpt><trkpt lat="45.63022666158855" lon="8.278659968540117"><ele>308.0</ele><time>2026-05-03T09:50:55Z</time></trkpt><trkpt lat="45.63010434806822" lon="8.278809167139102"><ele>308.0</ele><time>2026-05-03T09:50:56Z</time></trkpt><trkpt lat="45.62998678750505" lon="8.278946637789227"><ele>308.0</ele><time>2026-05-03T09:50:57Z</time></trkpt><trkpt lat="45.629858173893844" lon="8.279088440086673"><ele>307.6666666666667</ele><time>2026-05-03T09:50:58Z</time></trkpt><trkpt lat="45.62972653510078" lon="8.279247104360865"><ele>307.3333333333333</ele><time>2026-05-03T09:50:59Z</time></trkpt><trkpt lat="45.629585066358835" lon="8.279417137481879"><ele>307.0</ele><time>2026-05-03T09:51:00Z</time></trkpt><trkpt lat="45.62943900764402" lon="8.279592110547057"><ele>307.66666666666663</ele><time>2026-05-03T09:51:01Z</time></trkpt><trkpt lat="45.62928507387057" lon="8.279768981062189"><ele>308.3333333333333</ele><time>2026-05-03T09:51:02Z</time></trkpt><trkpt lat="45.62914040761936" lon="8.279934079022457"><ele>309.0</ele><time>2026-05-03T09:51:03Z</time></trkpt><trkpt lat="45.62900750239322" lon="8.280086596099448"><ele>309.0</ele><time>2026-05-03T09:51:04Z</time></trkpt><trkpt lat="45.628880990736505" lon="8.28023081080892"><ele>309.0</ele><time>2026-05-03T09:51:05Z</time></trkpt><trkpt lat="45.62876453511354" lon="8.280364712932965"><ele>309.0</ele><time>2026-05-03T09:51:06Z</time></trkpt><trkpt lat="45.62864108226608" lon="8.280492819833135"><ele>308.0</ele><time>2026-05-03T09:51:07Z</time></trkpt><trkpt lat="45.628495536238404" lon="8.28060907900248"><ele>307.0</ele><time>2026-05-03T09:51:08Z</time></trkpt><trkpt lat="45.62832837989443" lon="8.280693966574555"><ele>306.0</ele><time>2026-05-03T09:51:09Z</time></trkpt><trkpt lat="45.62814136438478" lon="8.280733875556974"><ele>306.0</ele><time>2026-05-03T09:51:10Z</time></trkpt><trkpt lat="45.627937171225405" lon="8.280737324114039"><ele>306.0</ele><time>2026-05-03T09:51:11Z</time></trkpt><trkpt lat="45.62773938282439" lon="8.280735634532387"><ele>306.0</ele><time>2026-05-03T09:51:12Z</time></trkpt><trkpt lat="45.62754210243448" lon="8.280737431171826"><ele>305.0</ele><time>2026-05-03T09:51:13Z</time></trkpt><trkpt lat="45.62736366349799" lon="8.28075061557453"><ele>304.0</ele><time>2026-05-03T09:51:14Z</time></trkpt><trkpt lat="45.62717893387903" lon="8.280760428398425"><ele>303.0</ele><time>2026-05-03T09:51:15Z</time></trkpt><trkpt lat="45.626997743540024" lon="8.280762024518763"><ele>302.0</ele><time>2026-05-03T09:51:16Z</time></trkpt><trkpt lat="45.6268187006259" lon="8.280731897472233"><ele>301.0</ele><time>2026-05-03T09:51:17Z</time></trkpt><trkpt lat="45.62662754731411" lon="8.28068055087358"><ele>300.0</ele><time>2026-05-03T09:51:18Z</time></trkpt><trkpt lat="45.62643445434744" lon="8.280611803960495"><ele>301.5</ele><time>2026-05-03T09:51:19Z</time></trkpt><trkpt lat="45.6262256719066" lon="8.28052464118862"><ele>303.0</ele><time>2026-05-03T09:51:20Z</time></trkpt><trkpt lat="45.62600383497462" lon="8.280423255428502"><ele>303.0</ele><time>2026-05-03T09:51:21Z</time></trkpt><trkpt lat="45.625797531817554" lon="8.280354174960927"><ele>303.0</ele><time>2026-05-03T09:51:22Z</time></trkpt><trkpt lat="45.62561399424557" lon="8.280292793567872"><ele>303.0</ele><time>2026-05-03T09:51:23Z</time></trkpt><trkpt lat="45.62544293132495" lon="8.280225878452619"><ele>302.6666666666667</ele><time>2026-05-03T09:51:24Z</time></trkpt><trkpt lat="45.62527680804082" lon="8.280155655312267"><ele>302.33333333333337</ele><time>2026-05-03T09:51:25Z</time></trkpt><trkpt lat="45.62512170101101" lon="8.280113448379302"><ele>302.0</ele><time>2026-05-03T09:51:26Z</time></trkpt><trkpt lat="45.62495516833375" lon="8.280102340658381"><ele>302.0</ele><time>2026-05-03T09:51:27Z</time></trkpt><trkpt lat="45.62479337571716" lon="8.280144384977557"><ele>302.0</ele><time>2026-05-03T09:51:28Z</time></trkpt><trkpt lat="45.62464592362737" lon="8.280209957673394"><ele>302.0</ele><time>2026-05-03T09:51:29Z</time></trkpt><trkpt lat="45.6245115760737" lon="8.280284651569772"><ele>301.5</ele><time>2026-05-03T09:51:30Z</time></trkpt><trkpt lat="45.624389608200445" lon="8.280357525965323"><ele>301.0</ele><time>2026-05-03T09:51:31Z</time></trkpt><trkpt lat="45.62427802345576" lon="8.280448014170293"><ele>300.5</ele><time>2026-05-03T09:51:32Z</time></trkpt><trkpt lat="45.624168015342526" lon="8.280545844510302"><ele>300.0</ele><time>2026-05-03T09:51:33Z</time></trkpt><trkpt lat="45.62405889952912" lon="8.280633268355592"><ele>300.0</ele><time>2026-05-03T09:51:34Z</time></trkpt><trkpt lat="45.62394527697926" lon="8.280718832941638"><ele>300.0</ele><time>2026-05-03T09:51:35Z</time></trkpt><trkpt lat="45.62382974289148" lon="8.280798407576103"><ele>300.0</ele><time>2026-05-03T09:51:36Z</time></trkpt><trkpt lat="45.6237147470823" lon="8.280882403710466"><ele>300.0</ele><time>2026-05-03T09:51:37Z</time></trkpt><trkpt lat="45.62360212137327" lon="8.280967553369418"><ele>302.0</ele><time>2026-05-03T09:51:38Z</time></trkpt><trkpt lat="45.623490749882315" lon="8.281059607737225"><ele>304.0</ele><time>2026-05-03T09:51:39Z</time></trkpt><trkpt lat="45.623377810326566" lon="8.281146474667002"><ele>306.0</ele><time>2026-05-03T09:51:40Z</time></trkpt><trkpt lat="45.62326905936709" lon="8.281217741119152"><ele>308.0</ele><time>2026-05-03T09:51:41Z</time></trkpt><trkpt lat="45.62316204686977" lon="8.281296364284703"><ele>308.0</ele><time>2026-05-03T09:51:42Z</time></trkpt><trkpt lat="45.623030826780635" lon="8.281378305553208"><ele>308.0</ele><time>2026-05-03T09:51:43Z</time></trkpt><trkpt lat="45.62289483971683" lon="8.281476408115916"><ele>308.0</ele><time>2026-05-03T09:51:44Z</time></trkpt><trkpt lat="45.62274420406693" lon="8.281586849390333"><ele>304.6666666666667</ele><time>2026-05-03T09:51:45Z</time></trkpt><trkpt lat="45.62260960128924" lon="8.281688905142662"><ele>301.3333333333333</ele><time>2026-05-03T09:51:46Z</time></trkpt><trkpt lat="45.62246217893603" lon="8.2817999594836"><ele>298.0</ele><time>2026-05-03T09:51:47Z</time></trkpt><trkpt lat="45.62230236004189" lon="8.281926427768205"><ele>298.0</ele><time>2026-05-03T09:51:48Z</time></trkpt><trkpt lat="45.622178842592035" lon="8.282021374419376"><ele>298.0</ele><time>2026-05-03T09:51:49Z</time></trkpt><trkpt lat="45.622080058738526" lon="8.28209312038622"><ele>298.0</ele><time>2026-05-03T09:51:50Z</time></trkpt><trkpt lat="45.62197926257036" lon="8.282159743004769"><ele>298.0</ele><time>2026-05-03T09:51:51Z</time></trkpt><trkpt lat="45.62187543420742" lon="8.28222253505009"><ele>297.0</ele><time>2026-05-03T09:51:52Z</time></trkpt><trkpt lat="45.62176150845435" lon="8.28229672059368"><ele>296.0</ele><time>2026-05-03T09:51:53Z</time></trkpt><trkpt lat="45.62165094181294" lon="8.282378749393187"><ele>295.0</ele><time>2026-05-03T09:51:54Z</time></trkpt><trkpt lat="45.62153867733683" lon="8.282463331745117"><ele>294.0</ele><time>2026-05-03T09:51:55Z</time></trkpt><trkpt lat="45.62142561070059" lon="8.28254969107497"><ele>294.0</ele><time>2026-05-03T09:51:56Z</time></trkpt><trkpt lat="45.621314080779584" lon="8.282635743433076"><ele>294.0</ele><time>2026-05-03T09:51:57Z</time></trkpt><trkpt lat="45.621207147210576" lon="8.282727896057983"><ele>294.0</ele><time>2026-05-03T09:51:58Z</time></trkpt><trkpt lat="45.62109028129125" lon="8.282817057531412"><ele>294.0</ele><time>2026-05-03T09:51:59Z</time></trkpt><trkpt lat="45.62096598979331" lon="8.282903891784285"><ele>294.0</ele><time>2026-05-03T09:52:00Z</time></trkpt><trkpt lat="45.62083396069315" lon="8.282974143836968"><ele>294.0</ele><time>2026-05-03T09:52:01Z</time></trkpt><trkpt lat="45.62071890691433" lon="8.283026153971564"><ele>294.0</ele><time>2026-05-03T09:52:02Z</time></trkpt><trkpt lat="45.62060373048177" lon="8.283099899346935"><ele>294.0</ele><time>2026-05-03T09:52:03Z</time></trkpt><trkpt lat="45.62048580530845" lon="8.283196903406138"><ele>294.0</ele><time>2026-05-03T09:52:04Z</time></trkpt><trkpt lat="45.62034094675834" lon="8.283334547122456"><ele>294.0</ele><time>2026-05-03T09:52:05Z</time></trkpt><trkpt lat="45.620238716276894" lon="8.283460238578616"><ele>294.0</ele><time>2026-05-03T09:52:06Z</time></trkpt><trkpt lat="45.620142200954355" lon="8.283612510480861"><ele>294.25</ele><time>2026-05-03T09:52:07Z</time></trkpt><trkpt lat="45.62005433213318" lon="8.2837838747461"><ele>294.5</ele><time>2026-05-03T09:52:08Z</time></trkpt><trkpt lat="45.61996796321544" lon="8.283956719980386"><ele>294.75</ele><time>2026-05-03T09:52:09Z</time></trkpt><trkpt lat="45.619877748269424" lon="8.284122515802068"><ele>295.0</ele><time>2026-05-03T09:52:10Z</time></trkpt><trkpt lat="45.61977500848153" lon="8.28427150617094"><ele>294.66666666666663</ele><time>2026-05-03T09:52:11Z</time></trkpt><trkpt lat="45.6196496704729" lon="8.284409092347456"><ele>294.3333333333333</ele><time>2026-05-03T09:52:12Z</time></trkpt><trkpt lat="45.61951245236532" lon="8.284531315721981"><ele>294.0</ele><time>2026-05-03T09:52:13Z</time></trkpt><trkpt lat="45.61935986164312" lon="8.284630721991077"><ele>294.0</ele><time>2026-05-03T09:52:14Z</time></trkpt><trkpt lat="45.61918481078536" lon="8.284698029602389"><ele>294.0</ele><time>2026-05-03T09:52:15Z</time></trkpt><trkpt lat="45.618999313593626" lon="8.284726398425166"><ele>294.0</ele><time>2026-05-03T09:52:16Z</time></trkpt><trkpt lat="45.61879978749465" lon="8.284726604587194"><ele>293.6666666666667</ele><time>2026-05-03T09:52:17Z</time></trkpt><trkpt lat="45.61859986307177" lon="8.284668314853326"><ele>293.33333333333337</ele><time>2026-05-03T09:52:18Z</time></trkpt><trkpt lat="45.618402330420196" lon="8.284594043264441"><ele>293.0</ele><time>2026-05-03T09:52:19Z</time></trkpt><trkpt lat="45.618245862547255" lon="8.284491753954088"><ele>293.0</ele><time>2026-05-03T09:52:20Z</time></trkpt><trkpt lat="45.61811934449102" lon="8.284382201020875"><ele>293.0</ele><time>2026-05-03T09:52:21Z</time></trkpt><trkpt lat="45.617996839085315" lon="8.284294460843029"><ele>293.0</ele><time>2026-05-03T09:52:22Z</time></trkpt><trkpt lat="45.61786182222649" lon="8.284268559223042"><ele>293.0</ele><time>2026-05-03T09:52:23Z</time></trkpt><trkpt lat="45.61773350715035" lon="8.284309586137798"><ele>293.0</ele><time>2026-05-03T09:52:24Z</time></trkpt><trkpt lat="45.6176297299972" lon="8.284391432356545"><ele>293.0</ele><time>2026-05-03T09:52:25Z</time></trkpt><trkpt lat="45.617545493683636" lon="8.2844796178598"><ele>293.0</ele><time>2026-05-03T09:52:26Z</time></trkpt><trkpt lat="45.61745996141213" lon="8.284547943752395"><ele>293.0</ele><time>2026-05-03T09:52:27Z</time></trkpt><trkpt lat="45.61737380107855" lon="8.284612065594727"><ele>293.0</ele><time>2026-05-03T09:52:28Z</time></trkpt><trkpt lat="45.617277070733316" lon="8.28468693216222"><ele>292.5</ele><time>2026-05-03T09:52:29Z</time></trkpt><trkpt lat="45.61716529186925" lon="8.284770496172106"><ele>292.0</ele><time>2026-05-03T09:52:30Z</time></trkpt><trkpt lat="45.617045603601234" lon="8.284850737602897"><ele>291.5</ele><time>2026-05-03T09:52:31Z</time></trkpt><trkpt lat="45.61694112551907" lon="8.284913149860326"><ele>291.0</ele><time>2026-05-03T09:52:32Z</time></trkpt><trkpt lat="45.61683911428782" lon="8.28498907236151"><ele>291.0</ele><time>2026-05-03T09:52:33Z</time></trkpt><trkpt lat="45.61672883532635" lon="8.285074699148725"><ele>291.0</ele><time>2026-05-03T09:52:34Z</time></trkpt><trkpt lat="45.61661014550109" lon="8.285169680806723"><ele>291.0</ele><time>2026-05-03T09:52:35Z</time></trkpt><trkpt lat="45.61648674426059" lon="8.285271251077848"><ele>291.0</ele><time>2026-05-03T09:52:36Z</time></trkpt><trkpt lat="45.616360760492746" lon="8.285371586477352"><ele>291.0</ele><time>2026-05-03T09:52:37Z</time></trkpt><trkpt lat="45.61623454474463" lon="8.285466439075318"><ele>291.0</ele><time>2026-05-03T09:52:38Z</time></trkpt><trkpt lat="45.61612361807552" lon="8.285553155988117"><ele>291.0</ele><time>2026-05-03T09:52:39Z</time></trkpt><trkpt lat="45.61600090480876" lon="8.285659148509115"><ele>291.0</ele><time>2026-05-03T09:52:40Z</time></trkpt><trkpt lat="45.61589142304131" lon="8.285752090655139"><ele>292.5</ele><time>2026-05-03T09:52:41Z</time></trkpt><trkpt lat="45.61578355364069" lon="8.285856271529"><ele>294.0</ele><time>2026-05-03T09:52:42Z</time></trkpt><trkpt lat="45.6156731276208" lon="8.285955858528542"><ele>295.5</ele><time>2026-05-03T09:52:43Z</time></trkpt><trkpt lat="45.615554258909256" lon="8.286064769793748"><ele>297.0</ele><time>2026-05-03T09:52:44Z</time></trkpt><trkpt lat="45.615431432179555" lon="8.286180551712608"><ele>296.0</ele><time>2026-05-03T09:52:45Z</time></trkpt><trkpt lat="45.61530061220966" lon="8.286289239265768"><ele>295.0</ele><time>2026-05-03T09:52:46Z</time></trkpt><trkpt lat="45.615169639514015" lon="8.28641346643909"><ele>294.0</ele><time>2026-05-03T09:52:47Z</time></trkpt><trkpt lat="45.61504174228618" lon="8.286529071292621"><ele>294.0</ele><time>2026-05-03T09:52:48Z</time></trkpt><trkpt lat="45.61490392478881" lon="8.286655720115178"><ele>294.0</ele><time>2026-05-03T09:52:49Z</time></trkpt><trkpt lat="45.61476762838891" lon="8.286774202049902"><ele>294.0</ele><time>2026-05-03T09:52:50Z</time></trkpt><trkpt lat="45.614613048456015" lon="8.286855559518314"><ele>295.6666666666667</ele><time>2026-05-03T09:52:51Z</time></trkpt><trkpt lat="45.61446762991453" lon="8.286968139194249"><ele>297.33333333333337</ele><time>2026-05-03T09:52:52Z</time></trkpt><trkpt lat="45.614312753577664" lon="8.287047775831349"><ele>299.0</ele><time>2026-05-03T09:52:53Z</time></trkpt><trkpt lat="45.614154591561054" lon="8.287127250089313"><ele>299.0</ele><time>2026-05-03T09:52:54Z</time></trkpt><trkpt lat="45.61399004971558" lon="8.28720617223417"><ele>299.0</ele><time>2026-05-03T09:52:55Z</time></trkpt><trkpt lat="45.61382940039524" lon="8.287253147427073"><ele>299.0</ele><time>2026-05-03T09:52:56Z</time></trkpt><trkpt lat="45.613678758392155" lon="8.287312251918143"><ele>297.75</ele><time>2026-05-03T09:52:57Z</time></trkpt><trkpt lat="45.61354781106046" lon="8.287383002695254"><ele>296.5</ele><time>2026-05-03T09:52:58Z</time></trkpt><trkpt lat="45.61341151904101" lon="8.287425550240515"><ele>295.25</ele><time>2026-05-03T09:52:59Z</time></trkpt><trkpt lat="45.6132711718445" lon="8.287470626542344"><ele>294.0</ele><time>2026-05-03T09:53:00Z</time></trkpt><trkpt lat="45.61311676517295" lon="8.287536613519473"><ele>294.0</ele><time>2026-05-03T09:53:01Z</time></trkpt><trkpt lat="45.61295817827232" lon="8.2876097323992"><ele>294.0</ele><time>2026-05-03T09:53:02Z</time></trkpt><trkpt lat="45.61280736954017" lon="8.287696078635733"><ele>294.0</ele><time>2026-05-03T09:53:03Z</time></trkpt><trkpt lat="45.61267262868023" lon="8.287779578597373"><ele>296.3333333333333</ele><time>2026-05-03T09:53:04Z</time></trkpt><trkpt lat="45.612536405262865" lon="8.287870811585735"><ele>298.66666666666663</ele><time>2026-05-03T09:53:05Z</time></trkpt><trkpt lat="45.61238702094534" lon="8.287976597205834"><ele>301.0</ele><time>2026-05-03T09:53:06Z</time></trkpt><trkpt lat="45.61222674996476" lon="8.288074644851902"><ele>298.0</ele><time>2026-05-03T09:53:07Z</time></trkpt><trkpt lat="45.61205765481457" lon="8.288182366081587"><ele>295.0</ele><time>2026-05-03T09:53:08Z</time></trkpt><trkpt lat="45.6118765981611" lon="8.288294745269724"><ele>292.0</ele><time>2026-05-03T09:53:09Z</time></trkpt><trkpt lat="45.61167540788583" lon="8.28842427709773"><ele>290.0</ele><time>2026-05-03T09:53:10Z</time></trkpt><trkpt lat="45.61150853644017" lon="8.288527135005818"><ele>288.0</ele><time>2026-05-03T09:53:11Z</time></trkpt><trkpt lat="45.61133606104975" lon="8.288583482585485"><ele>286.0</ele><time>2026-05-03T09:53:12Z</time></trkpt><trkpt lat="45.61118823057952" lon="8.288585808498427"><ele>285.3333333333333</ele><time>2026-05-03T09:53:13Z</time></trkpt><trkpt lat="45.61104038438717" lon="8.288594964705124"><ele>284.6666666666667</ele><time>2026-05-03T09:53:14Z</time></trkpt><trkpt lat="45.61088797938406" lon="8.288626878388978"><ele>284.0</ele><time>2026-05-03T09:53:15Z</time></trkpt><trkpt lat="45.610719642294434" lon="8.288633675747827"><ele>284.0</ele><time>2026-05-03T09:53:16Z</time></trkpt><trkpt lat="45.610553696999716" lon="8.288641857568008"><ele>284.0</ele><time>2026-05-03T09:53:17Z</time></trkpt><trkpt lat="45.61040868393665" lon="8.288651964430482"><ele>284.0</ele><time>2026-05-03T09:53:18Z</time></trkpt><trkpt lat="45.61026803657075" lon="8.288655426843336"><ele>284.25</ele><time>2026-05-03T09:53:19Z</time></trkpt><trkpt lat="45.61012945247424" lon="8.288658869563038"><ele>284.5</ele><time>2026-05-03T09:53:20Z</time></trkpt><trkpt lat="45.60998966354813" lon="8.288668822890674"><ele>284.75</ele><time>2026-05-03T09:53:21Z</time></trkpt><trkpt lat="45.60985256051168" lon="8.28867858497648"><ele>285.0</ele><time>2026-05-03T09:53:22Z</time></trkpt><trkpt lat="45.60970883084196" lon="8.288689131987496"><ele>285.0</ele><time>2026-05-03T09:53:23Z</time></trkpt><trkpt lat="45.60954167595935" lon="8.288701324866794"><ele>285.0</ele><time>2026-05-03T09:53:24Z</time></trkpt><trkpt lat="45.60938447738084" lon="8.288729471778549"><ele>285.0</ele><time>2026-05-03T09:53:25Z</time></trkpt><trkpt lat="45.60924140913402" lon="8.288722331805833"><ele>285.5</ele><time>2026-05-03T09:53:26Z</time></trkpt><trkpt lat="45.60910991654218" lon="8.288731541492652"><ele>286.0</ele><time>2026-05-03T09:53:27Z</time></trkpt><trkpt lat="45.608973011234255" lon="8.288741130285755"><ele>286.5</ele><time>2026-05-03T09:53:28Z</time></trkpt><trkpt lat="45.60883919497304" lon="8.288750502722245"><ele>287.0</ele><time>2026-05-03T09:53:29Z</time></trkpt><trkpt lat="45.60871535853588" lon="8.288782839764359"><ele>287.25</ele><time>2026-05-03T09:53:30Z</time></trkpt><trkpt lat="45.60859350698339" lon="8.288766641016688"><ele>287.5</ele><time>2026-05-03T09:53:31Z</time></trkpt><trkpt lat="45.608453495973876" lon="8.288776740045835"><ele>287.75</ele><time>2026-05-03T09:53:32Z</time></trkpt><trkpt lat="45.60831058077523" lon="8.288787134757767"><ele>288.0</ele><time>2026-05-03T09:53:33Z</time></trkpt><trkpt lat="45.608151844116776" lon="8.28879871442605"><ele>288.0</ele><time>2026-05-03T09:53:34Z</time></trkpt><trkpt lat="45.60799028608332" lon="8.288810505436823"><ele>288.0</ele><time>2026-05-03T09:53:35Z</time></trkpt><trkpt lat="45.60781988665509" lon="8.288822941713342"><ele>288.0</ele><time>2026-05-03T09:53:36Z</time></trkpt><trkpt lat="45.60767002472066" lon="8.288833835920112"><ele>288.25</ele><time>2026-05-03T09:53:37Z</time></trkpt><trkpt lat="45.60753017915287" lon="8.288843971923463"><ele>288.5</ele><time>2026-05-03T09:53:38Z</time></trkpt><trkpt lat="45.60740096168424" lon="8.288863937222779"><ele>288.75</ele><time>2026-05-03T09:53:39Z</time></trkpt><trkpt lat="45.60727487510079" lon="8.288879202210307"><ele>289.0</ele><time>2026-05-03T09:53:40Z</time></trkpt><trkpt lat="45.6071563136631" lon="8.28888108558058"><ele>289.0</ele><time>2026-05-03T09:53:41Z</time></trkpt><trkpt lat="45.60702598321782" lon="8.288900620456443"><ele>289.0</ele><time>2026-05-03T09:53:42Z</time></trkpt><trkpt lat="45.60686079364616" lon="8.288893306012515"><ele>289.0</ele><time>2026-05-03T09:53:43Z</time></trkpt><trkpt lat="45.60669226724835" lon="8.288925355136547"><ele>286.0</ele><time>2026-05-03T09:53:44Z</time></trkpt><trkpt lat="45.6065421077014" lon="8.288926117667677"><ele>283.0</ele><time>2026-05-03T09:53:45Z</time></trkpt><trkpt lat="45.60639928506514" lon="8.28895020367205"><ele>280.0</ele><time>2026-05-03T09:53:46Z</time></trkpt><trkpt lat="45.60622592485496" lon="8.289017855107536"><ele>281.0</ele><time>2026-05-03T09:53:47Z</time></trkpt><trkpt lat="45.60605083937648" lon="8.289071873013242"><ele>282.0</ele><time>2026-05-03T09:53:48Z</time></trkpt><trkpt lat="45.60587566511105" lon="8.289133894070675"><ele>283.0</ele><time>2026-05-03T09:53:49Z</time></trkpt><trkpt lat="45.60572892187784" lon="8.289179232484981"><ele>283.0</ele><time>2026-05-03T09:53:50Z</time></trkpt><trkpt lat="45.60557549091723" lon="8.289211288910382"><ele>283.0</ele><time>2026-05-03T09:53:51Z</time></trkpt><trkpt lat="45.60541381995004" lon="8.289233255641049"><ele>283.0</ele><time>2026-05-03T09:53:52Z</time></trkpt><trkpt lat="45.60524563629602" lon="8.289251381797916"><ele>282.5</ele><time>2026-05-03T09:53:53Z</time></trkpt><trkpt lat="45.605085129659074" lon="8.2892894641829"><ele>282.0</ele><time>2026-05-03T09:53:54Z</time></trkpt><trkpt lat="45.604950197864035" lon="8.289278950746736"><ele>281.5</ele><time>2026-05-03T09:53:55Z</time></trkpt><trkpt lat="45.60481149039689" lon="8.289291894321407"><ele>281.0</ele><time>2026-05-03T09:53:56Z</time></trkpt><trkpt lat="45.60464871507849" lon="8.289311005691927"><ele>281.33333333333337</ele><time>2026-05-03T09:53:57Z</time></trkpt><trkpt lat="45.6044748332203" lon="8.289317878736252"><ele>281.6666666666667</ele><time>2026-05-03T09:53:58Z</time></trkpt><trkpt lat="45.60429943002568" lon="8.289336612954495"><ele>282.0</ele><time>2026-05-03T09:53:59Z</time></trkpt><trkpt lat="45.60414284156499" lon="8.289347920366053"><ele>282.0</ele><time>2026-05-03T09:54:00Z</time></trkpt><trkpt lat="45.60397641929436" lon="8.289360334837456"><ele>282.0</ele><time>2026-05-03T09:54:01Z</time></trkpt><trkpt lat="45.60380385371857" lon="8.289379719139403"><ele>282.0</ele><time>2026-05-03T09:54:02Z</time></trkpt><trkpt lat="45.60363120973626" lon="8.28941632964087"><ele>284.0</ele><time>2026-05-03T09:54:03Z</time></trkpt><trkpt lat="45.60345739013631" lon="8.289490713996631"><ele>286.0</ele><time>2026-05-03T09:54:04Z</time></trkpt><trkpt lat="45.603293085787705" lon="8.289574073453121"><ele>288.0</ele><time>2026-05-03T09:54:05Z</time></trkpt><trkpt lat="45.60313282388726" lon="8.289666859751069"><ele>286.0</ele><time>2026-05-03T09:54:06Z</time></trkpt><trkpt lat="45.60297156921367" lon="8.289760612539318"><ele>284.0</ele><time>2026-05-03T09:54:07Z</time></trkpt><trkpt lat="45.602814750869584" lon="8.289850657603136"><ele>282.0</ele><time>2026-05-03T09:54:08Z</time></trkpt><trkpt lat="45.602661251513695" lon="8.289938191308352"><ele>282.0</ele><time>2026-05-03T09:54:09Z</time></trkpt><trkpt lat="45.60250632946612" lon="8.290018775136202"><ele>282.0</ele><time>2026-05-03T09:54:10Z</time></trkpt><trkpt lat="45.6023474279821" lon="8.290106118840642"><ele>282.0</ele><time>2026-05-03T09:54:11Z</time></trkpt><trkpt lat="45.60219307960779" lon="8.290191707830845"><ele>282.0</ele><time>2026-05-03T09:54:12Z</time></trkpt><trkpt lat="45.60203390272838" lon="8.29028265619414"><ele>282.0</ele><time>2026-05-03T09:54:13Z</time></trkpt><trkpt lat="45.601869913813594" lon="8.290370400425669"><ele>282.0</ele><time>2026-05-03T09:54:14Z</time></trkpt><trkpt lat="45.601716403369885" lon="8.290450242104834"><ele>283.3333333333333</ele><time>2026-05-03T09:54:15Z</time></trkpt><trkpt lat="45.60155814465459" lon="8.290539528911165"><ele>284.66666666666663</ele><time>2026-05-03T09:54:16Z</time></trkpt><trkpt lat="45.60140049569658" lon="8.290628248648678"><ele>286.0</ele><time>2026-05-03T09:54:17Z</time></trkpt><trkpt lat="45.601248171169395" lon="8.290713422400188"><ele>282.75</ele><time>2026-05-03T09:54:18Z</time></trkpt><trkpt lat="45.60110674638427" lon="8.290799579782583"><ele>279.5</ele><time>2026-05-03T09:54:19Z</time></trkpt><trkpt lat="45.60097583017809" lon="8.29087779852828"><ele>276.25</ele><time>2026-05-03T09:54:20Z</time></trkpt><trkpt lat="45.60085067505703" lon="8.290940834046749"><ele>273.0</ele><time>2026-05-03T09:54:21Z</time></trkpt><trkpt lat="45.60072433288365" lon="8.291013052427498"><ele>273.0</ele><time>2026-05-03T09:54:22Z</time></trkpt><trkpt lat="45.60058830196589" lon="8.291090921861821"><ele>273.0</ele><time>2026-05-03T09:54:23Z</time></trkpt><trkpt lat="45.60045430040709" lon="8.291163701513922"><ele>273.0</ele><time>2026-05-03T09:54:24Z</time></trkpt><trkpt lat="45.60031940605134" lon="8.291244946643845"><ele>273.0</ele><time>2026-05-03T09:54:25Z</time></trkpt><trkpt lat="45.60017171652774" lon="8.291320683234122"><ele>272.75</ele><time>2026-05-03T09:54:26Z</time></trkpt><trkpt lat="45.60002082088324" lon="8.291395070360512"><ele>272.5</ele><time>2026-05-03T09:54:27Z</time></trkpt><trkpt lat="45.59989036220505" lon="8.291471656790586"><ele>272.25</ele><time>2026-05-03T09:54:28Z</time></trkpt><trkpt lat="45.59976393996488" lon="8.291536353585629"><ele>272.0</ele><time>2026-05-03T09:54:29Z</time></trkpt><trkpt lat="45.599646990767" lon="8.291594888704369"><ele>271.6</ele><time>2026-05-03T09:54:30Z</time></trkpt><trkpt lat="45.59954401136586" lon="8.291643543272798"><ele>271.2</ele><time>2026-05-03T09:54:31Z</time></trkpt><trkpt lat="45.59945295071678" lon="8.291651298858868"><ele>270.8</ele><time>2026-05-03T09:54:32Z</time></trkpt><trkpt lat="45.599380208617816" lon="8.291642223824727"><ele>270.4</ele><time>2026-05-03T09:54:33Z</time></trkpt><trkpt lat="45.599276731157445" lon="8.291622365494304"><ele>270.0</ele><time>2026-05-03T09:54:36Z</time></trkpt><trkpt lat="45.59921179007679" lon="8.291575967160197"><ele>270.0</ele><time>2026-05-03T09:54:37Z</time></trkpt><trkpt lat="45.59910456324333" lon="8.29154254117627"><ele>270.0</ele><time>2026-05-03T09:54:39Z</time></trkpt><trkpt lat="45.59905309755268" lon="8.291686692718411"><ele>270.0</ele><time>2026-05-03T09:54:40Z</time></trkpt><trkpt lat="45.59905295611296" lon="8.291792327720865"><ele>270.0</ele><time>2026-05-03T09:54:41Z</time></trkpt><trkpt lat="45.59910745897694" lon="8.29190824277394"><ele>270.0</ele><time>2026-05-03T09:54:42Z</time></trkpt><trkpt lat="45.59919376565964" lon="8.292029696173238"><ele>270.0</ele><time>2026-05-03T09:54:43Z</time></trkpt><trkpt lat="45.5992902484668" lon="8.292163556941277"><ele>270.0</ele><time>2026-05-03T09:54:44Z</time></trkpt><trkpt lat="45.599351209101485" lon="8.292321083092451"><ele>270.0</ele><time>2026-05-03T09:54:45Z</time></trkpt><trkpt lat="45.59940096131651" lon="8.292494206756304"><ele>270.0</ele><time>2026-05-03T09:54:46Z</time></trkpt><trkpt lat="45.599448816977436" lon="8.29268121213141"><ele>270.25</ele><time>2026-05-03T09:54:47Z</time></trkpt><trkpt lat="45.59950473862547" lon="8.292868797342653"><ele>270.5</ele><time>2026-05-03T09:54:48Z</time></trkpt><trkpt lat="45.59956365031594" lon="8.293057439129187"><ele>270.75</ele><time>2026-05-03T09:54:49Z</time></trkpt><trkpt lat="45.599616204170324" lon="8.29324176545511"><ele>271.0</ele><time>2026-05-03T09:54:50Z</time></trkpt><trkpt lat="45.59967019216428" lon="8.293426388873305"><ele>271.3333333333333</ele><time>2026-05-03T09:54:51Z</time></trkpt><trkpt lat="45.59973282562826" lon="8.293619510256466"><ele>271.6666666666667</ele><time>2026-05-03T09:54:52Z</time></trkpt><trkpt lat="45.599792122950355" lon="8.293814478508162"><ele>272.0</ele><time>2026-05-03T09:54:53Z</time></trkpt><trkpt lat="45.599854651463275" lon="8.294012656021524"><ele>271.33333333333337</ele><time>2026-05-03T09:54:54Z</time></trkpt><trkpt lat="45.5999169002334" lon="8.294219902257042"><ele>270.6666666666667</ele><time>2026-05-03T09:54:55Z</time></trkpt><trkpt lat="45.59998025928994" lon="8.294431301915635"><ele>270.0</ele><time>2026-05-03T09:54:56Z</time></trkpt><trkpt lat="45.60004468622524" lon="8.294646479798821"><ele>270.0</ele><time>2026-05-03T09:54:57Z</time></trkpt><trkpt lat="45.600108614056474" lon="8.294865291134474"><ele>270.0</ele><time>2026-05-03T09:54:58Z</time></trkpt><trkpt lat="45.60017650216808" lon="8.295093250663134"><ele>270.0</ele><time>2026-05-03T09:54:59Z</time></trkpt><trkpt lat="45.6002491468438" lon="8.295322502999298"><ele>270.0</ele><time>2026-05-03T09:55:00Z</time></trkpt><trkpt lat="45.60032498248386" lon="8.295569856565141"><ele>270.0</ele><time>2026-05-03T09:55:01Z</time></trkpt><trkpt lat="45.60039985494152" lon="8.295824148050528"><ele>270.0</ele><time>2026-05-03T09:55:02Z</time></trkpt><trkpt lat="45.60047772422634" lon="8.296077987151612"><ele>270.5</ele><time>2026-05-03T09:55:03Z</time></trkpt><trkpt lat="45.600560068919975" lon="8.296357840717613"><ele>271.0</ele><time>2026-05-03T09:55:04Z</time></trkpt><trkpt lat="45.60065129634991" lon="8.296670708729716"><ele>271.0</ele><time>2026-05-03T09:55:05Z</time></trkpt><trkpt lat="45.600757307944804" lon="8.297005996878342"><ele>271.0</ele><time>2026-05-03T09:55:06Z</time></trkpt><trkpt lat="45.600868910042145" lon="8.297364387072067"><ele>271.0</ele><time>2026-05-03T09:55:07Z</time></trkpt><trkpt lat="45.60096741727308" lon="8.297680619701723"><ele>271.0</ele><time>2026-05-03T09:55:08Z</time></trkpt><trkpt lat="45.60105153817126" lon="8.297959504738774"><ele>271.0</ele><time>2026-05-03T09:55:09Z</time></trkpt><trkpt lat="45.60112835944145" lon="8.298217291273321"><ele>271.0</ele><time>2026-05-03T09:55:10Z</time></trkpt><trkpt lat="45.6011911454029" lon="8.298479155384634"><ele>271.0</ele><time>2026-05-03T09:55:11Z</time></trkpt><trkpt lat="45.60126292174778" lon="8.298717558838963"><ele>272.66666666666663</ele><time>2026-05-03T09:55:12Z</time></trkpt><trkpt lat="45.601344818346526" lon="8.29893539218433"><ele>274.3333333333333</ele><time>2026-05-03T09:55:13Z</time></trkpt><trkpt lat="45.60141449185393" lon="8.299167800192077"><ele>276.0</ele><time>2026-05-03T09:55:14Z</time></trkpt><trkpt lat="45.601487466754186" lon="8.299408060073105"><ele>276.0</ele><time>2026-05-03T09:55:15Z</time></trkpt><trkpt lat="45.6015581453377" lon="8.299649990860562"><ele>276.0</ele><time>2026-05-03T09:55:16Z</time></trkpt><trkpt lat="45.60162737783801" lon="8.299885284868296"><ele>276.0</ele><time>2026-05-03T09:55:17Z</time></trkpt><trkpt lat="45.6016941283889" lon="8.300101419958654"><ele>276.25</ele><time>2026-05-03T09:55:18Z</time></trkpt><trkpt lat="45.60175518347066" lon="8.30029985920307"><ele>276.5</ele><time>2026-05-03T09:55:19Z</time></trkpt><trkpt lat="45.60180453351966" lon="8.300474963664376"><ele>276.75</ele><time>2026-05-03T09:55:20Z</time></trkpt><trkpt lat="45.60186633294249" lon="8.300672280606642"><ele>277.0</ele><time>2026-05-03T09:55:21Z</time></trkpt><trkpt lat="45.601926786745345" lon="8.300876004339539"><ele>277.3333333333333</ele><time>2026-05-03T09:55:22Z</time></trkpt><trkpt lat="45.60199179645771" lon="8.301091330631406"><ele>277.6666666666667</ele><time>2026-05-03T09:55:23Z</time></trkpt><trkpt lat="45.60205795042733" lon="8.301313307228494"><ele>278.0</ele><time>2026-05-03T09:55:24Z</time></trkpt><trkpt lat="45.6021124497825" lon="8.301552160178868"><ele>278.33333333333337</ele><time>2026-05-03T09:55:25Z</time></trkpt><trkpt lat="45.60218294465917" lon="8.301787062383958"><ele>278.6666666666667</ele><time>2026-05-03T09:55:26Z</time></trkpt><trkpt lat="45.60225465625776" lon="8.302026018896568"><ele>279.0</ele><time>2026-05-03T09:55:27Z</time></trkpt><trkpt lat="45.602342425946595" lon="8.302258879559117"><ele>279.0</ele><time>2026-05-03T09:55:28Z</time></trkpt><trkpt lat="45.602403320684175" lon="8.302521039973437"><ele>279.0</ele><time>2026-05-03T09:55:29Z</time></trkpt><trkpt lat="45.602497086469334" lon="8.302773107093424"><ele>279.0</ele><time>2026-05-03T09:55:30Z</time></trkpt><trkpt lat="45.60257364929881" lon="8.303035177449226"><ele>279.3333333333333</ele><time>2026-05-03T09:55:31Z</time></trkpt><trkpt lat="45.6026393358658" lon="8.303305137656253"><ele>279.66666666666663</ele><time>2026-05-03T09:55:32Z</time></trkpt><trkpt lat="45.60271868223781" lon="8.303568744861423"><ele>280.0</ele><time>2026-05-03T09:55:33Z</time></trkpt><trkpt lat="45.602798530684545" lon="8.303834262785871"><ele>279.66666666666663</ele><time>2026-05-03T09:55:34Z</time></trkpt><trkpt lat="45.60289048437065" lon="8.304082631392145"><ele>279.3333333333333</ele><time>2026-05-03T09:55:35Z</time></trkpt><trkpt lat="45.60296435193886" lon="8.30432645619845"><ele>279.0</ele><time>2026-05-03T09:55:36Z</time></trkpt><trkpt lat="45.603021084463236" lon="8.30457284441311"><ele>278.6666666666667</ele><time>2026-05-03T09:55:37Z</time></trkpt><trkpt lat="45.60309105989582" lon="8.30480374478026"><ele>278.33333333333337</ele><time>2026-05-03T09:55:38Z</time></trkpt><trkpt lat="45.6031599378005" lon="8.305031023480867"><ele>278.0</ele><time>2026-05-03T09:55:39Z</time></trkpt><trkpt lat="45.60324713400913" lon="8.305254966999426"><ele>278.0</ele><time>2026-05-03T09:55:40Z</time></trkpt><trkpt lat="45.60331792993902" lon="8.305493720530993"><ele>278.0</ele><time>2026-05-03T09:55:41Z</time></trkpt><trkpt lat="45.603388808560226" lon="8.30573489670381"><ele>278.0</ele><time>2026-05-03T09:55:42Z</time></trkpt><trkpt lat="45.60346222960814" lon="8.3059805671867"><ele>278.33333333333337</ele><time>2026-05-03T09:55:43Z</time></trkpt><trkpt lat="45.60353980205312" lon="8.306247610786844"><ele>278.6666666666667</ele><time>2026-05-03T09:55:44Z</time></trkpt><trkpt lat="45.60362383952775" lon="8.30652797219679"><ele>279.0</ele><time>2026-05-03T09:55:45Z</time></trkpt><trkpt lat="45.603690845678415" lon="8.306806915935423"><ele>279.6666666666667</ele><time>2026-05-03T09:55:46Z</time></trkpt><trkpt lat="45.603772709398996" lon="8.307080569013365"><ele>280.33333333333337</ele><time>2026-05-03T09:55:47Z</time></trkpt><trkpt lat="45.60385563524948" lon="8.307357334740281"><ele>281.0</ele><time>2026-05-03T09:55:48Z</time></trkpt><trkpt lat="45.60393734065072" lon="8.307629062393449"><ele>281.0</ele><time>2026-05-03T09:55:49Z</time></trkpt><trkpt lat="45.60401612505162" lon="8.307890101799185"><ele>281.0</ele><time>2026-05-03T09:55:50Z</time></trkpt><trkpt lat="45.60409196596497" lon="8.308141522338813"><ele>281.0</ele><time>2026-05-03T09:55:51Z</time></trkpt><trkpt lat="45.60416815083444" lon="8.308394133668301"><ele>280.33333333333337</ele><time>2026-05-03T09:55:52Z</time></trkpt><trkpt lat="45.60424493942509" lon="8.308648746810455"><ele>279.6666666666667</ele><time>2026-05-03T09:55:53Z</time></trkpt><trkpt lat="45.604320343877596" lon="8.308898770562228"><ele>279.0</ele><time>2026-05-03T09:55:54Z</time></trkpt><trkpt lat="45.604395986568434" lon="8.30914958424036"><ele>279.0</ele><time>2026-05-03T09:55:55Z</time></trkpt><trkpt lat="45.60448597650906" lon="8.309390185813491"><ele>279.0</ele><time>2026-05-03T09:55:56Z</time></trkpt><trkpt lat="45.60455989064636" lon="8.30963863572265"><ele>279.0</ele><time>2026-05-03T09:55:57Z</time></trkpt><trkpt lat="45.604618348293975" lon="8.309886884269513"><ele>279.0</ele><time>2026-05-03T09:55:58Z</time></trkpt><trkpt lat="45.60469137729537" lon="8.310129031645838"><ele>279.0</ele><time>2026-05-03T09:55:59Z</time></trkpt><trkpt lat="45.6047625485841" lon="8.31036501906346"><ele>279.0</ele><time>2026-05-03T09:56:00Z</time></trkpt><trkpt lat="45.604830308052826" lon="8.310590623460874"><ele>279.3333333333333</ele><time>2026-05-03T09:56:01Z</time></trkpt><trkpt lat="45.60489515969085" lon="8.310807632085266"><ele>279.66666666666663</ele><time>2026-05-03T09:56:02Z</time></trkpt><trkpt lat="45.604952853402445" lon="8.31100068860914"><ele>280.0</ele><time>2026-05-03T09:56:03Z</time></trkpt><trkpt lat="45.60500764913172" lon="8.311184047502218"><ele>280.0</ele><time>2026-05-03T09:56:04Z</time></trkpt><trkpt lat="45.6050647122569" lon="8.311374994220165"><ele>280.0</ele><time>2026-05-03T09:56:05Z</time></trkpt><trkpt lat="45.60512390440487" lon="8.31157306096392"><ele>280.0</ele><time>2026-05-03T09:56:06Z</time></trkpt><trkpt lat="45.60519648489543" lon="8.311767903491338"><ele>280.3333333333333</ele><time>2026-05-03T09:56:07Z</time></trkpt><trkpt lat="45.60525851518109" lon="8.31196877106364"><ele>280.6666666666667</ele><time>2026-05-03T09:56:08Z</time></trkpt><trkpt lat="45.60531318277489" lon="8.312173246291957"><ele>281.0</ele><time>2026-05-03T09:56:09Z</time></trkpt><trkpt lat="45.60537261733885" lon="8.312374422010267"><ele>281.0</ele><time>2026-05-03T09:56:10Z</time></trkpt><trkpt lat="45.60543476277089" lon="8.312573562424964"><ele>281.0</ele><time>2026-05-03T09:56:11Z</time></trkpt><trkpt lat="45.60549639673633" lon="8.312775252477014"><ele>281.0</ele><time>2026-05-03T09:56:12Z</time></trkpt><trkpt lat="45.60555894628446" lon="8.312983368953915"><ele>281.33333333333337</ele><time>2026-05-03T09:56:13Z</time></trkpt><trkpt lat="45.60562014589775" lon="8.313186198367497"><ele>281.6666666666667</ele><time>2026-05-03T09:56:14Z</time></trkpt><trkpt lat="45.60568258661668" lon="8.313387392658568"><ele>282.0</ele><time>2026-05-03T09:56:15Z</time></trkpt><trkpt lat="45.6057292408433" lon="8.31359902819511"><ele>282.0</ele><time>2026-05-03T09:56:16Z</time></trkpt><trkpt lat="45.60579042896083" lon="8.31380349378413"><ele>282.0</ele><time>2026-05-03T09:56:17Z</time></trkpt><trkpt lat="45.605856293159306" lon="8.314023584738704"><ele>282.0</ele><time>2026-05-03T09:56:18Z</time></trkpt><trkpt lat="45.605937638592195" lon="8.314241678752325"><ele>282.0</ele><time>2026-05-03T09:56:19Z</time></trkpt><trkpt lat="45.60600133414851" lon="8.314463884591259"><ele>282.0</ele><time>2026-05-03T09:56:20Z</time></trkpt><trkpt lat="45.60606986543839" lon="8.314680599406554"><ele>282.0</ele><time>2026-05-03T09:56:21Z</time></trkpt><trkpt lat="45.606136076399586" lon="8.314907286813748"><ele>282.3333333333333</ele><time>2026-05-03T09:56:22Z</time></trkpt><trkpt lat="45.60620199746806" lon="8.315135905853408"><ele>282.66666666666663</ele><time>2026-05-03T09:56:23Z</time></trkpt><trkpt lat="45.60626852815599" lon="8.315361068140302"><ele>283.0</ele><time>2026-05-03T09:56:24Z</time></trkpt><trkpt lat="45.606337145669904" lon="8.31558574884298"><ele>283.0</ele><time>2026-05-03T09:56:25Z</time></trkpt><trkpt lat="45.606404043549496" lon="8.3158143335882"><ele>283.0</ele><time>2026-05-03T09:56:26Z</time></trkpt><trkpt lat="45.60647280169704" lon="8.316047174479422"><ele>283.0</ele><time>2026-05-03T09:56:27Z</time></trkpt><trkpt lat="45.60654077706592" lon="8.31627087731213"><ele>282.66666666666663</ele><time>2026-05-03T09:56:28Z</time></trkpt><trkpt lat="45.606602470041494" lon="8.31647711092868"><ele>282.3333333333333</ele><time>2026-05-03T09:56:29Z</time></trkpt><trkpt lat="45.60666863470707" lon="8.316682545958718"><ele>282.0</ele><time>2026-05-03T09:56:30Z</time></trkpt><trkpt lat="45.60673166454307" lon="8.316893319458794"><ele>282.0</ele><time>2026-05-03T09:56:31Z</time></trkpt><trkpt lat="45.60679630319108" lon="8.317108653284457"><ele>282.0</ele><time>2026-05-03T09:56:32Z</time></trkpt><trkpt lat="45.60686060319634" lon="8.317324966747274"><ele>282.0</ele><time>2026-05-03T09:56:33Z</time></trkpt><trkpt lat="45.60692669384064" lon="8.31754960270154"><ele>281.6666666666667</ele><time>2026-05-03T09:56:34Z</time></trkpt><trkpt lat="45.60699334757546" lon="8.317773141939602"><ele>281.33333333333337</ele><time>2026-05-03T09:56:35Z</time></trkpt><trkpt lat="45.60705923795402" lon="8.317997906275695"><ele>281.0</ele><time>2026-05-03T09:56:36Z</time></trkpt><trkpt lat="45.607128960625" lon="8.318229211410745"><ele>282.0</ele><time>2026-05-03T09:56:37Z</time></trkpt><trkpt lat="45.60719842624461" lon="8.318454275370327"><ele>283.0</ele><time>2026-05-03T09:56:38Z</time></trkpt><trkpt lat="45.60726807504063" lon="8.318682220338054"><ele>284.0</ele><time>2026-05-03T09:56:39Z</time></trkpt><trkpt lat="45.60732482920242" lon="8.318926565042508"><ele>284.33333333333337</ele><time>2026-05-03T09:56:40Z</time></trkpt><trkpt lat="45.60740301495661" lon="8.319187694536321"><ele>284.6666666666667</ele><time>2026-05-03T09:56:41Z</time></trkpt><trkpt lat="45.60748371170069" lon="8.319456219364486"><ele>285.0</ele><time>2026-05-03T09:56:42Z</time></trkpt><trkpt lat="45.60755944975337" lon="8.319707090482304"><ele>284.3333333333333</ele><time>2026-05-03T09:56:43Z</time></trkpt><trkpt lat="45.60763028128906" lon="8.319941477296785"><ele>283.66666666666663</ele><time>2026-05-03T09:56:44Z</time></trkpt><trkpt lat="45.607710536501926" lon="8.320153584378858"><ele>283.0</ele><time>2026-05-03T09:56:45Z</time></trkpt><trkpt lat="45.60777895336503" lon="8.320378724025513"><ele>283.66666666666663</ele><time>2026-05-03T09:56:46Z</time></trkpt><trkpt lat="45.607842437190115" lon="8.320595495265353"><ele>284.3333333333333</ele><time>2026-05-03T09:56:47Z</time></trkpt><trkpt lat="45.60790042607053" lon="8.32080213595745"><ele>285.0</ele><time>2026-05-03T09:56:48Z</time></trkpt><trkpt lat="45.60796197478994" lon="8.320988041156367"><ele>285.0</ele><time>2026-05-03T09:56:49Z</time></trkpt><trkpt lat="45.60800158066754" lon="8.321175944355813"><ele>285.0</ele><time>2026-05-03T09:56:50Z</time></trkpt><trkpt lat="45.608056341745744" lon="8.321357997330786"><ele>285.0</ele><time>2026-05-03T09:56:51Z</time></trkpt><trkpt lat="45.608114234948054" lon="8.321550463035207"><ele>285.0</ele><time>2026-05-03T09:56:52Z</time></trkpt><trkpt lat="45.6081742524978" lon="8.321749991833595"><ele>285.0</ele><time>2026-05-03T09:56:53Z</time></trkpt><trkpt lat="45.60823310541717" lon="8.321945239193425"><ele>285.0</ele><time>2026-05-03T09:56:54Z</time></trkpt><trkpt lat="45.60828571231786" lon="8.322119211381828"><ele>285.0</ele><time>2026-05-03T09:56:55Z</time></trkpt><trkpt lat="45.60833339897989" lon="8.322276912263913"><ele>285.0</ele><time>2026-05-03T09:56:56Z</time></trkpt><trkpt lat="45.60838573958673" lon="8.322450004081942"><ele>285.0</ele><time>2026-05-03T09:56:57Z</time></trkpt><trkpt lat="45.60844022293305" lon="8.322633269800399"><ele>285.0</ele><time>2026-05-03T09:56:58Z</time></trkpt><trkpt lat="45.60850913354355" lon="8.322831475097303"><ele>285.0</ele><time>2026-05-03T09:56:59Z</time></trkpt><trkpt lat="45.60857940835781" lon="8.32301931409604"><ele>285.0</ele><time>2026-05-03T09:57:00Z</time></trkpt><trkpt lat="45.60864889647568" lon="8.323201419654715"><ele>287.0</ele><time>2026-05-03T09:57:01Z</time></trkpt><trkpt lat="45.609359160002874" lon="8.323069218583338"><ele>287.0</ele><time>2026-05-03T09:57:02Z</time></trkpt><trkpt lat="45.60870430751473" lon="8.323598673047156"><ele>287.0</ele><time>2026-05-03T09:57:03Z</time></trkpt><trkpt lat="45.608703354242536" lon="8.323833038029257"><ele>287.0</ele><time>2026-05-03T09:57:04Z</time></trkpt><trkpt lat="45.60873226754184" lon="8.324065576581875"><ele>287.0</ele><time>2026-05-03T09:57:05Z</time></trkpt><trkpt lat="45.60875777871755" lon="8.324273936152926"><ele>287.0</ele><time>2026-05-03T09:57:06Z</time></trkpt><trkpt lat="45.60877902755303" lon="8.32446136914468"><ele>287.0</ele><time>2026-05-03T09:57:07Z</time></trkpt><trkpt lat="45.60879849547136" lon="8.324633093101943"><ele>287.0</ele><time>2026-05-03T09:57:08Z</time></trkpt><trkpt lat="45.608816142928255" lon="8.324788759108934"><ele>287.0</ele><time>2026-05-03T09:57:08.999Z</time></trkpt><trkpt lat="45.608834694799484" lon="8.324952402312737"><ele>287.0</ele><time>2026-05-03T09:57:09.999Z</time></trkpt><trkpt lat="45.60885156564761" lon="8.325101222099732"><ele>287.0</ele><time>2026-05-03T09:57:10.999Z</time></trkpt><trkpt lat="45.60886570041999" lon="8.325218305762668"><ele>287.0</ele><time>2026-05-03T09:57:11.999Z</time></trkpt><trkpt lat="45.60887805964468" lon="8.325321649341507"><ele>287.0</ele><time>2026-05-03T09:57:15.999Z</time></trkpt><trkpt lat="45.60899720309876" lon="8.325167049580898"><ele>287.0</ele><time>2026-05-03T09:57:18.999Z</time></trkpt><trkpt lat="45.609058432135875" lon="8.325118994880343"><ele>287.0</ele><time>2026-05-03T09:57:20Z</time></trkpt><trkpt lat="45.60914326323043" lon="8.325067441851113"><ele>287.0</ele><time>2026-05-03T09:57:21Z</time></trkpt><trkpt lat="45.60925192137312" lon="8.325031198736921"><ele>287.0</ele><time>2026-05-03T09:57:22Z</time></trkpt><trkpt lat="45.60938085256006" lon="8.324992492135006"><ele>287.0</ele><time>2026-05-03T09:57:23Z</time></trkpt><trkpt lat="45.60950168611746" lon="8.32493911185538"><ele>287.33333333333337</ele><time>2026-05-03T09:57:24Z</time></trkpt><trkpt lat="45.6096835189109" lon="8.32489992227795"><ele>287.6666666666667</ele><time>2026-05-03T09:57:25Z</time></trkpt><trkpt lat="45.60983321749428" lon="8.324852208427085"><ele>288.0</ele><time>2026-05-03T09:57:26Z</time></trkpt><trkpt lat="45.609986927222124" lon="8.324806968922118"><ele>288.0</ele><time>2026-05-03T09:57:27Z</time></trkpt><trkpt lat="45.610147830343436" lon="8.324767442620475"><ele>288.0</ele><time>2026-05-03T09:57:28Z</time></trkpt><trkpt lat="45.61030411818285" lon="8.324730201290672"><ele>288.0</ele><time>2026-05-03T09:57:29Z</time></trkpt><trkpt lat="45.61044199465541" lon="8.324694677162984"><ele>288.0</ele><time>2026-05-03T09:57:30Z</time></trkpt><trkpt lat="45.610576573104964" lon="8.32465599725705"><ele>288.0</ele><time>2026-05-03T09:57:31Z</time></trkpt><trkpt lat="45.61070963501966" lon="8.324622636452773"><ele>288.0</ele><time>2026-05-03T09:57:32Z</time></trkpt><trkpt lat="45.61083685948204" lon="8.324614907041255"><ele>288.0</ele><time>2026-05-03T09:57:33Z</time></trkpt><trkpt lat="45.61097155712979" lon="8.324562321046665"><ele>288.0</ele><time>2026-05-03T09:57:34Z</time></trkpt><trkpt lat="45.61111485285315" lon="8.324546859921442"><ele>288.0</ele><time>2026-05-03T09:57:35Z</time></trkpt><trkpt lat="45.611258545303194" lon="8.32451017360126"><ele>288.0</ele><time>2026-05-03T09:57:36Z</time></trkpt><trkpt lat="45.611419388025446" lon="8.32446850760017"><ele>288.3333333333333</ele><time>2026-05-03T09:57:37Z</time></trkpt><trkpt lat="45.611583339543685" lon="8.324403920614571"><ele>288.66666666666663</ele><time>2026-05-03T09:57:38Z</time></trkpt><trkpt lat="45.61176004912921" lon="8.324361259096927"><ele>289.0</ele><time>2026-05-03T09:57:39Z</time></trkpt><trkpt lat="45.61192969112993" lon="8.324317769574062"><ele>289.66666666666663</ele><time>2026-05-03T09:57:40Z</time></trkpt><trkpt lat="45.61209699163724" lon="8.324271604499875"><ele>290.3333333333333</ele><time>2026-05-03T09:57:41Z</time></trkpt><trkpt lat="45.61226723609845" lon="8.32422476989272"><ele>291.0</ele><time>2026-05-03T09:57:42Z</time></trkpt><trkpt lat="45.61243483580143" lon="8.32420427510424"><ele>291.0</ele><time>2026-05-03T09:57:43Z</time></trkpt><trkpt lat="45.6125999934588" lon="8.324161458702264"><ele>291.0</ele><time>2026-05-03T09:57:44Z</time></trkpt><trkpt lat="45.612756474989716" lon="8.324122134619113"><ele>291.0</ele><time>2026-05-03T09:57:45Z</time></trkpt><trkpt lat="45.61291261174293" lon="8.324082558164141"><ele>291.3333333333333</ele><time>2026-05-03T09:57:46Z</time></trkpt><trkpt lat="45.613070197513196" lon="8.324025980252152"><ele>291.66666666666663</ele><time>2026-05-03T09:57:47Z</time></trkpt><trkpt lat="45.613243446902786" lon="8.323990170631978"><ele>292.0</ele><time>2026-05-03T09:57:48Z</time></trkpt><trkpt lat="45.61341506909876" lon="8.323944599028772"><ele>292.0</ele><time>2026-05-03T09:57:49Z</time></trkpt><trkpt lat="45.61358094291786" lon="8.323899045095548"><ele>292.0</ele><time>2026-05-03T09:57:50Z</time></trkpt><trkpt lat="45.6137520852502" lon="8.323853694948166"><ele>292.0</ele><time>2026-05-03T09:57:51Z</time></trkpt><trkpt lat="45.61393006199118" lon="8.323807106430952"><ele>292.3333333333333</ele><time>2026-05-03T09:57:52Z</time></trkpt><trkpt lat="45.6141081602125" lon="8.323762203021095"><ele>292.6666666666667</ele><time>2026-05-03T09:57:53Z</time></trkpt><trkpt lat="45.614289313388866" lon="8.323715969536721"><ele>293.0</ele><time>2026-05-03T09:57:54Z</time></trkpt><trkpt lat="45.614457327348205" lon="8.323671701580874"><ele>293.0</ele><time>2026-05-03T09:57:55Z</time></trkpt><trkpt lat="45.614614509758134" lon="8.32363041958075"><ele>293.0</ele><time>2026-05-03T09:57:56Z</time></trkpt><trkpt lat="45.614761927722014" lon="8.323613963185261"><ele>293.0</ele><time>2026-05-03T09:57:57Z</time></trkpt><trkpt lat="45.614906010969506" lon="8.323554919892128"><ele>293.0</ele><time>2026-05-03T09:57:58Z</time></trkpt><trkpt lat="45.615053544335304" lon="8.323516587217494"><ele>293.0</ele><time>2026-05-03T09:57:59Z</time></trkpt><trkpt lat="45.61522518196553" lon="8.323472579628433"><ele>293.0</ele><time>2026-05-03T09:58:00Z</time></trkpt><trkpt lat="45.61540021547607" lon="8.32342847146684"><ele>294.0</ele><time>2026-05-03T09:58:01Z</time></trkpt><trkpt lat="45.61558204962198" lon="8.323382695072272"><ele>295.0</ele><time>2026-05-03T09:58:02Z</time></trkpt><trkpt lat="45.6157666317449" lon="8.323336191031101"><ele>296.0</ele><time>2026-05-03T09:58:03Z</time></trkpt><trkpt lat="45.61595781508983" lon="8.323291216378443"><ele>296.0</ele><time>2026-05-03T09:58:04Z</time></trkpt><trkpt lat="45.61614776740438" lon="8.32323834223461"><ele>296.0</ele><time>2026-05-03T09:58:05Z</time></trkpt><trkpt lat="45.61633502550905" lon="8.323190047974835"><ele>296.0</ele><time>2026-05-03T09:58:06Z</time></trkpt><trkpt lat="45.61651491152025" lon="8.323143393799004"><ele>296.0</ele><time>2026-05-03T09:58:07Z</time></trkpt><trkpt lat="45.616681921093466" lon="8.323098401208684"><ele>296.0</ele><time>2026-05-03T09:58:08Z</time></trkpt><trkpt lat="45.616850921379026" lon="8.32305484770926"><ele>296.0</ele><time>2026-05-03T09:58:09Z</time></trkpt><trkpt lat="45.61702011149593" lon="8.323013667067663"><ele>296.0</ele><time>2026-05-03T09:58:10Z</time></trkpt><trkpt lat="45.617187989006126" lon="8.322992006366897"><ele>296.0</ele><time>2026-05-03T09:58:11Z</time></trkpt><trkpt lat="45.61735367225923" lon="8.322951800182643"><ele>296.0</ele><time>2026-05-03T09:58:12Z</time></trkpt><trkpt lat="45.61751695903742" lon="8.322912175536153"><ele>296.0</ele><time>2026-05-03T09:58:13Z</time></trkpt><trkpt lat="45.61768075171735" lon="8.322871548468232"><ele>296.0</ele><time>2026-05-03T09:58:14Z</time></trkpt><trkpt lat="45.617844016445076" lon="8.322829528997694"><ele>296.0</ele><time>2026-05-03T09:58:15Z</time></trkpt><trkpt lat="45.61800654932511" lon="8.322786443099695"><ele>296.75</ele><time>2026-05-03T09:58:16Z</time></trkpt><trkpt lat="45.61815341801215" lon="8.322722040557622"><ele>297.5</ele><time>2026-05-03T09:58:17Z</time></trkpt><trkpt lat="45.6182961048284" lon="8.322678438314046"><ele>298.25</ele><time>2026-05-03T09:58:18Z</time></trkpt><trkpt lat="45.61843890346065" lon="8.322641688419337"><ele>299.0</ele><time>2026-05-03T09:58:19Z</time></trkpt><trkpt lat="45.61858853052531" lon="8.3226173248709"><ele>299.33333333333337</ele><time>2026-05-03T09:58:20Z</time></trkpt><trkpt lat="45.6187593904423" lon="8.322577580300504"><ele>299.6666666666667</ele><time>2026-05-03T09:58:21Z</time></trkpt><trkpt lat="45.61892756880137" lon="8.322521735560196"><ele>300.0</ele><time>2026-05-03T09:58:22Z</time></trkpt><trkpt lat="45.619104911363664" lon="8.322485690511954"><ele>300.0</ele><time>2026-05-03T09:58:23Z</time></trkpt><trkpt lat="45.61928269986992" lon="8.322464394150455"><ele>300.0</ele><time>2026-05-03T09:58:24Z</time></trkpt><trkpt lat="45.61944838295888" lon="8.322493994984256"><ele>300.0</ele><time>2026-05-03T09:58:25Z</time></trkpt><trkpt lat="45.6196100357849" lon="8.322485032046206"><ele>300.0</ele><time>2026-05-03T09:58:26Z</time></trkpt><trkpt lat="45.619772431214905" lon="8.322476027949758"><ele>300.0</ele><time>2026-05-03T09:58:27Z</time></trkpt><trkpt lat="45.61993944055085" lon="8.322435146947685"><ele>300.0</ele><time>2026-05-03T09:58:28Z</time></trkpt><trkpt lat="45.62010997654966" lon="8.322428611735425"><ele>300.0</ele><time>2026-05-03T09:58:29Z</time></trkpt><trkpt lat="45.620277342982206" lon="8.322420226768754"><ele>300.0</ele><time>2026-05-03T09:58:30Z</time></trkpt><trkpt lat="45.620445973181695" lon="8.322409744934578"><ele>300.0</ele><time>2026-05-03T09:58:31Z</time></trkpt><trkpt lat="45.62061446478242" lon="8.322436844477785"><ele>301.0</ele><time>2026-05-03T09:58:32Z</time></trkpt><trkpt lat="45.62078563557145" lon="8.322431118987998"><ele>302.0</ele><time>2026-05-03T09:58:33Z</time></trkpt><trkpt lat="45.62096198058136" lon="8.32242522042396"><ele>303.0</ele><time>2026-05-03T09:58:34Z</time></trkpt><trkpt lat="45.621139194114406" lon="8.322419292808503"><ele>303.6666666666667</ele><time>2026-05-03T09:58:35Z</time></trkpt><trkpt lat="45.621307446651954" lon="8.32239033283967"><ele>304.33333333333337</ele><time>2026-05-03T09:58:36Z</time></trkpt><trkpt lat="45.62147976603032" lon="8.322392478787208"><ele>305.0</ele><time>2026-05-03T09:58:37Z</time></trkpt><trkpt lat="45.62163970996038" lon="8.322389952962457"><ele>305.0</ele><time>2026-05-03T09:58:38Z</time></trkpt><trkpt lat="45.62179438319504" lon="8.322377422755807"><ele>305.0</ele><time>2026-05-03T09:58:39Z</time></trkpt><trkpt lat="45.621965322894134" lon="8.322359128761198"><ele>305.0</ele><time>2026-05-03T09:58:40Z</time></trkpt><trkpt lat="45.62212583356996" lon="8.322345788491099"><ele>304.75</ele><time>2026-05-03T09:58:41Z</time></trkpt><trkpt lat="45.62227176467931" lon="8.322335618535122"><ele>304.5</ele><time>2026-05-03T09:58:42Z</time></trkpt><trkpt lat="45.622405619691726" lon="8.322343518987973"><ele>304.25</ele><time>2026-05-03T09:58:43Z</time></trkpt><trkpt lat="45.62254405085231" lon="8.322331554674404"><ele>304.0</ele><time>2026-05-03T09:58:44Z</time></trkpt><trkpt lat="45.6226916804775" lon="8.322317954146547"><ele>304.75</ele><time>2026-05-03T09:58:45Z</time></trkpt><trkpt lat="45.622852011668144" lon="8.322302589649945"><ele>305.5</ele><time>2026-05-03T09:58:46Z</time></trkpt><trkpt lat="45.62299266637387" lon="8.322287152730793"><ele>306.25</ele><time>2026-05-03T09:58:47Z</time></trkpt><trkpt lat="45.6231196162469" lon="8.322270317159374"><ele>307.0</ele><time>2026-05-03T09:58:48Z</time></trkpt><trkpt lat="45.62323639683712" lon="8.32224782485607"><ele>307.2</ele><time>2026-05-03T09:58:49Z</time></trkpt><trkpt lat="45.623342870001686" lon="8.322224658291212"><ele>307.4</ele><time>2026-05-03T09:58:50Z</time></trkpt><trkpt lat="45.62344776637106" lon="8.322202001151506"><ele>307.6</ele><time>2026-05-03T09:58:51Z</time></trkpt><trkpt lat="45.623541066293335" lon="8.322203395684948"><ele>307.8</ele><time>2026-05-03T09:58:52Z</time></trkpt><trkpt lat="45.62363726082918" lon="8.32220962673461"><ele>308.0</ele><time>2026-05-03T09:58:53Z</time></trkpt><trkpt lat="45.62375737959991" lon="8.322211776942089"><ele>308.1666666666667</ele><time>2026-05-03T09:58:54Z</time></trkpt><trkpt lat="45.62385858680736" lon="8.322236270940408"><ele>308.33333333333337</ele><time>2026-05-03T09:58:55Z</time></trkpt><trkpt lat="45.62394553445974" lon="8.322247106208536"><ele>308.5</ele><time>2026-05-03T09:58:56Z</time></trkpt><trkpt lat="45.62401997015781" lon="8.322278518295352"><ele>308.6666666666667</ele><time>2026-05-03T09:58:57Z</time></trkpt><trkpt lat="45.62409878348268" lon="8.32229767578984"><ele>308.8333333333333</ele><time>2026-05-03T09:58:58Z</time></trkpt><trkpt lat="45.624197376682176" lon="8.322327368121973"><ele>309.0</ele><time>2026-05-03T09:58:59Z</time></trkpt><trkpt lat="45.624275691017075" lon="8.322352418883362"><ele>309.0</ele><time>2026-05-03T09:58:59.999Z</time></trkpt><trkpt lat="45.624381088593665" lon="8.32238911530409"><ele>309.0</ele><time>2026-05-03T09:59:00.999Z</time></trkpt><trkpt lat="45.624477039441274" lon="8.322423785745922"><ele>309.0</ele><time>2026-05-03T09:59:01.999Z</time></trkpt><trkpt lat="45.624553667575185" lon="8.322452088888419"><ele>309.0</ele><time>2026-05-03T09:59:02.999Z</time></trkpt><trkpt lat="45.62463625260922" lon="8.322484129051194"><ele>309.0</ele><time>2026-05-03T09:59:03.999Z</time></trkpt><trkpt lat="45.6247268866874" lon="8.322520742010477"><ele>309.3333333333333</ele><time>2026-05-03T09:59:04.999Z</time></trkpt><trkpt lat="45.62481512261325" lon="8.322558688857994"><ele>309.6666666666667</ele><time>2026-05-03T09:59:05.999Z</time></trkpt><trkpt lat="45.624876598187704" lon="8.322589631807926"><ele>310.0</ele><time>2026-05-03T09:59:06.999Z</time></trkpt><trkpt lat="45.62499430756849" lon="8.32267121008783"><ele>310.33333333333337</ele><time>2026-05-03T09:59:08.999Z</time></trkpt><trkpt lat="45.62505024152028" lon="8.322715919042185"><ele>310.6666666666667</ele><time>2026-05-03T09:59:09.999Z</time></trkpt><trkpt lat="45.62510882395807" lon="8.322791532156247"><ele>311.0</ele><time>2026-05-03T09:59:10.999Z</time></trkpt><trkpt lat="45.62517717118229" lon="8.322859637492588"><ele>311.0</ele><time>2026-05-03T09:59:11.999Z</time></trkpt><trkpt lat="45.625240429885835" lon="8.32290909982017"><ele>311.0</ele><time>2026-05-03T09:59:12.999Z</time></trkpt><trkpt lat="45.625300719143354" lon="8.322945876314966"><ele>311.0</ele><time>2026-05-03T09:59:13.999Z</time></trkpt><trkpt lat="45.62541000012012" lon="8.323012222378539"><ele>311.0</ele><time>2026-05-03T09:59:15.999Z</time></trkpt><trkpt lat="45.625468032754654" lon="8.32307259234682"><ele>311.0</ele><time>2026-05-03T09:59:16.999Z</time></trkpt><trkpt lat="45.62552743655289" lon="8.323140220091837"><ele>311.0</ele><time>2026-05-03T09:59:17.999Z</time></trkpt><trkpt lat="45.625606509719226" lon="8.32321184152602"><ele>310.8</ele><time>2026-05-03T09:59:18.999Z</time></trkpt><trkpt lat="45.62569311939785" lon="8.323285720983328"><ele>310.6</ele><time>2026-05-03T09:59:19.999Z</time></trkpt><trkpt lat="45.62577697620529" lon="8.323352126050185"><ele>310.4</ele><time>2026-05-03T09:59:20.999Z</time></trkpt><trkpt lat="45.6258678550947" lon="8.323418078752722"><ele>310.2</ele><time>2026-05-03T09:59:21.999Z</time></trkpt><trkpt lat="45.625955613534785" lon="8.323492409510846"><ele>310.0</ele><time>2026-05-03T09:59:22.999Z</time></trkpt><trkpt lat="45.62604660008819" lon="8.323559535153926"><ele>310.0</ele><time>2026-05-03T09:59:23.999Z</time></trkpt><trkpt lat="45.626129043909096" lon="8.323635589405827"><ele>310.0</ele><time>2026-05-03T09:59:24.999Z</time></trkpt><trkpt lat="45.62623027649402" lon="8.323667686926598"><ele>310.0</ele><time>2026-05-03T09:59:26Z</time></trkpt><trkpt lat="45.626315856862725" lon="8.323702386819932"><ele>310.0</ele><time>2026-05-03T09:59:27Z</time></trkpt><trkpt lat="45.6263959602759" lon="8.323739855746423"><ele>310.0</ele><time>2026-05-03T09:59:28Z</time></trkpt><trkpt lat="45.62648779766561" lon="8.323778418957259"><ele>310.16666666666663</ele><time>2026-05-03T09:59:29Z</time></trkpt><trkpt lat="45.6265655750469" lon="8.323808545273952"><ele>310.3333333333333</ele><time>2026-05-03T09:59:30Z</time></trkpt><trkpt lat="45.62664415267291" lon="8.323834806187573"><ele>310.5</ele><time>2026-05-03T09:59:31Z</time></trkpt><trkpt lat="45.626726866499986" lon="8.323863269835586"><ele>310.6666666666667</ele><time>2026-05-03T09:59:32Z</time></trkpt><trkpt lat="45.62680981188344" lon="8.32389181214819"><ele>310.83333333333337</ele><time>2026-05-03T09:59:33Z</time></trkpt><trkpt lat="45.62689817455152" lon="8.323922218601894"><ele>311.0</ele><time>2026-05-03T09:59:34Z</time></trkpt><trkpt lat="45.62703742706298" lon="8.323702497932027"><ele>311.40000000000003</ele><time>2026-05-03T09:59:35Z</time></trkpt><trkpt lat="45.62713622975607" lon="8.323704665896281"><ele>311.8</ele><time>2026-05-03T09:59:36Z</time></trkpt><trkpt lat="45.6272401391937" lon="8.323703287035867"><ele>312.20000000000005</ele><time>2026-05-03T09:59:37Z</time></trkpt><trkpt lat="45.62734876272128" lon="8.323708638170968"><ele>312.6</ele><time>2026-05-03T09:59:38Z</time></trkpt><trkpt lat="45.62746576100183" lon="8.323696007692293"><ele>313.0</ele><time>2026-05-03T09:59:39Z</time></trkpt><trkpt lat="45.62757584018433" lon="8.323688016377684"><ele>313.0</ele><time>2026-05-03T09:59:40Z</time></trkpt><trkpt lat="45.62769086787801" lon="8.32367853702373"><ele>313.0</ele><time>2026-05-03T09:59:41Z</time></trkpt><trkpt lat="45.627795631052955" lon="8.323683905010613"><ele>313.0</ele><time>2026-05-03T09:59:42Z</time></trkpt><trkpt lat="45.62790752801081" lon="8.323678116348386"><ele>313.0</ele><time>2026-05-03T09:59:43Z</time></trkpt><trkpt lat="45.62800628916611" lon="8.323676719552001"><ele>313.0</ele><time>2026-05-03T09:59:44Z</time></trkpt><trkpt lat="45.628081913961054" lon="8.32367551525013"><ele>314.8333333333333</ele><time>2026-05-03T09:59:45Z</time></trkpt><trkpt lat="45.62816652588079" lon="8.323689183407472"><ele>316.66666666666663</ele><time>2026-05-03T09:59:46Z</time></trkpt><trkpt lat="45.62825380645534" lon="8.323680330096574"><ele>318.5</ele><time>2026-05-03T09:59:47Z</time></trkpt><trkpt lat="45.628348409023346" lon="8.323672164544883"><ele>320.3333333333333</ele><time>2026-05-03T09:59:48Z</time></trkpt><trkpt lat="45.628444609558365" lon="8.323670462156207"><ele>322.1666666666667</ele><time>2026-05-03T09:59:49Z</time></trkpt><trkpt lat="45.6285267577013" lon="8.323645041030563"><ele>324.0</ele><time>2026-05-03T09:59:50Z</time></trkpt><trkpt lat="45.628600888677276" lon="8.323583638853682"><ele>323.2</ele><time>2026-05-03T09:59:51Z</time></trkpt><trkpt lat="45.62869715826322" lon="8.323507012329294"><ele>322.4</ele><time>2026-05-03T09:59:52Z</time></trkpt><trkpt lat="45.62880446198066" lon="8.323425410570614"><ele>321.6</ele><time>2026-05-03T09:59:53Z</time></trkpt><trkpt lat="45.62890356442723" lon="8.323328267201356"><ele>320.8</ele><time>2026-05-03T09:59:54Z</time></trkpt><trkpt lat="45.62899585360533" lon="8.323288858626766"><ele>320.0</ele><time>2026-05-03T09:59:55Z</time></trkpt><trkpt lat="45.62912842693063" lon="8.323224940764264"><ele>320.0</ele><time>2026-05-03T09:59:56Z</time></trkpt><trkpt lat="45.62924724591844" lon="8.323178123646557"><ele>320.0</ele><time>2026-05-03T09:59:57Z</time></trkpt><trkpt lat="45.629362259471236" lon="8.323127216806817"><ele>320.0</ele><time>2026-05-03T09:59:58Z</time></trkpt><trkpt lat="45.62949733259783" lon="8.323060678782912"><ele>320.0</ele><time>2026-05-03T09:59:59Z</time></trkpt><trkpt lat="45.6296352258454" lon="8.323010243242813"><ele>322.0</ele><time>2026-05-03T10:00:00Z</time></trkpt><trkpt lat="45.629761863943095" lon="8.322948619354678"><ele>324.0</ele><time>2026-05-03T10:00:01Z</time></trkpt><trkpt lat="45.62990325381915" lon="8.322871049065022"><ele>326.0</ele><time>2026-05-03T10:00:02Z</time></trkpt><trkpt lat="45.63002891905359" lon="8.322796662325908"><ele>328.0</ele><time>2026-05-03T10:00:03Z</time></trkpt><trkpt lat="45.63014429179431" lon="8.322760417938655"><ele>328.0</ele><time>2026-05-03T10:00:04Z</time></trkpt><trkpt lat="45.63027004968289" lon="8.322704558084553"><ele>328.0</ele><time>2026-05-03T10:00:05Z</time></trkpt><trkpt lat="45.63040132992343" lon="8.322660199082225"><ele>328.0</ele><time>2026-05-03T10:00:06Z</time></trkpt><trkpt lat="45.63050408189103" lon="8.322563875573193"><ele>328.0</ele><time>2026-05-03T10:00:07Z</time></trkpt><trkpt lat="45.6306130277217" lon="8.322489546159607"><ele>329.0</ele><time>2026-05-03T10:00:08Z</time></trkpt><trkpt lat="45.63072543770412" lon="8.322418723684596"><ele>330.0</ele><time>2026-05-03T10:00:09Z</time></trkpt><trkpt lat="45.630833485763624" lon="8.322393872865975"><ele>331.0</ele><time>2026-05-03T10:00:10Z</time></trkpt><trkpt lat="45.63093379174331" lon="8.322353275083067"><ele>332.0</ele><time>2026-05-03T10:00:11Z</time></trkpt><trkpt lat="45.631016592298955" lon="8.322277892550733"><ele>333.0</ele><time>2026-05-03T10:00:12Z</time></trkpt><trkpt lat="45.63109425029238" lon="8.322193698857168"><ele>330.2</ele><time>2026-05-03T10:00:13Z</time></trkpt><trkpt lat="45.63116584265141" lon="8.322092188992853"><ele>327.4</ele><time>2026-05-03T10:00:14Z</time></trkpt><trkpt lat="45.63123474336478" lon="8.321967760922975"><ele>324.59999999999997</ele><time>2026-05-03T10:00:15Z</time></trkpt><trkpt lat="45.631331209866936" lon="8.321844055324526"><ele>321.79999999999995</ele><time>2026-05-03T10:00:16Z</time></trkpt><trkpt lat="45.631412136619495" lon="8.321742356302428"><ele>319.0</ele><time>2026-05-03T10:00:17Z</time></trkpt><trkpt lat="45.63151316841942" lon="8.32163081795037"><ele>319.0</ele><time>2026-05-03T10:00:18Z</time></trkpt><trkpt lat="45.63157722376441" lon="8.32153608460293"><ele>319.0</ele><time>2026-05-03T10:00:19Z</time></trkpt><trkpt lat="45.631627759072124" lon="8.321436382691822"><ele>319.0</ele><time>2026-05-03T10:00:20Z</time></trkpt><trkpt lat="45.631682483803374" lon="8.321301589128884"><ele>319.0</ele><time>2026-05-03T10:00:21Z</time></trkpt><trkpt lat="45.63173374966392" lon="8.321170960571965"><ele>319.0</ele><time>2026-05-03T10:00:22Z</time></trkpt><trkpt lat="45.63175804968852" lon="8.32105674479448"><ele>319.79999999999995</ele><time>2026-05-03T10:00:23Z</time></trkpt><trkpt lat="45.631780376739826" lon="8.320918721401998"><ele>320.59999999999997</ele><time>2026-05-03T10:00:24Z</time></trkpt><trkpt lat="45.631782983442854" lon="8.320768984864879"><ele>321.4</ele><time>2026-05-03T10:00:25Z</time></trkpt><trkpt lat="45.63177559258538" lon="8.320613187112102"><ele>322.2</ele><time>2026-05-03T10:00:26Z</time></trkpt><trkpt lat="45.63176086826899" lon="8.320482680689368"><ele>323.0</ele><time>2026-05-03T10:00:27Z</time></trkpt><trkpt lat="45.631731602798155" lon="8.320369449157798"><ele>324.0</ele><time>2026-05-03T10:00:28Z</time></trkpt><trkpt lat="45.631689600060106" lon="8.320234546241197"><ele>325.0</ele><time>2026-05-03T10:00:29Z</time></trkpt><trkpt lat="45.631667752264306" lon="8.320118104568525"><ele>326.0</ele><time>2026-05-03T10:00:30Z</time></trkpt><trkpt lat="45.631665102338985" lon="8.320024386388564"><ele>327.0</ele><time>2026-05-03T10:00:31Z</time></trkpt><trkpt lat="45.631734583091536" lon="8.3198586069487"><ele>328.0</ele><time>2026-05-03T10:00:33Z</time></trkpt><trkpt lat="45.63180088590712" lon="8.319804350554806"><ele>328.0</ele><time>2026-05-03T10:00:34Z</time></trkpt><trkpt lat="45.631890537412694" lon="8.319780812981769"><ele>328.0</ele><time>2026-05-03T10:00:35Z</time></trkpt><trkpt lat="45.63200874555115" lon="8.319761049690502"><ele>328.0</ele><time>2026-05-03T10:00:36Z</time></trkpt><trkpt lat="45.63214002627346" lon="8.319744030093212"><ele>328.0</ele><time>2026-05-03T10:00:37Z</time></trkpt><trkpt lat="45.632268447943346" lon="8.319711525073803"><ele>329.66666666666663</ele><time>2026-05-03T10:00:38Z</time></trkpt><trkpt lat="45.63240724385824" lon="8.31969489423955"><ele>331.3333333333333</ele><time>2026-05-03T10:00:39Z</time></trkpt><trkpt lat="45.632584334892464" lon="8.319671964469789"><ele>333.0</ele><time>2026-05-03T10:00:40Z</time></trkpt><trkpt lat="45.63273266840775" lon="8.31963105096975"><ele>331.25</ele><time>2026-05-03T10:00:41Z</time></trkpt><trkpt lat="45.632858867804046" lon="8.319585890309892"><ele>329.5</ele><time>2026-05-03T10:00:42Z</time></trkpt><trkpt lat="45.632967253227285" lon="8.31956301070328"><ele>327.75</ele><time>2026-05-03T10:00:43Z</time></trkpt><trkpt lat="45.6330794574194" lon="8.319528898393633"><ele>326.0</ele><time>2026-05-03T10:00:44Z</time></trkpt><trkpt lat="45.63317251024654" lon="8.319493931493724"><ele>326.0</ele><time>2026-05-03T10:00:45Z</time></trkpt><trkpt lat="45.63324196052801" lon="8.31945279693975"><ele>326.0</ele><time>2026-05-03T10:00:46Z</time></trkpt><trkpt lat="45.63336487822965" lon="8.319285897924862"><ele>326.0</ele><time>2026-05-03T10:00:48Z</time></trkpt><trkpt lat="45.63341238997111" lon="8.319182032730339"><ele>326.0</ele><time>2026-05-03T10:00:49Z</time></trkpt><trkpt lat="45.633507463865364" lon="8.319109790388044"><ele>326.0</ele><time>2026-05-03T10:00:51Z</time></trkpt><trkpt lat="45.63357890663151" lon="8.319038306338328"><ele>325.6</ele><time>2026-05-03T10:00:53Z</time></trkpt><trkpt lat="45.6336518256071" lon="8.318889719651445"><ele>325.20000000000005</ele><time>2026-05-03T10:00:55Z</time></trkpt><trkpt lat="45.633719566626496" lon="8.318809060502991"><ele>324.79999999999995</ele><time>2026-05-03T10:00:56Z</time></trkpt><trkpt lat="45.633800621042035" lon="8.318721688830934"><ele>324.4</ele><time>2026-05-03T10:00:57Z</time></trkpt><trkpt lat="45.633896004159766" lon="8.318616986591534"><ele>324.0</ele><time>2026-05-03T10:00:58Z</time></trkpt><trkpt lat="45.63399930643243" lon="8.318501286573033"><ele>324.0</ele><time>2026-05-03T10:00:59Z</time></trkpt><trkpt lat="45.634087822985045" lon="8.318393553693294"><ele>324.0</ele><time>2026-05-03T10:01:00Z</time></trkpt><trkpt lat="45.63416744723195" lon="8.3182778916083"><ele>324.0</ele><time>2026-05-03T10:01:01Z</time></trkpt><trkpt lat="45.63425857233478" lon="8.318143264351775"><ele>324.0</ele><time>2026-05-03T10:01:02Z</time></trkpt><trkpt lat="45.634323630806826" lon="8.318021922474223"><ele>324.25</ele><time>2026-05-03T10:01:03Z</time></trkpt><trkpt lat="45.63440114499225" lon="8.317916286777466"><ele>324.5</ele><time>2026-05-03T10:01:04Z</time></trkpt><trkpt lat="45.63450411907053" lon="8.317801331934364"><ele>324.75</ele><time>2026-05-03T10:01:05Z</time></trkpt><trkpt lat="45.63458546425695" lon="8.317671317444244"><ele>325.0</ele><time>2026-05-03T10:01:06Z</time></trkpt><trkpt lat="45.63463983993791" lon="8.31754849832209"><ele>325.0</ele><time>2026-05-03T10:01:07Z</time></trkpt><trkpt lat="45.63467558142018" lon="8.317446728209088"><ele>325.0</ele><time>2026-05-03T10:01:08Z</time></trkpt><trkpt lat="45.63470128942401" lon="8.31733210252383"><ele>325.0</ele><time>2026-05-03T10:01:09Z</time></trkpt><trkpt lat="45.63471325988616" lon="8.317169601496794"><ele>325.0</ele><time>2026-05-03T10:01:11Z</time></trkpt><trkpt lat="45.63476895537014" lon="8.317119283597535"><ele>325.0</ele><time>2026-05-03T10:01:12Z</time></trkpt><trkpt lat="45.63483839542917" lon="8.317082005937428"><ele>325.0</ele><time>2026-05-03T10:01:13Z</time></trkpt><trkpt lat="45.63493276352322" lon="8.317022198617373"><ele>325.4</ele><time>2026-05-03T10:01:14Z</time></trkpt><trkpt lat="45.635046974729555" lon="8.316946560731427"><ele>325.8</ele><time>2026-05-03T10:01:15Z</time></trkpt><trkpt lat="45.63513212780023" lon="8.316868348522236"><ele>326.20000000000005</ele><time>2026-05-03T10:01:16Z</time></trkpt><trkpt lat="45.6352001621113" lon="8.31682521980038"><ele>326.6</ele><time>2026-05-03T10:01:16.999Z</time></trkpt><trkpt lat="45.635273498413724" lon="8.316757711694386"><ele>327.0</ele><time>2026-05-03T10:01:18.999Z</time></trkpt><trkpt lat="45.635381553058764" lon="8.316594884978223"><ele>327.0</ele><time>2026-05-03T10:01:20.999Z</time></trkpt><trkpt lat="45.63543666159172" lon="8.316495555776589"><ele>327.0</ele><time>2026-05-03T10:01:21.999Z</time></trkpt><trkpt lat="45.63547577924146" lon="8.31638640436554"><ele>327.0</ele><time>2026-05-03T10:01:22.999Z</time></trkpt><trkpt lat="45.635519927039624" lon="8.316309421022238"><ele>327.0</ele><time>2026-05-03T10:01:23.999Z</time></trkpt><trkpt lat="45.63557916884903" lon="8.316247968118766"><ele>327.0</ele><time>2026-05-03T10:01:24.999Z</time></trkpt><trkpt lat="45.63564249075224" lon="8.31621736538822"><ele>327.0</ele><time>2026-05-03T10:01:25.999Z</time></trkpt><trkpt lat="45.635717384082454" lon="8.316172329467497"><ele>327.3333333333333</ele><time>2026-05-03T10:01:26.999Z</time></trkpt><trkpt lat="45.635779030812536" lon="8.316096061449755"><ele>327.6666666666667</ele><time>2026-05-03T10:01:27.999Z</time></trkpt><trkpt lat="45.635824135710045" lon="8.3160327192252"><ele>328.0</ele><time>2026-05-03T10:01:28.999Z</time></trkpt><trkpt lat="45.63588454441544" lon="8.3159849977287"><ele>328.33333333333337</ele><time>2026-05-03T10:01:30.999Z</time></trkpt><trkpt lat="45.63595207799198" lon="8.315955165697705"><ele>328.6666666666667</ele><time>2026-05-03T10:01:33Z</time></trkpt><trkpt lat="45.63604583855386" lon="8.315993335682895"><ele>329.0</ele><time>2026-05-03T10:01:35Z</time></trkpt><trkpt lat="45.63612305199051" lon="8.316036701076618"><ele>329.33333333333337</ele><time>2026-05-03T10:01:36Z</time></trkpt><trkpt lat="45.63620481595917" lon="8.316094496529075"><ele>329.6666666666667</ele><time>2026-05-03T10:01:37Z</time></trkpt><trkpt lat="45.63628272495701" lon="8.316145677961481"><ele>330.0</ele><time>2026-05-03T10:01:38Z</time></trkpt><trkpt lat="45.636354764581796" lon="8.316188665729166"><ele>330.3333333333333</ele><time>2026-05-03T10:01:39Z</time></trkpt><trkpt lat="45.63641519541235" lon="8.316238387546196"><ele>330.66666666666663</ele><time>2026-05-03T10:01:40Z</time></trkpt><trkpt lat="45.636520238163705" lon="8.316321160742278"><ele>331.0</ele><time>2026-05-03T10:01:42Z</time></trkpt><trkpt lat="45.63658709412818" lon="8.316363094310912"><ele>331.0</ele><time>2026-05-03T10:01:43Z</time></trkpt><trkpt lat="45.63664935685795" lon="8.316349161552578"><ele>331.0</ele><time>2026-05-03T10:01:44Z</time></trkpt><trkpt lat="45.63672512988835" lon="8.316360240667768"><ele>331.0</ele><time>2026-05-03T10:01:45Z</time></trkpt><trkpt lat="45.63679478478983" lon="8.316359282957055"><ele>331.0</ele><time>2026-05-03T10:01:46Z</time></trkpt><trkpt lat="45.636919987973506" lon="8.316257305226998"><ele>331.0</ele><time>2026-05-03T10:01:48Z</time></trkpt><trkpt lat="45.63699677825889" lon="8.316214394668188"><ele>331.0</ele><time>2026-05-03T10:01:49Z</time></trkpt><trkpt lat="45.637063700443356" lon="8.316164993674587"><ele>331.0</ele><time>2026-05-03T10:01:50Z</time></trkpt><trkpt lat="45.63716089066382" lon="8.316117377296779"><ele>331.0</ele><time>2026-05-03T10:01:51Z</time></trkpt><trkpt lat="45.63730012573924" lon="8.316074443058598"><ele>331.0</ele><time>2026-05-03T10:01:52Z</time></trkpt><trkpt lat="45.637445569732776" lon="8.31601332201178"><ele>331.0</ele><time>2026-05-03T10:01:53Z</time></trkpt><trkpt lat="45.637572108516544" lon="8.31596271621966"><ele>331.0</ele><time>2026-05-03T10:01:54Z</time></trkpt><trkpt lat="45.637707600427554" lon="8.315925161818727"><ele>331.0</ele><time>2026-05-03T10:01:55Z</time></trkpt><trkpt lat="45.63785785345053" lon="8.315904402611055"><ele>331.0</ele><time>2026-05-03T10:01:56Z</time></trkpt><trkpt lat="45.637982193396255" lon="8.31589935885951"><ele>331.0</ele><time>2026-05-03T10:01:57Z</time></trkpt><trkpt lat="45.638081718290444" lon="8.31588746849774"><ele>332.25</ele><time>2026-05-03T10:01:58Z</time></trkpt><trkpt lat="45.638195898074756" lon="8.31587445990437"><ele>333.5</ele><time>2026-05-03T10:01:59Z</time></trkpt><trkpt lat="45.63829144539879" lon="8.315881251827458"><ele>334.75</ele><time>2026-05-03T10:02:00Z</time></trkpt><trkpt lat="45.63842624014979" lon="8.315900825625175"><ele>336.0</ele><time>2026-05-03T10:02:01Z</time></trkpt><trkpt lat="45.63856427945802" lon="8.31587284825943"><ele>335.6</ele><time>2026-05-03T10:02:02Z</time></trkpt><trkpt lat="45.63870127987148" lon="8.315849530572518"><ele>335.20000000000005</ele><time>2026-05-03T10:02:03Z</time></trkpt><trkpt lat="45.63881573273125" lon="8.31581176129337"><ele>334.79999999999995</ele><time>2026-05-03T10:02:04Z</time></trkpt><trkpt lat="45.63890969316838" lon="8.315806376115113"><ele>334.4</ele><time>2026-05-03T10:02:05Z</time></trkpt><trkpt lat="45.638978492083766" lon="8.315784128489042"><ele>334.0</ele><time>2026-05-03T10:02:06Z</time></trkpt><trkpt lat="45.63903808141168" lon="8.315728764374859"><ele>334.3333333333333</ele><time>2026-05-03T10:02:07Z</time></trkpt><trkpt lat="45.63913496485321" lon="8.315564877093044"><ele>334.66666666666663</ele><time>2026-05-03T10:02:09Z</time></trkpt><trkpt lat="45.6392005398629" lon="8.315489065834324"><ele>335.0</ele><time>2026-05-03T10:02:10Z</time></trkpt><trkpt lat="45.6392622799133" lon="8.315450272696317"><ele>335.3333333333333</ele><time>2026-05-03T10:02:11Z</time></trkpt><trkpt lat="45.63933103724804" lon="8.315431490549441"><ele>335.6666666666667</ele><time>2026-05-03T10:02:12Z</time></trkpt><trkpt lat="45.63940262629034" lon="8.315438227878806"><ele>336.0</ele><time>2026-05-03T10:02:13Z</time></trkpt><trkpt lat="45.63948403285809" lon="8.315414651248082"><ele>336.0</ele><time>2026-05-03T10:02:14Z</time></trkpt><trkpt lat="45.63958468053262" lon="8.31536009363283"><ele>336.0</ele><time>2026-05-03T10:02:15Z</time></trkpt><trkpt lat="45.639695866903146" lon="8.3153577386348"><ele>336.0</ele><time>2026-05-03T10:02:16Z</time></trkpt><trkpt lat="45.6397824795497" lon="8.315350652212318"><ele>336.0</ele><time>2026-05-03T10:02:17Z</time></trkpt><trkpt lat="45.63984374380522" lon="8.315371568711821"><ele>336.0</ele><time>2026-05-03T10:02:18Z</time></trkpt><trkpt lat="45.63992578760766" lon="8.315413695786432"><ele>336.0</ele><time>2026-05-03T10:02:19Z</time></trkpt><trkpt lat="45.640004107341795" lon="8.315443429186118"><ele>336.0</ele><time>2026-05-03T10:02:20Z</time></trkpt><trkpt lat="45.640065145197966" lon="8.315481373592277"><ele>336.0</ele><time>2026-05-03T10:02:21Z</time></trkpt><trkpt lat="45.6401267675184" lon="8.315523435002612"><ele>336.0</ele><time>2026-05-03T10:02:22Z</time></trkpt><trkpt lat="45.640218105160336" lon="8.315565308898302"><ele>336.0</ele><time>2026-05-03T10:02:24Z</time></trkpt><trkpt lat="45.64033276626709" lon="8.315527845366175"><ele>336.0</ele><time>2026-05-03T10:02:26Z</time></trkpt><trkpt lat="45.64042196911753" lon="8.315459719196243"><ele>336.20000000000005</ele><time>2026-05-03T10:02:27Z</time></trkpt><trkpt lat="45.640517325835425" lon="8.315459889552514"><ele>336.40000000000003</ele><time>2026-05-03T10:02:29Z</time></trkpt><trkpt lat="45.640610174879846" lon="8.315515977109666"><ele>336.6</ele><time>2026-05-03T10:02:31Z</time></trkpt><trkpt lat="45.640645038972906" lon="8.315696586432635"><ele>336.8</ele><time>2026-05-03T10:02:33Z</time></trkpt><trkpt lat="45.64065852135922" lon="8.31582980512735"><ele>337.0</ele><time>2026-05-03T10:02:34Z</time></trkpt><trkpt lat="45.64069379253424" lon="8.315908173685452"><ele>337.0</ele><time>2026-05-03T10:02:35Z</time></trkpt><trkpt lat="45.64075604612001" lon="8.316049906131083"><ele>337.0</ele><time>2026-05-03T10:02:37Z</time></trkpt><trkpt lat="45.64083769024811" lon="8.31614556613105"><ele>337.0</ele><time>2026-05-03T10:02:39Z</time></trkpt><trkpt lat="45.640890180389036" lon="8.316197415837815"><ele>337.0</ele><time>2026-05-03T10:02:40Z</time></trkpt><trkpt lat="45.640957375202994" lon="8.316228944958011"><ele>337.0</ele><time>2026-05-03T10:02:41Z</time></trkpt><trkpt lat="45.64106562849664" lon="8.316305360016354"><ele>337.0</ele><time>2026-05-03T10:02:43Z</time></trkpt><trkpt lat="45.64112925542798" lon="8.316364133642242"><ele>337.0</ele><time>2026-05-03T10:02:44Z</time></trkpt><trkpt lat="45.64120241807433" lon="8.3163961164443"><ele>337.0</ele><time>2026-05-03T10:02:45Z</time></trkpt><trkpt lat="45.64127180786501" lon="8.316423973584541"><ele>337.0</ele><time>2026-05-03T10:02:46Z</time></trkpt><trkpt lat="45.641337376331464" lon="8.316496269389082"><ele>337.0</ele><time>2026-05-03T10:02:48Z</time></trkpt><trkpt lat="45.64141009023742" lon="8.316539368350293"><ele>337.0</ele><time>2026-05-03T10:03:03Z</time></trkpt><trkpt lat="45.64149319788394" lon="8.316572746654476"><ele>337.14285714285717</ele><time>2026-05-03T10:03:05Z</time></trkpt><trkpt lat="45.64156398738299" lon="8.316551159882717"><ele>337.2857142857143</ele><time>2026-05-03T10:03:06Z</time></trkpt><trkpt lat="45.64164351487161" lon="8.31653244245453"><ele>337.42857142857144</ele><time>2026-05-03T10:03:07Z</time></trkpt><trkpt lat="45.641707006999205" lon="8.316521111904663"><ele>337.57142857142856</ele><time>2026-05-03T10:03:08Z</time></trkpt><trkpt lat="45.64177088545376" lon="8.316527595781697"><ele>337.7142857142857</ele><time>2026-05-03T10:03:09Z</time></trkpt><trkpt lat="45.64185731232452" lon="8.316549349329147"><ele>337.8571428571429</ele><time>2026-05-03T10:03:12Z</time></trkpt><trkpt lat="45.641923175579855" lon="8.316521743398301"><ele>338.0</ele><time>2026-05-03T10:03:20.999Z</time></trkpt><trkpt lat="45.64182980766768" lon="8.316579559440406"><ele>338.0</ele><time>2026-05-03T10:03:23.999Z</time></trkpt><trkpt lat="45.641764285352174" lon="8.316572729020779"><ele>338.0</ele><time>2026-05-03T10:03:24.999Z</time></trkpt><trkpt lat="45.6416821640137" lon="8.316554927482914"><ele>338.0</ele><time>2026-05-03T10:03:25.999Z</time></trkpt><trkpt lat="45.64161776254912" lon="8.316547802493714"><ele>338.0</ele><time>2026-05-03T10:03:26.999Z</time></trkpt><trkpt lat="45.6415411099088" lon="8.316564735038686"><ele>338.0</ele><time>2026-05-03T10:03:28.999Z</time></trkpt><trkpt lat="45.64146320830074" lon="8.316579462627415"><ele>338.0</ele><time>2026-05-03T10:03:32.999Z</time></trkpt><trkpt lat="45.64137015441633" lon="8.316535144674505"><ele>338.0</ele><time>2026-05-03T10:03:34.999Z</time></trkpt><trkpt lat="45.64131479796566" lon="8.316489887220468"><ele>338.0</ele><time>2026-05-03T10:03:35.999Z</time></trkpt><trkpt lat="45.64126094708543" lon="8.316416079530695"><ele>338.0</ele><time>2026-05-03T10:03:39Z</time></trkpt><trkpt lat="45.64131685306182" lon="8.316521747659257"><ele>338.0</ele><time>2026-05-03T10:03:47Z</time></trkpt><trkpt lat="45.641363630222784" lon="8.316618493919536"><ele>338.0</ele><time>2026-05-03T10:03:48Z</time></trkpt><trkpt lat="45.64141990369627" lon="8.316678756478922"><ele>338.0</ele><time>2026-05-03T10:03:49Z</time></trkpt><trkpt lat="45.64148219533122" lon="8.316697349129074"><ele>338.0</ele><time>2026-05-03T10:03:50Z</time></trkpt><trkpt lat="45.64153765016719" lon="8.316749760166292"><ele>338.0</ele><time>2026-05-03T10:03:51Z</time></trkpt><trkpt lat="45.64162280672332" lon="8.316805616973712"><ele>338.0</ele><time>2026-05-03T10:03:53Z</time></trkpt><trkpt lat="45.64170166879724" lon="8.316824171808083"><ele>338.0</ele><time>2026-05-03T10:03:55Z</time></trkpt><trkpt lat="45.6417715596329" lon="8.316820791866055"><ele>338.0</ele><time>2026-05-03T10:03:56Z</time></trkpt><trkpt lat="45.6418384649695" lon="8.316846348355295"><ele>338.0</ele><time>2026-05-03T10:03:57Z</time></trkpt><trkpt lat="45.64192652803678" lon="8.316940635936167"><ele>338.0</ele><time>2026-05-03T10:03:59Z</time></trkpt><trkpt lat="45.64199444735048" lon="8.316962433587593"><ele>338.6666666666667</ele><time>2026-05-03T10:04:00Z</time></trkpt><trkpt lat="45.642094627210234" lon="8.317031841912724"><ele>339.33333333333337</ele><time>2026-05-03T10:04:02Z</time></trkpt><trkpt lat="45.6421460691476" lon="8.317095838383322"><ele>340.0</ele><time>2026-05-03T10:04:03Z</time></trkpt><trkpt lat="45.642216232229536" lon="8.31721312058047"><ele>340.6666666666667</ele><time>2026-05-03T10:04:05Z</time></trkpt><trkpt lat="45.64229044863106" lon="8.317239516405285"><ele>341.3333333333333</ele><time>2026-05-03T10:04:06Z</time></trkpt><trkpt lat="45.642354784343716" lon="8.317267169352396"><ele>342.0</ele><time>2026-05-03T10:04:07Z</time></trkpt><trkpt lat="45.642418653765866" lon="8.31727711192282"><ele>342.0</ele><time>2026-05-03T10:04:08Z</time></trkpt><trkpt lat="45.64248738965249" lon="8.317295852582134"><ele>342.0</ele><time>2026-05-03T10:04:09Z</time></trkpt><trkpt lat="45.64254879769157" lon="8.317329818455665"><ele>342.0</ele><time>2026-05-03T10:04:10Z</time></trkpt><trkpt lat="45.64260994489039" lon="8.317387799422727"><ele>342.0</ele><time>2026-05-03T10:04:11Z</time></trkpt><trkpt lat="45.642656337369296" lon="8.317468243620892"><ele>342.0</ele><time>2026-05-03T10:04:12Z</time></trkpt><trkpt lat="45.642808176924426" lon="8.317559432903757"><ele>342.0</ele><time>2026-05-03T10:04:14Z</time></trkpt><trkpt lat="45.642889402125725" lon="8.317598417189611"><ele>342.0</ele><time>2026-05-03T10:04:15Z</time></trkpt><trkpt lat="45.64298027123299" lon="8.317636118219372"><ele>342.0</ele><time>2026-05-03T10:04:16Z</time></trkpt><trkpt lat="45.643063418077475" lon="8.317671121216291"><ele>342.0</ele><time>2026-05-03T10:04:17Z</time></trkpt><trkpt lat="45.64312270556016" lon="8.31772953130519"><ele>342.0</ele><time>2026-05-03T10:04:18Z</time></trkpt><trkpt lat="45.64318585847915" lon="8.31778743468382"><ele>342.0</ele><time>2026-05-03T10:04:19Z</time></trkpt><trkpt lat="45.64323471280975" lon="8.317870673037822"><ele>342.0</ele><time>2026-05-03T10:04:20Z</time></trkpt><trkpt lat="45.64330176572061" lon="8.317919748465313"><ele>342.0</ele><time>2026-05-03T10:04:21Z</time></trkpt><trkpt lat="45.643356797564735" lon="8.317983335995034"><ele>342.0</ele><time>2026-05-03T10:04:22Z</time></trkpt><trkpt lat="45.64339945694222" lon="8.318068715545381"><ele>342.0</ele><time>2026-05-03T10:04:23Z</time></trkpt><trkpt lat="45.64346549935472" lon="8.318161286661784"><ele>342.0</ele><time>2026-05-03T10:04:24Z</time></trkpt><trkpt lat="45.64351428768477" lon="8.31825174256006"><ele>342.0</ele><time>2026-05-03T10:04:25Z</time></trkpt><trkpt lat="45.643561170950456" lon="8.318365657219852"><ele>342.0</ele><time>2026-05-03T10:04:26Z</time></trkpt><trkpt lat="45.643601396206684" lon="8.318517639157584"><ele>343.0</ele><time>2026-05-03T10:04:27Z</time></trkpt><trkpt lat="45.6436404218298" lon="8.318624525792782"><ele>344.0</ele><time>2026-05-03T10:04:28Z</time></trkpt><trkpt lat="45.64367440609261" lon="8.318734521515239"><ele>345.0</ele><time>2026-05-03T10:04:29Z</time></trkpt><trkpt lat="45.64369197627076" lon="8.318836934246843"><ele>346.0</ele><time>2026-05-03T10:04:30Z</time></trkpt><trkpt lat="45.64370692959926" lon="8.318928804693174"><ele>347.0</ele><time>2026-05-03T10:04:31Z</time></trkpt><trkpt lat="45.64370839485571" lon="8.319108455944528"><ele>348.0</ele><time>2026-05-03T10:04:33Z</time></trkpt><trkpt lat="45.64376000316397" lon="8.319267233063158"><ele>348.59999999999997</ele><time>2026-05-03T10:04:35Z</time></trkpt><trkpt lat="45.64378138238176" lon="8.31937198656661"><ele>349.2</ele><time>2026-05-03T10:04:36Z</time></trkpt><trkpt lat="45.64383118515775" lon="8.31950670097135"><ele>349.8</ele><time>2026-05-03T10:04:37Z</time></trkpt><trkpt lat="45.64390446787588" lon="8.319635456758073"><ele>350.4</ele><time>2026-05-03T10:04:38Z</time></trkpt><trkpt lat="45.64394931026253" lon="8.31974304651536"><ele>351.0</ele><time>2026-05-03T10:04:39Z</time></trkpt><trkpt lat="45.644021437946364" lon="8.319865577830118"><ele>351.5</ele><time>2026-05-03T10:04:40Z</time></trkpt><trkpt lat="45.644041377784085" lon="8.319982651545713"><ele>352.0</ele><time>2026-05-03T10:04:41Z</time></trkpt><trkpt lat="45.64411515261195" lon="8.320057026085808"><ele>352.5</ele><time>2026-05-03T10:04:42Z</time></trkpt><trkpt lat="45.64422752369458" lon="8.320106811022875"><ele>353.0</ele><time>2026-05-03T10:04:43Z</time></trkpt><trkpt lat="45.6443837120115" lon="8.320140721125185"><ele>353.59999999999997</ele><time>2026-05-03T10:04:44Z</time></trkpt><trkpt lat="45.64450654041947" lon="8.320180630576015"><ele>354.2</ele><time>2026-05-03T10:04:45Z</time></trkpt><trkpt lat="45.644563857892706" lon="8.320266282720437"><ele>354.8</ele><time>2026-05-03T10:04:46Z</time></trkpt><trkpt lat="45.64464110450556" lon="8.320416483876267"><ele>355.4</ele><time>2026-05-03T10:04:48Z</time></trkpt><trkpt lat="45.644693249719275" lon="8.320537013306518"><ele>356.0</ele><time>2026-05-03T10:04:49Z</time></trkpt><trkpt lat="45.64475563858918" lon="8.320661174398198"><ele>356.0</ele><time>2026-05-03T10:04:50Z</time></trkpt><trkpt lat="45.644800234287054" lon="8.320769131579825"><ele>356.0</ele><time>2026-05-03T10:04:51Z</time></trkpt><trkpt lat="45.64486529953017" lon="8.320860744196239"><ele>356.0</ele><time>2026-05-03T10:04:52Z</time></trkpt><trkpt lat="45.64490540852512" lon="8.320958931671159"><ele>356.0</ele><time>2026-05-03T10:04:53Z</time></trkpt><trkpt lat="45.644953034348745" lon="8.321022962069215"><ele>356.0</ele><time>2026-05-03T10:04:54Z</time></trkpt><trkpt lat="45.64495062254257" lon="8.321203616089049"><ele>356.0</ele><time>2026-05-03T10:04:56Z</time></trkpt><trkpt lat="45.64491723606383" lon="8.321300833300898"><ele>356.0</ele><time>2026-05-03T10:04:57Z</time></trkpt><trkpt lat="45.64489186998108" lon="8.321397339823774"><ele>356.0</ele><time>2026-05-03T10:04:58Z</time></trkpt><trkpt lat="45.644862172042934" lon="8.321513309070212"><ele>356.0</ele><time>2026-05-03T10:04:59Z</time></trkpt><trkpt lat="45.644879618396644" lon="8.32165041789378"><ele>356.0</ele><time>2026-05-03T10:05:01Z</time></trkpt><trkpt lat="45.644903016884896" lon="8.32174636306616"><ele>356.0</ele><time>2026-05-03T10:05:02Z</time></trkpt><trkpt lat="45.644900421559335" lon="8.32184347829204"><ele>357.4</ele><time>2026-05-03T10:05:03Z</time></trkpt><trkpt lat="45.64489305858151" lon="8.321947587956526"><ele>358.8</ele><time>2026-05-03T10:05:04Z</time></trkpt><trkpt lat="45.64488962261853" lon="8.3220379860999"><ele>360.2</ele><time>2026-05-03T10:05:05Z</time></trkpt><trkpt lat="45.644829596172755" lon="8.322186741610867"><ele>361.59999999999997</ele><time>2026-05-03T10:05:07Z</time></trkpt><trkpt lat="45.64481441653715" lon="8.322282748208279"><ele>363.0</ele><time>2026-05-03T10:05:08Z</time></trkpt><trkpt lat="45.64477334679965" lon="8.322458616093872"><ele>366.2</ele><time>2026-05-03T10:05:10Z</time></trkpt><trkpt lat="45.644748223517695" lon="8.322564764252213"><ele>369.4</ele><time>2026-05-03T10:05:11Z</time></trkpt><trkpt lat="45.644720011065125" lon="8.322721477225846"><ele>372.59999999999997</ele><time>2026-05-03T10:05:12Z</time></trkpt><trkpt lat="45.644700830854035" lon="8.322850790584983"><ele>375.79999999999995</ele><time>2026-05-03T10:05:13Z</time></trkpt><trkpt lat="45.64470340391503" lon="8.322999947806005"><ele>379.0</ele><time>2026-05-03T10:05:15Z</time></trkpt><trkpt lat="45.64469386136407" lon="8.323108596001687"><ele>380.2</ele><time>2026-05-03T10:05:16Z</time></trkpt><trkpt lat="45.64466911338447" lon="8.323279074830841"><ele>381.4</ele><time>2026-05-03T10:05:18Z</time></trkpt><trkpt lat="45.64463203550378" lon="8.323382467348628"><ele>382.6</ele><time>2026-05-03T10:05:19Z</time></trkpt><trkpt lat="45.64460848879971" lon="8.323471864137572"><ele>383.8</ele><time>2026-05-03T10:05:21Z</time></trkpt><trkpt lat="45.64465737286615" lon="8.323576040812169"><ele>385.0</ele><time>2026-05-03T10:05:23Z</time></trkpt><trkpt lat="45.6447373018747" lon="8.32365558519818"><ele>385.0</ele><time>2026-05-03T10:05:25Z</time></trkpt><trkpt lat="45.644818918946605" lon="8.323656184869382"><ele>385.0</ele><time>2026-05-03T10:05:26Z</time></trkpt><trkpt lat="45.64486358141124" lon="8.323721136292585"><ele>385.0</ele><time>2026-05-03T10:05:27.999Z</time></trkpt><trkpt lat="45.64484080539623" lon="8.323873621054119"><ele>385.0</ele><time>2026-05-03T10:05:31.999Z</time></trkpt><trkpt lat="45.6448026313201" lon="8.324060708310238"><ele>385.0</ele><time>2026-05-03T10:05:34.999Z</time></trkpt><trkpt lat="45.64481533045157" lon="8.324257384175535"><ele>385.33333333333337</ele><time>2026-05-03T10:05:36.999Z</time></trkpt><trkpt lat="45.64483370322383" lon="8.324373401214434"><ele>385.6666666666667</ele><time>2026-05-03T10:05:38.999Z</time></trkpt><trkpt lat="45.6448950947668" lon="8.324438787384645"><ele>386.0</ele><time>2026-05-03T10:05:41.999Z</time></trkpt><trkpt lat="45.64496342027156" lon="8.3243017344579"><ele>386.33333333333337</ele><time>2026-05-03T10:05:44Z</time></trkpt><trkpt lat="45.644971585710756" lon="8.324185355981882"><ele>386.6666666666667</ele><time>2026-05-03T10:05:46Z</time></trkpt><trkpt lat="45.64496340928781" lon="8.324060209641445"><ele>387.0</ele><time>2026-05-03T10:05:48Z</time></trkpt><trkpt lat="45.64499853910536" lon="8.32396381910751"><ele>387.0</ele><time>2026-05-03T10:05:49Z</time></trkpt><trkpt lat="45.64509579037798" lon="8.323891423858198"><ele>387.0</ele><time>2026-05-03T10:05:51Z</time></trkpt><trkpt lat="45.64511428224902" lon="8.324005931456426"><ele>387.0</ele><time>2026-05-03T10:05:53Z</time></trkpt><trkpt lat="45.645077742785084" lon="8.324085734044152"><ele>387.0</ele><time>2026-05-03T10:05:54Z</time></trkpt><trkpt lat="45.64504424791203" lon="8.324228070559656"><ele>387.0</ele><time>2026-05-03T10:05:56Z</time></trkpt><trkpt lat="45.64510278891812" lon="8.324389092748222"><ele>387.0</ele><time>2026-05-03T10:05:58Z</time></trkpt><trkpt lat="45.64512448825996" lon="8.32447863040886"><ele>387.0</ele><time>2026-05-03T10:05:59Z</time></trkpt><trkpt lat="45.64514078804953" lon="8.324585643404799"><ele>387.0</ele><time>2026-05-03T10:06:00Z</time></trkpt><trkpt lat="45.64515610170568" lon="8.32467772551904"><ele>387.0</ele><time>2026-05-03T10:06:01Z</time></trkpt><trkpt lat="45.645177763101096" lon="8.324799840951943"><ele>387.0</ele><time>2026-05-03T10:06:02Z</time></trkpt><trkpt lat="45.64512694709488" lon="8.324949981803588"><ele>387.0</ele><time>2026-05-03T10:06:04Z</time></trkpt><trkpt lat="45.645105399145834" lon="8.325087410309687"><ele>388.20000000000005</ele><time>2026-05-03T10:06:06Z</time></trkpt><trkpt lat="45.645125680069796" lon="8.325187808852277"><ele>389.4</ele><time>2026-05-03T10:06:07Z</time></trkpt><trkpt lat="45.64515577099122" lon="8.32528898045444"><ele>390.6</ele><time>2026-05-03T10:06:08Z</time></trkpt><trkpt lat="45.645245117568386" lon="8.325391750395472"><ele>391.79999999999995</ele><time>2026-05-03T10:06:10Z</time></trkpt><trkpt lat="45.645343653743865" lon="8.325416862012007"><ele>393.0</ele><time>2026-05-03T10:06:12Z</time></trkpt><trkpt lat="45.64543221022143" lon="8.32553730700552"><ele>395.2</ele><time>2026-05-03T10:06:14Z</time></trkpt><trkpt lat="45.64553245411544" lon="8.325616475125319"><ele>397.4</ele><time>2026-05-03T10:06:16Z</time></trkpt><trkpt lat="45.64560477325924" lon="8.325679703929074"><ele>399.59999999999997</ele><time>2026-05-03T10:06:17Z</time></trkpt><trkpt lat="45.64570449583825" lon="8.325730951999349"><ele>401.79999999999995</ele><time>2026-05-03T10:06:18Z</time></trkpt><trkpt lat="45.64579630127167" lon="8.325772925880909"><ele>404.0</ele><time>2026-05-03T10:06:19Z</time></trkpt><trkpt lat="45.64585520518428" lon="8.325806639061977"><ele>403.99999999999994</ele><time>2026-05-03T10:06:20Z</time></trkpt><trkpt lat="45.6459043243543" lon="8.325910621930568"><ele>404.0</ele><time>2026-05-03T10:06:22Z</time></trkpt><trkpt lat="45.64594765293018" lon="8.325983764878774"><ele>404.0</ele><time>2026-05-03T10:06:23Z</time></trkpt><trkpt lat="45.645994179426374" lon="8.326046909947314"><ele>404.0</ele><time>2026-05-03T10:06:24Z</time></trkpt><trkpt lat="45.64600046641822" lon="8.326184546234106"><ele>403.99999999999994</ele><time>2026-05-03T10:06:26Z</time></trkpt><trkpt lat="45.646016816008434" lon="8.326287116911976"><ele>404.0</ele><time>2026-05-03T10:06:28Z</time></trkpt><trkpt lat="45.64608882820181" lon="8.326362497116287"><ele>401.99999999999994</ele><time>2026-05-03T10:06:30Z</time></trkpt><trkpt lat="45.64618086389415" lon="8.326366393628751"><ele>400.0</ele><time>2026-05-03T10:06:32Z</time></trkpt><trkpt lat="45.64624719568039" lon="8.326348017401827"><ele>398.0</ele><time>2026-05-03T10:06:34Z</time></trkpt><trkpt lat="45.646318202071754" lon="8.326323096922886"><ele>396.0</ele><time>2026-05-03T10:06:36Z</time></trkpt><trkpt lat="45.64640635529973" lon="8.32631569402214"><ele>393.99999999999994</ele><time>2026-05-03T10:06:39Z</time></trkpt><trkpt lat="45.64634049051843" lon="8.326233882018679"><ele>392.0</ele><time>2026-05-03T10:06:42Z</time></trkpt><trkpt lat="45.64626461188043" lon="8.326215363453867"><ele>391.99999999999994</ele><time>2026-05-03T10:06:43Z</time></trkpt><trkpt lat="45.64616442058751" lon="8.326242497818432"><ele>392.0</ele><time>2026-05-03T10:06:44Z</time></trkpt><trkpt lat="45.64607586136911" lon="8.3261832234664"><ele>392.0</ele><time>2026-05-03T10:06:46Z</time></trkpt><trkpt lat="45.64606544784014" lon="8.326038346909254"><ele>392.0</ele><time>2026-05-03T10:06:48Z</time></trkpt><trkpt lat="45.646073223019364" lon="8.325943082796897"><ele>391.99999999999994</ele><time>2026-05-03T10:06:49Z</time></trkpt><trkpt lat="45.64607786564359" lon="8.325829825186188"><ele>392.0</ele><time>2026-05-03T10:06:51Z</time></trkpt><trkpt lat="45.64614207488793" lon="8.325751279805903"><ele>392.0</ele><time>2026-05-03T10:06:53Z</time></trkpt><trkpt lat="45.64627162816075" lon="8.325745603336712"><ele>392.0</ele><time>2026-05-03T10:06:55Z</time></trkpt><trkpt lat="45.646369088200636" lon="8.32568831983648"><ele>392.0</ele><time>2026-05-03T10:06:57Z</time></trkpt><trkpt lat="45.646395657661905" lon="8.325559417507293"><ele>392.0</ele><time>2026-05-03T10:06:59Z</time></trkpt><trkpt lat="45.6464637559709" lon="8.325504821950869"><ele>392.0</ele><time>2026-05-03T10:07:01Z</time></trkpt><trkpt lat="45.646534992861966" lon="8.325524758689513"><ele>391.99999999999994</ele><time>2026-05-03T10:07:02Z</time></trkpt><trkpt lat="45.646597964874594" lon="8.32558647444295"><ele>392.0</ele><time>2026-05-03T10:07:03Z</time></trkpt><trkpt lat="45.64665699270511" lon="8.325648716650385"><ele>392.0</ele><time>2026-05-03T10:07:04Z</time></trkpt><trkpt lat="45.6467183334425" lon="8.325725232569694"><ele>392.0</ele><time>2026-05-03T10:07:05Z</time></trkpt><trkpt lat="45.64677839853777" lon="8.32579257627615"><ele>391.99999999999994</ele><time>2026-05-03T10:07:06Z</time></trkpt><trkpt lat="45.646851104936765" lon="8.325852323054074"><ele>392.0</ele><time>2026-05-03T10:07:07Z</time></trkpt><trkpt lat="45.64692781393489" lon="8.325901129361437"><ele>389.8333333333333</ele><time>2026-05-03T10:07:08Z</time></trkpt><trkpt lat="45.64702005842258" lon="8.32590052575737"><ele>387.66666666666663</ele><time>2026-05-03T10:07:09Z</time></trkpt><trkpt lat="45.64709433314535" lon="8.325912189143736"><ele>385.5</ele><time>2026-05-03T10:07:10Z</time></trkpt><trkpt lat="45.64714896469697" lon="8.325958950567351"><ele>383.3333333333333</ele><time>2026-05-03T10:07:11Z</time></trkpt><trkpt lat="45.647203500097646" lon="8.32600781822556"><ele>381.16666666666663</ele><time>2026-05-03T10:07:12Z</time></trkpt><trkpt lat="45.64730039910297" lon="8.326056327934513"><ele>379.0</ele><time>2026-05-03T10:07:14Z</time></trkpt><trkpt lat="45.64738748911594" lon="8.32605412571439"><ele>379.0</ele><time>2026-05-03T10:07:16Z</time></trkpt><trkpt lat="45.64745004467327" lon="8.326018797463792"><ele>379.0</ele><time>2026-05-03T10:07:18Z</time></trkpt><trkpt lat="45.647484696782705" lon="8.325901004173643"><ele>379.0</ele><time>2026-05-03T10:07:21Z</time></trkpt><trkpt lat="45.6475166104979" lon="8.325760821373795"><ele>379.0</ele><time>2026-05-03T10:07:24Z</time></trkpt><trkpt lat="45.64760757394131" lon="8.325816464121079"><ele>379.0</ele><time>2026-05-03T10:07:35.999Z</time></trkpt><trkpt lat="45.6476174706923" lon="8.325919405839054"><ele>379.0</ele><time>2026-05-03T10:07:36.999Z</time></trkpt><trkpt lat="45.64765619757017" lon="8.326009672039229"><ele>379.0</ele><time>2026-05-03T10:07:37.999Z</time></trkpt><trkpt lat="45.647728403692255" lon="8.326167420345154"><ele>379.0</ele><time>2026-05-03T10:07:39.999Z</time></trkpt><trkpt lat="45.647781963603414" lon="8.32622294256493"><ele>379.0</ele><time>2026-05-03T10:07:40.999Z</time></trkpt><trkpt lat="45.6478459995999" lon="8.326253719963137"><ele>379.0</ele><time>2026-05-03T10:07:41.999Z</time></trkpt><trkpt lat="45.64797579828057" lon="8.326205592054555"><ele>379.0</ele><time>2026-05-03T10:07:43.999Z</time></trkpt><trkpt lat="45.64805209205211" lon="8.326154417320433"><ele>378.0</ele><time>2026-05-03T10:07:45.999Z</time></trkpt><trkpt lat="45.64806478730266" lon="8.326244776696523"><ele>377.0</ele><time>2026-05-03T10:07:47.999Z</time></trkpt><trkpt lat="45.6480480677086" lon="8.32638853925096"><ele>376.0</ele><time>2026-05-03T10:07:50Z</time></trkpt><trkpt lat="45.64813330608573" lon="8.326508425942723"><ele>375.0</ele><time>2026-05-03T10:07:52Z</time></trkpt><trkpt lat="45.648194789037106" lon="8.32655853798685"><ele>374.0</ele><time>2026-05-03T10:07:53Z</time></trkpt><trkpt lat="45.64827750977239" lon="8.326617456946467"><ele>373.0</ele><time>2026-05-03T10:07:54Z</time></trkpt><trkpt lat="45.64837166343057" lon="8.326681638840295"><ele>373.0</ele><time>2026-05-03T10:07:55Z</time></trkpt><trkpt lat="45.648481852396884" lon="8.326769395895885"><ele>373.0</ele><time>2026-05-03T10:07:56Z</time></trkpt><trkpt lat="45.64859294275643" lon="8.326860300707729"><ele>373.0</ele><time>2026-05-03T10:07:57Z</time></trkpt><trkpt lat="45.648662235976964" lon="8.326987275102935"><ele>373.0</ele><time>2026-05-03T10:07:58Z</time></trkpt><trkpt lat="45.64873116288057" lon="8.327092044535593"><ele>372.79999999999995</ele><time>2026-05-03T10:07:59Z</time></trkpt><trkpt lat="45.648845679314924" lon="8.327155434638625"><ele>372.6</ele><time>2026-05-03T10:08:00Z</time></trkpt><trkpt lat="45.64892594467832" lon="8.327227178344208"><ele>372.4</ele><time>2026-05-03T10:08:01Z</time></trkpt><trkpt lat="45.64901294482024" lon="8.32731874759674"><ele>372.20000000000005</ele><time>2026-05-03T10:08:02Z</time></trkpt><trkpt lat="45.64908748629397" lon="8.327378630612046"><ele>372.0</ele><time>2026-05-03T10:08:03Z</time></trkpt><trkpt lat="45.64919950099611" lon="8.32743550563477"><ele>370.3333333333333</ele><time>2026-05-03T10:08:04Z</time></trkpt><trkpt lat="45.64929679486705" lon="8.327422346562082"><ele>368.6666666666667</ele><time>2026-05-03T10:08:05Z</time></trkpt><trkpt lat="45.64939776059168" lon="8.327447698160482"><ele>367.0</ele><time>2026-05-03T10:08:06Z</time></trkpt><trkpt lat="45.649479726990926" lon="8.327489360244568"><ele>365.33333333333337</ele><time>2026-05-03T10:08:07Z</time></trkpt><trkpt lat="45.64953344230048" lon="8.327550104947594"><ele>363.6666666666667</ele><time>2026-05-03T10:08:08Z</time></trkpt><trkpt lat="45.64959381268596" lon="8.327643161642216"><ele>362.0</ele><time>2026-05-03T10:08:09Z</time></trkpt><trkpt lat="45.649636794684795" lon="8.327722296058688"><ele>362.0</ele><time>2026-05-03T10:08:10Z</time></trkpt><trkpt lat="45.64964259615326" lon="8.32784460762882"><ele>362.0</ele><time>2026-05-03T10:08:11Z</time></trkpt><trkpt lat="45.649655889321934" lon="8.32799743858879"><ele>362.0</ele><time>2026-05-03T10:08:12Z</time></trkpt><trkpt lat="45.64966193025218" lon="8.328154733985771"><ele>362.0</ele><time>2026-05-03T10:08:13Z</time></trkpt><trkpt lat="45.649679296119224" lon="8.32828066655109"><ele>362.0</ele><time>2026-05-03T10:08:14Z</time></trkpt><trkpt lat="45.649721042590514" lon="8.32842261619284"><ele>359.83333333333337</ele><time>2026-05-03T10:08:15Z</time></trkpt><trkpt lat="45.64975234813562" lon="8.328513777998575"><ele>357.6666666666667</ele><time>2026-05-03T10:08:16Z</time></trkpt><trkpt lat="45.649798076851475" lon="8.328639231011215"><ele>355.5</ele><time>2026-05-03T10:08:18Z</time></trkpt><trkpt lat="45.649841432375084" lon="8.328710621076054"><ele>353.3333333333333</ele><time>2026-05-03T10:08:20Z</time></trkpt><trkpt lat="45.64991514592969" lon="8.328784351266739"><ele>351.16666666666663</ele><time>2026-05-03T10:08:22Z</time></trkpt><trkpt lat="45.649967902580805" lon="8.32886485894939"><ele>349.0</ele><time>2026-05-03T10:08:23Z</time></trkpt><trkpt lat="45.65002372351956" lon="8.328946340467233"><ele>347.16666666666663</ele><time>2026-05-03T10:08:24Z</time></trkpt><trkpt lat="45.65009152211543" lon="8.329014212805491"><ele>345.3333333333333</ele><time>2026-05-03T10:08:25Z</time></trkpt><trkpt lat="45.65015153292283" lon="8.329057077781663"><ele>343.5</ele><time>2026-05-03T10:08:26Z</time></trkpt><trkpt lat="45.65025890613463" lon="8.329148275017037"><ele>341.6666666666667</ele><time>2026-05-03T10:08:28Z</time></trkpt><trkpt lat="45.65030696027224" lon="8.329209009052999"><ele>339.83333333333337</ele><time>2026-05-03T10:08:29Z</time></trkpt><trkpt lat="45.65036917550391" lon="8.32928845125461"><ele>338.0</ele><time>2026-05-03T10:08:30Z</time></trkpt><trkpt lat="45.65041408556442" lon="8.329367154813056"><ele>336.33333333333337</ele><time>2026-05-03T10:08:31Z</time></trkpt><trkpt lat="45.65049841512412" lon="8.329484763965185"><ele>334.6666666666667</ele><time>2026-05-03T10:08:33Z</time></trkpt><trkpt lat="45.6505588051525" lon="8.329512631499476"><ele>333.0</ele><time>2026-05-03T10:08:34Z</time></trkpt><trkpt lat="45.65062445025472" lon="8.329492044382912"><ele>331.3333333333333</ele><time>2026-05-03T10:08:35Z</time></trkpt><trkpt lat="45.65068884384177" lon="8.329487612004007"><ele>329.66666666666663</ele><time>2026-05-03T10:08:36Z</time></trkpt><trkpt lat="45.65078448857319" lon="8.329514508392592"><ele>328.0</ele><time>2026-05-03T10:08:38Z</time></trkpt><trkpt lat="45.65084810208812" lon="8.329560214560376"><ele>328.0</ele><time>2026-05-03T10:09:06Z</time></trkpt><trkpt lat="45.650950291713855" lon="8.329556929764559"><ele>328.0</ele><time>2026-05-03T10:09:08Z</time></trkpt><trkpt lat="45.65107446925804" lon="8.329485348517453"><ele>328.0</ele><time>2026-05-03T10:09:10Z</time></trkpt><trkpt lat="45.6511604341102" lon="8.329424260441781"><ele>328.0</ele><time>2026-05-03T10:09:11Z</time></trkpt><trkpt lat="45.65122988759739" lon="8.32938944274251"><ele>328.0</ele><time>2026-05-03T10:09:12Z</time></trkpt><trkpt lat="45.65132710775558" lon="8.329459834067698"><ele>328.59999999999997</ele><time>2026-05-03T10:09:15Z</time></trkpt><trkpt lat="45.65138372791878" lon="8.329543850244985"><ele>329.2</ele><time>2026-05-03T10:09:16Z</time></trkpt><trkpt lat="45.651436853648285" lon="8.329643631402135"><ele>329.8</ele><time>2026-05-03T10:09:17Z</time></trkpt><trkpt lat="45.65149818791297" lon="8.32975115008677"><ele>330.4</ele><time>2026-05-03T10:09:18Z</time></trkpt><trkpt lat="45.65155943560622" lon="8.329869667431648"><ele>331.0</ele><time>2026-05-03T10:09:19Z</time></trkpt><trkpt lat="45.6516237309984" lon="8.329982354263873"><ele>331.0</ele><time>2026-05-03T10:09:20Z</time></trkpt><trkpt lat="45.65167806930804" lon="8.330106967281361"><ele>331.0</ele><time>2026-05-03T10:09:21Z</time></trkpt><trkpt lat="45.65172443594346" lon="8.330253619816723"><ele>331.0</ele><time>2026-05-03T10:09:22Z</time></trkpt><trkpt lat="45.65174659300399" lon="8.330365251429381"><ele>331.0</ele><time>2026-05-03T10:09:23Z</time></trkpt><trkpt lat="45.65177643883835" lon="8.330462084615768"><ele>331.0</ele><time>2026-05-03T10:09:24Z</time></trkpt><trkpt lat="45.65182306694221" lon="8.330549240976191"><ele>331.0</ele><time>2026-05-03T10:09:25Z</time></trkpt><trkpt lat="45.65188862837974" lon="8.330636136236611"><ele>330.0</ele><time>2026-05-03T10:09:26Z</time></trkpt><trkpt lat="45.65195408186684" lon="8.330708775660941"><ele>329.0</ele><time>2026-05-03T10:09:27Z</time></trkpt><trkpt lat="45.651989511777344" lon="8.330809392394421"><ele>328.0</ele><time>2026-05-03T10:09:27.999Z</time></trkpt><trkpt lat="45.65200540563217" lon="8.330938277340913"><ele>327.0</ele><time>2026-05-03T10:09:28.999Z</time></trkpt><trkpt lat="45.65201776712787" lon="8.331073822380073"><ele>326.0</ele><time>2026-05-03T10:09:29.999Z</time></trkpt><trkpt lat="45.652018208038214" lon="8.331265136899212"><ele>326.75</ele><time>2026-05-03T10:09:30.999Z</time></trkpt><trkpt lat="45.652037346047805" lon="8.33143282668796"><ele>327.5</ele><time>2026-05-03T10:09:31.999Z</time></trkpt><trkpt lat="45.65204049720149" lon="8.331584702142068"><ele>328.25</ele><time>2026-05-03T10:09:32.999Z</time></trkpt><trkpt lat="45.65206567285796" lon="8.331759942227242"><ele>329.0</ele><time>2026-05-03T10:09:33.999Z</time></trkpt><trkpt lat="45.65208425406484" lon="8.331981858460763"><ele>329.0</ele><time>2026-05-03T10:09:34.999Z</time></trkpt><trkpt lat="45.65211920877774" lon="8.332188927109625"><ele>329.0</ele><time>2026-05-03T10:09:35.999Z</time></trkpt><trkpt lat="45.65214363923657" lon="8.332359994982228"><ele>329.0</ele><time>2026-05-03T10:09:36.999Z</time></trkpt><trkpt lat="45.652149246955176" lon="8.332524703771075"><ele>329.0</ele><time>2026-05-03T10:09:37.999Z</time></trkpt><trkpt lat="45.65215449782174" lon="8.332660315826505"><ele>328.0</ele><time>2026-05-03T10:09:38.999Z</time></trkpt><trkpt lat="45.65216458309214" lon="8.332781744948605"><ele>327.0</ele><time>2026-05-03T10:09:39.999Z</time></trkpt><trkpt lat="45.652202742243965" lon="8.332895138289457"><ele>326.0</ele><time>2026-05-03T10:09:40.999Z</time></trkpt><trkpt lat="45.65227841478792" lon="8.333047749747696"><ele>325.0</ele><time>2026-05-03T10:09:41.999Z</time></trkpt><trkpt lat="45.652337443543615" lon="8.333167318864808"><ele>324.0</ele><time>2026-05-03T10:09:42.999Z</time></trkpt><trkpt lat="45.65240939360158" lon="8.333265662052408"><ele>322.8</ele><time>2026-05-03T10:09:43.999Z</time></trkpt><trkpt lat="45.65247601459547" lon="8.333357822053706"><ele>321.59999999999997</ele><time>2026-05-03T10:09:44.999Z</time></trkpt><trkpt lat="45.65253915433918" lon="8.333434513463699"><ele>320.4</ele><time>2026-05-03T10:09:45.999Z</time></trkpt><trkpt lat="45.65257458204973" lon="8.333517018275913"><ele>319.2</ele><time>2026-05-03T10:09:46.999Z</time></trkpt><trkpt lat="45.65254060990418" lon="8.333708416829666"><ele>318.0</ele><time>2026-05-03T10:09:48.999Z</time></trkpt><trkpt lat="45.65248653514878" lon="8.333859673168027"><ele>319.0</ele><time>2026-05-03T10:09:49.999Z</time></trkpt><trkpt lat="45.65243092156392" lon="8.33402779291401"><ele>320.0</ele><time>2026-05-03T10:09:50.999Z</time></trkpt><trkpt lat="45.65237911789171" lon="8.33420611753571"><ele>321.0</ele><time>2026-05-03T10:09:51.999Z</time></trkpt><trkpt lat="45.65230065366746" lon="8.334372510115013"><ele>322.0</ele><time>2026-05-03T10:09:52.999Z</time></trkpt><trkpt lat="45.65220751406523" lon="8.33452218671023"><ele>322.0</ele><time>2026-05-03T10:09:53.999Z</time></trkpt><trkpt lat="45.65214501931642" lon="8.334622953180473"><ele>322.0</ele><time>2026-05-03T10:09:54.999Z</time></trkpt><trkpt lat="45.6520918912709" lon="8.334716667249442"><ele>322.0</ele><time>2026-05-03T10:09:56Z</time></trkpt><trkpt lat="45.65206935811805" lon="8.334827164407992"><ele>322.0</ele><time>2026-05-03T10:09:57Z</time></trkpt><trkpt lat="45.652065891712596" lon="8.334948969769524"><ele>322.0</ele><time>2026-05-03T10:09:58Z</time></trkpt><trkpt lat="45.65209613138017" lon="8.33505655380695"><ele>322.0</ele><time>2026-05-03T10:09:59Z</time></trkpt><trkpt lat="45.65213542581475" lon="8.335213968122975"><ele>322.0</ele><time>2026-05-03T10:10:00Z</time></trkpt><trkpt lat="45.65220918567867" lon="8.335401505586342"><ele>322.0</ele><time>2026-05-03T10:10:01Z</time></trkpt><trkpt lat="45.652269531248294" lon="8.335584379121505"><ele>322.0</ele><time>2026-05-03T10:10:02Z</time></trkpt><trkpt lat="45.652330892088486" lon="8.335736328205797"><ele>322.0</ele><time>2026-05-03T10:10:03Z</time></trkpt><trkpt lat="45.65240906885148" lon="8.335867094495905"><ele>321.0</ele><time>2026-05-03T10:10:04Z</time></trkpt><trkpt lat="45.652492176500665" lon="8.335974034182401"><ele>320.0</ele><time>2026-05-03T10:10:05Z</time></trkpt><trkpt lat="45.652578563752634" lon="8.336076343093382"><ele>319.0</ele><time>2026-05-03T10:10:06Z</time></trkpt><trkpt lat="45.65263493616864" lon="8.336156199244286"><ele>318.0</ele><time>2026-05-03T10:10:07Z</time></trkpt><trkpt lat="45.652691555726264" lon="8.336234485923162"><ele>317.0</ele><time>2026-05-03T10:10:08Z</time></trkpt><trkpt lat="45.652765885743364" lon="8.336311344056353"><ele>317.0</ele><time>2026-05-03T10:10:09Z</time></trkpt><trkpt lat="45.652845799740675" lon="8.336365470686584"><ele>317.0</ele><time>2026-05-03T10:10:10Z</time></trkpt><trkpt lat="45.65292354951209" lon="8.336395097666182"><ele>317.0</ele><time>2026-05-03T10:10:11Z</time></trkpt><trkpt lat="45.652996846992224" lon="8.336395466184506"><ele>317.0</ele><time>2026-05-03T10:10:12Z</time></trkpt><trkpt lat="45.653087504819744" lon="8.336398072530287"><ele>317.0</ele><time>2026-05-03T10:10:13Z</time></trkpt><trkpt lat="45.65316988793308" lon="8.336384434820804"><ele>317.0</ele><time>2026-05-03T10:10:14Z</time></trkpt><trkpt lat="45.65324780379314" lon="8.336336476586453"><ele>317.0</ele><time>2026-05-03T10:10:15Z</time></trkpt><trkpt lat="45.653328624856265" lon="8.3362569425247"><ele>317.0</ele><time>2026-05-03T10:10:16Z</time></trkpt><trkpt lat="45.65342147973539" lon="8.336142937087619"><ele>317.0</ele><time>2026-05-03T10:10:17Z</time></trkpt><trkpt lat="45.653497379326694" lon="8.336025977900198"><ele>317.0</ele><time>2026-05-03T10:10:18Z</time></trkpt><trkpt lat="45.65354909642089" lon="8.335929697571867"><ele>317.0</ele><time>2026-05-03T10:10:19Z</time></trkpt><trkpt lat="45.653613437995794" lon="8.335840283103133"><ele>315.8</ele><time>2026-05-03T10:10:20Z</time></trkpt><trkpt lat="45.65369323045311" lon="8.335751694333972"><ele>314.6</ele><time>2026-05-03T10:10:21Z</time></trkpt><trkpt lat="45.65377299808735" lon="8.335664126056246"><ele>313.40000000000003</ele><time>2026-05-03T10:10:22Z</time></trkpt><trkpt lat="45.653846072174005" lon="8.33556902556236"><ele>312.2</ele><time>2026-05-03T10:10:23Z</time></trkpt><trkpt lat="45.65390021249234" lon="8.33549292500137"><ele>311.0</ele><time>2026-05-03T10:10:24Z</time></trkpt><trkpt lat="45.65397316556655" lon="8.335403935921695"><ele>311.0</ele><time>2026-05-03T10:10:25Z</time></trkpt><trkpt lat="45.65405393957389" lon="8.335303263013728"><ele>311.0</ele><time>2026-05-03T10:10:26Z</time></trkpt><trkpt lat="45.65417067293765" lon="8.33515072167376"><ele>311.0</ele><time>2026-05-03T10:10:27Z</time></trkpt><trkpt lat="45.65428654937839" lon="8.33501736135542"><ele>311.0</ele><time>2026-05-03T10:10:28Z</time></trkpt><trkpt lat="45.654384583554425" lon="8.334910006993365"><ele>311.5</ele><time>2026-05-03T10:10:29Z</time></trkpt><trkpt lat="45.65448820938504" lon="8.334822639303537"><ele>312.0</ele><time>2026-05-03T10:10:30Z</time></trkpt><trkpt lat="45.654602041741036" lon="8.334740908915151"><ele>312.5</ele><time>2026-05-03T10:10:31Z</time></trkpt><trkpt lat="45.65473568430706" lon="8.334670614250223"><ele>313.0</ele><time>2026-05-03T10:10:32Z</time></trkpt><trkpt lat="45.654887869646636" lon="8.334606373354793"><ele>313.0</ele><time>2026-05-03T10:10:33Z</time></trkpt><trkpt lat="45.65506255568106" lon="8.33454840937461"><ele>313.0</ele><time>2026-05-03T10:10:34Z</time></trkpt><trkpt lat="45.655236148734446" lon="8.334497380800203"><ele>313.0</ele><time>2026-05-03T10:10:35Z</time></trkpt><trkpt lat="45.65540317991794" lon="8.334443595146462"><ele>312.0</ele><time>2026-05-03T10:10:36Z</time></trkpt><trkpt lat="45.6555571550084" lon="8.334389674491216"><ele>311.0</ele><time>2026-05-03T10:10:37Z</time></trkpt><trkpt lat="45.6556834496849" lon="8.334354603584769"><ele>310.0</ele><time>2026-05-03T10:10:38Z</time></trkpt><trkpt lat="45.65580702846186" lon="8.334310413366156"><ele>309.0</ele><time>2026-05-03T10:10:39Z</time></trkpt><trkpt lat="45.65592922839939" lon="8.334259615637109"><ele>309.0</ele><time>2026-05-03T10:10:40Z</time></trkpt><trkpt lat="45.65607064905767" lon="8.334213999177166"><ele>309.0</ele><time>2026-05-03T10:10:41Z</time></trkpt><trkpt lat="45.65621488356795" lon="8.334161029600047"><ele>309.0</ele><time>2026-05-03T10:10:42Z</time></trkpt><trkpt lat="45.656356484576634" lon="8.33411310685456"><ele>309.0</ele><time>2026-05-03T10:10:43Z</time></trkpt><trkpt lat="45.656498869521194" lon="8.334075082692248"><ele>307.5</ele><time>2026-05-03T10:10:44Z</time></trkpt><trkpt lat="45.656632811965316" lon="8.334054120401394"><ele>306.0</ele><time>2026-05-03T10:10:45Z</time></trkpt><trkpt lat="45.656751736454204" lon="8.334022629891264"><ele>304.5</ele><time>2026-05-03T10:10:46Z</time></trkpt><trkpt lat="45.656856454529375" lon="8.334007033288517"><ele>303.0</ele><time>2026-05-03T10:10:47Z</time></trkpt><trkpt lat="45.656962588918276" lon="8.333980540021352"><ele>302.75</ele><time>2026-05-03T10:10:48Z</time></trkpt><trkpt lat="45.65708560920598" lon="8.333977296129406"><ele>302.5</ele><time>2026-05-03T10:10:49Z</time></trkpt><trkpt lat="45.65721525800434" lon="8.334002156832296"><ele>302.25</ele><time>2026-05-03T10:10:50Z</time></trkpt><trkpt lat="45.65734862288979" lon="8.334024351246653"><ele>302.0</ele><time>2026-05-03T10:10:51Z</time></trkpt><trkpt lat="45.65748480002396" lon="8.334055080554016"><ele>302.0</ele><time>2026-05-03T10:10:52Z</time></trkpt><trkpt lat="45.657618318253746" lon="8.334080372758784"><ele>302.0</ele><time>2026-05-03T10:10:53Z</time></trkpt><trkpt lat="45.657760358973384" lon="8.334098806308127"><ele>302.0</ele><time>2026-05-03T10:10:54Z</time></trkpt><trkpt lat="45.65790307350216" lon="8.33411782083685"><ele>302.0</ele><time>2026-05-03T10:10:55Z</time></trkpt><trkpt lat="45.65805207209744" lon="8.334128887242287"><ele>302.25</ele><time>2026-05-03T10:10:56Z</time></trkpt><trkpt lat="45.65820226031441" lon="8.33414088516163"><ele>302.5</ele><time>2026-05-03T10:10:57Z</time></trkpt><trkpt lat="45.65833971199142" lon="8.33415176956816"><ele>302.75</ele><time>2026-05-03T10:10:58Z</time></trkpt><trkpt lat="45.65846586896094" lon="8.334153957299597"><ele>303.0</ele><time>2026-05-03T10:10:59Z</time></trkpt><trkpt lat="45.65858258149876" lon="8.334144152951996"><ele>302.5</ele><time>2026-05-03T10:11:00Z</time></trkpt><trkpt lat="45.65870882712701" lon="8.334121331363992"><ele>302.0</ele><time>2026-05-03T10:11:01Z</time></trkpt><trkpt lat="45.65883679226923" lon="8.334101711038029"><ele>301.5</ele><time>2026-05-03T10:11:02Z</time></trkpt><trkpt lat="45.65897408911114" lon="8.33412506762828"><ele>301.0</ele><time>2026-05-03T10:11:03Z</time></trkpt><trkpt lat="45.65911360673473" lon="8.33409957232085"><ele>301.0</ele><time>2026-05-03T10:11:04Z</time></trkpt><trkpt lat="45.65925646269587" lon="8.334061607483601"><ele>301.0</ele><time>2026-05-03T10:11:05Z</time></trkpt><trkpt lat="45.65940387881449" lon="8.334041455962176"><ele>301.0</ele><time>2026-05-03T10:11:06Z</time></trkpt><trkpt lat="45.6595513574324" lon="8.334004726582977"><ele>301.0</ele><time>2026-05-03T10:11:07Z</time></trkpt><trkpt lat="45.65968506631988" lon="8.333975438685389"><ele>300.6</ele><time>2026-05-03T10:11:08Z</time></trkpt><trkpt lat="45.65980406242914" lon="8.333979617868437"><ele>300.20000000000005</ele><time>2026-05-03T10:11:09Z</time></trkpt><trkpt lat="45.6598977661775" lon="8.333967974520046"><ele>299.79999999999995</ele><time>2026-05-03T10:11:10Z</time></trkpt><trkpt lat="45.65996502163224" lon="8.33396573541743"><ele>299.4</ele><time>2026-05-03T10:11:11Z</time></trkpt><trkpt lat="45.660066795235" lon="8.33402596933433"><ele>299.0</ele><time>2026-05-03T10:11:13Z</time></trkpt><trkpt lat="45.660081000976795" lon="8.33414501871525"><ele>299.0</ele><time>2026-05-03T10:11:14Z</time></trkpt><trkpt lat="45.66011904966431" lon="8.334228881155905"><ele>299.0</ele><time>2026-05-03T10:11:15Z</time></trkpt><trkpt lat="45.660211057524926" lon="8.334293526061142"><ele>299.0</ele><time>2026-05-03T10:11:18Z</time></trkpt><trkpt lat="45.660279856504594" lon="8.33423158703375"><ele>299.0</ele><time>2026-05-03T10:11:19Z</time></trkpt><trkpt lat="45.66037109832852" lon="8.334124193414821"><ele>299.0</ele><time>2026-05-03T10:11:20Z</time></trkpt><trkpt lat="45.66046701025406" lon="8.334037686948458"><ele>298.75</ele><time>2026-05-03T10:11:21Z</time></trkpt><trkpt lat="45.66057835914615" lon="8.333939484808948"><ele>298.5</ele><time>2026-05-03T10:11:22Z</time></trkpt><trkpt lat="45.66068123383665" lon="8.33384349239108"><ele>298.25</ele><time>2026-05-03T10:11:23Z</time></trkpt><trkpt lat="45.66079461452475" lon="8.333736120356615"><ele>298.0</ele><time>2026-05-03T10:11:24Z</time></trkpt><trkpt lat="45.66091336786931" lon="8.33361681540608"><ele>299.0</ele><time>2026-05-03T10:11:25Z</time></trkpt><trkpt lat="45.66103778429931" lon="8.333506695173638"><ele>300.0</ele><time>2026-05-03T10:11:26Z</time></trkpt><trkpt lat="45.66117586948988" lon="8.33340142789561"><ele>301.0</ele><time>2026-05-03T10:11:27Z</time></trkpt><trkpt lat="45.66131931938009" lon="8.33331154477649"><ele>301.0</ele><time>2026-05-03T10:11:28Z</time></trkpt><trkpt lat="45.661451001026" lon="8.333243250867236"><ele>301.0</ele><time>2026-05-03T10:11:29Z</time></trkpt><trkpt lat="45.661574542079244" lon="8.333180971459823"><ele>301.0</ele><time>2026-05-03T10:11:30Z</time></trkpt><trkpt lat="45.6616994654961" lon="8.333128829857824"><ele>301.0</ele><time>2026-05-03T10:11:31Z</time></trkpt><trkpt lat="45.66183711177187" lon="8.333085890344936"><ele>300.66666666666663</ele><time>2026-05-03T10:11:32Z</time></trkpt><trkpt lat="45.66198126577661" lon="8.333054776262921"><ele>300.3333333333333</ele><time>2026-05-03T10:11:33Z</time></trkpt><trkpt lat="45.662129446068896" lon="8.333034339380545"><ele>300.0</ele><time>2026-05-03T10:11:34Z</time></trkpt><trkpt lat="45.66228428864295" lon="8.333010496701679"><ele>300.0</ele><time>2026-05-03T10:11:35Z</time></trkpt><trkpt lat="45.66243742296282" lon="8.332997344993622"><ele>300.0</ele><time>2026-05-03T10:11:36Z</time></trkpt><trkpt lat="45.662599973752926" lon="8.332984024773694"><ele>300.0</ele><time>2026-05-03T10:11:37Z</time></trkpt><trkpt lat="45.66276484912393" lon="8.332965484812066"><ele>299.0</ele><time>2026-05-03T10:11:38Z</time></trkpt><trkpt lat="45.662933325390014" lon="8.332943268170164"><ele>298.0</ele><time>2026-05-03T10:11:39Z</time></trkpt><trkpt lat="45.663108449959246" lon="8.332947271638012"><ele>297.0</ele><time>2026-05-03T10:11:40Z</time></trkpt><trkpt lat="45.66328373401767" lon="8.3329284530159"><ele>297.0</ele><time>2026-05-03T10:11:41Z</time></trkpt><trkpt lat="45.66346258629917" lon="8.332909251286956"><ele>297.0</ele><time>2026-05-03T10:11:42Z</time></trkpt><trkpt lat="45.66363509858301" lon="8.332868117343285"><ele>297.0</ele><time>2026-05-03T10:11:43Z</time></trkpt><trkpt lat="45.663808635676666" lon="8.332851704580072"><ele>296.5</ele><time>2026-05-03T10:11:43.999Z</time></trkpt><trkpt lat="45.66396102100154" lon="8.332836668152062"><ele>296.0</ele><time>2026-05-03T10:11:44.999Z</time></trkpt><trkpt lat="45.66410692857374" lon="8.332820853051322"><ele>295.5</ele><time>2026-05-03T10:11:45.999Z</time></trkpt><trkpt lat="45.664246557978366" lon="8.33282818026458"><ele>295.0</ele><time>2026-05-03T10:11:46.999Z</time></trkpt><trkpt lat="45.664377336335605" lon="8.332813600528343"><ele>295.75</ele><time>2026-05-03T10:11:47.999Z</time></trkpt><trkpt lat="45.66449970726911" lon="8.33279995808755"><ele>296.5</ele><time>2026-05-03T10:11:48.999Z</time></trkpt><trkpt lat="45.66461683221026" lon="8.332786900492021"><ele>297.25</ele><time>2026-05-03T10:11:49.999Z</time></trkpt><trkpt lat="45.66473280269155" lon="8.332753368427747"><ele>298.0</ele><time>2026-05-03T10:11:50.999Z</time></trkpt><trkpt lat="45.66487232332894" lon="8.332745837129371"><ele>298.0</ele><time>2026-05-03T10:11:51.999Z</time></trkpt><trkpt lat="45.66505708783506" lon="8.332721587077252"><ele>298.0</ele><time>2026-05-03T10:11:52.999Z</time></trkpt><trkpt lat="45.665270951825235" lon="8.332710531045038"><ele>298.0</ele><time>2026-05-03T10:11:53.999Z</time></trkpt><trkpt lat="45.66544892421484" lon="8.332702758367027"><ele>298.0</ele><time>2026-05-03T10:11:54.999Z</time></trkpt><trkpt lat="45.66561503881053" lon="8.332684234411587"><ele>298.0</ele><time>2026-05-03T10:11:55.999Z</time></trkpt><trkpt lat="45.66578420931433" lon="8.332670257124319"><ele>298.0</ele><time>2026-05-03T10:11:56.999Z</time></trkpt><trkpt lat="45.6659501086551" lon="8.33268030109798"><ele>298.0</ele><time>2026-05-03T10:11:57.999Z</time></trkpt><trkpt lat="45.6661067128568" lon="8.332669614931827"><ele>298.0</ele><time>2026-05-03T10:11:58.999Z</time></trkpt><trkpt lat="45.66626238843537" lon="8.33265899212544"><ele>298.0</ele><time>2026-05-03T10:11:59.999Z</time></trkpt><trkpt lat="45.66643232744486" lon="8.332627419895745"><ele>298.3333333333333</ele><time>2026-05-03T10:12:00.999Z</time></trkpt><trkpt lat="45.6666081361342" lon="8.332614048558385"><ele>298.6666666666667</ele><time>2026-05-03T10:12:02Z</time></trkpt><trkpt lat="45.666772990802734" lon="8.33262293850362"><ele>299.0</ele><time>2026-05-03T10:12:03Z</time></trkpt><trkpt lat="45.66694191598766" lon="8.33261239848296"><ele>299.0</ele><time>2026-05-03T10:12:04Z</time></trkpt><trkpt lat="45.66711698885592" lon="8.33260061671425"><ele>299.0</ele><time>2026-05-03T10:12:05Z</time></trkpt><trkpt lat="45.66731607634717" lon="8.332581146445968"><ele>299.0</ele><time>2026-05-03T10:12:06Z</time></trkpt><trkpt lat="45.66750664843363" lon="8.33256000322948"><ele>299.0</ele><time>2026-05-03T10:12:07Z</time></trkpt><trkpt lat="45.66767922944443" lon="8.332540012778486"><ele>299.0</ele><time>2026-05-03T10:12:08Z</time></trkpt><trkpt lat="45.66784484694923" lon="8.332520630175518"><ele>299.0</ele><time>2026-05-03T10:12:09Z</time></trkpt><trkpt lat="45.668004341561904" lon="8.332491857698685"><ele>299.0</ele><time>2026-05-03T10:12:10Z</time></trkpt><trkpt lat="45.66816870431251" lon="8.332536624250444"><ele>299.0</ele><time>2026-05-03T10:12:11Z</time></trkpt><trkpt lat="45.66834285669239" lon="8.332541176825899"><ele>299.0</ele><time>2026-05-03T10:12:12Z</time></trkpt><trkpt lat="45.6685009240694" lon="8.332429553458663"><ele>299.33333333333337</ele><time>2026-05-03T10:12:13Z</time></trkpt><trkpt lat="45.66865398759338" lon="8.332384385645293"><ele>299.6666666666667</ele><time>2026-05-03T10:12:14Z</time></trkpt><trkpt lat="45.66879924122315" lon="8.332336086061195"><ele>300.0</ele><time>2026-05-03T10:12:15Z</time></trkpt><trkpt lat="45.66894627517336" lon="8.332341352295328"><ele>300.0</ele><time>2026-05-03T10:12:16Z</time></trkpt><trkpt lat="45.66909239405869" lon="8.332348981994505"><ele>300.0</ele><time>2026-05-03T10:12:17Z</time></trkpt><trkpt lat="45.6692354882737" lon="8.332278101180691"><ele>300.0</ele><time>2026-05-03T10:12:18Z</time></trkpt><trkpt lat="45.669367945572226" lon="8.332158970495547"><ele>299.25</ele><time>2026-05-03T10:12:19Z</time></trkpt><trkpt lat="45.66947170105512" lon="8.331992606077518"><ele>298.5</ele><time>2026-05-03T10:12:20Z</time></trkpt><trkpt lat="45.66956296111688" lon="8.331830068137721"><ele>297.75</ele><time>2026-05-03T10:12:21Z</time></trkpt><trkpt lat="45.66962590170931" lon="8.331655340345199"><ele>297.0</ele><time>2026-05-03T10:12:22Z</time></trkpt><trkpt lat="45.66966751432156" lon="8.331454450907847"><ele>297.6666666666667</ele><time>2026-05-03T10:12:23Z</time></trkpt><trkpt lat="45.669685805513694" lon="8.331243163279007"><ele>298.33333333333337</ele><time>2026-05-03T10:12:24Z</time></trkpt><trkpt lat="45.66967519353412" lon="8.33099785010526"><ele>299.0</ele><time>2026-05-03T10:12:25Z</time></trkpt><trkpt lat="45.66964568138205" lon="8.330751039657175"><ele>300.33333333333337</ele><time>2026-05-03T10:12:26Z</time></trkpt><trkpt lat="45.66961474464405" lon="8.330520873700308"><ele>301.6666666666667</ele><time>2026-05-03T10:12:27Z</time></trkpt><trkpt lat="45.66959325803662" lon="8.330302011602967"><ele>303.0</ele><time>2026-05-03T10:12:28Z</time></trkpt><trkpt lat="45.66957764590543" lon="8.330100305640075"><ele>303.0</ele><time>2026-05-03T10:12:29Z</time></trkpt><trkpt lat="45.669611024527384" lon="8.329912039641206"><ele>303.0</ele><time>2026-05-03T10:12:30Z</time></trkpt><trkpt lat="45.669655862366795" lon="8.329723312068893"><ele>303.0</ele><time>2026-05-03T10:12:31Z</time></trkpt><trkpt lat="45.66973244888499" lon="8.329530587157246"><ele>303.0</ele><time>2026-05-03T10:12:32Z</time></trkpt><trkpt lat="45.669820438444475" lon="8.329313982866774"><ele>302.6666666666667</ele><time>2026-05-03T10:12:33Z</time></trkpt><trkpt lat="45.66991755309466" lon="8.329074404478922"><ele>302.33333333333337</ele><time>2026-05-03T10:12:34Z</time></trkpt><trkpt lat="45.67001267227584" lon="8.328839748841471"><ele>302.0</ele><time>2026-05-03T10:12:35Z</time></trkpt><trkpt lat="45.67010685798606" lon="8.328607396080534"><ele>301.6666666666667</ele><time>2026-05-03T10:12:36Z</time></trkpt><trkpt lat="45.670205091692466" lon="8.328365057176462"><ele>301.3333333333333</ele><time>2026-05-03T10:12:37Z</time></trkpt><trkpt lat="45.67031239064414" lon="8.32810081600892"><ele>301.0</ele><time>2026-05-03T10:12:38Z</time></trkpt><trkpt lat="45.67040608185108" lon="8.327872856132219"><ele>301.0</ele><time>2026-05-03T10:12:39Z</time></trkpt><trkpt lat="45.670482943339536" lon="8.327649120019412"><ele>301.0</ele><time>2026-05-03T10:12:40Z</time></trkpt><trkpt lat="45.67057416059062" lon="8.327441052060482"><ele>301.0</ele><time>2026-05-03T10:12:41Z</time></trkpt><trkpt lat="45.670658322959525" lon="8.32723154592448"><ele>302.0</ele><time>2026-05-03T10:12:42Z</time></trkpt><trkpt lat="45.670746509293735" lon="8.32701303622383"><ele>303.0</ele><time>2026-05-03T10:12:43Z</time></trkpt><trkpt lat="45.67083517498739" lon="8.326793360225786"><ele>304.0</ele><time>2026-05-03T10:12:44Z</time></trkpt><trkpt lat="45.6709219102155" lon="8.326587424382447"><ele>304.0</ele><time>2026-05-03T10:12:45Z</time></trkpt><trkpt lat="45.671015101703446" lon="8.3264136623831"><ele>304.0</ele><time>2026-05-03T10:12:46Z</time></trkpt><trkpt lat="45.67109089073834" lon="8.326235709235581"><ele>304.0</ele><time>2026-05-03T10:12:47Z</time></trkpt><trkpt lat="45.67116895340379" lon="8.326055276100647"><ele>304.0</ele><time>2026-05-03T10:12:48Z</time></trkpt><trkpt lat="45.67125437692542" lon="8.325869228104207"><ele>304.5</ele><time>2026-05-03T10:12:49Z</time></trkpt><trkpt lat="45.67134455432048" lon="8.325692179593041"><ele>305.0</ele><time>2026-05-03T10:12:50Z</time></trkpt><trkpt lat="45.671426099782046" lon="8.325536851733599"><ele>305.5</ele><time>2026-05-03T10:12:51Z</time></trkpt><trkpt lat="45.671500588058905" lon="8.325398750784315"><ele>306.0</ele><time>2026-05-03T10:12:52Z</time></trkpt><trkpt lat="45.67156682803458" lon="8.32527594216052"><ele>306.0</ele><time>2026-05-03T10:12:53Z</time></trkpt><trkpt lat="45.6716203492179" lon="8.325148765049653"><ele>306.0</ele><time>2026-05-03T10:12:54Z</time></trkpt><trkpt lat="45.67168692887401" lon="8.325060225125515"><ele>306.0</ele><time>2026-05-03T10:12:55Z</time></trkpt><trkpt lat="45.671766111576574" lon="8.324994895608546"><ele>306.0</ele><time>2026-05-03T10:12:56Z</time></trkpt><trkpt lat="45.67185032522588" lon="8.324957563167729"><ele>306.0</ele><time>2026-05-03T10:12:57Z</time></trkpt><trkpt lat="45.6719522628001" lon="8.324946959025153"><ele>306.0</ele><time>2026-05-03T10:12:58Z</time></trkpt><trkpt lat="45.67205812900793" lon="8.32493691722198"><ele>306.0</ele><time>2026-05-03T10:12:59Z</time></trkpt><trkpt lat="45.672132040466416" lon="8.324883594538667"><ele>306.0</ele><time>2026-05-03T10:13:00Z</time></trkpt><trkpt lat="45.67218484040892" lon="8.324763263740502"><ele>306.0</ele><time>2026-05-03T10:13:01Z</time></trkpt><trkpt lat="45.6722091467665" lon="8.324606923818768"><ele>306.0</ele><time>2026-05-03T10:13:02Z</time></trkpt><trkpt lat="45.67218683889051" lon="8.32447150953938"><ele>306.0</ele><time>2026-05-03T10:13:03Z</time></trkpt><trkpt lat="45.67213094638268" lon="8.324390410737905"><ele>306.0</ele><time>2026-05-03T10:13:04Z</time></trkpt><trkpt lat="45.67203964991395" lon="8.324323207346241"><ele>306.0</ele><time>2026-05-03T10:13:05Z</time></trkpt><trkpt lat="45.671914995474914" lon="8.32430563265787"><ele>306.0</ele><time>2026-05-03T10:13:06Z</time></trkpt><trkpt lat="45.67178855432548" lon="8.32432610745003"><ele>306.0</ele><time>2026-05-03T10:13:07Z</time></trkpt><trkpt lat="45.67168168378172" lon="8.324191283278859"><ele>306.0</ele><time>2026-05-03T10:13:08Z</time></trkpt><trkpt lat="45.671583887132776" lon="8.324025575510609"><ele>306.0</ele><time>2026-05-03T10:13:09Z</time></trkpt><trkpt lat="45.671485883113" lon="8.323852142495586"><ele>306.0</ele><time>2026-05-03T10:13:10Z</time></trkpt><trkpt lat="45.671382317776995" lon="8.323706805876549"><ele>306.25</ele><time>2026-05-03T10:13:11Z</time></trkpt><trkpt lat="45.67130644838299" lon="8.323538482906683"><ele>306.5</ele><time>2026-05-03T10:13:12Z</time></trkpt><trkpt lat="45.671224059482014" lon="8.32339408284109"><ele>306.75</ele><time>2026-05-03T10:13:13Z</time></trkpt><trkpt lat="45.6711437211229" lon="8.323262923696408"><ele>307.0</ele><time>2026-05-03T10:13:14Z</time></trkpt><trkpt lat="45.67106292574815" lon="8.323147953264609"><ele>308.25</ele><time>2026-05-03T10:13:15Z</time></trkpt><trkpt lat="45.670982406923954" lon="8.323013080331991"><ele>309.5</ele><time>2026-05-03T10:13:16Z</time></trkpt><trkpt lat="45.67091244888651" lon="8.322843611693143"><ele>310.75</ele><time>2026-05-03T10:13:17Z</time></trkpt><trkpt lat="45.67084256361808" lon="8.322667858007174"><ele>312.0</ele><time>2026-05-03T10:13:18Z</time></trkpt><trkpt lat="45.67080496885504" lon="8.322467753828555"><ele>312.0</ele><time>2026-05-03T10:13:19Z</time></trkpt><trkpt lat="45.67080077546638" lon="8.322260536884135"><ele>312.0</ele><time>2026-05-03T10:13:20Z</time></trkpt><trkpt lat="45.67082156365055" lon="8.322081012830706"><ele>312.0</ele><time>2026-05-03T10:13:21Z</time></trkpt><trkpt lat="45.67087178022904" lon="8.321909417318594"><ele>312.0</ele><time>2026-05-03T10:13:22Z</time></trkpt><trkpt lat="45.6709268248741" lon="8.321711751984012"><ele>312.6666666666667</ele><time>2026-05-03T10:13:23Z</time></trkpt><trkpt lat="45.670982134627344" lon="8.321503817350871"><ele>313.33333333333337</ele><time>2026-05-03T10:13:24Z</time></trkpt><trkpt lat="45.67103549425822" lon="8.321290705577892"><ele>314.0</ele><time>2026-05-03T10:13:25Z</time></trkpt><trkpt lat="45.67107261910805" lon="8.321072431043195"><ele>314.25</ele><time>2026-05-03T10:13:26Z</time></trkpt><trkpt lat="45.67109172226137" lon="8.32087743955537"><ele>314.5</ele><time>2026-05-03T10:13:27Z</time></trkpt><trkpt lat="45.671057863418085" lon="8.320687488828971"><ele>314.75</ele><time>2026-05-03T10:13:28Z</time></trkpt><trkpt lat="45.67098364007294" lon="8.320507952339582"><ele>315.0</ele><time>2026-05-03T10:13:29Z</time></trkpt><trkpt lat="45.67088528632202" lon="8.320334384602548"><ele>315.5</ele><time>2026-05-03T10:13:30Z</time></trkpt><trkpt lat="45.670780904734855" lon="8.320165768013828"><ele>316.0</ele><time>2026-05-03T10:13:31Z</time></trkpt><trkpt lat="45.67068062744844" lon="8.320005960802714"><ele>316.5</ele><time>2026-05-03T10:13:32Z</time></trkpt><trkpt lat="45.670612481833544" lon="8.319844226748337"><ele>317.0</ele><time>2026-05-03T10:13:33Z</time></trkpt><trkpt lat="45.67060823399668" lon="8.319662270963825"><ele>317.75</ele><time>2026-05-03T10:13:34Z</time></trkpt><trkpt lat="45.670595674649" lon="8.319466773068017"><ele>318.5</ele><time>2026-05-03T10:13:35Z</time></trkpt><trkpt lat="45.6705855671848" lon="8.319258311655688"><ele>319.25</ele><time>2026-05-03T10:13:36Z</time></trkpt><trkpt lat="45.6705638076588" lon="8.31903702280035"><ele>320.0</ele><time>2026-05-03T10:13:37Z</time></trkpt><trkpt lat="45.67056249522615" lon="8.318813643068953"><ele>320.75</ele><time>2026-05-03T10:13:38Z</time></trkpt><trkpt lat="45.670559019166426" lon="8.318602396652478"><ele>321.5</ele><time>2026-05-03T10:13:39Z</time></trkpt><trkpt lat="45.67056841631392" lon="8.318412822666065"><ele>322.25</ele><time>2026-05-03T10:13:40Z</time></trkpt><trkpt lat="45.67058812218787" lon="8.318227390035227"><ele>323.0</ele><time>2026-05-03T10:13:41Z</time></trkpt><trkpt lat="45.67061175716701" lon="8.318045597377035"><ele>323.0</ele><time>2026-05-03T10:13:42Z</time></trkpt><trkpt lat="45.6706351714193" lon="8.317854905211766"><ele>323.0</ele><time>2026-05-03T10:13:43Z</time></trkpt><trkpt lat="45.670653167226554" lon="8.317662074033727"><ele>323.0</ele><time>2026-05-03T10:13:44Z</time></trkpt><trkpt lat="45.67066992338721" lon="8.317464488340358"><ele>323.0</ele><time>2026-05-03T10:13:44.999Z</time></trkpt><trkpt lat="45.670691881416694" lon="8.317259864251977"><ele>323.0</ele><time>2026-05-03T10:13:45.999Z</time></trkpt><trkpt lat="45.670716124047736" lon="8.317053047394777"><ele>323.0</ele><time>2026-05-03T10:13:46.999Z</time></trkpt><trkpt lat="45.670740408982255" lon="8.31684659394751"><ele>323.0</ele><time>2026-05-03T10:13:47.999Z</time></trkpt><trkpt lat="45.67077968462815" lon="8.31663770697598"><ele>323.0</ele><time>2026-05-03T10:13:48.999Z</time></trkpt><trkpt lat="45.67080322375714" lon="8.316428431562572"><ele>324.0</ele><time>2026-05-03T10:13:49.999Z</time></trkpt><trkpt lat="45.67082638021757" lon="8.31620923885218"><ele>325.0</ele><time>2026-05-03T10:13:50.999Z</time></trkpt><trkpt lat="45.67083440754834" lon="8.315991795725726"><ele>326.0</ele><time>2026-05-03T10:13:51.999Z</time></trkpt><trkpt lat="45.67086650106044" lon="8.31578052508686"><ele>326.75</ele><time>2026-05-03T10:13:52.999Z</time></trkpt><trkpt lat="45.67089383133849" lon="8.315556663813267"><ele>327.5</ele><time>2026-05-03T10:13:53.999Z</time></trkpt><trkpt lat="45.67091585744529" lon="8.315333538750934"><ele>328.25</ele><time>2026-05-03T10:13:54.999Z</time></trkpt><trkpt lat="45.67092800783681" lon="8.315145914496815"><ele>329.0</ele><time>2026-05-03T10:13:55.999Z</time></trkpt><trkpt lat="45.670944759963184" lon="8.314993873182283"><ele>329.0</ele><time>2026-05-03T10:13:56.999Z</time></trkpt><trkpt lat="45.67098683173054" lon="8.314884650364869"><ele>329.0</ele><time>2026-05-03T10:13:57.999Z</time></trkpt><trkpt lat="45.670865704070984" lon="8.314737204241876"><ele>329.0</ele><time>2026-05-03T10:13:59.999Z</time></trkpt><trkpt lat="45.670779841499574" lon="8.314656381669698"><ele>329.0</ele><time>2026-05-03T10:14:00.999Z</time></trkpt><trkpt lat="45.670679514852935" lon="8.314548324569039"><ele>330.0</ele><time>2026-05-03T10:14:01.999Z</time></trkpt><trkpt lat="45.67057602227889" lon="8.314419720049694"><ele>331.0</ele><time>2026-05-03T10:14:02.999Z</time></trkpt><trkpt lat="45.67048987084065" lon="8.314287381149134"><ele>332.0</ele><time>2026-05-03T10:14:03.999Z</time></trkpt><trkpt lat="45.67038662384793" lon="8.314174853628485"><ele>333.0</ele><time>2026-05-03T10:14:04.999Z</time></trkpt><trkpt lat="45.67029073873008" lon="8.314037241029958"><ele>334.5</ele><time>2026-05-03T10:14:05.999Z</time></trkpt><trkpt lat="45.67020339558847" lon="8.313896086247128"><ele>336.0</ele><time>2026-05-03T10:14:06.999Z</time></trkpt><trkpt lat="45.67015358241899" lon="8.313724430118954"><ele>337.5</ele><time>2026-05-03T10:14:08Z</time></trkpt><trkpt lat="45.6700836165281" lon="8.313563642908205"><ele>339.0</ele><time>2026-05-03T10:14:09Z</time></trkpt><trkpt lat="45.670016696707464" lon="8.313390789433544"><ele>339.0</ele><time>2026-05-03T10:14:10Z</time></trkpt><trkpt lat="45.66994478578529" lon="8.31321697796792"><ele>339.0</ele><time>2026-05-03T10:14:11Z</time></trkpt><trkpt lat="45.66987563375103" lon="8.313065999479907"><ele>339.0</ele><time>2026-05-03T10:14:12Z</time></trkpt><trkpt lat="45.669832492038424" lon="8.312941983051791"><ele>339.0</ele><time>2026-05-03T10:14:13Z</time></trkpt><trkpt lat="45.66978414697895" lon="8.312840401558434"><ele>339.79999999999995</ele><time>2026-05-03T10:14:14Z</time></trkpt><trkpt lat="45.66972729134223" lon="8.312748771920328"><ele>340.59999999999997</ele><time>2026-05-03T10:14:15Z</time></trkpt><trkpt lat="45.66965282269858" lon="8.312663869240117"><ele>341.4</ele><time>2026-05-03T10:14:16Z</time></trkpt><trkpt lat="45.66954586646173" lon="8.312576426118442"><ele>342.2</ele><time>2026-05-03T10:14:17Z</time></trkpt><trkpt lat="45.66943291836697" lon="8.312482572456961"><ele>343.0</ele><time>2026-05-03T10:14:18Z</time></trkpt><trkpt lat="45.66932374260169" lon="8.312370269411913"><ele>343.25</ele><time>2026-05-03T10:14:19Z</time></trkpt><trkpt lat="45.66921594166785" lon="8.312259132007352"><ele>343.5</ele><time>2026-05-03T10:14:20Z</time></trkpt><trkpt lat="45.66911546168208" lon="8.312128456325688"><ele>343.75</ele><time>2026-05-03T10:14:21Z</time></trkpt><trkpt lat="45.6690184000736" lon="8.31199810269362"><ele>344.0</ele><time>2026-05-03T10:14:22Z</time></trkpt><trkpt lat="45.66892269629277" lon="8.311862600815854"><ele>344.0</ele><time>2026-05-03T10:14:23Z</time></trkpt><trkpt lat="45.668835680418994" lon="8.31172415094256"><ele>344.0</ele><time>2026-05-03T10:14:24Z</time></trkpt><trkpt lat="45.66875806164388" lon="8.31157271941085"><ele>344.0</ele><time>2026-05-03T10:14:25Z</time></trkpt><trkpt lat="45.668680070721805" lon="8.31144886289276"><ele>344.0</ele><time>2026-05-03T10:14:26Z</time></trkpt><trkpt lat="45.6686017728405" lon="8.311322102014193"><ele>347.75</ele><time>2026-05-03T10:14:27Z</time></trkpt><trkpt lat="45.668528531346404" lon="8.311203875938352"><ele>351.5</ele><time>2026-05-03T10:14:28Z</time></trkpt><trkpt lat="45.66845398688118" lon="8.311075107866413"><ele>355.25</ele><time>2026-05-03T10:14:29Z</time></trkpt><trkpt lat="45.66838188496331" lon="8.31093428775473"><ele>359.0</ele><time>2026-05-03T10:14:30Z</time></trkpt><trkpt lat="45.66832207184664" lon="8.31078348940112"><ele>359.0</ele><time>2026-05-03T10:14:31Z</time></trkpt><trkpt lat="45.668267665344416" lon="8.310631938078116"><ele>359.0</ele><time>2026-05-03T10:14:32Z</time></trkpt><trkpt lat="45.668206159526406" lon="8.310490907280307"><ele>359.0</ele><time>2026-05-03T10:14:33Z</time></trkpt><trkpt lat="45.668138567814026" lon="8.310363278527339"><ele>359.0</ele><time>2026-05-03T10:14:34Z</time></trkpt><trkpt lat="45.66805656395464" lon="8.310281616220044"><ele>359.0</ele><time>2026-05-03T10:14:35Z</time></trkpt><trkpt lat="45.66795684433151" lon="8.310243168251612"><ele>359.33333333333337</ele><time>2026-05-03T10:14:36Z</time></trkpt><trkpt lat="45.66784666759713" lon="8.31021262553291"><ele>359.6666666666667</ele><time>2026-05-03T10:14:37Z</time></trkpt><trkpt lat="45.66773588833804" lon="8.310204678595829"><ele>360.0</ele><time>2026-05-03T10:14:38Z</time></trkpt><trkpt lat="45.667652380013685" lon="8.310192536428003"><ele>360.3333333333333</ele><time>2026-05-03T10:14:39Z</time></trkpt><trkpt lat="45.667588604852455" lon="8.310186245740237"><ele>360.66666666666663</ele><time>2026-05-03T10:14:40Z</time></trkpt><trkpt lat="45.66751793432895" lon="8.310175452105337"><ele>361.0</ele><time>2026-05-03T10:14:41Z</time></trkpt><trkpt lat="45.66744346549154" lon="8.310189442785159"><ele>364.0</ele><time>2026-05-03T10:14:42Z</time></trkpt><trkpt lat="45.667366849207816" lon="8.310206590688162"><ele>367.0</ele><time>2026-05-03T10:14:43Z</time></trkpt><trkpt lat="45.6672816313827" lon="8.310230399279094"><ele>370.0</ele><time>2026-05-03T10:14:45Z</time></trkpt><trkpt lat="45.66721624569328" lon="8.31024317828061"><ele>373.0</ele><time>2026-05-03T10:15:08Z</time></trkpt><trkpt lat="45.66726313835009" lon="8.309940047054814"><ele>376.0</ele><time>2026-05-03T10:15:11Z</time></trkpt><trkpt lat="45.66727434707344" lon="8.309840335242507"><ele>376.0</ele><time>2026-05-03T10:15:12Z</time></trkpt><trkpt lat="45.6673106780212" lon="8.309752743813092"><ele>376.0</ele><time>2026-05-03T10:15:13Z</time></trkpt><trkpt lat="45.66735411618252" lon="8.309654383912697"><ele>376.0</ele><time>2026-05-03T10:15:14Z</time></trkpt><trkpt lat="45.66743762827274" lon="8.309602912845783"><ele>376.0</ele><time>2026-05-03T10:15:16Z</time></trkpt><trkpt lat="45.66741253529621" lon="8.309468296946635"><ele>376.0</ele><time>2026-05-03T10:15:19Z</time></trkpt><trkpt lat="45.66734889375399" lon="8.309427464214389"><ele>376.0</ele><time>2026-05-03T10:15:20Z</time></trkpt><trkpt lat="45.66728383808888" lon="8.309398958729922"><ele>377.3333333333333</ele><time>2026-05-03T10:15:21Z</time></trkpt><trkpt lat="45.667206738514686" lon="8.309375674285292"><ele>378.66666666666663</ele><time>2026-05-03T10:15:22Z</time></trkpt><trkpt lat="45.66714651554913" lon="8.309349115011836"><ele>380.0</ele><time>2026-05-03T10:15:23Z</time></trkpt><trkpt lat="45.667130412386214" lon="8.309249426432595"><ele>381.3333333333333</ele><time>2026-05-03T10:15:25Z</time></trkpt><trkpt lat="45.66717395676102" lon="8.309149526132959"><ele>382.6666666666667</ele><time>2026-05-03T10:15:27Z</time></trkpt><trkpt lat="45.66722679629963" lon="8.309058355774651"><ele>384.0</ele><time>2026-05-03T10:15:28Z</time></trkpt><trkpt lat="45.66722765399486" lon="8.308937232433976"><ele>384.8333333333333</ele><time>2026-05-03T10:15:30Z</time></trkpt><trkpt lat="45.667191482098495" lon="8.308844385156725"><ele>385.66666666666663</ele><time>2026-05-03T10:15:32Z</time></trkpt><trkpt lat="45.66712852328252" lon="8.308751092889269"><ele>386.5</ele><time>2026-05-03T10:15:34Z</time></trkpt><trkpt lat="45.66705566848431" lon="8.30865725576676"><ele>387.3333333333333</ele><time>2026-05-03T10:15:36Z</time></trkpt><trkpt lat="45.66698480384328" lon="8.308604920592131"><ele>388.16666666666663</ele><time>2026-05-03T10:15:39Z</time></trkpt><trkpt lat="45.666907342759146" lon="8.308565511820166"><ele>389.0</ele><time>2026-05-03T10:16:47Z</time></trkpt><trkpt lat="45.66684028106365" lon="8.30854074981514"><ele>392.3333333333333</ele><time>2026-05-03T10:20:34Z</time></trkpt><trkpt lat="45.6667681857778" lon="8.308526969202994"><ele>395.66666666666663</ele><time>2026-05-03T10:20:36Z</time></trkpt><trkpt lat="45.66670310418034" lon="8.308424022349968"><ele>399.0</ele><time>2026-05-03T10:20:38Z</time></trkpt><trkpt lat="45.666641988328024" lon="8.308315703843896"><ele>402.33333333333337</ele><time>2026-05-03T10:20:40Z</time></trkpt><trkpt lat="45.66656034952945" lon="8.308307859718035"><ele>405.6666666666667</ele><time>2026-05-03T10:20:42Z</time></trkpt><trkpt lat="45.66653169407221" lon="8.308211013897424"><ele>409.0</ele><time>2026-05-03T10:20:48Z</time></trkpt><trkpt lat="45.66651410813404" lon="8.308117902419115"><ele>409.83333333333337</ele><time>2026-05-03T10:20:50Z</time></trkpt><trkpt lat="45.666447207369416" lon="8.308059935814336"><ele>410.6666666666667</ele><time>2026-05-03T10:20:52Z</time></trkpt><trkpt lat="45.666405936734456" lon="8.307983274746931"><ele>411.5</ele><time>2026-05-03T10:20:54Z</time></trkpt><trkpt lat="45.66640364886111" lon="8.307855591158553"><ele>412.33333333333337</ele><time>2026-05-03T10:20:56Z</time></trkpt><trkpt lat="45.666320966656414" lon="8.307749189489435"><ele>413.1666666666667</ele><time>2026-05-03T10:20:58Z</time></trkpt><trkpt lat="45.66624581331193" lon="8.307671150101786"><ele>414.0</ele><time>2026-05-03T10:21:00Z</time></trkpt><trkpt lat="45.666180983843056" lon="8.307611760121041"><ele>414.0</ele><time>2026-05-03T10:21:01Z</time></trkpt><trkpt lat="45.666116752284815" lon="8.307552266055025"><ele>414.0</ele><time>2026-05-03T10:21:02Z</time></trkpt><trkpt lat="45.666064896811896" lon="8.307492583364553"><ele>414.0</ele><time>2026-05-03T10:21:03Z</time></trkpt><trkpt lat="45.6659729436604" lon="8.30744566476367"><ele>414.0</ele><time>2026-05-03T10:21:05Z</time></trkpt><trkpt lat="45.66590834879087" lon="8.30749020726472"><ele>414.0</ele><time>2026-05-03T10:21:07Z</time></trkpt><trkpt lat="45.66579731845656" lon="8.30755869182024"><ele>414.0</ele><time>2026-05-03T10:21:09Z</time></trkpt><trkpt lat="45.66569384257518" lon="8.307525117306799"><ele>417.79999999999995</ele><time>2026-05-03T10:21:11Z</time></trkpt><trkpt lat="45.66561789692277" lon="8.307463206096903"><ele>421.59999999999997</ele><time>2026-05-03T10:21:13Z</time></trkpt><trkpt lat="45.66559877429863" lon="8.307347084399385"><ele>425.4</ele><time>2026-05-03T10:21:15Z</time></trkpt><trkpt lat="45.66557898143582" lon="8.307247721923979"><ele>429.2</ele><time>2026-05-03T10:21:16Z</time></trkpt><trkpt lat="45.665504747545185" lon="8.30711312675273"><ele>433.0</ele><time>2026-05-03T10:21:18Z</time></trkpt><trkpt lat="45.665503381907364" lon="8.306983361761787"><ele>433.4</ele><time>2026-05-03T10:21:20Z</time></trkpt><trkpt lat="45.66551256029868" lon="8.306791558597196"><ele>433.79999999999995</ele><time>2026-05-03T10:21:22Z</time></trkpt><trkpt lat="45.66549498484532" lon="8.306691587932134"><ele>434.2</ele><time>2026-05-03T10:21:23Z</time></trkpt><trkpt lat="45.66546651094225" lon="8.306555566440503"><ele>434.6</ele><time>2026-05-03T10:21:24Z</time></trkpt><trkpt lat="45.66544769601004" lon="8.30645860574523"><ele>435.0</ele><time>2026-05-03T10:21:25Z</time></trkpt><trkpt lat="45.665412812910375" lon="8.306305777891522"><ele>435.0</ele><time>2026-05-03T10:21:27Z</time></trkpt><trkpt lat="45.66542100360238" lon="8.306198811332587"><ele>435.0</ele><time>2026-05-03T10:21:28Z</time></trkpt><trkpt lat="45.66544175099928" lon="8.306027795787807"><ele>435.0</ele><time>2026-05-03T10:21:30Z</time></trkpt><trkpt lat="45.66537066990423" lon="8.305905738629972"><ele>435.0</ele><time>2026-05-03T10:21:32Z</time></trkpt><trkpt lat="45.66525834337779" lon="8.30582515625187"><ele>435.0</ele><time>2026-05-03T10:21:34Z</time></trkpt><trkpt lat="45.66521756188039" lon="8.305746377799771"><ele>441.2</ele><time>2026-05-03T10:21:35Z</time></trkpt><trkpt lat="45.66522065408393" lon="8.305560084309738"><ele>447.4</ele><time>2026-05-03T10:21:37Z</time></trkpt><trkpt lat="45.66524948088161" lon="8.305461207512655"><ele>453.6</ele><time>2026-05-03T10:21:38Z</time></trkpt><trkpt lat="45.66519589279489" lon="8.305378298123088"><ele>459.8</ele><time>2026-05-03T10:21:43Z</time></trkpt><trkpt lat="45.66511251144051" lon="8.305390922536827"><ele>466.0</ele><time>2026-05-03T10:21:45Z</time></trkpt><trkpt lat="45.66503225720766" lon="8.305412648818297"><ele>466.00000000000006</ele><time>2026-05-03T10:21:47Z</time></trkpt><trkpt lat="45.66497236188304" lon="8.305354380380859"><ele>466.0</ele><time>2026-05-03T10:21:49Z</time></trkpt><trkpt lat="45.66486029121568" lon="8.305278365136004"><ele>466.0</ele><time>2026-05-03T10:21:51Z</time></trkpt><trkpt lat="45.664784435454024" lon="8.305254419747879"><ele>466.0</ele><time>2026-05-03T10:21:52Z</time></trkpt><trkpt lat="45.66472133254041" lon="8.305234976454019"><ele>466.00000000000006</ele><time>2026-05-03T10:21:53Z</time></trkpt><trkpt lat="45.664675890222256" lon="8.305164421675768"><ele>466.0</ele><time>2026-05-03T10:21:55Z</time></trkpt><trkpt lat="45.66466795723439" lon="8.305055269180054"><ele>466.00000000000006</ele><time>2026-05-03T10:21:59Z</time></trkpt><trkpt lat="45.664700725395306" lon="8.304964304380464"><ele>466.0</ele><time>2026-05-03T10:22:03Z</time></trkpt><trkpt lat="45.66470084339785" lon="8.304872201452465"><ele>466.0</ele><time>2026-05-03T10:22:04Z</time></trkpt><trkpt lat="45.66470651095225" lon="8.30475271273184"><ele>466.0</ele><time>2026-05-03T10:22:14.999Z</time></trkpt><trkpt lat="45.664753023856434" lon="8.30460931711017"><ele>466.00000000000006</ele><time>2026-05-03T10:22:16.999Z</time></trkpt><trkpt lat="45.66478285312376" lon="8.30446592614036"><ele>466.0</ele><time>2026-05-03T10:22:18.999Z</time></trkpt><trkpt lat="45.664775209226526" lon="8.304257509079669"><ele>467.50000000000006</ele><time>2026-05-03T10:22:20.999Z</time></trkpt><trkpt lat="45.664805575345966" lon="8.304107961797161"><ele>469.0</ele><time>2026-05-03T10:22:22.999Z</time></trkpt><trkpt lat="45.6648590462928" lon="8.304058259682447"><ele>470.5</ele><time>2026-05-03T10:22:23.999Z</time></trkpt><trkpt lat="45.66491313868238" lon="8.304007441706203"><ele>472.0</ele><time>2026-05-03T10:22:24.999Z</time></trkpt><trkpt lat="45.664926984055256" lon="8.303882355619294"><ele>473.50000000000006</ele><time>2026-05-03T10:22:26.999Z</time></trkpt><trkpt lat="45.66485982437398" lon="8.303758903267692"><ele>475.0</ele><time>2026-05-03T10:22:28.999Z</time></trkpt><trkpt lat="45.66482099189691" lon="8.30367209065949"><ele>476.33333333333337</ele><time>2026-05-03T10:22:29.999Z</time></trkpt><trkpt lat="45.66478127026491" lon="8.303574416281082"><ele>477.6666666666667</ele><time>2026-05-03T10:22:30.999Z</time></trkpt><trkpt lat="45.6647572163075" lon="8.303456326439253"><ele>479.0</ele><time>2026-05-03T10:22:32Z</time></trkpt><trkpt lat="45.66473964572405" lon="8.30334555352266"><ele>480.33333333333337</ele><time>2026-05-03T10:22:33Z</time></trkpt><trkpt lat="45.6647296632055" lon="8.3032062545459"><ele>481.6666666666667</ele><time>2026-05-03T10:22:34Z</time></trkpt><trkpt lat="45.66471207909722" lon="8.303081777932546"><ele>483.0</ele><time>2026-05-03T10:22:35Z</time></trkpt><trkpt lat="45.66468640031695" lon="8.30297161341684"><ele>484.1666666666667</ele><time>2026-05-03T10:22:36Z</time></trkpt><trkpt lat="45.66465538213012" lon="8.302856308007534"><ele>485.33333333333337</ele><time>2026-05-03T10:22:37Z</time></trkpt><trkpt lat="45.664605375148454" lon="8.302752098054237"><ele>486.5</ele><time>2026-05-03T10:22:38Z</time></trkpt><trkpt lat="45.664547042128085" lon="8.302627907871125"><ele>487.6666666666667</ele><time>2026-05-03T10:22:40Z</time></trkpt><trkpt lat="45.66454220583412" lon="8.30252629564367"><ele>488.83333333333337</ele><time>2026-05-03T10:22:41Z</time></trkpt><trkpt lat="45.66453357706185" lon="8.30239803847204"><ele>490.0</ele><time>2026-05-03T10:22:42Z</time></trkpt><trkpt lat="45.664520800331694" lon="8.302293653816445"><ele>491.6666666666667</ele><time>2026-05-03T10:22:43Z</time></trkpt><trkpt lat="45.664496275931604" lon="8.302186279459976"><ele>493.33333333333337</ele><time>2026-05-03T10:22:44Z</time></trkpt><trkpt lat="45.66444685660939" lon="8.302106133151263"><ele>495.0</ele><time>2026-05-03T10:22:46Z</time></trkpt><trkpt lat="45.66438604456694" lon="8.302058663864642"><ele>496.66666666666663</ele><time>2026-05-03T10:22:49Z</time></trkpt><trkpt lat="45.66437178190947" lon="8.301899662700922"><ele>498.3333333333333</ele><time>2026-05-03T10:22:51Z</time></trkpt><trkpt lat="45.66435705962035" lon="8.301799641965385"><ele>500.0</ele><time>2026-05-03T10:22:52Z</time></trkpt><trkpt lat="45.66434296694602" lon="8.30163439302497"><ele>499.99999999999994</ele><time>2026-05-03T10:22:54Z</time></trkpt><trkpt lat="45.664353379636744" lon="8.301543621860201"><ele>500.0</ele><time>2026-05-03T10:22:55Z</time></trkpt><trkpt lat="45.66437786006836" lon="8.301378828802994"><ele>500.0</ele><time>2026-05-03T10:22:56Z</time></trkpt><trkpt lat="45.66439688819104" lon="8.301249950934507"><ele>500.0</ele><time>2026-05-03T10:22:57Z</time></trkpt><trkpt lat="45.664405212079664" lon="8.301152581524516"><ele>499.99999999999994</ele><time>2026-05-03T10:22:58Z</time></trkpt><trkpt lat="45.66441779963589" lon="8.301052382574408"><ele>500.0</ele><time>2026-05-03T10:22:59Z</time></trkpt><trkpt lat="45.664416425696004" lon="8.300946315967607"><ele>500.66666666666663</ele><time>2026-05-03T10:23:00Z</time></trkpt><trkpt lat="45.66440528743224" lon="8.300844939048973"><ele>501.3333333333333</ele><time>2026-05-03T10:23:01Z</time></trkpt><trkpt lat="45.664387845808605" lon="8.300727328272185"><ele>502.0</ele><time>2026-05-03T10:23:02Z</time></trkpt><trkpt lat="45.66437039454088" lon="8.300629129525424"><ele>502.66666666666663</ele><time>2026-05-03T10:23:03Z</time></trkpt><trkpt lat="45.66432537543982" lon="8.3005025129446"><ele>503.3333333333333</ele><time>2026-05-03T10:23:04Z</time></trkpt><trkpt lat="45.66428222793669" lon="8.300403101739674"><ele>504.0</ele><time>2026-05-03T10:23:05Z</time></trkpt><trkpt lat="45.664242647239575" lon="8.300304786334696"><ele>505.7142857142857</ele><time>2026-05-03T10:23:06Z</time></trkpt><trkpt lat="45.66421003089839" lon="8.300219398324948"><ele>507.42857142857144</ele><time>2026-05-03T10:23:07Z</time></trkpt><trkpt lat="45.6641955243438" lon="8.300124640572577"><ele>509.1428571428571</ele><time>2026-05-03T10:23:08Z</time></trkpt><trkpt lat="45.664161867947946" lon="8.300031310856127"><ele>510.85714285714283</ele><time>2026-05-03T10:23:18Z</time></trkpt><trkpt lat="45.66410428520066" lon="8.299957243671047"><ele>512.5714285714286</ele><time>2026-05-03T10:23:19Z</time></trkpt><trkpt lat="45.66406578192684" lon="8.299876791614901"><ele>514.2857142857142</ele><time>2026-05-03T10:23:20Z</time></trkpt><trkpt lat="45.66404167645196" lon="8.299774840565041"><ele>516.0</ele><time>2026-05-03T10:23:21Z</time></trkpt><trkpt lat="45.66402886769635" lon="8.299674831239285"><ele>517.1666666666666</ele><time>2026-05-03T10:23:22Z</time></trkpt><trkpt lat="45.66404197844299" lon="8.299582676544398"><ele>518.3333333333334</ele><time>2026-05-03T10:23:23Z</time></trkpt><trkpt lat="45.66406003661651" lon="8.299422862195444"><ele>519.5</ele><time>2026-05-03T10:23:24Z</time></trkpt><trkpt lat="45.66405381273716" lon="8.2992919503464"><ele>520.6666666666667</ele><time>2026-05-03T10:23:25Z</time></trkpt><trkpt lat="45.66406767851401" lon="8.299179897262508"><ele>521.8333333333334</ele><time>2026-05-03T10:23:26Z</time></trkpt><trkpt lat="45.664075989965085" lon="8.299080878583828"><ele>523.0</ele><time>2026-05-03T10:23:27Z</time></trkpt><trkpt lat="45.664157135662926" lon="8.298978634797479"><ele>524.1999999999999</ele><time>2026-05-03T10:23:29Z</time></trkpt><trkpt lat="45.664301779875586" lon="8.29885348439064"><ele>525.4</ele><time>2026-05-03T10:23:31Z</time></trkpt><trkpt lat="45.664366638520264" lon="8.29877579309449"><ele>526.5999999999999</ele><time>2026-05-03T10:23:32Z</time></trkpt><trkpt lat="45.66439151778832" lon="8.298691505561298"><ele>527.8</ele><time>2026-05-03T10:23:33Z</time></trkpt><trkpt lat="45.6643508581472" lon="8.298581032632054"><ele>529.0</ele><time>2026-05-03T10:23:35Z</time></trkpt><trkpt lat="45.66430034055263" lon="8.298479264760667"><ele>529.0</ele><time>2026-05-03T10:23:37Z</time></trkpt><trkpt lat="45.66425869511348" lon="8.298391555326843"><ele>529.0</ele><time>2026-05-03T10:23:38Z</time></trkpt><trkpt lat="45.66421716510083" lon="8.298296478147371"><ele>529.0</ele><time>2026-05-03T10:23:39Z</time></trkpt><trkpt lat="45.6642147604331" lon="8.298177213604118"><ele>529.0</ele><time>2026-05-03T10:23:41Z</time></trkpt><trkpt lat="45.664278366329725" lon="8.298000608384408"><ele>529.0</ele><time>2026-05-03T10:23:43Z</time></trkpt><trkpt lat="45.66429312004518" lon="8.297872190379191"><ele>531.8333333333334</ele><time>2026-05-03T10:23:44Z</time></trkpt><trkpt lat="45.66428136451506" lon="8.297685149000571"><ele>534.6666666666667</ele><time>2026-05-03T10:23:46Z</time></trkpt><trkpt lat="45.66426837941843" lon="8.297589891505815"><ele>537.5</ele><time>2026-05-03T10:23:47Z</time></trkpt><trkpt lat="45.664254942747256" lon="8.297491213042065"><ele>540.3333333333334</ele><time>2026-05-03T10:23:48Z</time></trkpt><trkpt lat="45.6642089377287" lon="8.297380400354017"><ele>543.1666666666666</ele><time>2026-05-03T10:23:50Z</time></trkpt><trkpt lat="45.6641434806631" lon="8.29736406097147"><ele>546.0</ele><time>2026-05-03T10:23:52Z</time></trkpt><trkpt lat="45.6640375219984" lon="8.297305222552554"><ele>546.0</ele><time>2026-05-03T10:23:54Z</time></trkpt><trkpt lat="45.66396014261545" lon="8.297336509212352"><ele>546.0</ele><time>2026-05-03T10:23:55Z</time></trkpt><trkpt lat="45.663881379999815" lon="8.29733412914063"><ele>546.0</ele><time>2026-05-03T10:23:56Z</time></trkpt><trkpt lat="45.663789080185126" lon="8.297301322905238"><ele>546.0</ele><time>2026-05-03T10:23:57Z</time></trkpt><trkpt lat="45.663693039764155" lon="8.297219653449963"><ele>546.0</ele><time>2026-05-03T10:23:59Z</time></trkpt><trkpt lat="45.66364546581624" lon="8.297160508343289"><ele>546.0</ele><time>2026-05-03T10:24:00Z</time></trkpt><trkpt lat="45.66354166002794" lon="8.29706752064044"><ele>545.0</ele><time>2026-05-03T10:24:01.999Z</time></trkpt><trkpt lat="45.663507643746264" lon="8.296921258107957"><ele>544.0</ele><time>2026-05-03T10:24:04.999Z</time></trkpt><trkpt lat="45.66351460570279" lon="8.296758086632806"><ele>543.0</ele><time>2026-05-03T10:24:06.999Z</time></trkpt><trkpt lat="45.66351575514509" lon="8.296642864299685"><ele>542.0</ele><time>2026-05-03T10:24:07.999Z</time></trkpt><trkpt lat="45.66350882558965" lon="8.29652736831101"><ele>541.0</ele><time>2026-05-03T10:24:08.999Z</time></trkpt><trkpt lat="45.663487220952575" lon="8.296436697425026"><ele>544.2</ele><time>2026-05-03T10:24:09.999Z</time></trkpt><trkpt lat="45.663516704485716" lon="8.296308333802877"><ele>547.4000000000001</ele><time>2026-05-03T10:24:11.999Z</time></trkpt><trkpt lat="45.66358875368485" lon="8.296213508384195"><ele>550.6</ele><time>2026-05-03T10:24:13.999Z</time></trkpt><trkpt lat="45.663671916658835" lon="8.296191208591644"><ele>553.8000000000001</ele><time>2026-05-03T10:24:14.999Z</time></trkpt><trkpt lat="45.663732507851286" lon="8.296072988749449"><ele>557.0</ele><time>2026-05-03T10:24:15.999Z</time></trkpt><trkpt lat="45.663768280945156" lon="8.295983523628987"><ele>557.0</ele><time>2026-05-03T10:24:16.999Z</time></trkpt><trkpt lat="45.66376167309655" lon="8.29583127820385"><ele>557.0</ele><time>2026-05-03T10:24:18.999Z</time></trkpt><trkpt lat="45.66369942579678" lon="8.295778325355334"><ele>557.0</ele><time>2026-05-03T10:24:21.999Z</time></trkpt><trkpt lat="45.66361488700634" lon="8.295769028997112"><ele>557.0</ele><time>2026-05-03T10:24:22.999Z</time></trkpt><trkpt lat="45.66354386413487" lon="8.295674891213844"><ele>557.0</ele><time>2026-05-03T10:24:23.999Z</time></trkpt><trkpt lat="45.663454194067725" lon="8.29554817980186"><ele>562.1666666666666</ele><time>2026-05-03T10:24:25.999Z</time></trkpt><trkpt lat="45.66343090544382" lon="8.295453230414108"><ele>567.3333333333333</ele><time>2026-05-03T10:24:26.999Z</time></trkpt><trkpt lat="45.663390889893776" lon="8.295367645614563"><ele>572.5</ele><time>2026-05-03T10:24:28.999Z</time></trkpt><trkpt lat="45.66331224973762" lon="8.295345346016148"><ele>577.6666666666666</ele><time>2026-05-03T10:24:31.999Z</time></trkpt><trkpt lat="45.6632187687956" lon="8.29544386055589"><ele>582.8333333333334</ele><time>2026-05-03T10:24:33.999Z</time></trkpt><trkpt lat="45.663139630852385" lon="8.295456494246299"><ele>588.0</ele><time>2026-05-03T10:24:34.999Z</time></trkpt><trkpt lat="45.66305668986328" lon="8.295489697107762"><ele>588.0</ele><time>2026-05-03T10:24:35.999Z</time></trkpt><trkpt lat="45.6629898948001" lon="8.295446143509125"><ele>588.0</ele><time>2026-05-03T10:24:36.999Z</time></trkpt><trkpt lat="45.662921438804" lon="8.295411711164881"><ele>588.0</ele><time>2026-05-03T10:24:39Z</time></trkpt><trkpt lat="45.66286697759918" lon="8.295360769113381"><ele>588.0</ele><time>2026-05-03T10:24:40Z</time></trkpt><trkpt lat="45.66279803776863" lon="8.29528085053277"><ele>588.0</ele><time>2026-05-03T10:24:41Z</time></trkpt><trkpt lat="45.66272494285763" lon="8.295251755541075"><ele>588.0</ele><time>2026-05-03T10:24:42Z</time></trkpt><trkpt lat="45.66266302387393" lon="8.295285399280786"><ele>588.0</ele><time>2026-05-03T10:24:43Z</time></trkpt><trkpt lat="45.66257130519186" lon="8.295468595985824"><ele>589.8</ele><time>2026-05-03T10:24:45Z</time></trkpt><trkpt lat="45.66251273478582" lon="8.295567397287869"><ele>591.5999999999999</ele><time>2026-05-03T10:24:46Z</time></trkpt><trkpt lat="45.66246376477612" lon="8.295692406011925"><ele>593.4000000000001</ele><time>2026-05-03T10:24:47Z</time></trkpt><trkpt lat="45.662397774709284" lon="8.295842601498359"><ele>595.2</ele><time>2026-05-03T10:24:48Z</time></trkpt><trkpt lat="45.662355544627296" lon="8.295981386945872"><ele>597.0</ele><time>2026-05-03T10:24:49Z</time></trkpt><trkpt lat="45.66233363827984" lon="8.296102023683266"><ele>591.4</ele><time>2026-05-03T10:24:50Z</time></trkpt><trkpt lat="45.662309555453184" lon="8.29618707053668"><ele>585.8000000000001</ele><time>2026-05-03T10:24:51Z</time></trkpt><trkpt lat="45.66221683762771" lon="8.296377097927882"><ele>580.2</ele><time>2026-05-03T10:24:53Z</time></trkpt><trkpt lat="45.66215910356035" lon="8.296501762332355"><ele>574.6</ele><time>2026-05-03T10:24:54Z</time></trkpt><trkpt lat="45.6621121688184" lon="8.296621029074842"><ele>569.0</ele><time>2026-05-03T10:24:55Z</time></trkpt><trkpt lat="45.662061829766806" lon="8.296746389483156"><ele>571.75</ele><time>2026-05-03T10:24:56Z</time></trkpt><trkpt lat="45.6620253037155" lon="8.296882623295627"><ele>574.5</ele><time>2026-05-03T10:24:57Z</time></trkpt><trkpt lat="45.661952066428775" lon="8.297044445763895"><ele>577.25</ele><time>2026-05-03T10:24:58Z</time></trkpt><trkpt lat="45.66190291110215" lon="8.297203214756125"><ele>580.0</ele><time>2026-05-03T10:24:59Z</time></trkpt><trkpt lat="45.66188701286518" lon="8.297339948659648"><ele>580.0</ele><time>2026-05-03T10:25:00Z</time></trkpt><trkpt lat="45.66187263981512" lon="8.297449794030587"><ele>580.0</ele><time>2026-05-03T10:25:01Z</time></trkpt><trkpt lat="45.661863204794045" lon="8.297559028322715"><ele>580.0</ele><time>2026-05-03T10:25:02Z</time></trkpt><trkpt lat="45.661875693376096" lon="8.297698730165862"><ele>580.0</ele><time>2026-05-03T10:25:03Z</time></trkpt><trkpt lat="45.661881903421275" lon="8.297789910975718"><ele>580.0</ele><time>2026-05-03T10:25:04Z</time></trkpt><trkpt lat="45.661872476757836" lon="8.297884599510207"><ele>580.0</ele><time>2026-05-03T10:25:05Z</time></trkpt><trkpt lat="45.661800435327216" lon="8.298003795267313"><ele>580.0</ele><time>2026-05-03T10:25:07Z</time></trkpt><trkpt lat="45.6616996871067" lon="8.29799870412497"><ele>580.0</ele><time>2026-05-03T10:25:09Z</time></trkpt><trkpt lat="45.66161552176301" lon="8.297960541045322"><ele>580.0</ele><time>2026-05-03T10:25:10Z</time></trkpt><trkpt lat="45.661519114218045" lon="8.297921279364111"><ele>580.0</ele><time>2026-05-03T10:25:11Z</time></trkpt><trkpt lat="45.661413095450364" lon="8.29787136412375"><ele>580.0</ele><time>2026-05-03T10:25:12Z</time></trkpt><trkpt lat="45.66130652442434" lon="8.297819200222635"><ele>580.0</ele><time>2026-05-03T10:25:13Z</time></trkpt><trkpt lat="45.661201854065645" lon="8.297788677035632"><ele>580.0</ele><time>2026-05-03T10:25:14Z</time></trkpt><trkpt lat="45.661117777241685" lon="8.297773957244765"><ele>580.0</ele><time>2026-05-03T10:25:15Z</time></trkpt><trkpt lat="45.66104046169522" lon="8.29775285714604"><ele>580.0</ele><time>2026-05-03T10:25:16Z</time></trkpt><trkpt lat="45.66096389763507" lon="8.297706864676186"><ele>580.0</ele><time>2026-05-03T10:25:17Z</time></trkpt><trkpt lat="45.660869199452875" lon="8.297621252455444"><ele>581.6</ele><time>2026-05-03T10:25:18Z</time></trkpt><trkpt lat="45.66077513977108" lon="8.297525676535217"><ele>583.2</ele><time>2026-05-03T10:25:19Z</time></trkpt><trkpt lat="45.66069765698276" lon="8.297451674390649"><ele>584.8</ele><time>2026-05-03T10:25:20Z</time></trkpt><trkpt lat="45.6605948823308" lon="8.297438544431786"><ele>586.4</ele><time>2026-05-03T10:25:21Z</time></trkpt><trkpt lat="45.660498678839204" lon="8.297448281936868"><ele>588.0</ele><time>2026-05-03T10:25:22Z</time></trkpt><trkpt lat="45.660415967744456" lon="8.297450025062249"><ele>588.0</ele><time>2026-05-03T10:53:46.999Z</time></trkpt><trkpt lat="45.66034269021099" lon="8.297476189145693"><ele>588.0</ele><time>2026-05-03T10:53:48.999Z</time></trkpt><trkpt lat="45.66028954929171" lon="8.297536923395052"><ele>588.0</ele><time>2026-05-03T10:53:50.999Z</time></trkpt><trkpt lat="45.66023301444741" lon="8.297638903973244"><ele>588.0</ele><time>2026-05-03T10:53:52.999Z</time></trkpt><trkpt lat="45.66015591342282" lon="8.297709877342859"><ele>588.0</ele><time>2026-05-03T10:53:55.999Z</time></trkpt><trkpt lat="45.66005403931641" lon="8.297704692982961"><ele>588.0</ele><time>2026-05-03T10:53:58.999Z</time></trkpt><trkpt lat="45.65997014921118" lon="8.297684002452494"><ele>586.8333333333334</ele><time>2026-05-03T10:54:10Z</time></trkpt><trkpt lat="45.659874789093514" lon="8.297662266977792"><ele>585.6666666666666</ele><time>2026-05-03T10:54:12Z</time></trkpt><trkpt lat="45.65979542954583" lon="8.297655606846625"><ele>584.5</ele><time>2026-05-03T10:54:13Z</time></trkpt><trkpt lat="45.65969808547082" lon="8.297651124715358"><ele>583.3333333333333</ele><time>2026-05-03T10:54:14Z</time></trkpt><trkpt lat="45.659612705639034" lon="8.297645300314873"><ele>582.1666666666666</ele><time>2026-05-03T10:54:15Z</time></trkpt><trkpt lat="45.65953355424955" lon="8.297648381268726"><ele>581.0</ele><time>2026-05-03T10:54:16Z</time></trkpt><trkpt lat="45.659449373915386" lon="8.297658315969505"><ele>581.0</ele><time>2026-05-03T10:54:17Z</time></trkpt><trkpt lat="45.65933239723089" lon="8.297641517103978"><ele>581.0</ele><time>2026-05-03T10:54:19Z</time></trkpt><trkpt lat="45.65926329175386" lon="8.297656260872428"><ele>581.0</ele><time>2026-05-03T10:54:20Z</time></trkpt><trkpt lat="45.659171460566256" lon="8.297736543900733"><ele>581.0</ele><time>2026-05-03T10:54:22Z</time></trkpt><trkpt lat="45.659085335826404" lon="8.297775550674404"><ele>581.0</ele><time>2026-05-03T10:54:24Z</time></trkpt><trkpt lat="45.65902508507184" lon="8.29781675026981"><ele>581.0</ele><time>2026-05-03T10:54:25Z</time></trkpt><trkpt lat="45.65896468339536" lon="8.29786254432381"><ele>581.0</ele><time>2026-05-03T10:54:26Z</time></trkpt><trkpt lat="45.65888967697426" lon="8.29791941108234"><ele>581.0</ele><time>2026-05-03T10:54:27Z</time></trkpt><trkpt lat="45.65881809173562" lon="8.297971844115896"><ele>581.0</ele><time>2026-05-03T10:54:28Z</time></trkpt><trkpt lat="45.65876677849311" lon="8.29803146179569"><ele>581.0</ele><time>2026-05-03T10:54:29Z</time></trkpt><trkpt lat="45.658697604387086" lon="8.298061437851393"><ele>581.0</ele><time>2026-05-03T10:54:30Z</time></trkpt><trkpt lat="45.65864182032311" lon="8.29810650259701"><ele>581.0</ele><time>2026-05-03T10:54:31Z</time></trkpt><trkpt lat="45.65857753024166" lon="8.298132547625277"><ele>583.0</ele><time>2026-05-03T10:54:32Z</time></trkpt><trkpt lat="45.658510478401396" lon="8.298177810478608"><ele>585.0</ele><time>2026-05-03T10:54:33Z</time></trkpt><trkpt lat="45.658425095708836" lon="8.298199150364374"><ele>587.0</ele><time>2026-05-03T10:54:34Z</time></trkpt><trkpt lat="45.65835894056803" lon="8.29825951464303"><ele>589.0</ele><time>2026-05-03T10:54:35Z</time></trkpt><trkpt lat="45.658269465964956" lon="8.29826388641476"><ele>591.0</ele><time>2026-05-03T10:54:37Z</time></trkpt><trkpt lat="45.65815856969716" lon="8.298256971443312"><ele>593.0</ele><time>2026-05-03T10:54:39Z</time></trkpt><trkpt lat="45.65810811977046" lon="8.298143567158789"><ele>591.8</ele><time>2026-05-03T10:54:41Z</time></trkpt><trkpt lat="45.65806773578731" lon="8.297990884841893"><ele>590.5999999999999</ele><time>2026-05-03T10:54:43Z</time></trkpt><trkpt lat="45.65800507562571" lon="8.297845685237435"><ele>589.4000000000001</ele><time>2026-05-03T10:54:45Z</time></trkpt><trkpt lat="45.65795776957923" lon="8.297741989112412"><ele>588.2</ele><time>2026-05-03T10:54:47Z</time></trkpt><trkpt lat="45.65785714435563" lon="8.297636286011702"><ele>587.0</ele><time>2026-05-03T10:54:49Z</time></trkpt><trkpt lat="45.657791549678734" lon="8.297580592319862"><ele>586.6666666666666</ele><time>2026-05-03T10:54:50Z</time></trkpt><trkpt lat="45.657719515077204" lon="8.297524044365998"><ele>586.3333333333333</ele><time>2026-05-03T10:54:51Z</time></trkpt><trkpt lat="45.65764587016284" lon="8.297472564126528"><ele>586.0</ele><time>2026-05-03T10:54:52Z</time></trkpt><trkpt lat="45.65758197682316" lon="8.297413201225819"><ele>585.6666666666666</ele><time>2026-05-03T10:54:53Z</time></trkpt><trkpt lat="45.65751701273172" lon="8.297380987703871"><ele>585.3333333333334</ele><time>2026-05-03T10:54:54Z</time></trkpt><trkpt lat="45.65743980057938" lon="8.29728037237807"><ele>585.0</ele><time>2026-05-03T10:54:56Z</time></trkpt><trkpt lat="45.65736961431575" lon="8.297198276911734"><ele>585.0</ele><time>2026-05-03T10:54:58Z</time></trkpt><trkpt lat="45.65730500057298" lon="8.29717449368628"><ele>585.0</ele><time>2026-05-03T10:54:59Z</time></trkpt><trkpt lat="45.657221103210034" lon="8.297119086810799"><ele>585.0</ele><time>2026-05-03T10:55:01Z</time></trkpt><trkpt lat="45.65711830375633" lon="8.29712050244607"><ele>585.0</ele><time>2026-05-03T10:55:03Z</time></trkpt><trkpt lat="45.6570568453385" lon="8.297146244339201"><ele>585.0</ele><time>2026-05-03T10:55:04Z</time></trkpt><trkpt lat="45.656944495732134" lon="8.297214421980804"><ele>585.0</ele><time>2026-05-03T10:55:06Z</time></trkpt><trkpt lat="45.656860381587045" lon="8.297223947541768"><ele>585.0</ele><time>2026-05-03T10:55:07Z</time></trkpt><trkpt lat="45.65676476864382" lon="8.29722702488227"><ele>585.0</ele><time>2026-05-03T10:55:10Z</time></trkpt><trkpt lat="45.656667714370165" lon="8.297263233206266"><ele>585.0</ele><time>2026-05-03T10:55:12Z</time></trkpt><trkpt lat="45.65654864032156" lon="8.297375252708516"><ele>585.0</ele><time>2026-05-03T10:55:14Z</time></trkpt><trkpt lat="45.65650390447572" lon="8.297459061707634"><ele>585.0</ele><time>2026-05-03T10:55:15Z</time></trkpt><trkpt lat="45.656452665711086" lon="8.297538256887863"><ele>585.0</ele><time>2026-05-03T10:55:17Z</time></trkpt><trkpt lat="45.656352426529764" lon="8.29766453681209"><ele>585.0</ele><time>2026-05-03T10:55:19Z</time></trkpt><trkpt lat="45.65628954504327" lon="8.29765592129939"><ele>585.0</ele><time>2026-05-03T10:55:21Z</time></trkpt><trkpt lat="45.65619839134348" lon="8.29769252197238"><ele>585.0</ele><time>2026-05-03T10:55:23Z</time></trkpt><trkpt lat="45.656065322983295" lon="8.297762577050987"><ele>585.0</ele><time>2026-05-03T10:55:25Z</time></trkpt><trkpt lat="45.65597754075165" lon="8.297843398237543"><ele>585.0</ele><time>2026-05-03T10:55:27Z</time></trkpt><trkpt lat="45.65590150358996" lon="8.297884121137416"><ele>585.0</ele><time>2026-05-03T10:55:29Z</time></trkpt><trkpt lat="45.65579784610169" lon="8.297964327656182"><ele>585.0</ele><time>2026-05-03T10:55:31Z</time></trkpt><trkpt lat="45.6556875691244" lon="8.298076069777558"><ele>585.0</ele><time>2026-05-03T10:55:33Z</time></trkpt><trkpt lat="45.65559273037757" lon="8.298122617020232"><ele>585.0</ele><time>2026-05-03T10:55:34Z</time></trkpt><trkpt lat="45.655471963650825" lon="8.298231947510125"><ele>582.0</ele><time>2026-05-03T10:55:35Z</time></trkpt><trkpt lat="45.655375479727226" lon="8.298311763899498"><ele>579.0</ele><time>2026-05-03T10:55:37Z</time></trkpt><trkpt lat="45.65530383579087" lon="8.298347541600682"><ele>576.0</ele><time>2026-05-03T10:55:38Z</time></trkpt><trkpt lat="45.65524455164152" lon="8.298413812915646"><ele>573.0</ele><time>2026-05-03T10:55:39Z</time></trkpt><trkpt lat="45.65516642324679" lon="8.298477003344566"><ele>570.0</ele><time>2026-05-03T10:55:40.999Z</time></trkpt><trkpt lat="45.65507563918201" lon="8.298551954330721"><ele>569.5</ele><time>2026-05-03T10:55:42.999Z</time></trkpt><trkpt lat="45.655021571536295" lon="8.298606552711867"><ele>569.0</ele><time>2026-05-03T10:55:43.999Z</time></trkpt><trkpt lat="45.6549806762744" lon="8.298676897949818"><ele>568.5</ele><time>2026-05-03T10:55:44.999Z</time></trkpt><trkpt lat="45.654901226864986" lon="8.298722042522078"><ele>568.0</ele><time>2026-05-03T10:55:45.999Z</time></trkpt><trkpt lat="45.65482343569751" lon="8.298787351975975"><ele>567.5</ele><time>2026-05-03T10:55:46.999Z</time></trkpt><trkpt lat="45.65474035761182" lon="8.298849224661135"><ele>567.0</ele><time>2026-05-03T10:55:47.999Z</time></trkpt><trkpt lat="45.65466779952296" lon="8.298907741828309"><ele>570.8333333333334</ele><time>2026-05-03T10:55:48.999Z</time></trkpt><trkpt lat="45.654604923859424" lon="8.298968091129758"><ele>574.6666666666666</ele><time>2026-05-03T10:55:50.999Z</time></trkpt><trkpt lat="45.65453870310907" lon="8.299049543867294"><ele>578.5</ele><time>2026-05-03T10:55:51.999Z</time></trkpt><trkpt lat="45.65449860943568" lon="8.299131834583116"><ele>582.3333333333333</ele><time>2026-05-03T10:55:52.999Z</time></trkpt><trkpt lat="45.65440525645671" lon="8.299188982389412"><ele>586.1666666666666</ele><time>2026-05-03T10:55:54.999Z</time></trkpt><trkpt lat="45.65429642385039" lon="8.299195992771331"><ele>590.0</ele><time>2026-05-03T10:55:57.999Z</time></trkpt><trkpt lat="45.654218583831266" lon="8.299184947826493"><ele>590.0</ele><time>2026-05-03T10:55:58.999Z</time></trkpt><trkpt lat="45.65414067388571" lon="8.299166210393091"><ele>590.0</ele><time>2026-05-03T10:55:59.999Z</time></trkpt><trkpt lat="45.654069471769375" lon="8.299127985106871"><ele>590.0</ele><time>2026-05-03T10:56:00.999Z</time></trkpt><trkpt lat="45.653987602134656" lon="8.299083567694439"><ele>590.0</ele><time>2026-05-03T10:56:01.999Z</time></trkpt><trkpt lat="45.65389954391064" lon="8.299050732632907"><ele>590.0</ele><time>2026-05-03T10:56:02.999Z</time></trkpt><trkpt lat="45.65381882439023" lon="8.299042479308664"><ele>590.0</ele><time>2026-05-03T10:56:03.999Z</time></trkpt><trkpt lat="45.65374227040461" lon="8.299046665815585"><ele>590.0000000000001</ele><time>2026-05-03T10:56:04.999Z</time></trkpt><trkpt lat="45.653676717390084" lon="8.299042672847625"><ele>590.0</ele><time>2026-05-03T10:56:05.999Z</time></trkpt><trkpt lat="45.653581852356275" lon="8.298995700293949"><ele>590.0</ele><time>2026-05-03T10:56:08Z</time></trkpt><trkpt lat="45.653515143944276" lon="8.298969600248725"><ele>590.0</ele><time>2026-05-03T10:56:09Z</time></trkpt><trkpt lat="45.65345028639712" lon="8.298985379449674"><ele>590.0</ele><time>2026-05-03T10:56:10Z</time></trkpt><trkpt lat="45.653384522542176" lon="8.298967067060353"><ele>590.0000000000001</ele><time>2026-05-03T10:56:11Z</time></trkpt><trkpt lat="45.65332069196498" lon="8.29898240088949"><ele>590.0</ele><time>2026-05-03T10:56:12Z</time></trkpt><trkpt lat="45.65319955091101" lon="8.299032219105763"><ele>587.2</ele><time>2026-05-03T10:56:14Z</time></trkpt><trkpt lat="45.65308458281011" lon="8.299102039720685"><ele>584.4</ele><time>2026-05-03T10:56:16Z</time></trkpt><trkpt lat="45.65302509810418" lon="8.29913979799737"><ele>581.6</ele><time>2026-05-03T10:56:17Z</time></trkpt><trkpt lat="45.65293430403189" lon="8.299194905754776"><ele>578.8</ele><time>2026-05-03T10:56:19Z</time></trkpt><trkpt lat="45.65283682295628" lon="8.299244586977258"><ele>576.0</ele><time>2026-05-03T10:56:21Z</time></trkpt><trkpt lat="45.652711616720914" lon="8.299268346409326"><ele>573.8</ele><time>2026-05-03T10:56:23Z</time></trkpt><trkpt lat="45.65260519386304" lon="8.299240729480719"><ele>571.6</ele><time>2026-05-03T10:56:25Z</time></trkpt><trkpt lat="45.65253536386375" lon="8.299189539666221"><ele>569.4</ele><time>2026-05-03T10:56:27Z</time></trkpt><trkpt lat="45.65245013738207" lon="8.299079918054034"><ele>567.2</ele><time>2026-05-03T10:56:29Z</time></trkpt><trkpt lat="45.65237148207441" lon="8.298968448257012"><ele>565.0</ele><time>2026-05-03T10:56:30Z</time></trkpt><trkpt lat="45.652296945807244" lon="8.29890004094645"><ele>564.8333333333334</ele><time>2026-05-03T10:56:31Z</time></trkpt><trkpt lat="45.652238180504675" lon="8.298838600627574"><ele>564.6666666666667</ele><time>2026-05-03T10:56:32Z</time></trkpt><trkpt lat="45.65219546261262" lon="8.298731039059199"><ele>564.5</ele><time>2026-05-03T10:56:34Z</time></trkpt><trkpt lat="45.65220710453478" lon="8.298600916711449"><ele>564.3333333333334</ele><time>2026-05-03T10:56:36Z</time></trkpt><trkpt lat="45.65219983554934" lon="8.29846754201028"><ele>564.1666666666666</ele><time>2026-05-03T10:56:37Z</time></trkpt><trkpt lat="45.65216612644596" lon="8.298359653581915"><ele>564.0</ele><time>2026-05-03T10:56:38Z</time></trkpt><trkpt lat="45.652133238240744" lon="8.29819840781829"><ele>564.0</ele><time>2026-05-03T10:56:40Z</time></trkpt><trkpt lat="45.65209960945441" lon="8.298101226605437"><ele>564.0</ele><time>2026-05-03T10:56:42Z</time></trkpt><trkpt lat="45.652092748093345" lon="8.297959454179571"><ele>564.0</ele><time>2026-05-03T10:56:44Z</time></trkpt><trkpt lat="45.65207676769198" lon="8.297808750824375"><ele>564.0</ele><time>2026-05-03T10:56:46Z</time></trkpt><trkpt lat="45.65203632693841" lon="8.297673333288955"><ele>564.0</ele><time>2026-05-03T10:56:48Z</time></trkpt><trkpt lat="45.65195289742491" lon="8.297591852726633"><ele>559.4</ele><time>2026-05-03T10:56:50Z</time></trkpt><trkpt lat="45.651868326767286" lon="8.297600767637512"><ele>554.8</ele><time>2026-05-03T10:56:52Z</time></trkpt><trkpt lat="45.651830957326936" lon="8.297700926404763"><ele>550.2</ele><time>2026-05-03T10:56:54Z</time></trkpt><trkpt lat="45.65186435963002" lon="8.297782581057914"><ele>545.6</ele><time>2026-05-03T10:56:55Z</time></trkpt><trkpt lat="45.65189929656444" lon="8.297957735130598"><ele>541.0</ele><time>2026-05-03T10:56:57Z</time></trkpt><trkpt lat="45.651911606002564" lon="8.29809907860913"><ele>540.5</ele><time>2026-05-03T10:56:59Z</time></trkpt><trkpt lat="45.65189252251711" lon="8.298225966787268"><ele>540.0</ele><time>2026-05-03T10:57:01Z</time></trkpt><trkpt lat="45.65188496155142" lon="8.298368347667727"><ele>539.5</ele><time>2026-05-03T10:57:03Z</time></trkpt><trkpt lat="45.65188322928442" lon="8.29850717002923"><ele>539.0</ele><time>2026-05-03T10:57:05Z</time></trkpt><trkpt lat="45.651863072119994" lon="8.298596935081227"><ele>538.5</ele><time>2026-05-03T10:57:07Z</time></trkpt><trkpt lat="45.65180351052663" lon="8.298668651973784"><ele>538.0</ele><time>2026-05-03T10:57:09Z</time></trkpt><trkpt lat="45.65171386026464" lon="8.298741823284221"><ele>538.0</ele><time>2026-05-03T10:57:11Z</time></trkpt><trkpt lat="45.65162809950698" lon="8.298816006767206"><ele>538.0</ele><time>2026-05-03T10:57:13Z</time></trkpt><trkpt lat="45.65157381236662" lon="8.298926869449573"><ele>538.0</ele><time>2026-05-03T10:57:15Z</time></trkpt><trkpt lat="45.65155003432866" lon="8.299093081763942"><ele>538.0</ele><time>2026-05-03T10:57:17Z</time></trkpt><trkpt lat="45.65151929737904" lon="8.299177120702408"><ele>538.0</ele><time>2026-05-03T10:57:18Z</time></trkpt><trkpt lat="45.651464356840854" lon="8.299334431221457"><ele>538.4</ele><time>2026-05-03T10:57:20Z</time></trkpt><trkpt lat="45.651437171664334" lon="8.299419582533984"><ele>538.8</ele><time>2026-05-03T10:57:21Z</time></trkpt><trkpt lat="45.651403485761165" lon="8.299530062369504"><ele>539.2</ele><time>2026-05-03T10:57:23Z</time></trkpt><trkpt lat="45.65140685639046" lon="8.299752001930106"><ele>539.6</ele><time>2026-05-03T10:57:26Z</time></trkpt><trkpt lat="45.651401515850544" lon="8.29985531480867"><ele>540.0</ele><time>2026-05-03T10:57:27Z</time></trkpt><trkpt lat="45.65137449579008" lon="8.299975426310118"><ele>538.1666666666666</ele><time>2026-05-03T10:57:28Z</time></trkpt><trkpt lat="45.65134825287221" lon="8.300064644582115"><ele>536.3333333333334</ele><time>2026-05-03T10:57:29Z</time></trkpt><trkpt lat="45.651310774622075" lon="8.300160318474278"><ele>534.5</ele><time>2026-05-03T10:57:30Z</time></trkpt><trkpt lat="45.65126590632337" lon="8.300239170471627"><ele>532.6666666666667</ele><time>2026-05-03T10:57:31Z</time></trkpt><trkpt lat="45.651211203033284" lon="8.300364442095402"><ele>530.8333333333334</ele><time>2026-05-03T10:57:32Z</time></trkpt><trkpt lat="45.651137012444856" lon="8.300487127639924"><ele>529.0</ele><time>2026-05-03T10:57:33Z</time></trkpt><trkpt lat="45.6510754987111" lon="8.300597208063559"><ele>525.8</ele><time>2026-05-03T10:57:34Z</time></trkpt><trkpt lat="45.65103187562979" lon="8.300707925268204"><ele>522.5999999999999</ele><time>2026-05-03T10:57:35Z</time></trkpt><trkpt lat="45.650953065483314" lon="8.300848968010845"><ele>519.4</ele><time>2026-05-03T10:57:37Z</time></trkpt><trkpt lat="45.65085615565342" lon="8.300946689601934"><ele>516.1999999999999</ele><time>2026-05-03T10:57:39Z</time></trkpt><trkpt lat="45.65081299209506" lon="8.30102423547996"><ele>513.0</ele><time>2026-05-03T10:57:40Z</time></trkpt><trkpt lat="45.65075012534646" lon="8.301085393828524"><ele>513.0</ele><time>2026-05-03T10:57:41Z</time></trkpt><trkpt lat="45.65064219767877" lon="8.30111299639455"><ele>513.0</ele><time>2026-05-03T10:57:43Z</time></trkpt><trkpt lat="45.6505789885733" lon="8.301017663208482"><ele>513.0</ele><time>2026-05-03T10:57:45Z</time></trkpt><trkpt lat="45.65037618351905" lon="8.300892660939663"><ele>513.0</ele><time>2026-05-03T10:58:29Z</time></trkpt><trkpt lat="45.65024063026355" lon="8.300890858450678"><ele>509.2</ele><time>2026-05-03T10:58:31Z</time></trkpt><trkpt lat="45.650165441705084" lon="8.300899254499544"><ele>505.4</ele><time>2026-05-03T10:58:32Z</time></trkpt><trkpt lat="45.65028979913007" lon="8.300885367911041"><ele>501.59999999999997</ele><time>2026-05-03T10:58:33Z</time></trkpt><trkpt lat="45.65017422303442" lon="8.300898273929075"><ele>497.79999999999995</ele><time>2026-05-03T10:58:36Z</time></trkpt><trkpt lat="45.65008783759064" lon="8.300909009042078"><ele>494.0</ele><time>2026-05-03T10:58:39Z</time></trkpt><trkpt lat="45.65001674342609" lon="8.300919376940387"><ele>494.0</ele><time>2026-05-03T10:58:43Z</time></trkpt><trkpt lat="45.649928705427534" lon="8.300945992050552"><ele>494.0</ele><time>2026-05-03T10:59:26Z</time></trkpt><trkpt lat="45.64995658006383" lon="8.301136042131597"><ele>494.0</ele><time>2026-05-03T10:59:41Z</time></trkpt><trkpt lat="45.650013144829636" lon="8.301215345094565"><ele>494.0</ele><time>2026-05-03T10:59:43Z</time></trkpt><trkpt lat="45.64994244106256" lon="8.301105845169369"><ele>494.0</ele><time>2026-05-03T10:59:49Z</time></trkpt><trkpt lat="45.6498148024492" lon="8.301102768260112"><ele>493.99999999999994</ele><time>2026-05-03T10:59:51Z</time></trkpt><trkpt lat="45.64973403728069" lon="8.30102502808298"><ele>494.0</ele><time>2026-05-03T10:59:53Z</time></trkpt><trkpt lat="45.64967155064522" lon="8.300935689696708"><ele>494.0</ele><time>2026-05-03T10:59:55Z</time></trkpt><trkpt lat="45.64963952676849" lon="8.300832176578172"><ele>494.0</ele><time>2026-05-03T10:59:57Z</time></trkpt><trkpt lat="45.649619492067664" lon="8.300739844250579"><ele>493.99999999999994</ele><time>2026-05-03T11:00:00.999Z</time></trkpt><trkpt lat="45.64972698124372" lon="8.300746390053627"><ele>494.0</ele><time>2026-05-03T11:00:05.999Z</time></trkpt><trkpt lat="45.64979633203713" lon="8.300778021027101"><ele>493.99999999999994</ele><time>2026-05-03T11:00:07.999Z</time></trkpt><trkpt lat="45.64986231966965" lon="8.300768016172631"><ele>494.0</ele><time>2026-05-03T11:00:10.999Z</time></trkpt><trkpt lat="45.64988316430836" lon="8.300681319481683"><ele>494.0</ele><time>2026-05-03T11:00:12.999Z</time></trkpt><trkpt lat="45.64978800209065" lon="8.30059625751221"><ele>494.0</ele><time>2026-05-03T11:00:14.999Z</time></trkpt><trkpt lat="45.649693523559925" lon="8.300564447456702"><ele>493.99999999999994</ele><time>2026-05-03T11:00:16.999Z</time></trkpt><trkpt lat="45.64963282186353" lon="8.300525309553473"><ele>494.0</ele><time>2026-05-03T11:00:17.999Z</time></trkpt><trkpt lat="45.64955221483912" lon="8.300479988488696"><ele>490.79999999999995</ele><time>2026-05-03T11:00:20Z</time></trkpt><trkpt lat="45.64942437757783" lon="8.300459061877646"><ele>487.59999999999997</ele><time>2026-05-03T11:00:22Z</time></trkpt><trkpt lat="45.64931955793653" lon="8.300471781334002"><ele>484.4</ele><time>2026-05-03T11:00:24Z</time></trkpt><trkpt lat="45.64924893434205" lon="8.300520377845107"><ele>481.2</ele><time>2026-05-03T11:00:26Z</time></trkpt><trkpt lat="45.64919271941391" lon="8.30063187204494"><ele>478.0</ele><time>2026-05-03T11:00:28Z</time></trkpt><trkpt lat="45.6491562471352" lon="8.300707985491371"><ele>478.00000000000006</ele><time>2026-05-03T11:00:30Z</time></trkpt><trkpt lat="45.64911891542827" lon="8.300859158461249"><ele>478.0</ele><time>2026-05-03T11:00:32Z</time></trkpt><trkpt lat="45.64905388589696" lon="8.30090553339391"><ele>478.0</ele><time>2026-05-03T11:00:34Z</time></trkpt><trkpt lat="45.64897029308475" lon="8.300909673551358"><ele>478.0</ele><time>2026-05-03T11:00:36Z</time></trkpt><trkpt lat="45.64890782397082" lon="8.30093477613879"><ele>478.00000000000006</ele><time>2026-05-03T11:00:37Z</time></trkpt><trkpt lat="45.648830042057796" lon="8.300996720827195"><ele>478.0</ele><time>2026-05-03T11:00:38Z</time></trkpt><trkpt lat="45.648739711579815" lon="8.301055072865811"><ele>478.00000000000006</ele><time>2026-05-03T11:00:39Z</time></trkpt><trkpt lat="45.64865864547901" lon="8.30105789099656"><ele>478.0</ele><time>2026-05-03T11:00:40Z</time></trkpt><trkpt lat="45.6485831657641" lon="8.301031422995255"><ele>478.0</ele><time>2026-05-03T11:00:41Z</time></trkpt><trkpt lat="45.648520260621005" lon="8.301003067837895"><ele>478.0</ele><time>2026-05-03T11:00:42Z</time></trkpt><trkpt lat="45.64844288758667" lon="8.30095229712595"><ele>478.00000000000006</ele><time>2026-05-03T11:00:43Z</time></trkpt><trkpt lat="45.6483610275757" lon="8.300877075861823"><ele>478.0</ele><time>2026-05-03T11:00:44Z</time></trkpt><trkpt lat="45.648278316566795" lon="8.300832489126305"><ele>478.50000000000006</ele><time>2026-05-03T11:00:45Z</time></trkpt><trkpt lat="45.64819934391451" lon="8.30079745770832"><ele>479.0</ele><time>2026-05-03T11:00:46Z</time></trkpt><trkpt lat="45.648122159312074" lon="8.30080923156696"><ele>479.5</ele><time>2026-05-03T11:00:47Z</time></trkpt><trkpt lat="45.64803068018691" lon="8.300890604927613"><ele>480.0</ele><time>2026-05-03T11:00:49Z</time></trkpt><trkpt lat="45.64800317223068" lon="8.300988962390727"><ele>480.50000000000006</ele><time>2026-05-03T11:00:50Z</time></trkpt><trkpt lat="45.64795830646375" lon="8.301084830514277"><ele>481.0</ele><time>2026-05-03T11:00:51Z</time></trkpt><trkpt lat="45.64790753265331" lon="8.301185571517573"><ele>481.0</ele><time>2026-05-03T11:00:52Z</time></trkpt><trkpt lat="45.64784842296507" lon="8.301298236537413"><ele>481.0</ele><time>2026-05-03T11:00:53Z</time></trkpt><trkpt lat="45.64780184601922" lon="8.301393542578358"><ele>481.0</ele><time>2026-05-03T11:00:54Z</time></trkpt><trkpt lat="45.64773833242696" lon="8.301521545868361"><ele>481.0</ele><time>2026-05-03T11:00:55Z</time></trkpt><trkpt lat="45.647695986488486" lon="8.301647471358143"><ele>481.0</ele><time>2026-05-03T11:00:56Z</time></trkpt><trkpt lat="45.6476596514102" lon="8.301753697208925"><ele>482.6666666666667</ele><time>2026-05-03T11:00:57Z</time></trkpt><trkpt lat="45.64767166168562" lon="8.301875143788951"><ele>484.33333333333337</ele><time>2026-05-03T11:00:58Z</time></trkpt><trkpt lat="45.64767765805169" lon="8.301969753160071"><ele>486.0</ele><time>2026-05-03T11:00:59Z</time></trkpt><trkpt lat="45.64765179096029" lon="8.302056151472776"><ele>487.66666666666663</ele><time>2026-05-03T11:01:01Z</time></trkpt><trkpt lat="45.64759018491828" lon="8.302009464061193"><ele>489.3333333333333</ele><time>2026-05-03T11:01:04Z</time></trkpt><trkpt lat="45.647612130046774" lon="8.30187567043224"><ele>491.0</ele><time>2026-05-03T11:01:06Z</time></trkpt><trkpt lat="45.64757216010585" lon="8.301733223906231"><ele>490.99999999999994</ele><time>2026-05-03T11:01:08Z</time></trkpt><trkpt lat="45.647504215128194" lon="8.30167494278252"><ele>491.0</ele><time>2026-05-03T11:01:09Z</time></trkpt><trkpt lat="45.64744755685686" lon="8.301578157103675"><ele>491.0</ele><time>2026-05-03T11:01:10Z</time></trkpt><trkpt lat="45.64736620642783" lon="8.30148561369757"><ele>491.0</ele><time>2026-05-03T11:01:11Z</time></trkpt><trkpt lat="45.647289039576535" lon="8.301428527134995"><ele>490.99999999999994</ele><time>2026-05-03T11:01:12Z</time></trkpt><trkpt lat="45.64722163421563" lon="8.301347967861322"><ele>491.0</ele><time>2026-05-03T11:01:13Z</time></trkpt><trkpt lat="45.64716908741236" lon="8.301293953093264"><ele>490.8</ele><time>2026-05-03T11:01:14Z</time></trkpt><trkpt lat="45.64709876754198" lon="8.301214456570559"><ele>490.6</ele><time>2026-05-03T11:01:15Z</time></trkpt><trkpt lat="45.64702572179387" lon="8.301152541458496"><ele>490.4</ele><time>2026-05-03T11:01:16Z</time></trkpt><trkpt lat="45.64694399167599" lon="8.301068157058884"><ele>490.2</ele><time>2026-05-03T11:01:17Z</time></trkpt><trkpt lat="45.64684205621023" lon="8.300930783838542"><ele>490.0</ele><time>2026-05-03T11:01:19Z</time></trkpt><trkpt lat="45.64677866956038" lon="8.30086924267157"><ele>489.4</ele><time>2026-05-03T11:01:20Z</time></trkpt><trkpt lat="45.64669565644403" lon="8.30080447512475"><ele>488.8</ele><time>2026-05-03T11:01:21Z</time></trkpt><trkpt lat="45.64664117443598" lon="8.300699257858778"><ele>488.20000000000005</ele><time>2026-05-03T11:01:22Z</time></trkpt><trkpt lat="45.64656785289194" lon="8.300609886057247"><ele>487.6</ele><time>2026-05-03T11:01:23Z</time></trkpt><trkpt lat="45.64649527021568" lon="8.300476989584253"><ele>487.0</ele><time>2026-05-03T11:01:24Z</time></trkpt><trkpt lat="45.646425977455564" lon="8.300377932619446"><ele>487.0</ele><time>2026-05-03T11:01:25Z</time></trkpt><trkpt lat="45.6463794256941" lon="8.30031236140555"><ele>487.00000000000006</ele><time>2026-05-03T11:01:26Z</time></trkpt><trkpt lat="45.64626548854576" lon="8.300232553561571"><ele>487.00000000000006</ele><time>2026-05-03T11:01:28Z</time></trkpt><trkpt lat="45.64618537115915" lon="8.300151716264237"><ele>487.0</ele><time>2026-05-03T11:01:29Z</time></trkpt><trkpt lat="45.646097727665335" lon="8.30007387575632"><ele>487.0</ele><time>2026-05-03T11:01:30Z</time></trkpt><trkpt lat="45.64599633597681" lon="8.299968761363814"><ele>487.6</ele><time>2026-05-03T11:01:31Z</time></trkpt><trkpt lat="45.64591864285529" lon="8.299906895544392"><ele>488.20000000000005</ele><time>2026-05-03T11:01:32Z</time></trkpt><trkpt lat="45.64582947565346" lon="8.299826783598737"><ele>488.8</ele><time>2026-05-03T11:01:33Z</time></trkpt><trkpt lat="45.645739342770135" lon="8.29977765526707"><ele>489.4</ele><time>2026-05-03T11:01:34Z</time></trkpt><trkpt lat="45.64564452215332" lon="8.299724733895369"><ele>490.0</ele><time>2026-05-03T11:01:35Z</time></trkpt><trkpt lat="45.64553596216935" lon="8.299674952459261"><ele>490.0</ele><time>2026-05-03T11:01:36Z</time></trkpt><trkpt lat="45.64545730599725" lon="8.299612102644582"><ele>490.0</ele><time>2026-05-03T11:01:37Z</time></trkpt><trkpt lat="45.645384987868596" lon="8.299522221493731"><ele>490.0</ele><time>2026-05-03T11:01:39Z</time></trkpt><trkpt lat="45.645315872299285" lon="8.299437051706937"><ele>490.0</ele><time>2026-05-03T11:01:40Z</time></trkpt><trkpt lat="45.64524626322976" lon="8.299344189703232"><ele>490.0</ele><time>2026-05-03T11:01:41Z</time></trkpt><trkpt lat="45.645150219246986" lon="8.299242602478738"><ele>492.4</ele><time>2026-05-03T11:01:42Z</time></trkpt><trkpt lat="45.64507065734399" lon="8.299134557341825"><ele>494.8</ele><time>2026-05-03T11:01:43Z</time></trkpt><trkpt lat="45.644998689739225" lon="8.299034690156109"><ele>497.20000000000005</ele><time>2026-05-03T11:01:44Z</time></trkpt><trkpt lat="45.644886663856845" lon="8.298918194790637"><ele>499.6</ele><time>2026-05-03T11:01:46Z</time></trkpt><trkpt lat="45.64482511378528" lon="8.298889752977113"><ele>502.0</ele><time>2026-05-03T11:01:47Z</time></trkpt><trkpt lat="45.64474360844065" lon="8.29886151678679"><ele>500.83333333333337</ele><time>2026-05-03T11:01:48Z</time></trkpt><trkpt lat="45.64466072984391" lon="8.298839644767167"><ele>499.6666666666667</ele><time>2026-05-03T11:01:49Z</time></trkpt><trkpt lat="45.64457681671203" lon="8.298820646510418"><ele>498.5</ele><time>2026-05-03T11:01:50Z</time></trkpt><trkpt lat="45.64449289217879" lon="8.29884042060162"><ele>497.33333333333337</ele><time>2026-05-03T11:01:51Z</time></trkpt><trkpt lat="45.644414093738206" lon="8.298828321352747"><ele>496.1666666666667</ele><time>2026-05-03T11:01:52Z</time></trkpt><trkpt lat="45.64433848819663" lon="8.298826803867591"><ele>495.0</ele><time>2026-05-03T11:01:53Z</time></trkpt><trkpt lat="45.64425698732965" lon="8.298802418779305"><ele>495.0</ele><time>2026-05-03T11:01:54Z</time></trkpt><trkpt lat="45.644185933109654" lon="8.298812101040973"><ele>495.0</ele><time>2026-05-03T11:01:55Z</time></trkpt><trkpt lat="45.64410568615472" lon="8.298806242419806"><ele>495.0</ele><time>2026-05-03T11:01:56Z</time></trkpt><trkpt lat="45.64401428835558" lon="8.298805592806682"><ele>495.0</ele><time>2026-05-03T11:01:57Z</time></trkpt><trkpt lat="45.643920067726604" lon="8.298823323050431"><ele>495.0</ele><time>2026-05-03T11:01:58Z</time></trkpt><trkpt lat="45.64382130413112" lon="8.298838560136371"><ele>495.0</ele><time>2026-05-03T11:01:59Z</time></trkpt><trkpt lat="45.64373306245087" lon="8.298827591366047"><ele>495.0</ele><time>2026-05-03T11:02:00Z</time></trkpt><trkpt lat="45.643649538822864" lon="8.298826944749422"><ele>495.0</ele><time>2026-05-03T11:02:01Z</time></trkpt><trkpt lat="45.64355423621063" lon="8.298822279826078"><ele>495.0</ele><time>2026-05-03T11:02:02Z</time></trkpt><trkpt lat="45.643457148956415" lon="8.298811316123716"><ele>495.0</ele><time>2026-05-03T11:02:03Z</time></trkpt><trkpt lat="45.64335166990378" lon="8.298797363323875"><ele>495.0</ele><time>2026-05-03T11:02:04Z</time></trkpt><trkpt lat="45.643239558107055" lon="8.29877926997617"><ele>494.4</ele><time>2026-05-03T11:02:05Z</time></trkpt><trkpt lat="45.64311968597566" lon="8.298770061510986"><ele>493.8</ele><time>2026-05-03T11:02:06Z</time></trkpt><trkpt lat="45.64300643725243" lon="8.298748073122932"><ele>493.20000000000005</ele><time>2026-05-03T11:02:07Z</time></trkpt><trkpt lat="45.642916316076104" lon="8.298720500305242"><ele>492.6</ele><time>2026-05-03T11:02:07.999Z</time></trkpt><trkpt lat="45.64279553313365" lon="8.298716496896901"><ele>492.0</ele><time>2026-05-03T11:02:08.999Z</time></trkpt><trkpt lat="45.64269787143757" lon="8.298717611936363"><ele>493.8</ele><time>2026-05-03T11:02:09.999Z</time></trkpt><trkpt lat="45.64262141715612" lon="8.298711498877267"><ele>495.6</ele><time>2026-05-03T11:02:10.999Z</time></trkpt><trkpt lat="45.642495867405415" lon="8.298650430560933"><ele>497.40000000000003</ele><time>2026-05-03T11:02:12.999Z</time></trkpt><trkpt lat="45.6424052388318" lon="8.298551591836828"><ele>499.20000000000005</ele><time>2026-05-03T11:02:13.999Z</time></trkpt><trkpt lat="45.64233102135299" lon="8.298441534256202"><ele>501.0</ele><time>2026-05-03T11:02:14.999Z</time></trkpt><trkpt lat="45.6422789899427" lon="8.29835454542592"><ele>501.0</ele><time>2026-05-03T11:02:15.999Z</time></trkpt><trkpt lat="45.642243598987086" lon="8.298264451821508"><ele>501.0</ele><time>2026-05-03T11:02:16.999Z</time></trkpt><trkpt lat="45.64221961317908" lon="8.298162838220009"><ele>501.0</ele><time>2026-05-03T11:02:17.999Z</time></trkpt><trkpt lat="45.64216686531529" lon="8.29804382715861"><ele>501.0</ele><time>2026-05-03T11:02:18.999Z</time></trkpt><trkpt lat="45.64209437208204" lon="8.297882744302065"><ele>501.0</ele><time>2026-05-03T11:02:19.999Z</time></trkpt><trkpt lat="45.64204877343392" lon="8.297744321910395"><ele>499.6</ele><time>2026-05-03T11:02:20.999Z</time></trkpt><trkpt lat="45.64201303282051" lon="8.297636719731877"><ele>498.20000000000005</ele><time>2026-05-03T11:02:21.999Z</time></trkpt><trkpt lat="45.64200639416842" lon="8.297505869964043"><ele>496.79999999999995</ele><time>2026-05-03T11:02:22.999Z</time></trkpt><trkpt lat="45.64196140981583" lon="8.297403844041744"><ele>495.4</ele><time>2026-05-03T11:02:24.999Z</time></trkpt><trkpt lat="45.641882197654255" lon="8.29731732868117"><ele>494.0</ele><time>2026-05-03T11:02:27Z</time></trkpt><trkpt lat="45.64178899679564" lon="8.297212411247132"><ele>493.4</ele><time>2026-05-03T11:02:29Z</time></trkpt><trkpt lat="45.64171770022047" lon="8.297063607888411"><ele>492.79999999999995</ele><time>2026-05-03T11:02:31Z</time></trkpt><trkpt lat="45.64167564675178" lon="8.296986916223718"><ele>492.20000000000005</ele><time>2026-05-03T11:02:32Z</time></trkpt><trkpt lat="45.64162250530339" lon="8.29684636690047"><ele>491.6</ele><time>2026-05-03T11:02:33Z</time></trkpt><trkpt lat="45.64159545292511" lon="8.29669347294888"><ele>491.0</ele><time>2026-05-03T11:02:34Z</time></trkpt><trkpt lat="45.64157548250396" lon="8.29655603518127"><ele>491.0</ele><time>2026-05-03T11:02:35Z</time></trkpt><trkpt lat="45.641553534088615" lon="8.296430890101115"><ele>491.0</ele><time>2026-05-03T11:02:36Z</time></trkpt><trkpt lat="45.641528115862876" lon="8.296332312995904"><ele>491.0</ele><time>2026-05-03T11:02:37Z</time></trkpt><trkpt lat="45.641472944408754" lon="8.296181544585574"><ele>491.0</ele><time>2026-05-03T11:02:39Z</time></trkpt><trkpt lat="45.641391613662655" lon="8.296119675103164"><ele>491.0</ele><time>2026-05-03T11:02:41Z</time></trkpt><trkpt lat="45.64128504973161" lon="8.29611786513301"><ele>490.99999999999994</ele><time>2026-05-03T11:02:43Z</time></trkpt><trkpt lat="45.641230888523395" lon="8.29625946178907"><ele>491.0</ele><time>2026-05-03T11:02:45Z</time></trkpt><trkpt lat="45.64127383380546" lon="8.296325750383964"><ele>491.0</ele><time>2026-05-03T11:02:46Z</time></trkpt><trkpt lat="45.64126925122508" lon="8.296431893237488"><ele>491.0</ele><time>2026-05-03T11:02:48Z</time></trkpt><trkpt lat="45.641290833010906" lon="8.296557062287945"><ele>490.99999999999994</ele><time>2026-05-03T11:02:50Z</time></trkpt><trkpt lat="45.64127950385448" lon="8.29668466280616"><ele>491.0</ele><time>2026-05-03T11:02:52Z</time></trkpt><trkpt lat="45.641285069338124" lon="8.29681981520356"><ele>490.99999999999994</ele><time>2026-05-03T11:02:54Z</time></trkpt><trkpt lat="45.641305182891756" lon="8.296912525291134"><ele>491.0</ele><time>2026-05-03T11:02:55Z</time></trkpt><trkpt lat="45.641295372578384" lon="8.297027063593928"><ele>491.0</ele><time>2026-05-03T11:02:57Z</time></trkpt><trkpt lat="45.64127827533689" lon="8.29714788102355"><ele>491.0</ele><time>2026-05-03T11:02:59Z</time></trkpt><trkpt lat="45.64124865878186" lon="8.297245812329788"><ele>490.99999999999994</ele><time>2026-05-03T11:03:00Z</time></trkpt><trkpt lat="45.64123088052354" lon="8.297343949181512"><ele>491.0</ele><time>2026-05-03T11:03:01Z</time></trkpt><trkpt lat="45.64116056642304" lon="8.297481511410838"><ele>486.3333333333333</ele><time>2026-05-03T11:03:03Z</time></trkpt><trkpt lat="45.641094768580686" lon="8.297606045815018"><ele>481.66666666666663</ele><time>2026-05-03T11:03:05Z</time></trkpt><trkpt lat="45.641030977138314" lon="8.297677958211404"><ele>477.0</ele><time>2026-05-03T11:03:07Z</time></trkpt><trkpt lat="45.64098310675698" lon="8.297817752715936"><ele>472.33333333333337</ele><time>2026-05-03T11:03:09Z</time></trkpt><trkpt lat="45.64094445849437" lon="8.29790787980264"><ele>467.6666666666667</ele><time>2026-05-03T11:03:10Z</time></trkpt><trkpt lat="45.64093447143279" lon="8.298000333451634"><ele>463.0</ele><time>2026-05-03T11:03:11Z</time></trkpt><trkpt lat="45.64091024965462" lon="8.298124258648688"><ele>462.79999999999995</ele><time>2026-05-03T11:03:13Z</time></trkpt><trkpt lat="45.6408801673162" lon="8.298223349316356"><ele>462.59999999999997</ele><time>2026-05-03T11:03:14Z</time></trkpt><trkpt lat="45.64082778998192" lon="8.29837598782062"><ele>462.40000000000003</ele><time>2026-05-03T11:03:16Z</time></trkpt><trkpt lat="45.640773443553066" lon="8.298476308605137"><ele>462.20000000000005</ele><time>2026-05-03T11:03:17Z</time></trkpt><trkpt lat="45.640717690407605" lon="8.29861344418487"><ele>462.0</ele><time>2026-05-03T11:03:19Z</time></trkpt><trkpt lat="45.64067970259244" lon="8.298686858985748"><ele>462.0</ele><time>2026-05-03T11:03:20Z</time></trkpt><trkpt lat="45.640637593358576" lon="8.298770546492749"><ele>462.00000000000006</ele><time>2026-05-03T11:03:21Z</time></trkpt><trkpt lat="45.64056115041336" lon="8.298874306029255"><ele>462.00000000000006</ele><time>2026-05-03T11:03:23Z</time></trkpt><trkpt lat="45.64047194661214" lon="8.299022673414278"><ele>462.0</ele><time>2026-05-03T11:03:25Z</time></trkpt><trkpt lat="45.640403979455805" lon="8.299112209059363"><ele>462.0</ele><time>2026-05-03T11:03:26Z</time></trkpt><trkpt lat="45.640343150170025" lon="8.299183417472332"><ele>459.5</ele><time>2026-05-03T11:03:27Z</time></trkpt><trkpt lat="45.6402737622857" lon="8.299230850715247"><ele>457.0</ele><time>2026-05-03T11:03:28Z</time></trkpt><trkpt lat="45.64020129067453" lon="8.2992534140186"><ele>454.5</ele><time>2026-05-03T11:03:29Z</time></trkpt><trkpt lat="45.64012795104387" lon="8.299245303124117"><ele>452.0</ele><time>2026-05-03T11:03:30Z</time></trkpt><trkpt lat="45.64002981920874" lon="8.299223663947716"><ele>449.5</ele><time>2026-05-03T11:03:31Z</time></trkpt><trkpt lat="45.639953582482256" lon="8.299189666641784"><ele>447.0</ele><time>2026-05-03T11:03:32Z</time></trkpt><trkpt lat="45.639863456172385" lon="8.299126285166043"><ele>447.0</ele><time>2026-05-03T11:03:33Z</time></trkpt><trkpt lat="45.639745170883735" lon="8.299073335260703"><ele>447.00000000000006</ele><time>2026-05-03T11:03:34Z</time></trkpt><trkpt lat="45.63964620691906" lon="8.29903780860889"><ele>447.00000000000006</ele><time>2026-05-03T11:03:35Z</time></trkpt><trkpt lat="45.639542808528" lon="8.298987427145704"><ele>447.0</ele><time>2026-05-03T11:03:36Z</time></trkpt><trkpt lat="45.63943535386989" lon="8.298974695605368"><ele>447.0</ele><time>2026-05-03T11:03:37Z</time></trkpt><trkpt lat="45.639332944201456" lon="8.298945544075696"><ele>447.6</ele><time>2026-05-03T11:03:38Z</time></trkpt><trkpt lat="45.63925377949385" lon="8.29891994400463"><ele>448.20000000000005</ele><time>2026-05-03T11:03:39Z</time></trkpt><trkpt lat="45.63916685022134" lon="8.298905306827962"><ele>448.8</ele><time>2026-05-03T11:03:40Z</time></trkpt><trkpt lat="45.639080314439056" lon="8.298895533405386"><ele>449.4</ele><time>2026-05-03T11:03:41Z</time></trkpt><trkpt lat="45.63897180758395" lon="8.298883539523937"><ele>450.0</ele><time>2026-05-03T11:03:42Z</time></trkpt><trkpt lat="45.6388801904599" lon="8.29888293179733"><ele>448.4</ele><time>2026-05-03T11:03:43Z</time></trkpt><trkpt lat="45.63880593054539" lon="8.298908121015538"><ele>446.8</ele><time>2026-05-03T11:03:44Z</time></trkpt><trkpt lat="45.63874135395786" lon="8.298903359810325"><ele>445.20000000000005</ele><time>2026-05-03T11:03:45Z</time></trkpt><trkpt lat="45.63860510652285" lon="8.298862064068816"><ele>443.6</ele><time>2026-05-03T11:03:47Z</time></trkpt><trkpt lat="45.63851155161049" lon="8.2988292529538"><ele>442.0</ele><time>2026-05-03T11:03:48Z</time></trkpt><trkpt lat="45.63839940718896" lon="8.29878624734312"><ele>442.00000000000006</ele><time>2026-05-03T11:03:49Z</time></trkpt><trkpt lat="45.63830544688315" lon="8.298748812760905"><ele>442.0</ele><time>2026-05-03T11:03:50Z</time></trkpt><trkpt lat="45.6381906039892" lon="8.298708263244679"><ele>442.0</ele><time>2026-05-03T11:03:51Z</time></trkpt><trkpt lat="45.63811548875218" lon="8.29871084394982"><ele>442.0</ele><time>2026-05-03T11:03:52Z</time></trkpt><trkpt lat="45.63803192359284" lon="8.298710234572427"><ele>442.00000000000006</ele><time>2026-05-03T11:03:53Z</time></trkpt><trkpt lat="45.63796237489066" lon="8.298730960056044"><ele>442.0</ele><time>2026-05-03T11:03:54Z</time></trkpt><trkpt lat="45.63784462824248" lon="8.29878941552089"><ele>440.75</ele><time>2026-05-03T11:03:56Z</time></trkpt><trkpt lat="45.63774667635291" lon="8.298889949972809"><ele>439.5</ele><time>2026-05-03T11:03:58Z</time></trkpt><trkpt lat="45.637641922418034" lon="8.298875390131691"><ele>438.25</ele><time>2026-05-03T11:04:00Z</time></trkpt><trkpt lat="45.637556945274355" lon="8.29884240535948"><ele>437.0</ele><time>2026-05-03T11:04:03Z</time></trkpt><trkpt lat="45.63758172030423" lon="8.29911034777336"><ele>437.0</ele><time>2026-05-03T11:04:12.999Z</time></trkpt><trkpt lat="45.63764307478392" lon="8.299237141407845"><ele>437.00000000000006</ele><time>2026-05-03T11:04:14.999Z</time></trkpt><trkpt lat="45.63768831728738" lon="8.29933789844045"><ele>437.00000000000006</ele><time>2026-05-03T11:04:15.999Z</time></trkpt><trkpt lat="45.63772732616914" lon="8.299478883633284"><ele>437.0</ele><time>2026-05-03T11:04:16.999Z</time></trkpt><trkpt lat="45.637691951190114" lon="8.299621234778721"><ele>437.0</ele><time>2026-05-03T11:04:19.999Z</time></trkpt><trkpt lat="45.63768572648968" lon="8.299782795356018"><ele>438.16666666666663</ele><time>2026-05-03T11:04:21.999Z</time></trkpt><trkpt lat="45.63766997624699" lon="8.299909126269723"><ele>439.3333333333333</ele><time>2026-05-03T11:04:23.999Z</time></trkpt><trkpt lat="45.637646611792086" lon="8.300046654880532"><ele>440.5</ele><time>2026-05-03T11:04:25.999Z</time></trkpt><trkpt lat="45.63761455169196" lon="8.30015306010446"><ele>441.66666666666663</ele><time>2026-05-03T11:04:27.999Z</time></trkpt><trkpt lat="45.63757298886974" lon="8.300228548343123"><ele>442.8333333333333</ele><time>2026-05-03T11:04:29.999Z</time></trkpt><trkpt lat="45.6375023699753" lon="8.300248812832962"><ele>444.0</ele><time>2026-05-03T11:04:32Z</time></trkpt><trkpt lat="45.63743134593717" lon="8.30024587326458"><ele>444.0</ele><time>2026-05-03T11:04:34Z</time></trkpt><trkpt lat="45.63735636613976" lon="8.300216131030625"><ele>444.0</ele><time>2026-05-03T11:04:36Z</time></trkpt><trkpt lat="45.637278970925266" lon="8.30018101047109"><ele>444.0</ele><time>2026-05-03T11:04:38Z</time></trkpt><trkpt lat="45.63717483622328" lon="8.300158004377938"><ele>444.0</ele><time>2026-05-03T11:04:40Z</time></trkpt><trkpt lat="45.637050657500545" lon="8.30014954146652"><ele>444.0</ele><time>2026-05-03T11:04:42Z</time></trkpt><trkpt lat="45.63694079429615" lon="8.300136884619977"><ele>441.2</ele><time>2026-05-03T11:04:44Z</time></trkpt><trkpt lat="45.63684446819649" lon="8.300118702484033"><ele>438.4</ele><time>2026-05-03T11:04:46Z</time></trkpt><trkpt lat="45.63672500730476" lon="8.300050556338558"><ele>435.6</ele><time>2026-05-03T11:04:48Z</time></trkpt><trkpt lat="45.63662049698579" lon="8.300000874994513"><ele>432.8</ele><time>2026-05-03T11:04:50Z</time></trkpt><trkpt lat="45.63654665158094" lon="8.299926273288467"><ele>430.0</ele><time>2026-05-03T11:04:52Z</time></trkpt><trkpt lat="45.63650300464976" lon="8.299838298568742"><ele>430.0</ele><time>2026-05-03T11:04:53Z</time></trkpt><trkpt lat="45.63646628851603" lon="8.299759535074767"><ele>430.0</ele><time>2026-05-03T11:04:54Z</time></trkpt><trkpt lat="45.63640169616677" lon="8.29966541362022"><ele>430.0</ele><time>2026-05-03T11:04:56Z</time></trkpt><trkpt lat="45.636282087612265" lon="8.299549208419998"><ele>430.0</ele><time>2026-05-03T11:04:58Z</time></trkpt><trkpt lat="45.63621300699293" lon="8.29947090529169"><ele>430.0</ele><time>2026-05-03T11:04:59Z</time></trkpt><trkpt lat="45.63612161860296" lon="8.299399100271042"><ele>427.6666666666667</ele><time>2026-05-03T11:05:00Z</time></trkpt><trkpt lat="45.636028303622574" lon="8.299332406909365"><ele>425.33333333333337</ele><time>2026-05-03T11:05:01Z</time></trkpt><trkpt lat="45.63595198335151" lon="8.299301907702212"><ele>423.0</ele><time>2026-05-03T11:05:02Z</time></trkpt><trkpt lat="45.63587423946971" lon="8.299316140913472"><ele>420.66666666666663</ele><time>2026-05-03T11:05:03Z</time></trkpt><trkpt lat="45.6358112221434" lon="8.299309542271027"><ele>418.3333333333333</ele><time>2026-05-03T11:05:04Z</time></trkpt><trkpt lat="45.63574877892172" lon="8.29926921999706"><ele>416.0</ele><time>2026-05-03T11:05:05Z</time></trkpt><trkpt lat="45.63569514353109" lon="8.299212308099083"><ele>416.0</ele><time>2026-05-03T11:05:06Z</time></trkpt><trkpt lat="45.635556977841446" lon="8.299186393296335"><ele>416.0</ele><time>2026-05-03T11:05:08Z</time></trkpt><trkpt lat="45.63547875887494" lon="8.299200922165701"><ele>416.0</ele><time>2026-05-03T11:05:09Z</time></trkpt><trkpt lat="45.635400113364355" lon="8.299182571568075"><ele>416.0</ele><time>2026-05-03T11:05:10Z</time></trkpt><trkpt lat="45.63528579563223" lon="8.29916106820536"><ele>416.0</ele><time>2026-05-03T11:05:11Z</time></trkpt><trkpt lat="45.63516011026585" lon="8.299093216269018"><ele>414.6</ele><time>2026-05-03T11:05:12Z</time></trkpt><trkpt lat="45.635102547115686" lon="8.299007325382602"><ele>413.20000000000005</ele><time>2026-05-03T11:05:13Z</time></trkpt><trkpt lat="45.63502474386304" lon="8.298942718147117"><ele>411.79999999999995</ele><time>2026-05-03T11:05:14Z</time></trkpt><trkpt lat="45.634915058314654" lon="8.298968611198713"><ele>410.4</ele><time>2026-05-03T11:05:16Z</time></trkpt><trkpt lat="45.634840791318176" lon="8.299029905028661"><ele>409.0</ele><time>2026-05-03T11:05:17Z</time></trkpt><trkpt lat="45.63478580723379" lon="8.2991197125803"><ele>409.00000000000006</ele><time>2026-05-03T11:05:19Z</time></trkpt><trkpt lat="45.63472312138987" lon="8.299224723968221"><ele>409.0</ele><time>2026-05-03T11:05:21Z</time></trkpt><trkpt lat="45.63465540264141" lon="8.299298114081358"><ele>409.0</ele><time>2026-05-03T11:05:23Z</time></trkpt><trkpt lat="45.63458435798142" lon="8.299341952308158"><ele>409.0</ele><time>2026-05-03T11:05:25Z</time></trkpt><trkpt lat="45.63451910003747" lon="8.299407651194185"><ele>409.00000000000006</ele><time>2026-05-03T11:05:28Z</time></trkpt><trkpt lat="45.63445637694149" lon="8.29945590856123"><ele>409.0</ele><time>2026-05-03T11:05:30Z</time></trkpt><trkpt lat="45.634367630472056" lon="8.299490810513337"><ele>407.4285714285714</ele><time>2026-05-03T11:05:32Z</time></trkpt><trkpt lat="45.634308483090685" lon="8.299420224019126"><ele>405.8571428571429</ele><time>2026-05-03T11:05:35Z</time></trkpt><trkpt lat="45.63428852272064" lon="8.299333025074016"><ele>404.2857142857143</ele><time>2026-05-03T11:05:37Z</time></trkpt><trkpt lat="45.63424887904035" lon="8.29924299551063"><ele>402.71428571428567</ele><time>2026-05-03T11:05:40Z</time></trkpt><trkpt lat="45.63422286807865" lon="8.299142154645686"><ele>401.1428571428571</ele><time>2026-05-03T11:05:42Z</time></trkpt><trkpt lat="45.63415403225881" lon="8.29911817836355"><ele>399.57142857142856</ele><time>2026-05-03T11:05:44Z</time></trkpt><trkpt lat="45.634078893936085" lon="8.299109525503043"><ele>398.0</ele><time>2026-05-03T11:05:46Z</time></trkpt><trkpt lat="45.63400041034735" lon="8.299025734192169"><ele>396.4</ele><time>2026-05-03T11:05:48Z</time></trkpt><trkpt lat="45.633942189773954" lon="8.298911205598046"><ele>394.79999999999995</ele><time>2026-05-03T11:05:50Z</time></trkpt><trkpt lat="45.63382584124146" lon="8.298884496531226"><ele>393.2</ele><time>2026-05-03T11:05:53Z</time></trkpt><trkpt lat="45.633765701735165" lon="8.298829398163479"><ele>391.6</ele><time>2026-05-03T11:05:56Z</time></trkpt><trkpt lat="45.63364947789868" lon="8.298828186502673"><ele>390.0</ele><time>2026-05-03T11:05:58Z</time></trkpt><trkpt lat="45.6335949324206" lon="8.298875294418854"><ele>388.0</ele><time>2026-05-03T11:06:08.999Z</time></trkpt><trkpt lat="45.63361289159044" lon="8.299020406281427"><ele>386.0</ele><time>2026-05-03T11:06:10.999Z</time></trkpt><trkpt lat="45.63360529347964" lon="8.299143720189662"><ele>384.0</ele><time>2026-05-03T11:06:12.999Z</time></trkpt><trkpt lat="45.63352544419624" lon="8.29922387047957"><ele>382.0</ele><time>2026-05-03T11:06:16.999Z</time></trkpt><trkpt lat="45.63341867166916" lon="8.299271477957662"><ele>380.0</ele><time>2026-05-03T11:06:18.999Z</time></trkpt><trkpt lat="45.63334725389303" lon="8.299220077487576"><ele>380.0</ele><time>2026-05-03T11:06:21.999Z</time></trkpt><trkpt lat="45.63335403827582" lon="8.299097963241197"><ele>380.0</ele><time>2026-05-03T11:06:23.999Z</time></trkpt><trkpt lat="45.63327591681961" lon="8.299080295971883"><ele>380.0</ele><time>2026-05-03T11:06:26.999Z</time></trkpt><trkpt lat="45.63329267535903" lon="8.299175336849295"><ele>380.0</ele><time>2026-05-03T11:06:28.999Z</time></trkpt><trkpt lat="45.63328440683972" lon="8.299311993720234"><ele>380.0</ele><time>2026-05-03T11:06:30.999Z</time></trkpt><trkpt lat="45.633265811566616" lon="8.2994124900398"><ele>380.0</ele><time>2026-05-03T11:06:32.999Z</time></trkpt><trkpt lat="45.633323804718394" lon="8.299569381721671"><ele>380.0</ele><time>2026-05-03T11:06:35.999Z</time></trkpt><trkpt lat="45.633382893189314" lon="8.29960903801164"><ele>380.0</ele><time>2026-05-03T11:06:39Z</time></trkpt><trkpt lat="45.633448541453845" lon="8.299581088675017"><ele>380.0</ele><time>2026-05-03T11:06:42Z</time></trkpt><trkpt lat="45.633495165673395" lon="8.299664201565882"><ele>380.0</ele><time>2026-05-03T11:06:46Z</time></trkpt><trkpt lat="45.633439126424534" lon="8.299757653673547"><ele>380.0</ele><time>2026-05-03T11:06:48Z</time></trkpt><trkpt lat="45.63336701556863" lon="8.299752751478257"><ele>380.0</ele><time>2026-05-03T11:06:50Z</time></trkpt><trkpt lat="45.63326896444329" lon="8.29975542324276"><ele>380.0</ele><time>2026-05-03T11:06:52Z</time></trkpt><trkpt lat="45.633175699360194" lon="8.299794365857013"><ele>380.0</ele><time>2026-05-03T11:06:56Z</time></trkpt><trkpt lat="45.63312520120703" lon="8.299731238871376"><ele>380.0</ele><time>2026-05-03T11:06:58Z</time></trkpt><trkpt lat="45.63306451744492" lon="8.299644477179273"><ele>380.0</ele><time>2026-05-03T11:07:00Z</time></trkpt><trkpt lat="45.63299014419398" lon="8.2996388626751"><ele>380.0</ele><time>2026-05-03T11:07:01Z</time></trkpt><trkpt lat="45.632916181542974" lon="8.299655791851588"><ele>380.0</ele><time>2026-05-03T11:07:03Z</time></trkpt><trkpt lat="45.632825438966485" lon="8.299607363604213"><ele>376.5</ele><time>2026-05-03T11:07:05Z</time></trkpt><trkpt lat="45.63275981622529" lon="8.299570021561255"><ele>373.0</ele><time>2026-05-03T11:07:06Z</time></trkpt><trkpt lat="45.632651288793426" lon="8.299554062731712"><ele>369.5</ele><time>2026-05-03T11:07:08Z</time></trkpt><trkpt lat="45.632565415725196" lon="8.299548909342263"><ele>366.0</ele><time>2026-05-03T11:07:10Z</time></trkpt><trkpt lat="45.632478431418456" lon="8.299511595072806"><ele>362.5</ele><time>2026-05-03T11:07:12Z</time></trkpt><trkpt lat="45.63242425693052" lon="8.29944944531376"><ele>359.0</ele><time>2026-05-03T11:07:13Z</time></trkpt><trkpt lat="45.63240201620882" lon="8.299365206006232"><ele>359.0</ele><time>2026-05-03T11:07:14Z</time></trkpt><trkpt lat="45.63238187367386" lon="8.299232180604546"><ele>359.0</ele><time>2026-05-03T11:07:16Z</time></trkpt><trkpt lat="45.63236285866484" lon="8.29913244730829"><ele>359.0</ele><time>2026-05-03T11:07:18Z</time></trkpt><trkpt lat="45.63234473771128" lon="8.29894677918169"><ele>359.0</ele><time>2026-05-03T11:07:20Z</time></trkpt><trkpt lat="45.63227118452073" lon="8.298848589943304"><ele>359.0</ele><time>2026-05-03T11:07:22Z</time></trkpt><trkpt lat="45.63222184651143" lon="8.298771654203613"><ele>359.0</ele><time>2026-05-03T11:07:23Z</time></trkpt><trkpt lat="45.63222118305527" lon="8.298610798323178"><ele>359.0</ele><time>2026-05-03T11:07:25Z</time></trkpt><trkpt lat="45.632218279479865" lon="8.298520516950939"><ele>359.0</ele><time>2026-05-03T11:07:26Z</time></trkpt><trkpt lat="45.632230773916234" lon="8.298365683995616"><ele>359.0</ele><time>2026-05-03T11:07:28Z</time></trkpt><trkpt lat="45.632178285848674" lon="8.298222472516722"><ele>359.0</ele><time>2026-05-03T11:07:30Z</time></trkpt><trkpt lat="45.63209574183186" lon="8.29815721871978"><ele>358.83333333333337</ele><time>2026-05-03T11:07:32Z</time></trkpt><trkpt lat="45.632079699451715" lon="8.298055490923645"><ele>358.6666666666667</ele><time>2026-05-03T11:07:33Z</time></trkpt><trkpt lat="45.63205648041083" lon="8.297915528796947"><ele>358.5</ele><time>2026-05-03T11:07:34Z</time></trkpt><trkpt lat="45.63202621887166" lon="8.297783980720764"><ele>358.3333333333333</ele><time>2026-05-03T11:07:35Z</time></trkpt><trkpt lat="45.63199684855705" lon="8.297643214815004"><ele>358.16666666666663</ele><time>2026-05-03T11:07:37Z</time></trkpt><trkpt lat="45.63198774585631" lon="8.29754833266911"><ele>358.0</ele><time>2026-05-03T11:07:38Z</time></trkpt><trkpt lat="45.63194685869523" lon="8.297410830380235"><ele>356.75</ele><time>2026-05-03T11:07:40Z</time></trkpt><trkpt lat="45.631938263441555" lon="8.297225372197476"><ele>355.5</ele><time>2026-05-03T11:07:42Z</time></trkpt><trkpt lat="45.63190449157978" lon="8.297037216007128"><ele>354.25</ele><time>2026-05-03T11:07:44Z</time></trkpt><trkpt lat="45.631808194605604" lon="8.296940012678874"><ele>353.0</ele><time>2026-05-03T11:07:46Z</time></trkpt><trkpt lat="45.63177706755755" lon="8.296811373643752"><ele>353.0</ele><time>2026-05-03T11:07:48Z</time></trkpt><trkpt lat="45.63172523795428" lon="8.2966974770821"><ele>353.0</ele><time>2026-05-03T11:07:49Z</time></trkpt><trkpt lat="45.63169095013861" lon="8.296581832855713"><ele>353.0</ele><time>2026-05-03T11:07:50Z</time></trkpt><trkpt lat="45.63166076160433" lon="8.296482223981478"><ele>353.0</ele><time>2026-05-03T11:07:51Z</time></trkpt><trkpt lat="45.63162123869201" lon="8.296372180112472"><ele>353.0</ele><time>2026-05-03T11:07:52Z</time></trkpt><trkpt lat="45.631576063297274" lon="8.296252113021255"><ele>353.0</ele><time>2026-05-03T11:07:53Z</time></trkpt><trkpt lat="45.63153902506365" lon="8.296172853389207"><ele>352.25</ele><time>2026-05-03T11:07:54Z</time></trkpt><trkpt lat="45.631473823466266" lon="8.295987211007406"><ele>351.5</ele><time>2026-05-03T11:07:56Z</time></trkpt><trkpt lat="45.63143190666612" lon="8.295806282122532"><ele>350.75</ele><time>2026-05-03T11:07:57Z</time></trkpt><trkpt lat="45.63136592460164" lon="8.295628056085816"><ele>350.0</ele><time>2026-05-03T11:07:58Z</time></trkpt><trkpt lat="45.63132420088403" lon="8.295513415870639"><ele>350.0</ele><time>2026-05-03T11:08:00Z</time></trkpt><trkpt lat="45.631280484426654" lon="8.295390562716735"><ele>350.0</ele><time>2026-05-03T11:08:02Z</time></trkpt><trkpt lat="45.631252785073514" lon="8.295247205096999"><ele>350.0</ele><time>2026-05-03T11:08:04Z</time></trkpt><trkpt lat="45.63123524455519" lon="8.29514204190633"><ele>350.0</ele><time>2026-05-03T11:08:05Z</time></trkpt><trkpt lat="45.63122453749495" lon="8.295017050484875"><ele>350.0</ele><time>2026-05-03T11:08:06Z</time></trkpt><trkpt lat="45.63120182116557" lon="8.29492093878438"><ele>350.0</ele><time>2026-05-03T11:08:07Z</time></trkpt><trkpt lat="45.63113449602669" lon="8.294873403116094"><ele>350.5</ele><time>2026-05-03T11:08:08Z</time></trkpt><trkpt lat="45.631059864914626" lon="8.294841586658418"><ele>351.0</ele><time>2026-05-03T11:08:09Z</time></trkpt><trkpt lat="45.630992150163884" lon="8.294692165931735"><ele>351.5</ele><time>2026-05-03T11:08:11Z</time></trkpt><trkpt lat="45.630903073269906" lon="8.29463124325502"><ele>352.0</ele><time>2026-05-03T11:08:13Z</time></trkpt><trkpt lat="45.63084920249052" lon="8.294706734272701"><ele>352.5</ele><time>2026-05-03T11:08:14Z</time></trkpt><trkpt lat="45.63080378499844" lon="8.29463978457415"><ele>353.0</ele><time>2026-05-03T11:08:16Z</time></trkpt><trkpt lat="45.63078352644072" lon="8.294436740406264"><ele>352.0</ele><time>2026-05-03T11:08:17.999Z</time></trkpt><trkpt lat="45.63078662999896" lon="8.294318900284479"><ele>351.0</ele><time>2026-05-03T11:08:18.999Z</time></trkpt><trkpt lat="45.6307693695371" lon="8.2941788853589"><ele>350.0</ele><time>2026-05-03T11:08:20.999Z</time></trkpt><trkpt lat="45.6306968229012" lon="8.29411341491182"><ele>349.0</ele><time>2026-05-03T11:08:21.999Z</time></trkpt><trkpt lat="45.63062576124047" lon="8.294019410038842"><ele>348.0</ele><time>2026-05-03T11:08:22.999Z</time></trkpt><trkpt lat="45.63057416494694" lon="8.293958442847758"><ele>347.0</ele><time>2026-05-03T11:08:23.999Z</time></trkpt><trkpt lat="45.630478568348884" lon="8.293922855657856"><ele>346.25</ele><time>2026-05-03T11:08:25.999Z</time></trkpt><trkpt lat="45.63036915538347" lon="8.293906547193998"><ele>345.5</ele><time>2026-05-03T11:08:27.999Z</time></trkpt><trkpt lat="45.630287311380386" lon="8.293937482843864"><ele>344.75</ele><time>2026-05-03T11:08:28.999Z</time></trkpt><trkpt lat="45.63019457469203" lon="8.293958684635472"><ele>344.0</ele><time>2026-05-03T11:08:29.999Z</time></trkpt><trkpt lat="45.63005587635745" lon="8.293803414632794"><ele>345.33333333333337</ele><time>2026-05-03T11:08:31.999Z</time></trkpt><trkpt lat="45.62996220605192" lon="8.293795991315761"><ele>346.6666666666667</ele><time>2026-05-03T11:08:32.999Z</time></trkpt><trkpt lat="45.62988011676521" lon="8.293766599056113"><ele>348.0</ele><time>2026-05-03T11:08:33.999Z</time></trkpt><trkpt lat="45.6298195739105" lon="8.293734113059761"><ele>349.3333333333333</ele><time>2026-05-03T11:08:34.999Z</time></trkpt><trkpt lat="45.62974333465147" lon="8.293728931104393"><ele>350.66666666666663</ele><time>2026-05-03T11:08:35.999Z</time></trkpt><trkpt lat="45.6296539577209" lon="8.293728891768044"><ele>352.0</ele><time>2026-05-03T11:08:36.999Z</time></trkpt><trkpt lat="45.62955701484966" lon="8.293723838712525"><ele>351.66666666666663</ele><time>2026-05-03T11:08:37.999Z</time></trkpt><trkpt lat="45.62946910054382" lon="8.293694715632048"><ele>351.3333333333333</ele><time>2026-05-03T11:08:38.999Z</time></trkpt><trkpt lat="45.62937996131043" lon="8.293680599445663"><ele>351.0</ele><time>2026-05-03T11:08:39.999Z</time></trkpt><trkpt lat="45.6293059915985" lon="8.293686420221746"><ele>350.6666666666667</ele><time>2026-05-03T11:08:40.999Z</time></trkpt><trkpt lat="45.629220067597146" lon="8.293724996232195"><ele>350.33333333333337</ele><time>2026-05-03T11:08:41.999Z</time></trkpt><trkpt lat="45.62915506924689" lon="8.293707903315788"><ele>350.0</ele><time>2026-05-03T11:08:42.999Z</time></trkpt><trkpt lat="45.62908067116085" lon="8.293675580505724"><ele>350.0</ele><time>2026-05-03T11:08:44Z</time></trkpt><trkpt lat="45.62899401213562" lon="8.293635473357089"><ele>350.0</ele><time>2026-05-03T11:08:45Z</time></trkpt><trkpt lat="45.628883447308134" lon="8.293598808203066"><ele>350.0</ele><time>2026-05-03T11:08:46Z</time></trkpt><trkpt lat="45.628781765978424" lon="8.29357469756367"><ele>350.0</ele><time>2026-05-03T11:08:47Z</time></trkpt><trkpt lat="45.62869590539969" lon="8.293586718057668"><ele>350.0</ele><time>2026-05-03T11:08:48Z</time></trkpt><trkpt lat="45.62862386790628" lon="8.293587733488117"><ele>349.5</ele><time>2026-05-03T11:08:49Z</time></trkpt><trkpt lat="45.62852635569044" lon="8.293478176410755"><ele>349.0</ele><time>2026-05-03T11:08:51Z</time></trkpt><trkpt lat="45.62847030630954" lon="8.293388882960164"><ele>348.5</ele><time>2026-05-03T11:08:52Z</time></trkpt><trkpt lat="45.62839676952501" lon="8.293359874884526"><ele>348.0</ele><time>2026-05-03T11:08:53Z</time></trkpt><trkpt lat="45.628240028146365" lon="8.293271176861888"><ele>348.0</ele><time>2026-05-03T11:08:55Z</time></trkpt><trkpt lat="45.628163783078804" lon="8.293264893795708"><ele>348.0</ele><time>2026-05-03T11:08:56Z</time></trkpt><trkpt lat="45.6280866405953" lon="8.293253321547008"><ele>348.0</ele><time>2026-05-03T11:08:58Z</time></trkpt><trkpt lat="45.62804175363266" lon="8.293177437519201"><ele>348.0</ele><time>2026-05-03T11:09:03Z</time></trkpt><trkpt lat="45.62799183799842" lon="8.293101181225955"><ele>348.0</ele><time>2026-05-03T11:09:06Z</time></trkpt><trkpt lat="45.627949584325485" lon="8.293013033709181"><ele>348.0</ele><time>2026-05-03T11:09:09Z</time></trkpt><trkpt lat="45.627894647331324" lon="8.292889425497679"><ele>348.1666666666667</ele><time>2026-05-03T11:09:34Z</time></trkpt><trkpt lat="45.62800920566209" lon="8.292767575839914"><ele>348.3333333333333</ele><time>2026-05-03T11:09:35Z</time></trkpt><trkpt lat="45.62804622683424" lon="8.292683815438876"><ele>348.5</ele><time>2026-05-03T11:09:36Z</time></trkpt><trkpt lat="45.62808448483277" lon="8.292592551094643"><ele>348.66666666666663</ele><time>2026-05-03T11:09:37Z</time></trkpt><trkpt lat="45.628132650002954" lon="8.292500646594888"><ele>348.8333333333333</ele><time>2026-05-03T11:09:38Z</time></trkpt><trkpt lat="45.628188062712084" lon="8.292438218193434"><ele>349.0</ele><time>2026-05-03T11:09:39Z</time></trkpt><trkpt lat="45.62826432072332" lon="8.2923896530243"><ele>349.0</ele><time>2026-05-03T11:09:40Z</time></trkpt><trkpt lat="45.62835970454164" lon="8.292328169759337"><ele>349.0</ele><time>2026-05-03T11:09:41Z</time></trkpt><trkpt lat="45.6284662310415" lon="8.29225814675333"><ele>349.0</ele><time>2026-05-03T11:09:42Z</time></trkpt><trkpt lat="45.62857118476706" lon="8.292174181016236"><ele>349.0</ele><time>2026-05-03T11:09:43Z</time></trkpt><trkpt lat="45.6286674556036" lon="8.292073406356478"><ele>349.25</ele><time>2026-05-03T11:09:44Z</time></trkpt><trkpt lat="45.628761693633024" lon="8.29196131275086"><ele>349.5</ele><time>2026-05-03T11:09:45Z</time></trkpt><trkpt lat="45.6288524854499" lon="8.29184367658777"><ele>349.75</ele><time>2026-05-03T11:09:46Z</time></trkpt><trkpt lat="45.6289299884497" lon="8.291720208444469"><ele>350.0</ele><time>2026-05-03T11:09:47Z</time></trkpt><trkpt lat="45.6289777040585" lon="8.291575693186626"><ele>350.0</ele><time>2026-05-03T11:09:48Z</time></trkpt><trkpt lat="45.62898486752595" lon="8.291431113855737"><ele>350.0</ele><time>2026-05-03T11:09:49Z</time></trkpt><trkpt lat="45.62896545692861" lon="8.291292916254875"><ele>350.0</ele><time>2026-05-03T11:09:50Z</time></trkpt><trkpt lat="45.6289345474592" lon="8.29116549757386"><ele>350.0</ele><time>2026-05-03T11:09:51Z</time></trkpt><trkpt lat="45.6289125561161" lon="8.29103688751376"><ele>350.0</ele><time>2026-05-03T11:09:52Z</time></trkpt><trkpt lat="45.628914144173734" lon="8.290904024400204"><ele>348.6</ele><time>2026-05-03T11:09:53Z</time></trkpt><trkpt lat="45.62893518898014" lon="8.2907871231044"><ele>347.2</ele><time>2026-05-03T11:09:54Z</time></trkpt><trkpt lat="45.62898126576438" lon="8.290714489749176"><ele>345.79999999999995</ele><time>2026-05-03T11:09:55Z</time></trkpt><trkpt lat="45.62912382255749" lon="8.29065942192427"><ele>344.4</ele><time>2026-05-03T11:09:57Z</time></trkpt><trkpt lat="45.62921244264725" lon="8.290640290880527"><ele>343.0</ele><time>2026-05-03T11:09:58Z</time></trkpt><trkpt lat="45.62932299980946" lon="8.290640513660826"><ele>343.0</ele><time>2026-05-03T11:09:59Z</time></trkpt><trkpt lat="45.62943544883019" lon="8.29064708379899"><ele>343.0</ele><time>2026-05-03T11:10:00Z</time></trkpt><trkpt lat="45.62953553648439" lon="8.290622190907351"><ele>343.0</ele><time>2026-05-03T11:10:01Z</time></trkpt><trkpt lat="45.629601626093226" lon="8.290588250773709"><ele>343.0</ele><time>2026-05-03T11:10:02Z</time></trkpt><trkpt lat="45.629668670451395" lon="8.290464797091891"><ele>343.0</ele><time>2026-05-03T11:10:03Z</time></trkpt><trkpt lat="45.62965716484591" lon="8.290321641660851"><ele>342.66666666666663</ele><time>2026-05-03T11:10:04Z</time></trkpt><trkpt lat="45.629655215868546" lon="8.2901995318734"><ele>342.3333333333333</ele><time>2026-05-03T11:10:05Z</time></trkpt><trkpt lat="45.62965357384353" lon="8.290094260248317"><ele>342.0</ele><time>2026-05-03T11:10:06Z</time></trkpt><trkpt lat="45.629652009722534" lon="8.289993983000187"><ele>341.6666666666667</ele><time>2026-05-03T11:10:07Z</time></trkpt><trkpt lat="45.629729638275734" lon="8.2898516881727"><ele>341.33333333333337</ele><time>2026-05-03T11:10:09Z</time></trkpt><trkpt lat="45.62980509699539" lon="8.289772711659458"><ele>341.0</ele><time>2026-05-03T11:10:10Z</time></trkpt><trkpt lat="45.62988695562381" lon="8.289680354028995"><ele>338.25</ele><time>2026-05-03T11:10:11Z</time></trkpt><trkpt lat="45.629950528270285" lon="8.289546167624188"><ele>335.5</ele><time>2026-05-03T11:10:12Z</time></trkpt><trkpt lat="45.629984363283704" lon="8.28938900367124"><ele>332.75</ele><time>2026-05-03T11:10:13Z</time></trkpt><trkpt lat="45.63000307078988" lon="8.28921729723536"><ele>330.0</ele><time>2026-05-03T11:10:14Z</time></trkpt><trkpt lat="45.63001792620483" lon="8.289064530439143"><ele>330.0</ele><time>2026-05-03T11:10:15Z</time></trkpt><trkpt lat="45.630041777011904" lon="8.288929209687948"><ele>330.0</ele><time>2026-05-03T11:10:16Z</time></trkpt><trkpt lat="45.630082924669374" lon="8.288814755277244"><ele>330.0</ele><time>2026-05-03T11:10:17Z</time></trkpt><trkpt lat="45.630145766756705" lon="8.28874012903434"><ele>330.0</ele><time>2026-05-03T11:10:18Z</time></trkpt><trkpt lat="45.63024207227755" lon="8.288763251387074"><ele>330.0</ele><time>2026-05-03T11:10:19Z</time></trkpt><trkpt lat="45.630332717763615" lon="8.28877573760996"><ele>329.0</ele><time>2026-05-03T11:10:20Z</time></trkpt><trkpt lat="45.63043530428747" lon="8.288817475775211"><ele>328.0</ele><time>2026-05-03T11:10:21Z</time></trkpt><trkpt lat="45.6305181793347" lon="8.288878528045696"><ele>327.0</ele><time>2026-05-03T11:10:22Z</time></trkpt><trkpt lat="45.63057116814099" lon="8.288980854060645"><ele>326.0</ele><time>2026-05-03T11:10:23Z</time></trkpt><trkpt lat="45.63058484020983" lon="8.289105051002041"><ele>325.0</ele><time>2026-05-03T11:10:24Z</time></trkpt><trkpt lat="45.6306116146924" lon="8.28923829231759"><ele>325.0</ele><time>2026-05-03T11:10:25Z</time></trkpt><trkpt lat="45.6306425456908" lon="8.28935804532866"><ele>325.0</ele><time>2026-05-03T11:10:26Z</time></trkpt><trkpt lat="45.63069261339415" lon="8.289458088612387"><ele>325.0</ele><time>2026-05-03T11:10:26.999Z</time></trkpt><trkpt lat="45.63077157511451" lon="8.28954549862593"><ele>325.0</ele><time>2026-05-03T11:10:27.999Z</time></trkpt><trkpt lat="45.63087105072919" lon="8.289578437538038"><ele>325.0</ele><time>2026-05-03T11:10:28.999Z</time></trkpt><trkpt lat="45.630980635897096" lon="8.289581841742566"><ele>325.0</ele><time>2026-05-03T11:10:29.999Z</time></trkpt><trkpt lat="45.63109258648595" lon="8.289583444067246"><ele>325.0</ele><time>2026-05-03T11:10:30.999Z</time></trkpt><trkpt lat="45.63121518736353" lon="8.28957824061183"><ele>325.0</ele><time>2026-05-03T11:10:31.999Z</time></trkpt><trkpt lat="45.63134018072736" lon="8.289564450114968"><ele>325.0</ele><time>2026-05-03T11:10:32.999Z</time></trkpt><trkpt lat="45.631462871297664" lon="8.289544633271586"><ele>324.25</ele><time>2026-05-03T11:10:33.999Z</time></trkpt><trkpt lat="45.63158308481741" lon="8.289511159303357"><ele>323.5</ele><time>2026-05-03T11:10:34.999Z</time></trkpt><trkpt lat="45.63171855754169" lon="8.289466916834927"><ele>322.75</ele><time>2026-05-03T11:10:35.999Z</time></trkpt><trkpt lat="45.631862946176064" lon="8.289421345813203"><ele>322.0</ele><time>2026-05-03T11:10:36.999Z</time></trkpt><trkpt lat="45.6319993417336" lon="8.289345700050832"><ele>322.0</ele><time>2026-05-03T11:10:37.999Z</time></trkpt><trkpt lat="45.63210902814014" lon="8.289244003702708"><ele>322.0</ele><time>2026-05-03T11:10:38.999Z</time></trkpt><trkpt lat="45.632198224161755" lon="8.289109824549923"><ele>322.0</ele><time>2026-05-03T11:10:39.999Z</time></trkpt><trkpt lat="45.63227096825779" lon="8.288941373548841"><ele>322.0</ele><time>2026-05-03T11:10:40.999Z</time></trkpt><trkpt lat="45.63231366089998" lon="8.288703489629672"><ele>320.66666666666663</ele><time>2026-05-03T11:10:41.999Z</time></trkpt><trkpt lat="45.63234810602058" lon="8.288455785918439"><ele>319.3333333333333</ele><time>2026-05-03T11:10:42.999Z</time></trkpt><trkpt lat="45.632386018797675" lon="8.288208093017293"><ele>318.0</ele><time>2026-05-03T11:10:43.999Z</time></trkpt><trkpt lat="45.63242283530241" lon="8.287982278628547"><ele>318.0</ele><time>2026-05-03T11:10:44.999Z</time></trkpt><trkpt lat="45.63244726071954" lon="8.287785105471716"><ele>318.0</ele><time>2026-05-03T11:10:45.999Z</time></trkpt><trkpt lat="45.63244658083165" lon="8.287617446100418"><ele>318.0</ele><time>2026-05-03T11:10:46.999Z</time></trkpt><trkpt lat="45.63240086496213" lon="8.287467411041685"><ele>318.0</ele><time>2026-05-03T11:10:47.999Z</time></trkpt><trkpt lat="45.63228904416329" lon="8.287337571636177"><ele>318.75</ele><time>2026-05-03T11:10:48.999Z</time></trkpt><trkpt lat="45.63216383293378" lon="8.287223982495869"><ele>319.5</ele><time>2026-05-03T11:10:50Z</time></trkpt><trkpt lat="45.632040380710414" lon="8.287081683539133"><ele>320.25</ele><time>2026-05-03T11:10:51Z</time></trkpt><trkpt lat="45.63192694341376" lon="8.28696948881748"><ele>321.0</ele><time>2026-05-03T11:10:52Z</time></trkpt><trkpt lat="45.63183356333952" lon="8.286877131608431"><ele>321.0</ele><time>2026-05-03T11:10:53Z</time></trkpt><trkpt lat="45.6317428302789" lon="8.286785748722235"><ele>321.0</ele><time>2026-05-03T11:10:54Z</time></trkpt><trkpt lat="45.63164631715175" lon="8.28669878930823"><ele>321.0</ele><time>2026-05-03T11:10:55Z</time></trkpt><trkpt lat="45.63154632840294" lon="8.286609140858499"><ele>321.0</ele><time>2026-05-03T11:10:56Z</time></trkpt><trkpt lat="45.63145219029138" lon="8.286503900790489"><ele>324.5</ele><time>2026-05-03T11:10:57Z</time></trkpt><trkpt lat="45.63133790871043" lon="8.286394358079654"><ele>328.0</ele><time>2026-05-03T11:10:58Z</time></trkpt><trkpt lat="45.631224573370076" lon="8.286270486301783"><ele>331.5</ele><time>2026-05-03T11:10:59Z</time></trkpt><trkpt lat="45.631135397717735" lon="8.286160618379906"><ele>335.0</ele><time>2026-05-03T11:11:00Z</time></trkpt><trkpt lat="45.63110139816431" lon="8.286036674088004"><ele>335.0</ele><time>2026-05-03T11:11:01Z</time></trkpt><trkpt lat="45.63108510943504" lon="8.285937339618112"><ele>335.0</ele><time>2026-05-03T11:11:02Z</time></trkpt><trkpt lat="45.63116554632356" lon="8.285822495782975"><ele>335.0</ele><time>2026-05-03T11:11:03Z</time></trkpt><trkpt lat="45.63123289200541" lon="8.285687752480174"><ele>335.0</ele><time>2026-05-03T11:11:04Z</time></trkpt><trkpt lat="45.63129703704177" lon="8.285529525365815"><ele>335.0</ele><time>2026-05-03T11:11:05Z</time></trkpt><trkpt lat="45.63135808756537" lon="8.285374190305498"><ele>336.0</ele><time>2026-05-03T11:11:06Z</time></trkpt><trkpt lat="45.63143635120373" lon="8.285242039000112"><ele>337.0</ele><time>2026-05-03T11:11:07Z</time></trkpt><trkpt lat="45.63150949391151" lon="8.285100793762428"><ele>338.0</ele><time>2026-05-03T11:11:08Z</time></trkpt><trkpt lat="45.63158284921121" lon="8.2849683038241"><ele>339.0</ele><time>2026-05-03T11:11:09Z</time></trkpt><trkpt lat="45.631645226525585" lon="8.284832124455654"><ele>340.2</ele><time>2026-05-03T11:11:10Z</time></trkpt><trkpt lat="45.63171613572675" lon="8.284713980384614"><ele>341.4</ele><time>2026-05-03T11:11:11Z</time></trkpt><trkpt lat="45.6317849880343" lon="8.284603869002447"><ele>342.6</ele><time>2026-05-03T11:11:12Z</time></trkpt><trkpt lat="45.63185447459368" lon="8.284495836142284"><ele>343.8</ele><time>2026-05-03T11:11:13Z</time></trkpt><trkpt lat="45.631922434558575" lon="8.284390414529334"><ele>345.0</ele><time>2026-05-03T11:11:14Z</time></trkpt><trkpt lat="45.63199352813496" lon="8.284283668104951"><ele>345.6</ele><time>2026-05-03T11:11:15Z</time></trkpt><trkpt lat="45.63207566118496" lon="8.28418390263183"><ele>346.2</ele><time>2026-05-03T11:11:16Z</time></trkpt><trkpt lat="45.63217205311686" lon="8.284100061992747"><ele>346.79999999999995</ele><time>2026-05-03T11:11:17Z</time></trkpt><trkpt lat="45.63226749105478" lon="8.284045455752832"><ele>347.4</ele><time>2026-05-03T11:11:18Z</time></trkpt><trkpt lat="45.63234644338655" lon="8.284001268506545"><ele>348.0</ele><time>2026-05-03T11:11:19Z</time></trkpt><trkpt lat="45.6323977378292" lon="8.283912708086289"><ele>348.0</ele><time>2026-05-03T11:11:20Z</time></trkpt><trkpt lat="45.63241818388308" lon="8.283771724288139"><ele>348.0</ele><time>2026-05-03T11:11:21Z</time></trkpt><trkpt lat="45.63240731639811" lon="8.283599745637202"><ele>348.0</ele><time>2026-05-03T11:11:22Z</time></trkpt><trkpt lat="45.63241120048691" lon="8.28342858533341"><ele>348.0</ele><time>2026-05-03T11:11:23Z</time></trkpt><trkpt lat="45.63242623897936" lon="8.28326462596843"><ele>348.0</ele><time>2026-05-03T11:11:24Z</time></trkpt><trkpt lat="45.63244218592001" lon="8.28310575688034"><ele>348.0</ele><time>2026-05-03T11:11:25Z</time></trkpt><trkpt lat="45.632447221308176" lon="8.282957543353227"><ele>348.0</ele><time>2026-05-03T11:11:26Z</time></trkpt><trkpt lat="45.63243716682736" lon="8.282836754903954"><ele>348.0</ele><time>2026-05-03T11:11:27Z</time></trkpt><trkpt lat="45.63239596904987" lon="8.282751610048178"><ele>348.0</ele><time>2026-05-03T11:11:28Z</time></trkpt><trkpt lat="45.632322602726894" lon="8.28272871072307"><ele>348.0</ele><time>2026-05-03T11:11:29Z</time></trkpt><trkpt lat="45.632234464668294" lon="8.282779458314243"><ele>348.4</ele><time>2026-05-03T11:11:30Z</time></trkpt><trkpt lat="45.63215159691359" lon="8.28287881395145"><ele>348.79999999999995</ele><time>2026-05-03T11:11:31Z</time></trkpt><trkpt lat="45.63206956745643" lon="8.282999022571566"><ele>349.2</ele><time>2026-05-03T11:11:32Z</time></trkpt><trkpt lat="45.6319868267034" lon="8.283086487079357"><ele>349.6</ele><time>2026-05-03T11:11:33Z</time></trkpt><trkpt lat="45.6319124184481" lon="8.283109833184302"><ele>350.0</ele><time>2026-05-03T11:11:34Z</time></trkpt><trkpt lat="45.63185195707338" lon="8.283083438540327"><ele>350.4</ele><time>2026-05-03T11:11:35Z</time></trkpt><trkpt lat="45.63181879279225" lon="8.282916893979094"><ele>350.8</ele><time>2026-05-03T11:11:37Z</time></trkpt><trkpt lat="45.6318739696856" lon="8.282821510642687"><ele>351.20000000000005</ele><time>2026-05-03T11:11:38Z</time></trkpt><trkpt lat="45.63195356541601" lon="8.28275904591913"><ele>351.6</ele><time>2026-05-03T11:11:39Z</time></trkpt><trkpt lat="45.6320258936485" lon="8.282692984269127"><ele>352.0</ele><time>2026-05-03T11:11:40Z</time></trkpt><trkpt lat="45.63210765615695" lon="8.282603867309215"><ele>352.0</ele><time>2026-05-03T11:11:41Z</time></trkpt><trkpt lat="45.632185373844" lon="8.282506585607049"><ele>352.0</ele><time>2026-05-03T11:11:42Z</time></trkpt><trkpt lat="45.632280940884" lon="8.282401094562843"><ele>352.0</ele><time>2026-05-03T11:11:43Z</time></trkpt><trkpt lat="45.63238563918134" lon="8.282292994106836"><ele>352.0</ele><time>2026-05-03T11:11:44Z</time></trkpt><trkpt lat="45.63248896353514" lon="8.282180701724648"><ele>353.0</ele><time>2026-05-03T11:11:45Z</time></trkpt><trkpt lat="45.63259711227047" lon="8.282057554739982"><ele>354.0</ele><time>2026-05-03T11:11:46Z</time></trkpt><trkpt lat="45.632703339166746" lon="8.281944793965543"><ele>355.0</ele><time>2026-05-03T11:11:47Z</time></trkpt><trkpt lat="45.63278732776687" lon="8.281853706466991"><ele>356.0</ele><time>2026-05-03T11:11:48Z</time></trkpt><trkpt lat="45.63286258102194" lon="8.281754221723219"><ele>356.0</ele><time>2026-05-03T11:11:49Z</time></trkpt><trkpt lat="45.6329395433648" lon="8.28164987611147"><ele>356.0</ele><time>2026-05-03T11:11:50Z</time></trkpt><trkpt lat="45.63303385374663" lon="8.28158441306444"><ele>356.0</ele><time>2026-05-03T11:11:51Z</time></trkpt><trkpt lat="45.63314947821627" lon="8.281561912724465"><ele>356.0</ele><time>2026-05-03T11:11:52Z</time></trkpt><trkpt lat="45.633278485638414" lon="8.281559860864832"><ele>356.0</ele><time>2026-05-03T11:11:53Z</time></trkpt><trkpt lat="45.63341507457006" lon="8.281582944370244"><ele>356.0</ele><time>2026-05-03T11:11:54Z</time></trkpt><trkpt lat="45.63356326380803" lon="8.281669673567519"><ele>356.0</ele><time>2026-05-03T11:11:55Z</time></trkpt><trkpt lat="45.633715149357194" lon="8.281759121386353"><ele>354.5</ele><time>2026-05-03T11:11:56Z</time></trkpt><trkpt lat="45.63386518068224" lon="8.281833990730085"><ele>353.0</ele><time>2026-05-03T11:11:57Z</time></trkpt><trkpt lat="45.634004361783745" lon="8.281904347207913"><ele>351.5</ele><time>2026-05-03T11:11:58Z</time></trkpt><trkpt lat="45.63412894344076" lon="8.281965115171099"><ele>350.0</ele><time>2026-05-03T11:11:59Z</time></trkpt><trkpt lat="45.634254865052114" lon="8.282022276383062"><ele>350.0</ele><time>2026-05-03T11:12:00Z</time></trkpt><trkpt lat="45.634387492013964" lon="8.282063638454778"><ele>350.0</ele><time>2026-05-03T11:12:01Z</time></trkpt><trkpt lat="45.634522884828634" lon="8.28208254619969"><ele>350.0</ele><time>2026-05-03T11:12:02Z</time></trkpt><trkpt lat="45.634669286031794" lon="8.282077276656459"><ele>350.0</ele><time>2026-05-03T11:12:03Z</time></trkpt><trkpt lat="45.63481839037515" lon="8.282056752255402"><ele>352.0</ele><time>2026-05-03T11:12:04Z</time></trkpt><trkpt lat="45.63497063977066" lon="8.282004233563494"><ele>354.0</ele><time>2026-05-03T11:12:05Z</time></trkpt><trkpt lat="45.63512733849643" lon="8.281951618432293"><ele>356.0</ele><time>2026-05-03T11:12:06Z</time></trkpt><trkpt lat="45.63527366552309" lon="8.281908737305681"><ele>358.33333333333337</ele><time>2026-05-03T11:12:07Z</time></trkpt><trkpt lat="45.635419066718434" lon="8.281866204478112"><ele>360.6666666666667</ele><time>2026-05-03T11:12:08Z</time></trkpt><trkpt lat="45.63557049399638" lon="8.281808371738768"><ele>363.0</ele><time>2026-05-03T11:12:09Z</time></trkpt><trkpt lat="45.6357232532785" lon="8.28173621302339"><ele>363.0</ele><time>2026-05-03T11:12:10Z</time></trkpt><trkpt lat="45.635887797809" lon="8.281664486807042"><ele>363.0</ele><time>2026-05-03T11:12:11Z</time></trkpt><trkpt lat="45.63604562723579" lon="8.281590091641222"><ele>363.0</ele><time>2026-05-03T11:12:12Z</time></trkpt><trkpt lat="45.63620473735875" lon="8.281520590059454"><ele>363.5</ele><time>2026-05-03T11:12:13Z</time></trkpt><trkpt lat="45.6363522495813" lon="8.281466189513488"><ele>364.0</ele><time>2026-05-03T11:12:14Z</time></trkpt><trkpt lat="45.63648713893499" lon="8.281434889516996"><ele>364.5</ele><time>2026-05-03T11:12:15Z</time></trkpt><trkpt lat="45.636603183487125" lon="8.281412478754936"><ele>365.0</ele><time>2026-05-03T11:12:16Z</time></trkpt><trkpt lat="45.63671489243152" lon="8.281373313010716"><ele>365.0</ele><time>2026-05-03T11:12:17Z</time></trkpt><trkpt lat="45.63682641192089" lon="8.281311206374015"><ele>365.0</ele><time>2026-05-03T11:12:18Z</time></trkpt><trkpt lat="45.63694525410373" lon="8.281233450197908"><ele>365.0</ele><time>2026-05-03T11:12:19Z</time></trkpt><trkpt lat="45.63707795571914" lon="8.281180440735257"><ele>365.0</ele><time>2026-05-03T11:12:20Z</time></trkpt><trkpt lat="45.63720903828658" lon="8.281105508552486"><ele>365.75</ele><time>2026-05-03T11:12:21Z</time></trkpt><trkpt lat="45.637335287034816" lon="8.281004514530276"><ele>366.5</ele><time>2026-05-03T11:12:22Z</time></trkpt><trkpt lat="45.63745895040936" lon="8.280907770447914"><ele>367.25</ele><time>2026-05-03T11:12:23Z</time></trkpt><trkpt lat="45.63755967882676" lon="8.280774615667042"><ele>368.0</ele><time>2026-05-03T11:12:24Z</time></trkpt><trkpt lat="45.63764426594388" lon="8.28062841734167"><ele>366.75</ele><time>2026-05-03T11:12:25Z</time></trkpt><trkpt lat="45.63773191765916" lon="8.2804718158662"><ele>365.5</ele><time>2026-05-03T11:12:26Z</time></trkpt><trkpt lat="45.637835063623776" lon="8.280340766183922"><ele>364.25</ele><time>2026-05-03T11:12:27Z</time></trkpt><trkpt lat="45.63794447208511" lon="8.280217464700087"><ele>363.0</ele><time>2026-05-03T11:12:28Z</time></trkpt><trkpt lat="45.63806260253563" lon="8.280098045420116"><ele>365.0</ele><time>2026-05-03T11:12:29Z</time></trkpt><trkpt lat="45.63817211960153" lon="8.279963355387393"><ele>367.0</ele><time>2026-05-03T11:12:30Z</time></trkpt><trkpt lat="45.63828554795064" lon="8.279829232497857"><ele>369.0</ele><time>2026-05-03T11:12:31Z</time></trkpt><trkpt lat="45.63838782956084" lon="8.279674165491889"><ele>371.0</ele><time>2026-05-03T11:12:32Z</time></trkpt><trkpt lat="45.63850103499182" lon="8.279514236278887"><ele>371.0</ele><time>2026-05-03T11:12:33Z</time></trkpt><trkpt lat="45.63861999617818" lon="8.279362273108713"><ele>371.0</ele><time>2026-05-03T11:12:34Z</time></trkpt><trkpt lat="45.638737087999814" lon="8.279221530301752"><ele>371.0</ele><time>2026-05-03T11:12:34.999Z</time></trkpt><trkpt lat="45.63884762739485" lon="8.2791071949389"><ele>371.0</ele><time>2026-05-03T11:12:35.999Z</time></trkpt><trkpt lat="45.63896568112594" lon="8.279032996667945"><ele>372.25</ele><time>2026-05-03T11:12:36.999Z</time></trkpt><trkpt lat="45.63906885550096" lon="8.278932181593099"><ele>373.5</ele><time>2026-05-03T11:12:37.999Z</time></trkpt><trkpt lat="45.63919738084457" lon="8.278872750765963"><ele>374.75</ele><time>2026-05-03T11:12:38.999Z</time></trkpt><trkpt lat="45.639324547616454" lon="8.27877348150805"><ele>376.0</ele><time>2026-05-03T11:12:39.999Z</time></trkpt><trkpt lat="45.63946818062725" lon="8.27872266817813"><ele>376.25</ele><time>2026-05-03T11:12:40.999Z</time></trkpt><trkpt lat="45.63958812264372" lon="8.278651012604755"><ele>376.5</ele><time>2026-05-03T11:12:41.999Z</time></trkpt><trkpt lat="45.639708967291995" lon="8.278638357399196"><ele>376.75</ele><time>2026-05-03T11:12:42.999Z</time></trkpt><trkpt lat="45.63981784044369" lon="8.27865623138359"><ele>377.0</ele><time>2026-05-03T11:12:43.999Z</time></trkpt><trkpt lat="45.639906244519956" lon="8.27871743540369"><ele>377.0</ele><time>2026-05-03T11:12:44.999Z</time></trkpt><trkpt lat="45.64001201483094" lon="8.278749502116911"><ele>377.0</ele><time>2026-05-03T11:12:45.999Z</time></trkpt><trkpt lat="45.640116320151684" lon="8.278792492079882"><ele>377.0</ele><time>2026-05-03T11:12:46.999Z</time></trkpt><trkpt lat="45.640227367610485" lon="8.278793377467274"><ele>377.0</ele><time>2026-05-03T11:12:47.999Z</time></trkpt><trkpt lat="45.64033812801097" lon="8.278746065931614"><ele>377.0</ele><time>2026-05-03T11:12:48.999Z</time></trkpt><trkpt lat="45.64043928420973" lon="8.27864798303247"><ele>377.0</ele><time>2026-05-03T11:12:49.999Z</time></trkpt><trkpt lat="45.640539647321475" lon="8.278506714762361"><ele>377.0</ele><time>2026-05-03T11:12:50.999Z</time></trkpt><trkpt lat="45.64067562635631" lon="8.278421730996945"><ele>377.0</ele><time>2026-05-03T11:12:51.999Z</time></trkpt><trkpt lat="45.640821798494265" lon="8.278342360191155"><ele>377.0</ele><time>2026-05-03T11:12:52.999Z</time></trkpt><trkpt lat="45.640976163799834" lon="8.278263772864667"><ele>376.6666666666667</ele><time>2026-05-03T11:12:53.999Z</time></trkpt><trkpt lat="45.64113539801459" lon="8.278188300029848"><ele>376.3333333333333</ele><time>2026-05-03T11:12:54.999Z</time></trkpt><trkpt lat="45.641306796378416" lon="8.278107061731605"><ele>376.0</ele><time>2026-05-03T11:12:56Z</time></trkpt><trkpt lat="45.64145392743126" lon="8.278013447913237"><ele>376.0</ele><time>2026-05-03T11:12:57Z</time></trkpt><trkpt lat="45.64159590148335" lon="8.277949602340055"><ele>376.0</ele><time>2026-05-03T11:12:58Z</time></trkpt><trkpt lat="45.641735263747854" lon="8.277907823876081"><ele>376.0</ele><time>2026-05-03T11:12:59Z</time></trkpt><trkpt lat="45.641870228296774" lon="8.277844387937897"><ele>376.0</ele><time>2026-05-03T11:13:00Z</time></trkpt><trkpt lat="45.642007351833456" lon="8.27778133972148"><ele>376.75</ele><time>2026-05-03T11:13:01Z</time></trkpt><trkpt lat="45.642136521932066" lon="8.277746575144633"><ele>377.5</ele><time>2026-05-03T11:13:02Z</time></trkpt><trkpt lat="45.642256128971354" lon="8.277716340873795"><ele>378.25</ele><time>2026-05-03T11:13:03Z</time></trkpt><trkpt lat="45.642375248393385" lon="8.277709529131673"><ele>379.0</ele><time>2026-05-03T11:13:04Z</time></trkpt><trkpt lat="45.64248095424303" lon="8.277687500974437"><ele>379.0</ele><time>2026-05-03T11:13:05Z</time></trkpt><trkpt lat="45.64258674936084" lon="8.277616269466725"><ele>379.0</ele><time>2026-05-03T11:13:06Z</time></trkpt><trkpt lat="45.6426910377091" lon="8.277503980551565"><ele>379.0</ele><time>2026-05-03T11:13:07Z</time></trkpt><trkpt lat="45.64278994919191" lon="8.2773791710248"><ele>379.0</ele><time>2026-05-03T11:13:08Z</time></trkpt><trkpt lat="45.64288684705858" lon="8.27726434548676"><ele>380.75</ele><time>2026-05-03T11:13:09Z</time></trkpt><trkpt lat="45.6429908921129" lon="8.27715844624113"><ele>382.5</ele><time>2026-05-03T11:13:10Z</time></trkpt><trkpt lat="45.64309505882044" lon="8.27704452165281"><ele>384.25</ele><time>2026-05-03T11:13:11Z</time></trkpt><trkpt lat="45.643203137793996" lon="8.276932916837248"><ele>386.0</ele><time>2026-05-03T11:13:12Z</time></trkpt><trkpt lat="45.64331206763872" lon="8.276824811834008"><ele>386.0</ele><time>2026-05-03T11:13:13Z</time></trkpt><trkpt lat="45.64341863104921" lon="8.27671805783501"><ele>386.0</ele><time>2026-05-03T11:13:14Z</time></trkpt><trkpt lat="45.64352969496641" lon="8.2766026175659"><ele>386.0</ele><time>2026-05-03T11:13:15Z</time></trkpt><trkpt lat="45.64363541062102" lon="8.276478236739033"><ele>386.0</ele><time>2026-05-03T11:13:16Z</time></trkpt><trkpt lat="45.64373718224023" lon="8.276360261721603"><ele>385.75</ele><time>2026-05-03T11:13:17Z</time></trkpt><trkpt lat="45.6438454257524" lon="8.27627214972767"><ele>385.5</ele><time>2026-05-03T11:13:18Z</time></trkpt><trkpt lat="45.643951858135246" lon="8.276189932186167"><ele>385.25</ele><time>2026-05-03T11:13:19Z</time></trkpt><trkpt lat="45.64406210790907" lon="8.276096962392497"><ele>385.0</ele><time>2026-05-03T11:13:20Z</time></trkpt><trkpt lat="45.64417617111791" lon="8.276040019963116"><ele>385.0</ele><time>2026-05-03T11:13:21Z</time></trkpt><trkpt lat="45.6442751743359" lon="8.275975507826933"><ele>385.0</ele><time>2026-05-03T11:13:22Z</time></trkpt><trkpt lat="45.64437605084197" lon="8.27592049182995"><ele>385.0</ele><time>2026-05-03T11:13:23Z</time></trkpt><trkpt lat="45.64448118111465" lon="8.275865039746494"><ele>385.0</ele><time>2026-05-03T11:13:24Z</time></trkpt><trkpt lat="45.644600421626905" lon="8.275816491628238"><ele>385.2</ele><time>2026-05-03T11:13:25Z</time></trkpt><trkpt lat="45.6447161751435" lon="8.2757613349992"><ele>385.4</ele><time>2026-05-03T11:13:26Z</time></trkpt><trkpt lat="45.64482151829069" lon="8.27570295332053"><ele>385.6</ele><time>2026-05-03T11:13:27Z</time></trkpt><trkpt lat="45.644918521722325" lon="8.275644472439161"><ele>385.8</ele><time>2026-05-03T11:13:28Z</time></trkpt><trkpt lat="45.645010030530585" lon="8.275607438159037"><ele>386.0</ele><time>2026-05-03T11:13:29Z</time></trkpt><trkpt lat="45.64509493388666" lon="8.275571212301099"><ele>384.0</ele><time>2026-05-03T11:13:30Z</time></trkpt><trkpt lat="45.64518107259335" lon="8.275542266801715"><ele>382.0</ele><time>2026-05-03T11:13:31Z</time></trkpt><trkpt lat="45.645269441085304" lon="8.275515006981156"><ele>380.0</ele><time>2026-05-03T11:13:32Z</time></trkpt><trkpt lat="45.64535910765827" lon="8.275495845771312"><ele>378.0</ele><time>2026-05-03T11:13:33Z</time></trkpt><trkpt lat="45.64546157912566" lon="8.275472174019887"><ele>376.0</ele><time>2026-05-03T11:13:34Z</time></trkpt><trkpt lat="45.64557260997473" lon="8.27546060987234"><ele>375.75</ele><time>2026-05-03T11:13:35Z</time></trkpt><trkpt lat="45.64568844158382" lon="8.275454857058783"><ele>375.5</ele><time>2026-05-03T11:13:36Z</time></trkpt><trkpt lat="45.645801571982624" lon="8.275442001525379"><ele>375.25</ele><time>2026-05-03T11:13:37Z</time></trkpt><trkpt lat="45.645920064247974" lon="8.275391885446286"><ele>375.0</ele><time>2026-05-03T11:13:38Z</time></trkpt><trkpt lat="45.646025181504925" lon="8.275317371499346"><ele>375.0</ele><time>2026-05-03T11:13:39Z</time></trkpt><trkpt lat="45.646126610633274" lon="8.275228788498527"><ele>375.0</ele><time>2026-05-03T11:13:40Z</time></trkpt><trkpt lat="45.646248942212885" lon="8.27512946534334"><ele>375.0</ele><time>2026-05-03T11:13:41Z</time></trkpt><trkpt lat="45.64639454524187" lon="8.275029544640322"><ele>375.0</ele><time>2026-05-03T11:13:42Z</time></trkpt><trkpt lat="45.6465019923147" lon="8.274955108201803"><ele>374.8</ele><time>2026-05-03T11:13:43Z</time></trkpt><trkpt lat="45.646607670958296" lon="8.274879641710566"><ele>374.6</ele><time>2026-05-03T11:13:44Z</time></trkpt><trkpt lat="45.646704781972105" lon="8.274806691352412"><ele>374.4</ele><time>2026-05-03T11:13:45Z</time></trkpt><trkpt lat="45.646796290290055" lon="8.274737517756217"><ele>374.2</ele><time>2026-05-03T11:13:46Z</time></trkpt><trkpt lat="45.64688927975203" lon="8.274712403873309"><ele>374.0</ele><time>2026-05-03T11:13:47Z</time></trkpt><trkpt lat="45.646976599906516" lon="8.274719976813891"><ele>374.0</ele><time>2026-05-03T11:13:48Z</time></trkpt><trkpt lat="45.647033183833" lon="8.274828501170006"><ele>374.0</ele><time>2026-05-03T11:13:49Z</time></trkpt><trkpt lat="45.64712711904983" lon="8.274939995301914"><ele>374.0</ele><time>2026-05-03T11:13:50Z</time></trkpt><trkpt lat="45.64723475931482" lon="8.275049851762622"><ele>374.0</ele><time>2026-05-03T11:13:51Z</time></trkpt><trkpt lat="45.647326496697424" lon="8.275152692612316"><ele>374.0</ele><time>2026-05-03T11:13:52Z</time></trkpt><trkpt lat="45.64741485171806" lon="8.275243608215211"><ele>374.0</ele><time>2026-05-03T11:13:53Z</time></trkpt><trkpt lat="45.64751017014202" lon="8.275348351174484"><ele>374.0</ele><time>2026-05-03T11:13:54Z</time></trkpt><trkpt lat="45.64761186666087" lon="8.275456206815619"><ele>374.0</ele><time>2026-05-03T11:13:55Z</time></trkpt><trkpt lat="45.64771992133586" lon="8.275542981794889"><ele>374.2</ele><time>2026-05-03T11:13:56Z</time></trkpt><trkpt lat="45.647836227270666" lon="8.275601634016756"><ele>374.4</ele><time>2026-05-03T11:13:57Z</time></trkpt><trkpt lat="45.647953010849186" lon="8.27563194807675"><ele>374.6</ele><time>2026-05-03T11:13:58Z</time></trkpt><trkpt lat="45.64803745814582" lon="8.27564125079696"><ele>374.8</ele><time>2026-05-03T11:13:59Z</time></trkpt><trkpt lat="45.64811358890081" lon="8.275658619293406"><ele>375.0</ele><time>2026-05-03T11:14:00Z</time></trkpt><trkpt lat="45.648181573328436" lon="8.27567917502926"><ele>375.0</ele><time>2026-05-03T11:14:01Z</time></trkpt><trkpt lat="45.648256645916874" lon="8.275695010224615"><ele>375.0</ele><time>2026-05-03T11:14:02Z</time></trkpt><trkpt lat="45.648340983356704" lon="8.275709281850578"><ele>375.0</ele><time>2026-05-03T11:14:03Z</time></trkpt><trkpt lat="45.64843778496859" lon="8.275723708258862"><ele>375.0</ele><time>2026-05-03T11:14:04Z</time></trkpt><trkpt lat="45.64853759699391" lon="8.275729448425926"><ele>375.0</ele><time>2026-05-03T11:14:05Z</time></trkpt><trkpt lat="45.6486407096084" lon="8.275752177207572"><ele>375.2</ele><time>2026-05-03T11:14:06Z</time></trkpt><trkpt lat="45.648728626520835" lon="8.275776106398428"><ele>375.4</ele><time>2026-05-03T11:14:07Z</time></trkpt><trkpt lat="45.64881328416055" lon="8.27580629405878"><ele>375.6</ele><time>2026-05-03T11:14:09Z</time></trkpt><trkpt lat="45.648916462703895" lon="8.27580739982495"><ele>375.8</ele><time>2026-05-03T11:20:39.999Z</time></trkpt><trkpt lat="45.648998626015846" lon="8.275834491917974"><ele>376.0</ele><time>2026-05-03T11:20:41.999Z</time></trkpt><trkpt lat="45.64903964260326" lon="8.275658002392811"><ele>375.66666666666663</ele><time>2026-05-03T11:20:42.999Z</time></trkpt><trkpt lat="45.649063244721845" lon="8.275567652677655"><ele>375.3333333333333</ele><time>2026-05-03T11:20:43.999Z</time></trkpt><trkpt lat="45.64906850132454" lon="8.275477120785636"><ele>375.0</ele><time>2026-05-03T11:20:44.999Z</time></trkpt><trkpt lat="45.64905295241317" lon="8.275312653759046"><ele>374.6666666666667</ele><time>2026-05-03T11:20:46.999Z</time></trkpt><trkpt lat="45.64904567356391" lon="8.275204672254462"><ele>374.33333333333337</ele><time>2026-05-03T11:20:47.999Z</time></trkpt><trkpt lat="45.6490544832919" lon="8.275085893578385"><ele>374.0</ele><time>2026-05-03T11:20:48.999Z</time></trkpt><trkpt lat="45.649077640720016" lon="8.274973860694248"><ele>374.0</ele><time>2026-05-03T11:20:49.999Z</time></trkpt><trkpt lat="45.64910386143478" lon="8.274884061859236"><ele>374.0</ele><time>2026-05-03T11:20:50.999Z</time></trkpt><trkpt lat="45.64913324147312" lon="8.2747974787538"><ele>374.0</ele><time>2026-05-03T11:20:51.999Z</time></trkpt><trkpt lat="45.64916625437345" lon="8.274687871408952"><ele>374.0</ele><time>2026-05-03T11:20:52.999Z</time></trkpt><trkpt lat="45.64920390966841" lon="8.274569181319574"><ele>374.0</ele><time>2026-05-03T11:20:53.999Z</time></trkpt><trkpt lat="45.64924474223881" lon="8.274434212489279"><ele>374.0</ele><time>2026-05-03T11:20:54.999Z</time></trkpt><trkpt lat="45.649284478621276" lon="8.27429046112837"><ele>374.75</ele><time>2026-05-03T11:20:55.999Z</time></trkpt><trkpt lat="45.64932442856342" lon="8.274137157824624"><ele>375.5</ele><time>2026-05-03T11:20:56.999Z</time></trkpt><trkpt lat="45.649370197444746" lon="8.273972220534988"><ele>376.25</ele><time>2026-05-03T11:20:57.999Z</time></trkpt><trkpt lat="45.649418840994656" lon="8.273797906199226"><ele>377.0</ele><time>2026-05-03T11:20:58.999Z</time></trkpt><trkpt lat="45.64947215751723" lon="8.27360323794333"><ele>379.5</ele><time>2026-05-03T11:20:59.999Z</time></trkpt><trkpt lat="45.64952306912386" lon="8.273406072904741"><ele>382.0</ele><time>2026-05-03T11:21:00.999Z</time></trkpt><trkpt lat="45.64957977235918" lon="8.27321671940602"><ele>384.5</ele><time>2026-05-03T11:21:01.999Z</time></trkpt><trkpt lat="45.64962857425502" lon="8.273015309592433"><ele>387.0</ele><time>2026-05-03T11:21:02.999Z</time></trkpt><trkpt lat="45.649680684193505" lon="8.272819900971713"><ele>387.0</ele><time>2026-05-03T11:21:03.999Z</time></trkpt><trkpt lat="45.64973617524696" lon="8.272621562027737"><ele>387.0</ele><time>2026-05-03T11:21:04.999Z</time></trkpt><trkpt lat="45.64978656860914" lon="8.272426088130972"><ele>387.0</ele><time>2026-05-03T11:21:05.999Z</time></trkpt><trkpt lat="45.649844433972945" lon="8.272232584427657"><ele>387.0</ele><time>2026-05-03T11:21:06.999Z</time></trkpt><trkpt lat="45.649896874873576" lon="8.272036978757159"><ele>387.25</ele><time>2026-05-03T11:21:07.999Z</time></trkpt><trkpt lat="45.649948362233225" lon="8.271844760609012"><ele>387.5</ele><time>2026-05-03T11:21:08.999Z</time></trkpt><trkpt lat="45.65000521810508" lon="8.271649663716062"><ele>387.75</ele><time>2026-05-03T11:21:09.999Z</time></trkpt><trkpt lat="45.650063642617425" lon="8.271457118107072"><ele>388.0</ele><time>2026-05-03T11:21:10.999Z</time></trkpt><trkpt lat="45.65012764645249" lon="8.271260240083514"><ele>388.6666666666667</ele><time>2026-05-03T11:21:11.999Z</time></trkpt><trkpt lat="45.65020467649676" lon="8.271060589058832"><ele>389.33333333333337</ele><time>2026-05-03T11:21:12.999Z</time></trkpt><trkpt lat="45.65029247005516" lon="8.270852620107027"><ele>390.0</ele><time>2026-05-03T11:21:13.999Z</time></trkpt><trkpt lat="45.650362528911025" lon="8.270636659188634"><ele>392.33333333333337</ele><time>2026-05-03T11:21:14.999Z</time></trkpt><trkpt lat="45.6504267773596" lon="8.270405939231964"><ele>394.6666666666667</ele><time>2026-05-03T11:21:15.999Z</time></trkpt><trkpt lat="45.65049770005278" lon="8.270150831664383"><ele>397.0</ele><time>2026-05-03T11:21:16.999Z</time></trkpt><trkpt lat="45.650564719572166" lon="8.269908602644854"><ele>397.0</ele><time>2026-05-03T11:21:17.999Z</time></trkpt><trkpt lat="45.65051954261746" lon="8.269824664600863"><ele>397.0</ele><time>2026-05-03T11:21:18.999Z</time></trkpt><trkpt lat="45.65057993640076" lon="8.269615063429734"><ele>397.0</ele><time>2026-05-03T11:21:20Z</time></trkpt><trkpt lat="45.650639377536805" lon="8.269397790230157"><ele>397.0</ele><time>2026-05-03T11:21:21Z</time></trkpt><trkpt lat="45.6507007363388" lon="8.269182395773228"><ele>395.6666666666667</ele><time>2026-05-03T11:21:22Z</time></trkpt><trkpt lat="45.650764292873376" lon="8.268965312880768"><ele>394.33333333333337</ele><time>2026-05-03T11:21:23Z</time></trkpt><trkpt lat="45.65082322472248" lon="8.268744713397561"><ele>393.0</ele><time>2026-05-03T11:21:24Z</time></trkpt><trkpt lat="45.650882025171654" lon="8.26852201578429"><ele>393.0</ele><time>2026-05-03T11:21:25Z</time></trkpt><trkpt lat="45.65094297269327" lon="8.268304806324682"><ele>393.0</ele><time>2026-05-03T11:21:26Z</time></trkpt><trkpt lat="45.65100299859522" lon="8.26808826261202"><ele>393.0</ele><time>2026-05-03T11:21:27Z</time></trkpt><trkpt lat="45.651063523628714" lon="8.26787259443496"><ele>393.0</ele><time>2026-05-03T11:21:28Z</time></trkpt><trkpt lat="45.65112093926699" lon="8.26766072335115"><ele>393.0</ele><time>2026-05-03T11:21:29Z</time></trkpt><trkpt lat="45.65117369766505" lon="8.267449762562848"><ele>393.0</ele><time>2026-05-03T11:21:30Z</time></trkpt><trkpt lat="45.65123790311911" lon="8.267248721481552"><ele>396.33333333333337</ele><time>2026-05-03T11:21:31Z</time></trkpt><trkpt lat="45.65130871103394" lon="8.26705286167185"><ele>399.6666666666667</ele><time>2026-05-03T11:21:32Z</time></trkpt><trkpt lat="45.651384380700364" lon="8.266867868703562"><ele>403.0</ele><time>2026-05-03T11:21:33Z</time></trkpt><trkpt lat="45.65148932321482" lon="8.266710475705136"><ele>403.0</ele><time>2026-05-03T11:21:34Z</time></trkpt><trkpt lat="45.651598871399536" lon="8.26654127557941"><ele>403.0</ele><time>2026-05-03T11:21:35Z</time></trkpt><trkpt lat="45.65172696183501" lon="8.266429398378069"><ele>403.0</ele><time>2026-05-03T11:21:36Z</time></trkpt><trkpt lat="45.651865048132954" lon="8.266308247924727"><ele>401.0</ele><time>2026-05-03T11:21:37Z</time></trkpt><trkpt lat="45.65202263837824" lon="8.266210815985968"><ele>399.0</ele><time>2026-05-03T11:21:38Z</time></trkpt><trkpt lat="45.652194156220844" lon="8.26613858359813"><ele>397.0</ele><time>2026-05-03T11:21:39Z</time></trkpt><trkpt lat="45.652377700761335" lon="8.266097307348268"><ele>397.0</ele><time>2026-05-03T11:21:40Z</time></trkpt><trkpt lat="45.65256540570705" lon="8.266105510167419"><ele>397.0</ele><time>2026-05-03T11:21:41Z</time></trkpt><trkpt lat="45.652786760136685" lon="8.266118896354635"><ele>397.0</ele><time>2026-05-03T11:21:42Z</time></trkpt><trkpt lat="45.652980473240476" lon="8.266170090010306"><ele>395.33333333333337</ele><time>2026-05-03T11:21:43Z</time></trkpt><trkpt lat="45.65317764586918" lon="8.266219431500094"><ele>393.66666666666663</ele><time>2026-05-03T11:21:44Z</time></trkpt><trkpt lat="45.653361838665155" lon="8.266258828533864"><ele>392.0</ele><time>2026-05-03T11:21:45Z</time></trkpt><trkpt lat="45.65351963973246" lon="8.266296312788263"><ele>391.0</ele><time>2026-05-03T11:21:46Z</time></trkpt><trkpt lat="45.6536513033819" lon="8.266329370000095"><ele>390.0</ele><time>2026-05-03T11:21:47Z</time></trkpt><trkpt lat="45.6537774419329" lon="8.266370266175386"><ele>389.0</ele><time>2026-05-03T11:21:48Z</time></trkpt><trkpt lat="45.65389980694872" lon="8.266420700306668"><ele>388.0</ele><time>2026-05-03T11:21:49Z</time></trkpt><trkpt lat="45.65401151555574" lon="8.266470865536794"><ele>390.5</ele><time>2026-05-03T11:21:50Z</time></trkpt><trkpt lat="45.654117391826915" lon="8.266527209970787"><ele>393.0</ele><time>2026-05-03T11:21:51Z</time></trkpt><trkpt lat="45.65422751917785" lon="8.26659060525342"><ele>395.5</ele><time>2026-05-03T11:21:52Z</time></trkpt><trkpt lat="45.65433315938183" lon="8.26665477686124"><ele>398.0</ele><time>2026-05-03T11:21:53Z</time></trkpt><trkpt lat="45.65443532712428" lon="8.266722383537541"><ele>396.5</ele><time>2026-05-03T11:21:54Z</time></trkpt><trkpt lat="45.65453522236126" lon="8.26678904433963"><ele>395.0</ele><time>2026-05-03T11:21:55Z</time></trkpt><trkpt lat="45.65464506957256" lon="8.266858330804144"><ele>393.5</ele><time>2026-05-03T11:21:56Z</time></trkpt><trkpt lat="45.65476275037453" lon="8.266931427554542"><ele>392.0</ele><time>2026-05-03T11:21:57Z</time></trkpt><trkpt lat="45.65487260551387" lon="8.267006536788402"><ele>392.0</ele><time>2026-05-03T11:21:58Z</time></trkpt><trkpt lat="45.65497708080086" lon="8.267080413617137"><ele>392.0</ele><time>2026-05-03T11:21:59Z</time></trkpt><trkpt lat="45.65508186633193" lon="8.267148930892198"><ele>392.0</ele><time>2026-05-03T11:22:00Z</time></trkpt><trkpt lat="45.655201396133364" lon="8.26723094140753"><ele>392.0</ele><time>2026-05-03T11:22:01Z</time></trkpt><trkpt lat="45.65531507724276" lon="8.267310605165084"><ele>394.0</ele><time>2026-05-03T11:22:02Z</time></trkpt><trkpt lat="45.65542821626091" lon="8.267386588889416"><ele>396.0</ele><time>2026-05-03T11:22:03Z</time></trkpt><trkpt lat="45.65553401013673" lon="8.267456993713038"><ele>398.0</ele><time>2026-05-03T11:22:04Z</time></trkpt><trkpt lat="45.65562480717621" lon="8.267545647455293"><ele>400.0</ele><time>2026-05-03T11:22:05Z</time></trkpt><trkpt lat="45.655705645095466" lon="8.26763377680027"><ele>400.0</ele><time>2026-05-03T11:22:06Z</time></trkpt><trkpt lat="45.655780826939775" lon="8.267720895764878"><ele>400.0</ele><time>2026-05-03T11:22:07Z</time></trkpt><trkpt lat="45.655872928331235" lon="8.267786079963159"><ele>400.0</ele><time>2026-05-03T11:22:08Z</time></trkpt><trkpt lat="45.65596947277915" lon="8.267830041330184"><ele>400.0</ele><time>2026-05-03T11:22:09Z</time></trkpt><trkpt lat="45.656064412422964" lon="8.267862775541278"><ele>400.0</ele><time>2026-05-03T11:22:10Z</time></trkpt><trkpt lat="45.65617123159329" lon="8.26789993841811"><ele>399.0</ele><time>2026-05-03T11:22:11Z</time></trkpt><trkpt lat="45.65628548291315" lon="8.267959065798994"><ele>398.0</ele><time>2026-05-03T11:22:12Z</time></trkpt><trkpt lat="45.65641086907437" lon="8.268044130181517"><ele>397.0</ele><time>2026-05-03T11:22:13Z</time></trkpt><trkpt lat="45.656541546084846" lon="8.268143154268216"><ele>396.0</ele><time>2026-05-03T11:22:14Z</time></trkpt><trkpt lat="45.656676861717905" lon="8.268232222597812"><ele>400.0</ele><time>2026-05-03T11:22:15Z</time></trkpt><trkpt lat="45.65683126521077" lon="8.268325420352861"><ele>404.0</ele><time>2026-05-03T11:22:16Z</time></trkpt><trkpt lat="45.656984077700166" lon="8.268392111445767"><ele>408.0</ele><time>2026-05-03T11:22:17Z</time></trkpt><trkpt lat="45.65714847062138" lon="8.26841624530795"><ele>408.0</ele><time>2026-05-03T11:22:18Z</time></trkpt><trkpt lat="45.65731372081873" lon="8.268409904882922"><ele>408.0</ele><time>2026-05-03T11:22:19Z</time></trkpt><trkpt lat="45.65748205073069" lon="8.268369224836439"><ele>408.0</ele><time>2026-05-03T11:22:20Z</time></trkpt><trkpt lat="45.65764252323419" lon="8.268301723932591"><ele>407.0</ele><time>2026-05-03T11:22:21Z</time></trkpt><trkpt lat="45.65781211113698" lon="8.268222660815315"><ele>406.0</ele><time>2026-05-03T11:22:22Z</time></trkpt><trkpt lat="45.657996263519784" lon="8.268135124600864"><ele>405.0</ele><time>2026-05-03T11:22:23Z</time></trkpt><trkpt lat="45.658201140240116" lon="8.268038925783797"><ele>405.0</ele><time>2026-05-03T11:22:24Z</time></trkpt><trkpt lat="45.6584050413741" lon="8.267942666724958"><ele>405.0</ele><time>2026-05-03T11:22:25Z</time></trkpt><trkpt lat="45.658609070053856" lon="8.267835183925099"><ele>405.0</ele><time>2026-05-03T11:22:26Z</time></trkpt><trkpt lat="45.658823795945274" lon="8.267696300885389"><ele>411.5</ele><time>2026-05-03T11:22:27Z</time></trkpt><trkpt lat="45.65904885030132" lon="8.267552605002368"><ele>418.0</ele><time>2026-05-03T11:22:28Z</time></trkpt><trkpt lat="45.65928627862344" lon="8.267394099732188"><ele>418.0</ele><time>2026-05-03T11:22:29Z</time></trkpt><trkpt lat="45.65953798557932" lon="8.26721136950414"><ele>418.0</ele><time>2026-05-03T11:22:30Z</time></trkpt><trkpt lat="45.659801459369646" lon="8.267032502064332"><ele>418.0</ele><time>2026-05-03T11:22:31Z</time></trkpt><trkpt lat="45.66004452792711" lon="8.266869978488199"><ele>418.0</ele><time>2026-05-03T11:22:32Z</time></trkpt><trkpt lat="45.66026731366013" lon="8.266720760033587"><ele>427.0</ele><time>2026-05-03T11:22:33Z</time></trkpt><trkpt lat="45.66047936562657" lon="8.266577995142768"><ele>436.0</ele><time>2026-05-03T11:22:34Z</time></trkpt><trkpt lat="45.66067693320386" lon="8.266445159166226"><ele>435.0</ele><time>2026-05-03T11:22:35Z</time></trkpt><trkpt lat="45.66085947227198" lon="8.266316393991179"><ele>434.0</ele><time>2026-05-03T11:22:36Z</time></trkpt><trkpt lat="45.66102899161442" lon="8.266197163694146"><ele>433.0</ele><time>2026-05-03T11:22:37Z</time></trkpt><trkpt lat="45.661204460446115" lon="8.266081294412741"><ele>433.0</ele><time>2026-05-03T11:22:38Z</time></trkpt><trkpt lat="45.661372941297024" lon="8.265970090718746"><ele>433.0</ele><time>2026-05-03T11:22:39Z</time></trkpt><trkpt lat="45.66154358202843" lon="8.26587020120486"><ele>433.0</ele><time>2026-05-03T11:22:40Z</time></trkpt><trkpt lat="45.66169870571301" lon="8.265776589239184"><ele>433.0</ele><time>2026-05-03T11:22:41Z</time></trkpt><trkpt lat="45.66185023100366" lon="8.265693645409232"><ele>433.0</ele><time>2026-05-03T11:22:42Z</time></trkpt><trkpt lat="45.66200789388545" lon="8.265598944303177"><ele>433.0</ele><time>2026-05-03T11:22:43Z</time></trkpt><trkpt lat="45.66215975754814" lon="8.265496808735165"><ele>433.33333333333337</ele><time>2026-05-03T11:22:44Z</time></trkpt><trkpt lat="45.662319030981706" lon="8.2654039517247"><ele>433.66666666666663</ele><time>2026-05-03T11:22:45Z</time></trkpt><trkpt lat="45.66246476081827" lon="8.265289829778379"><ele>434.0</ele><time>2026-05-03T11:22:46Z</time></trkpt><trkpt lat="45.66260998518" lon="8.265145555798549"><ele>434.0</ele><time>2026-05-03T11:22:47Z</time></trkpt><trkpt lat="45.662765714858615" lon="8.265023621916997"><ele>434.0</ele><time>2026-05-03T11:22:48Z</time></trkpt><trkpt lat="45.66291976904381" lon="8.264909394933955"><ele>434.0</ele><time>2026-05-03T11:22:49Z</time></trkpt><trkpt lat="45.663073291995694" lon="8.264785364727317"><ele>433.66666666666663</ele><time>2026-05-03T11:22:50Z</time></trkpt><trkpt lat="45.66322184660038" lon="8.26465545153337"><ele>433.33333333333337</ele><time>2026-05-03T11:22:51Z</time></trkpt><trkpt lat="45.663373251225174" lon="8.264527981470144"><ele>433.0</ele><time>2026-05-03T11:22:52Z</time></trkpt><trkpt lat="45.66351887838387" lon="8.264421705692063"><ele>438.33333333333337</ele><time>2026-05-03T11:22:53Z</time></trkpt><trkpt lat="45.66368030564241" lon="8.264364110772489"><ele>443.66666666666663</ele><time>2026-05-03T11:22:54Z</time></trkpt><trkpt lat="45.66384168298437" lon="8.26431459070383"><ele>449.0</ele><time>2026-05-03T11:22:55Z</time></trkpt><trkpt lat="45.664010085021864" lon="8.264272375020218"><ele>449.0</ele><time>2026-05-03T11:22:56Z</time></trkpt><trkpt lat="45.66417421455678" lon="8.264217235975714"><ele>449.0</ele><time>2026-05-03T11:22:56.999Z</time></trkpt><trkpt lat="45.66432377768735" lon="8.264166493042152"><ele>449.0</ele><time>2026-05-03T11:22:57.999Z</time></trkpt><trkpt lat="45.66443574273492" lon="8.264051838868392"><ele>452.75</ele><time>2026-05-03T11:22:58.999Z</time></trkpt><trkpt lat="45.66451858749275" lon="8.263879592175961"><ele>456.5</ele><time>2026-05-03T11:22:59.999Z</time></trkpt><trkpt lat="45.66456427546331" lon="8.263668044477814"><ele>460.25</ele><time>2026-05-03T11:23:00.999Z</time></trkpt><trkpt lat="45.66464638552994" lon="8.263513050329047"><ele>464.0</ele><time>2026-05-03T11:23:01.999Z</time></trkpt><trkpt lat="45.66475513675091" lon="8.263412014564315"><ele>464.0</ele><time>2026-05-03T11:23:02.999Z</time></trkpt><trkpt lat="45.66489641375198" lon="8.263329119232697"><ele>464.0</ele><time>2026-05-03T11:23:03.999Z</time></trkpt><trkpt lat="45.66506415828769" lon="8.263219146463456"><ele>464.0</ele><time>2026-05-03T11:23:04.999Z</time></trkpt><trkpt lat="45.665234431475014" lon="8.263071592025074"><ele>465.3333333333333</ele><time>2026-05-03T11:23:05.999Z</time></trkpt><trkpt lat="45.66538618765914" lon="8.262935160459362"><ele>466.66666666666663</ele><time>2026-05-03T11:23:06.999Z</time></trkpt><trkpt lat="45.6654936113326" lon="8.262743132294679"><ele>468.0</ele><time>2026-05-03T11:23:07.999Z</time></trkpt><trkpt lat="45.665576446930025" lon="8.262555953886068"><ele>468.0</ele><time>2026-05-03T11:23:08.999Z</time></trkpt><trkpt lat="45.665668233511106" lon="8.262419509721827"><ele>468.0</ele><time>2026-05-03T11:23:09.999Z</time></trkpt><trkpt lat="45.66577394476855" lon="8.26231535460384"><ele>468.0</ele><time>2026-05-03T11:23:10.999Z</time></trkpt><trkpt lat="45.665900373416626" lon="8.262212890811217"><ele>468.0</ele><time>2026-05-03T11:23:11.999Z</time></trkpt><trkpt lat="45.66604395012261" lon="8.262104283642426"><ele>469.5</ele><time>2026-05-03T11:23:12.999Z</time></trkpt><trkpt lat="45.66619652493409" lon="8.261987123015174"><ele>471.0</ele><time>2026-05-03T11:23:13.999Z</time></trkpt><trkpt lat="45.66677662790993" lon="8.26156234623327"><ele>471.0</ele><time>2026-05-03T11:23:17.999Z</time></trkpt><trkpt lat="45.6669279133663" lon="8.26146505655987"><ele>471.0</ele><time>2026-05-03T11:23:18.999Z</time></trkpt><trkpt lat="45.66707288582432" lon="8.26138262516383"><ele>471.0</ele><time>2026-05-03T11:23:19.999Z</time></trkpt><trkpt lat="45.667220085559556" lon="8.261308331680816"><ele>468.0</ele><time>2026-05-03T11:23:20.999Z</time></trkpt><trkpt lat="45.66737894195704" lon="8.261232218836229"><ele>465.0</ele><time>2026-05-03T11:23:21.999Z</time></trkpt><trkpt lat="45.66754552555184" lon="8.261146670720683"><ele>462.0</ele><time>2026-05-03T11:23:22.999Z</time></trkpt><trkpt lat="45.66770356066483" lon="8.261049496945278"><ele>461.33333333333337</ele><time>2026-05-03T11:23:23.999Z</time></trkpt><trkpt lat="45.667833415642214" lon="8.260914203572918"><ele>460.6666666666667</ele><time>2026-05-03T11:23:24.999Z</time></trkpt><trkpt lat="45.66797364960749" lon="8.260783988471012"><ele>460.0</ele><time>2026-05-03T11:23:25.999Z</time></trkpt><trkpt lat="45.668123386055626" lon="8.260671486080184"><ele>455.33333333333337</ele><time>2026-05-03T11:23:26.999Z</time></trkpt><trkpt lat="45.668256128717175" lon="8.260549567655888"><ele>450.66666666666663</ele><time>2026-05-03T11:23:27.999Z</time></trkpt><trkpt lat="45.66839146530298" lon="8.26042526682158"><ele>446.0</ele><time>2026-05-03T11:23:28.999Z</time></trkpt><trkpt lat="45.66851265715044" lon="8.26028697982123"><ele>446.25</ele><time>2026-05-03T11:23:29.999Z</time></trkpt><trkpt lat="45.66863494441794" lon="8.260201641724825"><ele>446.5</ele><time>2026-05-03T11:23:30.999Z</time></trkpt><trkpt lat="45.668718580819856" lon="8.260059123398808"><ele>446.75</ele><time>2026-05-03T11:23:31.999Z</time></trkpt><trkpt lat="45.66878662548857" lon="8.259907344487074"><ele>447.0</ele><time>2026-05-03T11:23:32.999Z</time></trkpt><trkpt lat="45.66882061943467" lon="8.259711475392185"><ele>447.0</ele><time>2026-05-03T11:23:33.999Z</time></trkpt><trkpt lat="45.66881939042909" lon="8.259491232814565"><ele>447.0</ele><time>2026-05-03T11:23:34.999Z</time></trkpt><trkpt lat="45.668803231365885" lon="8.259273587200473"><ele>447.0</ele><time>2026-05-03T11:23:35.999Z</time></trkpt><trkpt lat="45.66880584402864" lon="8.25907520166375"><ele>447.0</ele><time>2026-05-03T11:23:36.999Z</time></trkpt><trkpt lat="45.668838281816875" lon="8.258894187835384"><ele>443.25</ele><time>2026-05-03T11:23:38Z</time></trkpt><trkpt lat="45.668896175558615" lon="8.25871755188061"><ele>439.5</ele><time>2026-05-03T11:23:39Z</time></trkpt><trkpt lat="45.668984159204086" lon="8.258570600841232"><ele>435.75</ele><time>2026-05-03T11:23:40Z</time></trkpt><trkpt lat="45.669090300738475" lon="8.258425933990758"><ele>432.0</ele><time>2026-05-03T11:23:41Z</time></trkpt><trkpt lat="45.6692180840068" lon="8.258314323723866"><ele>432.0</ele><time>2026-05-03T11:23:42Z</time></trkpt><trkpt lat="45.669369405225666" lon="8.258250632913704"><ele>432.0</ele><time>2026-05-03T11:23:43Z</time></trkpt><trkpt lat="45.66953297311877" lon="8.258171310721716"><ele>432.0</ele><time>2026-05-03T11:23:44Z</time></trkpt><trkpt lat="45.66970691066909" lon="8.258128340416325"><ele>430.5</ele><time>2026-05-03T11:23:45Z</time></trkpt><trkpt lat="45.66986681602264" lon="8.258087195039659"><ele>429.0</ele><time>2026-05-03T11:23:46Z</time></trkpt><trkpt lat="45.67051580750407" lon="8.257642753340006"><ele>429.0</ele><time>2026-05-03T11:23:50Z</time></trkpt><trkpt lat="45.670662236324986" lon="8.257486246672405"><ele>429.0</ele><time>2026-05-03T11:23:51Z</time></trkpt><trkpt lat="45.67081378521052" lon="8.257326613979515"><ele>429.0</ele><time>2026-05-03T11:23:52Z</time></trkpt><trkpt lat="45.67096138506849" lon="8.257175011501753"><ele>425.0</ele><time>2026-05-03T11:23:53Z</time></trkpt><trkpt lat="45.67110901295857" lon="8.257031463186577"><ele>421.0</ele><time>2026-05-03T11:23:54Z</time></trkpt><trkpt lat="45.671251458035314" lon="8.256893807960962"><ele>417.0</ele><time>2026-05-03T11:23:55Z</time></trkpt><trkpt lat="45.67138920321772" lon="8.256758192953829"><ele>417.0</ele><time>2026-05-03T11:23:56Z</time></trkpt><trkpt lat="45.67153134975215" lon="8.256617008490995"><ele>417.0</ele><time>2026-05-03T11:23:57Z</time></trkpt><trkpt lat="45.67167343363743" lon="8.256469315816586"><ele>417.0</ele><time>2026-05-03T11:23:58Z</time></trkpt><trkpt lat="45.67181018746547" lon="8.25633249459292"><ele>418.0</ele><time>2026-05-03T11:23:59Z</time></trkpt><trkpt lat="45.6719510178335" lon="8.256195190630763"><ele>419.0</ele><time>2026-05-03T11:24:00Z</time></trkpt><trkpt lat="45.67208745725257" lon="8.256058956122132"><ele>420.0</ele><time>2026-05-03T11:24:01Z</time></trkpt><trkpt lat="45.6722284303405" lon="8.255913806097295"><ele>420.0</ele><time>2026-05-03T11:24:02Z</time></trkpt><trkpt lat="45.672366125658165" lon="8.255764641542926"><ele>420.0</ele><time>2026-05-03T11:24:03Z</time></trkpt><trkpt lat="45.67250475931415" lon="8.255620954118777"><ele>420.0</ele><time>2026-05-03T11:24:04Z</time></trkpt><trkpt lat="45.672634108730506" lon="8.255482252720029"><ele>416.66666666666663</ele><time>2026-05-03T11:24:05Z</time></trkpt><trkpt lat="45.67276388683236" lon="8.255353231220521"><ele>413.3333333333333</ele><time>2026-05-03T11:24:06Z</time></trkpt><trkpt lat="45.67288960752051" lon="8.255239307205835"><ele>410.0</ele><time>2026-05-03T11:24:07Z</time></trkpt><trkpt lat="45.67302338741967" lon="8.255142105002584"><ele>410.0</ele><time>2026-05-03T11:24:08Z</time></trkpt><trkpt lat="45.673156155836566" lon="8.25506394612467"><ele>410.0</ele><time>2026-05-03T11:24:09Z</time></trkpt><trkpt lat="45.673284411811075" lon="8.254980819143444"><ele>410.0</ele><time>2026-05-03T11:24:10Z</time></trkpt><trkpt lat="45.67342164387164" lon="8.254889789480465"><ele>410.0</ele><time>2026-05-03T11:24:11Z</time></trkpt><trkpt lat="45.67355867571059" lon="8.254799396192508"><ele>408.0</ele><time>2026-05-03T11:24:12Z</time></trkpt><trkpt lat="45.67370088093739" lon="8.25471493445475"><ele>406.0</ele><time>2026-05-03T11:24:13Z</time></trkpt><trkpt lat="45.67384441486187" lon="8.254624990723066"><ele>404.0</ele><time>2026-05-03T11:24:14Z</time></trkpt><trkpt lat="45.673988332075744" lon="8.254533998235608"><ele>404.0</ele><time>2026-05-03T11:24:15Z</time></trkpt><trkpt lat="45.67413766577587" lon="8.25444308939333"><ele>404.0</ele><time>2026-05-03T11:24:16Z</time></trkpt><trkpt lat="45.674296605062054" lon="8.254348142260458"><ele>404.0</ele><time>2026-05-03T11:24:17Z</time></trkpt><trkpt lat="45.67446747141319" lon="8.254251092879745"><ele>404.66666666666663</ele><time>2026-05-03T11:24:18Z</time></trkpt><trkpt lat="45.67464333772868" lon="8.254150409136352"><ele>405.33333333333337</ele><time>2026-05-03T11:24:19Z</time></trkpt><trkpt lat="45.67482597691928" lon="8.254050658614933"><ele>406.0</ele><time>2026-05-03T11:24:20Z</time></trkpt><trkpt lat="45.67501073423345" lon="8.25394358425242"><ele>406.0</ele><time>2026-05-03T11:24:21Z</time></trkpt><trkpt lat="45.6751944905276" lon="8.253842777982285"><ele>406.0</ele><time>2026-05-03T11:24:22Z</time></trkpt><trkpt lat="45.67535834732356" lon="8.253758826014952"><ele>406.0</ele><time>2026-05-03T11:24:23Z</time></trkpt><trkpt lat="45.67552112717176" lon="8.253673981932081"><ele>404.0</ele><time>2026-05-03T11:24:24Z</time></trkpt><trkpt lat="45.67567560954852" lon="8.253590960700988"><ele>402.0</ele><time>2026-05-03T11:24:25Z</time></trkpt><trkpt lat="45.67582052867007" lon="8.253519670696775"><ele>400.0</ele><time>2026-05-03T11:24:26Z</time></trkpt><trkpt lat="45.675959367674785" lon="8.253450181584018"><ele>400.0</ele><time>2026-05-03T11:24:27Z</time></trkpt><trkpt lat="45.676092064820395" lon="8.253386940169094"><ele>400.0</ele><time>2026-05-03T11:24:28Z</time></trkpt><trkpt lat="45.67623409171835" lon="8.253316133846017"><ele>400.0</ele><time>2026-05-03T11:24:29Z</time></trkpt><trkpt lat="45.676373861621364" lon="8.25323864745473"><ele>400.0</ele><time>2026-05-03T11:24:30Z</time></trkpt><trkpt lat="45.67652352099333" lon="8.253154712999338"><ele>399.0</ele><time>2026-05-03T11:24:31Z</time></trkpt><trkpt lat="45.676673928957115" lon="8.253066184355513"><ele>398.0</ele><time>2026-05-03T11:24:32Z</time></trkpt><trkpt lat="45.676827308135174" lon="8.252975650149375"><ele>397.0</ele><time>2026-05-03T11:24:33Z</time></trkpt><trkpt lat="45.67699012565149" lon="8.25288849838119"><ele>396.0</ele><time>2026-05-03T11:24:34Z</time></trkpt><trkpt lat="45.67715615721029" lon="8.252800776997336"><ele>395.0</ele><time>2026-05-03T11:24:35Z</time></trkpt><trkpt lat="45.677325984102545" lon="8.25270924783592"><ele>394.0</ele><time>2026-05-03T11:24:36Z</time></trkpt><trkpt lat="45.677501337682045" lon="8.252613468111862"><ele>394.0</ele><time>2026-05-03T11:24:37Z</time></trkpt><trkpt lat="45.67767747699039" lon="8.25251827576367"><ele>394.0</ele><time>2026-05-03T11:24:38Z</time></trkpt><trkpt lat="45.67785713218531" lon="8.25242278912488"><ele>394.0</ele><time>2026-05-03T11:24:39Z</time></trkpt><trkpt lat="45.6780370288539" lon="8.252331967654433"><ele>393.6666666666667</ele><time>2026-05-03T11:24:40Z</time></trkpt><trkpt lat="45.678202080206475" lon="8.252235149966566"><ele>393.33333333333337</ele><time>2026-05-03T11:24:41Z</time></trkpt><trkpt lat="45.67836267696056" lon="8.252156149687453"><ele>393.0</ele><time>2026-05-03T11:24:42Z</time></trkpt><trkpt lat="45.678524896302505" lon="8.252071225839629"><ele>390.66666666666663</ele><time>2026-05-03T11:24:43Z</time></trkpt><trkpt lat="45.678694187902764" lon="8.251999154206569"><ele>388.3333333333333</ele><time>2026-05-03T11:24:44Z</time></trkpt><trkpt lat="45.67886527593794" lon="8.251920389575979"><ele>386.0</ele><time>2026-05-03T11:24:45Z</time></trkpt><trkpt lat="45.67903383670829" lon="8.25184801216043"><ele>386.0</ele><time>2026-05-03T11:24:46Z</time></trkpt><trkpt lat="45.6791856692155" lon="8.251776931377313"><ele>386.0</ele><time>2026-05-03T11:24:47Z</time></trkpt><trkpt lat="45.679336533818606" lon="8.25171293200131"><ele>386.0</ele><time>2026-05-03T11:24:48Z</time></trkpt><trkpt lat="45.67949057554771" lon="8.251650439322372"><ele>385.66666666666663</ele><time>2026-05-03T11:24:49Z</time></trkpt><trkpt lat="45.67964919269283" lon="8.25158258450249"><ele>385.33333333333337</ele><time>2026-05-03T11:24:50Z</time></trkpt><trkpt lat="45.67980831675551" lon="8.251514914114395"><ele>385.0</ele><time>2026-05-03T11:24:51Z</time></trkpt><trkpt lat="45.6799574795353" lon="8.251439239131981"><ele>384.0</ele><time>2026-05-03T11:24:52Z</time></trkpt><trkpt lat="45.680089904330515" lon="8.251349632635419"><ele>383.0</ele><time>2026-05-03T11:24:52.999Z</time></trkpt><trkpt lat="45.680218769949015" lon="8.251245326854411"><ele>382.0</ele><time>2026-05-03T11:24:53.999Z</time></trkpt><trkpt lat="45.68034716212147" lon="8.251120271956292"><ele>382.0</ele><time>2026-05-03T11:24:54.999Z</time></trkpt><trkpt lat="45.68047108978448" lon="8.250978595504655"><ele>382.0</ele><time>2026-05-03T11:24:55.999Z</time></trkpt><trkpt lat="45.680583208933356" lon="8.250816143217767"><ele>382.0</ele><time>2026-05-03T11:24:56.999Z</time></trkpt><trkpt lat="45.68068606724373" lon="8.250636778644875"><ele>381.3333333333333</ele><time>2026-05-03T11:24:57.999Z</time></trkpt><trkpt lat="45.68078329422136" lon="8.250446852448883"><ele>380.6666666666667</ele><time>2026-05-03T11:24:58.999Z</time></trkpt><trkpt lat="45.680860652032585" lon="8.250236353960167"><ele>380.0</ele><time>2026-05-03T11:24:59.999Z</time></trkpt><trkpt lat="45.68091980273159" lon="8.250050800912279"><ele>380.0</ele><time>2026-05-03T11:25:00.999Z</time></trkpt><trkpt lat="45.6809713682976" lon="8.249862315009057"><ele>380.0</ele><time>2026-05-03T11:25:01.999Z</time></trkpt><trkpt lat="45.681012065835475" lon="8.249676450450838"><ele>380.0</ele><time>2026-05-03T11:25:02.999Z</time></trkpt><trkpt lat="45.68105483373503" lon="8.249511297991308"><ele>380.0</ele><time>2026-05-03T11:25:03.999Z</time></trkpt><trkpt lat="45.681092858808995" lon="8.249384964153995"><ele>379.6</ele><time>2026-05-03T11:25:04.999Z</time></trkpt><trkpt lat="45.681121211019644" lon="8.249291603039001"><ele>379.2</ele><time>2026-05-03T11:25:05.999Z</time></trkpt><trkpt lat="45.68116741591625" lon="8.24915824867884"><ele>378.79999999999995</ele><time>2026-05-03T11:25:07.999Z</time></trkpt><trkpt lat="45.6812498338365" lon="8.249100069735812"><ele>378.4</ele><time>2026-05-03T11:25:08.999Z</time></trkpt><trkpt lat="45.681389446974464" lon="8.249068077684614"><ele>378.0</ele><time>2026-05-03T11:25:10.999Z</time></trkpt><trkpt lat="45.68134883821537" lon="8.2488248256402"><ele>377.8333333333333</ele><time>2026-05-03T11:25:11.999Z</time></trkpt><trkpt lat="45.68129330873916" lon="8.248708076284139"><ele>377.6666666666667</ele><time>2026-05-03T11:25:12.999Z</time></trkpt><trkpt lat="45.68125795657509" lon="8.248599663594645"><ele>377.5</ele><time>2026-05-03T11:25:13.999Z</time></trkpt><trkpt lat="45.68126189682464" lon="8.248496852609057"><ele>377.33333333333337</ele><time>2026-05-03T11:25:14.999Z</time></trkpt><trkpt lat="45.681295468893794" lon="8.24838753296193"><ele>377.1666666666667</ele><time>2026-05-03T11:25:15.999Z</time></trkpt><trkpt lat="45.68134829186827" lon="8.248271477128492"><ele>377.0</ele><time>2026-05-03T11:25:16.999Z</time></trkpt><trkpt lat="45.68140529774818" lon="8.248164278243793"><ele>376.75</ele><time>2026-05-03T11:25:17.999Z</time></trkpt><trkpt lat="45.68149341986802" lon="8.248095140510324"><ele>376.5</ele><time>2026-05-03T11:25:18.999Z</time></trkpt><trkpt lat="45.68159086324277" lon="8.248011748092406"><ele>376.25</ele><time>2026-05-03T11:25:19.999Z</time></trkpt><trkpt lat="45.6816961780816" lon="8.24791631860812"><ele>376.0</ele><time>2026-05-03T11:25:20.999Z</time></trkpt><trkpt lat="45.68181319522874" lon="8.24782277599007"><ele>376.0</ele><time>2026-05-03T11:25:21.999Z</time></trkpt><trkpt lat="45.68192523213478" lon="8.247730842261685"><ele>376.0</ele><time>2026-05-03T11:25:22.999Z</time></trkpt><trkpt lat="45.682026970502676" lon="8.247643255260607"><ele>376.0</ele><time>2026-05-03T11:25:23.999Z</time></trkpt><trkpt lat="45.682131891800196" lon="8.247556370097858"><ele>376.0</ele><time>2026-05-03T11:25:24.999Z</time></trkpt><trkpt lat="45.68223251022854" lon="8.247474362662805"><ele>376.0</ele><time>2026-05-03T11:25:25.999Z</time></trkpt><trkpt lat="45.68231553266138" lon="8.247400325140273"><ele>376.0</ele><time>2026-05-03T11:25:26.999Z</time></trkpt><trkpt lat="45.682410285804906" lon="8.24731284332125"><ele>376.0</ele><time>2026-05-03T11:25:27.999Z</time></trkpt><trkpt lat="45.682514247065605" lon="8.247226923061133"><ele>376.0</ele><time>2026-05-03T11:25:28.999Z</time></trkpt><trkpt lat="45.68262417586166" lon="8.247128085076683"><ele>376.0</ele><time>2026-05-03T11:25:29.999Z</time></trkpt><trkpt lat="45.68273836488199" lon="8.247035267715084"><ele>376.0</ele><time>2026-05-03T11:25:30.999Z</time></trkpt><trkpt lat="45.68283147102994" lon="8.246948321941957"><ele>376.0</ele><time>2026-05-03T11:25:31.999Z</time></trkpt><trkpt lat="45.68292630707019" lon="8.246890519216882"><ele>376.0</ele><time>2026-05-03T11:25:32.999Z</time></trkpt><trkpt lat="45.683013230707004" lon="8.246843383446276"><ele>376.0</ele><time>2026-05-03T11:25:33.999Z</time></trkpt><trkpt lat="45.68309215588271" lon="8.246854444636533"><ele>379.5</ele><time>2026-05-03T11:25:34.999Z</time></trkpt><trkpt lat="45.68315989512066" lon="8.246942728155467"><ele>383.0</ele><time>2026-05-03T11:25:35.999Z</time></trkpt><trkpt lat="45.6832588758129" lon="8.247031293003776"><ele>386.5</ele><time>2026-05-03T11:25:36.999Z</time></trkpt><trkpt lat="45.68334986258052" lon="8.247145030082974"><ele>390.0</ele><time>2026-05-03T11:25:37.999Z</time></trkpt><trkpt lat="45.68346269961049" lon="8.247235268998116"><ele>390.0</ele><time>2026-05-03T11:25:38.999Z</time></trkpt><trkpt lat="45.683592390859566" lon="8.24729012508687"><ele>390.0</ele><time>2026-05-03T11:25:39.999Z</time></trkpt><trkpt lat="45.68373022235237" lon="8.24732466772565"><ele>390.0</ele><time>2026-05-03T11:25:40.999Z</time></trkpt><trkpt lat="45.683864816062545" lon="8.247377512492427"><ele>390.0</ele><time>2026-05-03T11:25:41.999Z</time></trkpt><trkpt lat="45.683986565789795" lon="8.24742235207923"><ele>388.5</ele><time>2026-05-03T11:25:42.999Z</time></trkpt><trkpt lat="45.684103602515826" lon="8.24745687493777"><ele>387.0</ele><time>2026-05-03T11:25:44Z</time></trkpt><trkpt lat="45.684216235191194" lon="8.247497021414558"><ele>385.5</ele><time>2026-05-03T11:25:45Z</time></trkpt><trkpt lat="45.68432262703402" lon="8.247538492323017"><ele>384.0</ele><time>2026-05-03T11:25:46Z</time></trkpt><trkpt lat="45.68442619924285" lon="8.247576008814967"><ele>383.6</ele><time>2026-05-03T11:25:47Z</time></trkpt><trkpt lat="45.6845048096165" lon="8.247611405544621"><ele>383.2</ele><time>2026-05-03T11:25:48Z</time></trkpt><trkpt lat="45.6845668146091" lon="8.247664968054425"><ele>382.8</ele><time>2026-05-03T11:25:50Z</time></trkpt><trkpt lat="45.6846409763501" lon="8.247713327457616"><ele>382.40000000000003</ele><time>2026-05-03T11:25:53Z</time></trkpt><trkpt lat="45.68474437641804" lon="8.24754158029177"><ele>382.0</ele><time>2026-05-03T11:25:54Z</time></trkpt><trkpt lat="45.68482272121138" lon="8.247465853505954"><ele>382.0</ele><time>2026-05-03T11:25:55Z</time></trkpt><trkpt lat="45.68490094834766" lon="8.247392476790045"><ele>382.0</ele><time>2026-05-03T11:25:56Z</time></trkpt><trkpt lat="45.68498274568948" lon="8.247314236858331"><ele>382.0</ele><time>2026-05-03T11:25:57Z</time></trkpt><trkpt lat="45.68506426367311" lon="8.247235309282408"><ele>382.0</ele><time>2026-05-03T11:25:58Z</time></trkpt><trkpt lat="45.68512888334188" lon="8.247172743045931"><ele>382.0</ele><time>2026-05-03T11:25:59Z</time></trkpt><trkpt lat="45.68518673808864" lon="8.24711672675661"><ele>382.0</ele><time>2026-05-03T11:26:00Z</time></trkpt><trkpt lat="45.68523954007207" lon="8.2470656027777"><ele>382.5</ele><time>2026-05-03T11:26:01Z</time></trkpt><trkpt lat="45.68529219301079" lon="8.247015206649255"><ele>383.0</ele><time>2026-05-03T11:26:02Z</time></trkpt><trkpt lat="45.68535662689567" lon="8.246953730077037"><ele>383.5</ele><time>2026-05-03T11:26:03Z</time></trkpt><trkpt lat="45.685415575625264" lon="8.246872393359041"><ele>384.0</ele><time>2026-05-03T11:26:04Z</time></trkpt><trkpt lat="45.68550820812342" lon="8.246811072516909"><ele>384.50000000000006</ele><time>2026-05-03T11:26:06Z</time></trkpt><trkpt lat="45.68559010784911" lon="8.246790828471399"><ele>385.0</ele><time>2026-05-03T11:26:09Z</time></trkpt><trkpt lat="45.68564813607499" lon="8.246748071296208"><ele>385.0</ele><time>2026-05-03T11:26:12Z</time></trkpt><trkpt lat="45.68558072266735" lon="8.246639765237815"><ele>385.0</ele><time>2026-05-03T11:26:39Z</time></trkpt><trkpt lat="45.685516637056416" lon="8.24645993761657"><ele>385.0</ele><time>2026-05-03T11:26:41Z</time></trkpt><trkpt lat="45.68547751147722" lon="8.246303236422085"><ele>385.0</ele><time>2026-05-03T11:26:42Z</time></trkpt><trkpt lat="45.68543555833256" lon="8.246135669373988"><ele>385.2</ele><time>2026-05-03T11:26:43Z</time></trkpt><trkpt lat="45.68539863053032" lon="8.245988390620745"><ele>385.4</ele><time>2026-05-03T11:26:44Z</time></trkpt><trkpt lat="45.68535708634205" lon="8.24589150507214"><ele>385.6</ele><time>2026-05-03T11:26:45Z</time></trkpt><trkpt lat="45.6853512992422" lon="8.245799619771345"><ele>385.8</ele><time>2026-05-03T11:26:46Z</time></trkpt><trkpt lat="45.68532782714366" lon="8.245706006264893"><ele>386.0</ele><time>2026-05-03T11:26:49Z</time></trkpt><trkpt lat="45.685200752834064" lon="8.245792777413481"><ele>387.0</ele><time>2026-05-03T11:28:43Z</time></trkpt><trkpt lat="45.685287874269385" lon="8.24573708049724"><ele>386.0</ele><time>2026-05-03T11:28:51Z</time></trkpt><trkpt lat="45.68526829138065" lon="8.24588201582227"><ele>386.0</ele><time>2026-05-03T11:28:57Z</time></trkpt></trkseg></trk></gpx>